<?xml version="1.0" encoding="UTF-8" standalone="no" ?>
<gpx xmlns="http://www.topografix.com/GPX/1/1" xmlns:xsi="http://www.w3.org/2001/XMLSchema-instance" xsi:schemaLocation="http://www.topografix.com/GPX/1/1 http://www.topografix.com/GPX/1/1/gpx.xsd" version="1.1" creator="VisuGPX - https://www.visugpx.com">
  <metadata>
    <name>Rando VTT Les châteaux Chauvigny 2024</name>
    <desc><![CDATA[Belle rando!]]></desc>
  </metadata>
  <trk>
    <name><![CDATA[Rando VTT Les châteaux Chauvigny 2024_1]]></name>
    <trkseg>
      <trkpt lat="46.5705" lon="0.64888">
        <ele>101.6</ele>
        <time>2024-08-24T11:54:42Z</time>
      </trkpt>
      <trkpt lat="46.57056" lon="0.6489">
        <ele>100.8</ele>
        <time>2024-08-24T11:54:50Z</time>
      </trkpt>
      <trkpt lat="46.57077" lon="0.64899">
        <ele>100.6</ele>
        <time>2024-08-24T11:54:54Z</time>
      </trkpt>
      <trkpt lat="46.57083" lon="0.64902">
        <ele>100.2</ele>
        <time>2024-08-24T11:54:55Z</time>
      </trkpt>
      <trkpt lat="46.57106" lon="0.64908">
        <ele>100</ele>
        <time>2024-08-24T11:55:00Z</time>
      </trkpt>
      <trkpt lat="46.5711" lon="0.6491">
        <ele>100</ele>
        <time>2024-08-24T11:55:01Z</time>
      </trkpt>
      <trkpt lat="46.57139" lon="0.64922">
        <ele>99.4</ele>
        <time>2024-08-24T11:55:07Z</time>
      </trkpt>
      <trkpt lat="46.57148" lon="0.64926">
        <ele>99</ele>
        <time>2024-08-24T11:55:09Z</time>
      </trkpt>
      <trkpt lat="46.5716" lon="0.64929">
        <ele>98.8</ele>
        <time>2024-08-24T11:55:12Z</time>
      </trkpt>
      <trkpt lat="46.57182" lon="0.64934">
        <ele>99.2</ele>
        <time>2024-08-24T11:55:18Z</time>
      </trkpt>
      <trkpt lat="46.57199" lon="0.64942">
        <ele>98.8</ele>
        <time>2024-08-24T11:55:23Z</time>
      </trkpt>
      <trkpt lat="46.57205" lon="0.64943">
        <ele>98.6</ele>
        <time>2024-08-24T11:55:24Z</time>
      </trkpt>
      <trkpt lat="46.57214" lon="0.64946">
        <ele>98.4</ele>
        <time>2024-08-24T11:55:26Z</time>
      </trkpt>
      <trkpt lat="46.57222" lon="0.64948">
        <ele>98.6</ele>
        <time>2024-08-24T11:55:28Z</time>
      </trkpt>
      <trkpt lat="46.57225" lon="0.64951">
        <ele>98.4</ele>
        <time>2024-08-24T11:55:29Z</time>
      </trkpt>
      <trkpt lat="46.57227" lon="0.64959">
        <ele>98.4</ele>
        <time>2024-08-24T11:55:31Z</time>
      </trkpt>
      <trkpt lat="46.57227" lon="0.6497">
        <ele>97.8</ele>
        <time>2024-08-24T11:55:33Z</time>
      </trkpt>
      <trkpt lat="46.57225" lon="0.64984">
        <ele>96.8</ele>
        <time>2024-08-24T11:55:35Z</time>
      </trkpt>
      <trkpt lat="46.57222" lon="0.64996">
        <ele>95.4</ele>
        <time>2024-08-24T11:55:37Z</time>
      </trkpt>
      <trkpt lat="46.57223" lon="0.65006">
        <ele>94.6</ele>
        <time>2024-08-24T11:55:39Z</time>
      </trkpt>
      <trkpt lat="46.57224" lon="0.6501">
        <ele>94.2</ele>
        <time>2024-08-24T11:55:40Z</time>
      </trkpt>
      <trkpt lat="46.57226" lon="0.65012">
        <ele>94</ele>
        <time>2024-08-24T11:55:41Z</time>
      </trkpt>
      <trkpt lat="46.57231" lon="0.65016">
        <ele>94</ele>
        <time>2024-08-24T11:55:43Z</time>
      </trkpt>
      <trkpt lat="46.57255" lon="0.65029">
        <ele>95.2</ele>
        <time>2024-08-24T11:55:51Z</time>
      </trkpt>
      <trkpt lat="46.57272" lon="0.65034">
        <ele>96.6</ele>
        <time>2024-08-24T11:55:56Z</time>
      </trkpt>
      <trkpt lat="46.57285" lon="0.65035">
        <ele>97.4</ele>
        <time>2024-08-24T11:56:00Z</time>
      </trkpt>
      <trkpt lat="46.57289" lon="0.65035">
        <ele>97.6</ele>
        <time>2024-08-24T11:56:01Z</time>
      </trkpt>
      <trkpt lat="46.57297" lon="0.65039">
        <ele>98.2</ele>
        <time>2024-08-24T11:56:04Z</time>
      </trkpt>
      <trkpt lat="46.57298" lon="0.65043">
        <ele>98.4</ele>
        <time>2024-08-24T11:56:05Z</time>
      </trkpt>
      <trkpt lat="46.57297" lon="0.65056">
        <ele>98.4</ele>
        <time>2024-08-24T11:56:07Z</time>
      </trkpt>
      <trkpt lat="46.57296" lon="0.65063">
        <ele>98.2</ele>
        <time>2024-08-24T11:56:08Z</time>
      </trkpt>
      <trkpt lat="46.57294" lon="0.65088">
        <ele>97.2</ele>
        <time>2024-08-24T11:56:11Z</time>
      </trkpt>
      <trkpt lat="46.57296" lon="0.65103">
        <ele>96.8</ele>
        <time>2024-08-24T11:56:13Z</time>
      </trkpt>
      <trkpt lat="46.57299" lon="0.65109">
        <ele>96.2</ele>
        <time>2024-08-24T11:56:14Z</time>
      </trkpt>
      <trkpt lat="46.57304" lon="0.65113">
        <ele>95.8</ele>
        <time>2024-08-24T11:56:15Z</time>
      </trkpt>
      <trkpt lat="46.57309" lon="0.65117">
        <ele>95.4</ele>
        <time>2024-08-24T11:56:16Z</time>
      </trkpt>
      <trkpt lat="46.57315" lon="0.65119">
        <ele>95.4</ele>
        <time>2024-08-24T11:56:17Z</time>
      </trkpt>
      <trkpt lat="46.57327" lon="0.65124">
        <ele>95.2</ele>
        <time>2024-08-24T11:56:19Z</time>
      </trkpt>
      <trkpt lat="46.57338" lon="0.6513">
        <ele>94.6</ele>
        <time>2024-08-24T11:56:21Z</time>
      </trkpt>
      <trkpt lat="46.57349" lon="0.65139">
        <ele>94.2</ele>
        <time>2024-08-24T11:56:23Z</time>
      </trkpt>
      <trkpt lat="46.57358" lon="0.65151">
        <ele>94</ele>
        <time>2024-08-24T11:56:25Z</time>
      </trkpt>
      <trkpt lat="46.57363" lon="0.65157">
        <ele>94</ele>
        <time>2024-08-24T11:56:26Z</time>
      </trkpt>
      <trkpt lat="46.57401" lon="0.65216">
        <ele>93.4</ele>
        <time>2024-08-24T11:56:35Z</time>
      </trkpt>
      <trkpt lat="46.57435" lon="0.65264">
        <ele>93.2</ele>
        <time>2024-08-24T11:56:43Z</time>
      </trkpt>
      <trkpt lat="46.57454" lon="0.65286">
        <ele>93</ele>
        <time>2024-08-24T11:56:47Z</time>
      </trkpt>
      <trkpt lat="46.57464" lon="0.653">
        <ele>92.8</ele>
        <time>2024-08-24T11:56:49Z</time>
      </trkpt>
      <trkpt lat="46.57474" lon="0.65315">
        <ele>91.8</ele>
        <time>2024-08-24T11:56:51Z</time>
      </trkpt>
      <trkpt lat="46.57493" lon="0.65352">
        <ele>90.2</ele>
        <time>2024-08-24T11:56:55Z</time>
      </trkpt>
      <trkpt lat="46.5751" lon="0.65381">
        <ele>89</ele>
        <time>2024-08-24T11:56:58Z</time>
      </trkpt>
      <trkpt lat="46.57525" lon="0.65397">
        <ele>88.4</ele>
        <time>2024-08-24T11:57:00Z</time>
      </trkpt>
      <trkpt lat="46.57533" lon="0.65403">
        <ele>87.6</ele>
        <time>2024-08-24T11:57:01Z</time>
      </trkpt>
      <trkpt lat="46.57541" lon="0.65407">
        <ele>87.2</ele>
        <time>2024-08-24T11:57:02Z</time>
      </trkpt>
      <trkpt lat="46.57558" lon="0.65417">
        <ele>86.6</ele>
        <time>2024-08-24T11:57:04Z</time>
      </trkpt>
      <trkpt lat="46.57587" lon="0.65439">
        <ele>86.4</ele>
        <time>2024-08-24T11:57:08Z</time>
      </trkpt>
      <trkpt lat="46.57617" lon="0.65473">
        <ele>87.2</ele>
        <time>2024-08-24T11:57:14Z</time>
      </trkpt>
      <trkpt lat="46.57621" lon="0.65478">
        <ele>87.6</ele>
        <time>2024-08-24T11:57:15Z</time>
      </trkpt>
      <trkpt lat="46.57633" lon="0.65491">
        <ele>88.6</ele>
        <time>2024-08-24T11:57:18Z</time>
      </trkpt>
      <trkpt lat="46.5764" lon="0.655">
        <ele>89.6</ele>
        <time>2024-08-24T11:57:20Z</time>
      </trkpt>
      <trkpt lat="46.57643" lon="0.65505">
        <ele>90</ele>
        <time>2024-08-24T11:57:21Z</time>
      </trkpt>
      <trkpt lat="46.57649" lon="0.65513">
        <ele>91</ele>
        <time>2024-08-24T11:57:23Z</time>
      </trkpt>
      <trkpt lat="46.57656" lon="0.6552">
        <ele>91.6</ele>
        <time>2024-08-24T11:57:25Z</time>
      </trkpt>
      <trkpt lat="46.5766" lon="0.65524">
        <ele>91.8</ele>
        <time>2024-08-24T11:57:26Z</time>
      </trkpt>
      <trkpt lat="46.57665" lon="0.65527">
        <ele>92.4</ele>
        <time>2024-08-24T11:57:27Z</time>
      </trkpt>
      <trkpt lat="46.57686" lon="0.65542">
        <ele>93.4</ele>
        <time>2024-08-24T11:57:32Z</time>
      </trkpt>
      <trkpt lat="46.57694" lon="0.65549">
        <ele>94.4</ele>
        <time>2024-08-24T11:57:34Z</time>
      </trkpt>
      <trkpt lat="46.57704" lon="0.65561">
        <ele>95.6</ele>
        <time>2024-08-24T11:57:37Z</time>
      </trkpt>
      <trkpt lat="46.57715" lon="0.65572">
        <ele>97</ele>
        <time>2024-08-24T11:57:40Z</time>
      </trkpt>
      <trkpt lat="46.57721" lon="0.65578">
        <ele>97.6</ele>
        <time>2024-08-24T11:57:42Z</time>
      </trkpt>
      <trkpt lat="46.57727" lon="0.65583">
        <ele>98.2</ele>
        <time>2024-08-24T11:57:44Z</time>
      </trkpt>
      <trkpt lat="46.57735" lon="0.65591">
        <ele>98.6</ele>
        <time>2024-08-24T11:57:47Z</time>
      </trkpt>
      <trkpt lat="46.57743" lon="0.65598">
        <ele>99.2</ele>
        <time>2024-08-24T11:57:50Z</time>
      </trkpt>
      <trkpt lat="46.5775" lon="0.65605">
        <ele>99.6</ele>
        <time>2024-08-24T11:57:53Z</time>
      </trkpt>
      <trkpt lat="46.57759" lon="0.65612">
        <ele>100.2</ele>
        <time>2024-08-24T11:57:56Z</time>
      </trkpt>
      <trkpt lat="46.57769" lon="0.65622">
        <ele>101.2</ele>
        <time>2024-08-24T11:58:00Z</time>
      </trkpt>
      <trkpt lat="46.57772" lon="0.65624">
        <ele>101.4</ele>
        <time>2024-08-24T11:58:01Z</time>
      </trkpt>
      <trkpt lat="46.57779" lon="0.65635">
        <ele>102.2</ele>
        <time>2024-08-24T11:58:06Z</time>
      </trkpt>
      <trkpt lat="46.57781" lon="0.65638">
        <ele>102.4</ele>
        <time>2024-08-24T11:58:07Z</time>
      </trkpt>
      <trkpt lat="46.57783" lon="0.65641">
        <ele>102.6</ele>
        <time>2024-08-24T11:58:08Z</time>
      </trkpt>
      <trkpt lat="46.57785" lon="0.6565">
        <ele>103.8</ele>
        <time>2024-08-24T11:58:11Z</time>
      </trkpt>
      <trkpt lat="46.57782" lon="0.65664">
        <ele>105.2</ele>
        <time>2024-08-24T11:58:15Z</time>
      </trkpt>
      <trkpt lat="46.57781" lon="0.65676">
        <ele>106.4</ele>
        <time>2024-08-24T11:58:19Z</time>
      </trkpt>
      <trkpt lat="46.57781" lon="0.65679">
        <ele>106.6</ele>
        <time>2024-08-24T11:58:20Z</time>
      </trkpt>
      <trkpt lat="46.57778" lon="0.65694">
        <ele>107.6</ele>
        <time>2024-08-24T11:58:25Z</time>
      </trkpt>
      <trkpt lat="46.57775" lon="0.65708">
        <ele>108.6</ele>
        <time>2024-08-24T11:58:30Z</time>
      </trkpt>
      <trkpt lat="46.57774" lon="0.6571">
        <ele>109</ele>
        <time>2024-08-24T11:58:31Z</time>
      </trkpt>
      <trkpt lat="46.57772" lon="0.65722">
        <ele>110.2</ele>
        <time>2024-08-24T11:58:35Z</time>
      </trkpt>
      <trkpt lat="46.57768" lon="0.65735">
        <ele>110.8</ele>
        <time>2024-08-24T11:58:40Z</time>
      </trkpt>
      <trkpt lat="46.57766" lon="0.65744">
        <ele>111.2</ele>
        <time>2024-08-24T11:58:43Z</time>
      </trkpt>
      <trkpt lat="46.57763" lon="0.65755">
        <ele>112.6</ele>
        <time>2024-08-24T11:58:47Z</time>
      </trkpt>
      <trkpt lat="46.5776" lon="0.65763">
        <ele>113.8</ele>
        <time>2024-08-24T11:58:50Z</time>
      </trkpt>
      <trkpt lat="46.57754" lon="0.65785">
        <ele>114.8</ele>
        <time>2024-08-24T11:58:57Z</time>
      </trkpt>
      <trkpt lat="46.57753" lon="0.65792">
        <ele>115.2</ele>
        <time>2024-08-24T11:58:59Z</time>
      </trkpt>
      <trkpt lat="46.5775" lon="0.65805">
        <ele>116</ele>
        <time>2024-08-24T11:59:03Z</time>
      </trkpt>
      <trkpt lat="46.57746" lon="0.65818">
        <ele>117.2</ele>
        <time>2024-08-24T11:59:07Z</time>
      </trkpt>
      <trkpt lat="46.57745" lon="0.65821">
        <ele>117.4</ele>
        <time>2024-08-24T11:59:08Z</time>
      </trkpt>
      <trkpt lat="46.57736" lon="0.65858">
        <ele>117.4</ele>
        <time>2024-08-24T11:59:17Z</time>
      </trkpt>
      <trkpt lat="46.57726" lon="0.65895">
        <ele>117.8</ele>
        <time>2024-08-24T11:59:25Z</time>
      </trkpt>
      <trkpt lat="46.57715" lon="0.65934">
        <ele>117.6</ele>
        <time>2024-08-24T11:59:32Z</time>
      </trkpt>
      <trkpt lat="46.57704" lon="0.65975">
        <ele>117.4</ele>
        <time>2024-08-24T11:59:38Z</time>
      </trkpt>
      <trkpt lat="46.57691" lon="0.66021">
        <ele>116</ele>
        <time>2024-08-24T11:59:45Z</time>
      </trkpt>
      <trkpt lat="46.57689" lon="0.66028">
        <ele>115.8</ele>
        <time>2024-08-24T11:59:46Z</time>
      </trkpt>
      <trkpt lat="46.57686" lon="0.6604">
        <ele>115.6</ele>
        <time>2024-08-24T11:59:48Z</time>
      </trkpt>
      <trkpt lat="46.57686" lon="0.66053">
        <ele>115.2</ele>
        <time>2024-08-24T11:59:50Z</time>
      </trkpt>
      <trkpt lat="46.57688" lon="0.66058">
        <ele>115</ele>
        <time>2024-08-24T11:59:51Z</time>
      </trkpt>
      <trkpt lat="46.57691" lon="0.66063">
        <ele>114.8</ele>
        <time>2024-08-24T11:59:52Z</time>
      </trkpt>
      <trkpt lat="46.57701" lon="0.66072">
        <ele>114.4</ele>
        <time>2024-08-24T11:59:55Z</time>
      </trkpt>
      <trkpt lat="46.57706" lon="0.66081">
        <ele>114</ele>
        <time>2024-08-24T11:59:57Z</time>
      </trkpt>
      <trkpt lat="46.57706" lon="0.66086">
        <ele>113.8</ele>
        <time>2024-08-24T11:59:58Z</time>
      </trkpt>
      <trkpt lat="46.57705" lon="0.6609">
        <ele>113.8</ele>
        <time>2024-08-24T11:59:59Z</time>
      </trkpt>
      <trkpt lat="46.577" lon="0.66108">
        <ele>112.6</ele>
        <time>2024-08-24T12:00:02Z</time>
      </trkpt>
      <trkpt lat="46.57694" lon="0.6613">
        <ele>111.4</ele>
        <time>2024-08-24T12:00:05Z</time>
      </trkpt>
      <trkpt lat="46.57686" lon="0.66157">
        <ele>110</ele>
        <time>2024-08-24T12:00:08Z</time>
      </trkpt>
      <trkpt lat="46.57684" lon="0.66166">
        <ele>109.2</ele>
        <time>2024-08-24T12:00:09Z</time>
      </trkpt>
      <trkpt lat="46.57683" lon="0.66175">
        <ele>107.6</ele>
        <time>2024-08-24T12:00:10Z</time>
      </trkpt>
      <trkpt lat="46.57682" lon="0.66183">
        <ele>106.2</ele>
        <time>2024-08-24T12:00:11Z</time>
      </trkpt>
      <trkpt lat="46.5768" lon="0.6619">
        <ele>105.2</ele>
        <time>2024-08-24T12:00:12Z</time>
      </trkpt>
      <trkpt lat="46.57679" lon="0.66195">
        <ele>104</ele>
        <time>2024-08-24T12:00:13Z</time>
      </trkpt>
      <trkpt lat="46.57677" lon="0.66198">
        <ele>103.4</ele>
        <time>2024-08-24T12:00:14Z</time>
      </trkpt>
      <trkpt lat="46.57675" lon="0.662">
        <ele>103</ele>
        <time>2024-08-24T12:00:15Z</time>
      </trkpt>
      <trkpt lat="46.57673" lon="0.662">
        <ele>102.6</ele>
        <time>2024-08-24T12:00:16Z</time>
      </trkpt>
      <trkpt lat="46.57668" lon="0.66203">
        <ele>101.6</ele>
        <time>2024-08-24T12:00:18Z</time>
      </trkpt>
      <trkpt lat="46.57662" lon="0.66207">
        <ele>100.6</ele>
        <time>2024-08-24T12:00:20Z</time>
      </trkpt>
      <trkpt lat="46.57658" lon="0.66206">
        <ele>99.8</ele>
        <time>2024-08-24T12:00:21Z</time>
      </trkpt>
      <trkpt lat="46.5764" lon="0.66206">
        <ele>97.8</ele>
        <time>2024-08-24T12:00:24Z</time>
      </trkpt>
      <trkpt lat="46.57634" lon="0.66207">
        <ele>97</ele>
        <time>2024-08-24T12:00:25Z</time>
      </trkpt>
      <trkpt lat="46.57629" lon="0.6621">
        <ele>94.2</ele>
        <time>2024-08-24T12:00:26Z</time>
      </trkpt>
      <trkpt lat="46.57622" lon="0.6622">
        <ele>93</ele>
        <time>2024-08-24T12:00:28Z</time>
      </trkpt>
      <trkpt lat="46.5762" lon="0.66226">
        <ele>92.2</ele>
        <time>2024-08-24T12:00:29Z</time>
      </trkpt>
      <trkpt lat="46.57618" lon="0.6623">
        <ele>91.4</ele>
        <time>2024-08-24T12:00:30Z</time>
      </trkpt>
      <trkpt lat="46.57617" lon="0.66234">
        <ele>90.8</ele>
        <time>2024-08-24T12:00:31Z</time>
      </trkpt>
      <trkpt lat="46.57616" lon="0.66239">
        <ele>90.4</ele>
        <time>2024-08-24T12:00:32Z</time>
      </trkpt>
      <trkpt lat="46.57616" lon="0.66243">
        <ele>89</ele>
        <time>2024-08-24T12:00:33Z</time>
      </trkpt>
      <trkpt lat="46.57617" lon="0.66252">
        <ele>87.2</ele>
        <time>2024-08-24T12:00:35Z</time>
      </trkpt>
      <trkpt lat="46.57619" lon="0.66262">
        <ele>85.6</ele>
        <time>2024-08-24T12:00:37Z</time>
      </trkpt>
      <trkpt lat="46.5762" lon="0.66267">
        <ele>84.4</ele>
        <time>2024-08-24T12:00:38Z</time>
      </trkpt>
      <trkpt lat="46.57621" lon="0.66279">
        <ele>83.4</ele>
        <time>2024-08-24T12:00:40Z</time>
      </trkpt>
      <trkpt lat="46.57621" lon="0.66285">
        <ele>83.2</ele>
        <time>2024-08-24T12:00:41Z</time>
      </trkpt>
      <trkpt lat="46.57619" lon="0.66295">
        <ele>84.8</ele>
        <time>2024-08-24T12:00:43Z</time>
      </trkpt>
      <trkpt lat="46.5762" lon="0.66301">
        <ele>86.2</ele>
        <time>2024-08-24T12:00:45Z</time>
      </trkpt>
      <trkpt lat="46.57622" lon="0.6631">
        <ele>87.2</ele>
        <time>2024-08-24T12:00:48Z</time>
      </trkpt>
      <trkpt lat="46.57623" lon="0.66313">
        <ele>87.4</ele>
        <time>2024-08-24T12:00:49Z</time>
      </trkpt>
      <trkpt lat="46.57629" lon="0.66323">
        <ele>88.4</ele>
        <time>2024-08-24T12:00:52Z</time>
      </trkpt>
      <trkpt lat="46.5763" lon="0.66331">
        <ele>89.8</ele>
        <time>2024-08-24T12:00:55Z</time>
      </trkpt>
      <trkpt lat="46.57631" lon="0.66333">
        <ele>90</ele>
        <time>2024-08-24T12:00:56Z</time>
      </trkpt>
      <trkpt lat="46.57631" lon="0.66345">
        <ele>91</ele>
        <time>2024-08-24T12:01:00Z</time>
      </trkpt>
      <trkpt lat="46.57634" lon="0.66354">
        <ele>92.2</ele>
        <time>2024-08-24T12:01:04Z</time>
      </trkpt>
      <trkpt lat="46.57637" lon="0.66362">
        <ele>93</ele>
        <time>2024-08-24T12:01:07Z</time>
      </trkpt>
      <trkpt lat="46.57637" lon="0.66372">
        <ele>93.2</ele>
        <time>2024-08-24T12:01:10Z</time>
      </trkpt>
      <trkpt lat="46.57633" lon="0.66387">
        <ele>93.2</ele>
        <time>2024-08-24T12:01:15Z</time>
      </trkpt>
      <trkpt lat="46.57632" lon="0.66389">
        <ele>93.2</ele>
        <time>2024-08-24T12:01:16Z</time>
      </trkpt>
      <trkpt lat="46.57628" lon="0.66397">
        <ele>92.2</ele>
        <time>2024-08-24T12:01:19Z</time>
      </trkpt>
      <trkpt lat="46.57627" lon="0.66402">
        <ele>91.8</ele>
        <time>2024-08-24T12:01:21Z</time>
      </trkpt>
      <trkpt lat="46.57627" lon="0.66404">
        <ele>91</ele>
        <time>2024-08-24T12:01:22Z</time>
      </trkpt>
      <trkpt lat="46.57628" lon="0.66409">
        <ele>90.4</ele>
        <time>2024-08-24T12:01:24Z</time>
      </trkpt>
      <trkpt lat="46.57633" lon="0.66431">
        <ele>90</ele>
        <time>2024-08-24T12:01:29Z</time>
      </trkpt>
      <trkpt lat="46.57634" lon="0.66437">
        <ele>89.8</ele>
        <time>2024-08-24T12:01:30Z</time>
      </trkpt>
      <trkpt lat="46.57639" lon="0.66445">
        <ele>89.8</ele>
        <time>2024-08-24T12:01:32Z</time>
      </trkpt>
      <trkpt lat="46.57642" lon="0.66447">
        <ele>89.8</ele>
        <time>2024-08-24T12:01:33Z</time>
      </trkpt>
      <trkpt lat="46.57647" lon="0.66457">
        <ele>90.2</ele>
        <time>2024-08-24T12:01:35Z</time>
      </trkpt>
      <trkpt lat="46.57653" lon="0.66466">
        <ele>90.4</ele>
        <time>2024-08-24T12:01:37Z</time>
      </trkpt>
      <trkpt lat="46.57659" lon="0.66471">
        <ele>90.6</ele>
        <time>2024-08-24T12:01:39Z</time>
      </trkpt>
      <trkpt lat="46.57664" lon="0.66479">
        <ele>90.6</ele>
        <time>2024-08-24T12:01:41Z</time>
      </trkpt>
      <trkpt lat="46.57662" lon="0.66501">
        <ele>90.6</ele>
        <time>2024-08-24T12:01:44Z</time>
      </trkpt>
      <trkpt lat="46.57659" lon="0.66523">
        <ele>88.4</ele>
        <time>2024-08-24T12:01:47Z</time>
      </trkpt>
      <trkpt lat="46.57658" lon="0.66529">
        <ele>87.2</ele>
        <time>2024-08-24T12:01:48Z</time>
      </trkpt>
      <trkpt lat="46.57658" lon="0.66529">
        <ele>86</ele>
        <time>2024-08-24T12:01:50Z</time>
      </trkpt>
      <trkpt lat="46.5766" lon="0.66544">
        <ele>85.4</ele>
        <time>2024-08-24T12:01:51Z</time>
      </trkpt>
      <trkpt lat="46.57661" lon="0.66554">
        <ele>85</ele>
        <time>2024-08-24T12:01:53Z</time>
      </trkpt>
      <trkpt lat="46.57663" lon="0.66557">
        <ele>84.8</ele>
        <time>2024-08-24T12:01:54Z</time>
      </trkpt>
      <trkpt lat="46.57665" lon="0.66559">
        <ele>84.8</ele>
        <time>2024-08-24T12:01:55Z</time>
      </trkpt>
      <trkpt lat="46.57668" lon="0.66561">
        <ele>84.8</ele>
        <time>2024-08-24T12:01:56Z</time>
      </trkpt>
      <trkpt lat="46.5767" lon="0.66562">
        <ele>84.6</ele>
        <time>2024-08-24T12:01:57Z</time>
      </trkpt>
      <trkpt lat="46.57678" lon="0.66562">
        <ele>85.2</ele>
        <time>2024-08-24T12:02:01Z</time>
      </trkpt>
      <trkpt lat="46.57683" lon="0.66564">
        <ele>85.8</ele>
        <time>2024-08-24T12:02:04Z</time>
      </trkpt>
      <trkpt lat="46.57686" lon="0.66569">
        <ele>86</ele>
        <time>2024-08-24T12:02:06Z</time>
      </trkpt>
      <trkpt lat="46.57688" lon="0.66572">
        <ele>86</ele>
        <time>2024-08-24T12:02:07Z</time>
      </trkpt>
      <trkpt lat="46.57702" lon="0.66578">
        <ele>86.2</ele>
        <time>2024-08-24T12:02:13Z</time>
      </trkpt>
      <trkpt lat="46.57707" lon="0.66578">
        <ele>86.4</ele>
        <time>2024-08-24T12:02:15Z</time>
      </trkpt>
      <trkpt lat="46.57709" lon="0.66577">
        <ele>86.8</ele>
        <time>2024-08-24T12:02:17Z</time>
      </trkpt>
      <trkpt lat="46.57712" lon="0.66578">
        <ele>87.6</ele>
        <time>2024-08-24T12:02:19Z</time>
      </trkpt>
      <trkpt lat="46.5772" lon="0.6658">
        <ele>88</ele>
        <time>2024-08-24T12:02:21Z</time>
      </trkpt>
      <trkpt lat="46.57732" lon="0.66589">
        <ele>88.2</ele>
        <time>2024-08-24T12:02:25Z</time>
      </trkpt>
      <trkpt lat="46.57748" lon="0.66593">
        <ele>88.4</ele>
        <time>2024-08-24T12:02:31Z</time>
      </trkpt>
      <trkpt lat="46.57766" lon="0.66591">
        <ele>88.6</ele>
        <time>2024-08-24T12:02:37Z</time>
      </trkpt>
      <trkpt lat="46.57782" lon="0.66591">
        <ele>88.8</ele>
        <time>2024-08-24T12:02:43Z</time>
      </trkpt>
      <trkpt lat="46.57787" lon="0.66593">
        <ele>89</ele>
        <time>2024-08-24T12:02:45Z</time>
      </trkpt>
      <trkpt lat="46.57789" lon="0.66593">
        <ele>89.2</ele>
        <time>2024-08-24T12:02:47Z</time>
      </trkpt>
      <trkpt lat="46.57792" lon="0.66593">
        <ele>89.4</ele>
        <time>2024-08-24T12:02:49Z</time>
      </trkpt>
      <trkpt lat="46.57795" lon="0.66593">
        <ele>89.6</ele>
        <time>2024-08-24T12:02:50Z</time>
      </trkpt>
      <trkpt lat="46.57812" lon="0.66587">
        <ele>90</ele>
        <time>2024-08-24T12:02:57Z</time>
      </trkpt>
      <trkpt lat="46.57821" lon="0.66588">
        <ele>90</ele>
        <time>2024-08-24T12:03:00Z</time>
      </trkpt>
      <trkpt lat="46.57822" lon="0.66589">
        <ele>90</ele>
        <time>2024-08-24T12:03:01Z</time>
      </trkpt>
      <trkpt lat="46.57833" lon="0.66588">
        <ele>90.2</ele>
        <time>2024-08-24T12:03:04Z</time>
      </trkpt>
      <trkpt lat="46.57848" lon="0.6659">
        <ele>90.6</ele>
        <time>2024-08-24T12:03:10Z</time>
      </trkpt>
      <trkpt lat="46.57854" lon="0.6659">
        <ele>91</ele>
        <time>2024-08-24T12:03:12Z</time>
      </trkpt>
      <trkpt lat="46.57857" lon="0.66588">
        <ele>91.2</ele>
        <time>2024-08-24T12:03:13Z</time>
      </trkpt>
      <trkpt lat="46.57879" lon="0.66585">
        <ele>92</ele>
        <time>2024-08-24T12:03:19Z</time>
      </trkpt>
      <trkpt lat="46.57882" lon="0.66585">
        <ele>92.2</ele>
        <time>2024-08-24T12:03:20Z</time>
      </trkpt>
      <trkpt lat="46.57903" lon="0.66584">
        <ele>92.8</ele>
        <time>2024-08-24T12:03:27Z</time>
      </trkpt>
      <trkpt lat="46.57925" lon="0.66579">
        <ele>93.2</ele>
        <time>2024-08-24T12:03:35Z</time>
      </trkpt>
      <trkpt lat="46.57928" lon="0.66578">
        <ele>93.4</ele>
        <time>2024-08-24T12:03:36Z</time>
      </trkpt>
      <trkpt lat="46.57946" lon="0.66579">
        <ele>93.6</ele>
        <time>2024-08-24T12:03:41Z</time>
      </trkpt>
      <trkpt lat="46.57961" lon="0.66583">
        <ele>93.8</ele>
        <time>2024-08-24T12:03:46Z</time>
      </trkpt>
      <trkpt lat="46.5797" lon="0.66583">
        <ele>94</ele>
        <time>2024-08-24T12:03:48Z</time>
      </trkpt>
      <trkpt lat="46.57985" lon="0.66581">
        <ele>94.4</ele>
        <time>2024-08-24T12:03:52Z</time>
      </trkpt>
      <trkpt lat="46.57996" lon="0.66578">
        <ele>94.6</ele>
        <time>2024-08-24T12:03:55Z</time>
      </trkpt>
      <trkpt lat="46.58019" lon="0.66563">
        <ele>95.6</ele>
        <time>2024-08-24T12:04:01Z</time>
      </trkpt>
      <trkpt lat="46.58036" lon="0.66555">
        <ele>96.4</ele>
        <time>2024-08-24T12:04:05Z</time>
      </trkpt>
      <trkpt lat="46.58045" lon="0.66556">
        <ele>96.4</ele>
        <time>2024-08-24T12:04:07Z</time>
      </trkpt>
      <trkpt lat="46.58056" lon="0.66556">
        <ele>96.4</ele>
        <time>2024-08-24T12:04:09Z</time>
      </trkpt>
      <trkpt lat="46.58066" lon="0.66558">
        <ele>96.6</ele>
        <time>2024-08-24T12:04:11Z</time>
      </trkpt>
      <trkpt lat="46.58093" lon="0.66572">
        <ele>97.6</ele>
        <time>2024-08-24T12:04:18Z</time>
      </trkpt>
      <trkpt lat="46.58098" lon="0.66587">
        <ele>97.8</ele>
        <time>2024-08-24T12:04:22Z</time>
      </trkpt>
      <trkpt lat="46.58101" lon="0.66589">
        <ele>97.8</ele>
        <time>2024-08-24T12:04:23Z</time>
      </trkpt>
      <trkpt lat="46.58108" lon="0.6659">
        <ele>98</ele>
        <time>2024-08-24T12:04:25Z</time>
      </trkpt>
      <trkpt lat="46.58112" lon="0.6659">
        <ele>98</ele>
        <time>2024-08-24T12:04:26Z</time>
      </trkpt>
      <trkpt lat="46.5813" lon="0.66592">
        <ele>98</ele>
        <time>2024-08-24T12:04:31Z</time>
      </trkpt>
      <trkpt lat="46.58135" lon="0.66595">
        <ele>98.4</ele>
        <time>2024-08-24T12:04:33Z</time>
      </trkpt>
      <trkpt lat="46.58143" lon="0.66602">
        <ele>98.8</ele>
        <time>2024-08-24T12:04:36Z</time>
      </trkpt>
      <trkpt lat="46.58146" lon="0.66605">
        <ele>99</ele>
        <time>2024-08-24T12:04:37Z</time>
      </trkpt>
      <trkpt lat="46.58158" lon="0.6662">
        <ele>99.2</ele>
        <time>2024-08-24T12:04:41Z</time>
      </trkpt>
      <trkpt lat="46.58162" lon="0.66627">
        <ele>99.8</ele>
        <time>2024-08-24T12:04:43Z</time>
      </trkpt>
      <trkpt lat="46.58165" lon="0.6663">
        <ele>100</ele>
        <time>2024-08-24T12:04:44Z</time>
      </trkpt>
      <trkpt lat="46.58175" lon="0.66642">
        <ele>100.6</ele>
        <time>2024-08-24T12:04:48Z</time>
      </trkpt>
      <trkpt lat="46.58176" lon="0.66646">
        <ele>100.8</ele>
        <time>2024-08-24T12:04:49Z</time>
      </trkpt>
      <trkpt lat="46.58176" lon="0.66649">
        <ele>100.8</ele>
        <time>2024-08-24T12:04:50Z</time>
      </trkpt>
      <trkpt lat="46.58175" lon="0.66655">
        <ele>101.4</ele>
        <time>2024-08-24T12:04:53Z</time>
      </trkpt>
      <trkpt lat="46.58171" lon="0.66667">
        <ele>102.8</ele>
        <time>2024-08-24T12:04:57Z</time>
      </trkpt>
      <trkpt lat="46.58168" lon="0.66674">
        <ele>103.6</ele>
        <time>2024-08-24T12:04:59Z</time>
      </trkpt>
      <trkpt lat="46.58167" lon="0.66677">
        <ele>104</ele>
        <time>2024-08-24T12:05:00Z</time>
      </trkpt>
      <trkpt lat="46.58164" lon="0.66689">
        <ele>105</ele>
        <time>2024-08-24T12:05:03Z</time>
      </trkpt>
      <trkpt lat="46.58157" lon="0.66704">
        <ele>105.6</ele>
        <time>2024-08-24T12:05:07Z</time>
      </trkpt>
      <trkpt lat="46.5815" lon="0.66712">
        <ele>106.2</ele>
        <time>2024-08-24T12:05:10Z</time>
      </trkpt>
      <trkpt lat="46.58143" lon="0.66721">
        <ele>106.8</ele>
        <time>2024-08-24T12:05:14Z</time>
      </trkpt>
      <trkpt lat="46.58129" lon="0.66733">
        <ele>106.8</ele>
        <time>2024-08-24T12:05:20Z</time>
      </trkpt>
      <trkpt lat="46.58113" lon="0.66743">
        <ele>107</ele>
        <time>2024-08-24T12:05:25Z</time>
      </trkpt>
      <trkpt lat="46.58108" lon="0.66745">
        <ele>107.2</ele>
        <time>2024-08-24T12:05:27Z</time>
      </trkpt>
      <trkpt lat="46.58097" lon="0.66748">
        <ele>107.4</ele>
        <time>2024-08-24T12:05:31Z</time>
      </trkpt>
      <trkpt lat="46.58082" lon="0.66754">
        <ele>107.4</ele>
        <time>2024-08-24T12:05:37Z</time>
      </trkpt>
      <trkpt lat="46.58075" lon="0.66758">
        <ele>108.4</ele>
        <time>2024-08-24T12:05:42Z</time>
      </trkpt>
      <trkpt lat="46.58074" lon="0.66759">
        <ele>108.8</ele>
        <time>2024-08-24T12:05:43Z</time>
      </trkpt>
      <trkpt lat="46.5807" lon="0.66762">
        <ele>109.6</ele>
        <time>2024-08-24T12:05:45Z</time>
      </trkpt>
      <trkpt lat="46.58064" lon="0.66765">
        <ele>110.8</ele>
        <time>2024-08-24T12:05:48Z</time>
      </trkpt>
      <trkpt lat="46.58058" lon="0.66769">
        <ele>111.6</ele>
        <time>2024-08-24T12:05:51Z</time>
      </trkpt>
      <trkpt lat="46.58057" lon="0.6677">
        <ele>112.2</ele>
        <time>2024-08-24T12:05:52Z</time>
      </trkpt>
      <trkpt lat="46.5805" lon="0.66775">
        <ele>113.2</ele>
        <time>2024-08-24T12:05:56Z</time>
      </trkpt>
      <trkpt lat="46.58044" lon="0.66781">
        <ele>114</ele>
        <time>2024-08-24T12:05:59Z</time>
      </trkpt>
      <trkpt lat="46.58038" lon="0.66786">
        <ele>114.4</ele>
        <time>2024-08-24T12:06:02Z</time>
      </trkpt>
      <trkpt lat="46.58027" lon="0.66799">
        <ele>115.2</ele>
        <time>2024-08-24T12:06:07Z</time>
      </trkpt>
      <trkpt lat="46.58026" lon="0.66802">
        <ele>115.6</ele>
        <time>2024-08-24T12:06:08Z</time>
      </trkpt>
      <trkpt lat="46.58014" lon="0.66816">
        <ele>116.6</ele>
        <time>2024-08-24T12:06:13Z</time>
      </trkpt>
      <trkpt lat="46.58006" lon="0.66827">
        <ele>118</ele>
        <time>2024-08-24T12:06:17Z</time>
      </trkpt>
      <trkpt lat="46.58001" lon="0.66835">
        <ele>118.4</ele>
        <time>2024-08-24T12:06:20Z</time>
      </trkpt>
      <trkpt lat="46.57999" lon="0.6684">
        <ele>119</ele>
        <time>2024-08-24T12:06:22Z</time>
      </trkpt>
      <trkpt lat="46.57991" lon="0.66854">
        <ele>119.8</ele>
        <time>2024-08-24T12:06:27Z</time>
      </trkpt>
      <trkpt lat="46.57989" lon="0.66858">
        <ele>120</ele>
        <time>2024-08-24T12:06:28Z</time>
      </trkpt>
      <trkpt lat="46.5798" lon="0.66873">
        <ele>121</ele>
        <time>2024-08-24T12:06:34Z</time>
      </trkpt>
      <trkpt lat="46.57978" lon="0.66877">
        <ele>121.2</ele>
        <time>2024-08-24T12:06:35Z</time>
      </trkpt>
      <trkpt lat="46.57967" lon="0.669">
        <ele>121.6</ele>
        <time>2024-08-24T12:06:40Z</time>
      </trkpt>
      <trkpt lat="46.57943" lon="0.66935">
        <ele>122</ele>
        <time>2024-08-24T12:06:46Z</time>
      </trkpt>
      <trkpt lat="46.57934" lon="0.66953">
        <ele>122.4</ele>
        <time>2024-08-24T12:06:49Z</time>
      </trkpt>
      <trkpt lat="46.57925" lon="0.66975">
        <ele>122.8</ele>
        <time>2024-08-24T12:06:53Z</time>
      </trkpt>
      <trkpt lat="46.57913" lon="0.67009">
        <ele>123.4</ele>
        <time>2024-08-24T12:06:59Z</time>
      </trkpt>
      <trkpt lat="46.57909" lon="0.67019">
        <ele>123.6</ele>
        <time>2024-08-24T12:07:01Z</time>
      </trkpt>
      <trkpt lat="46.57902" lon="0.67032">
        <ele>123.6</ele>
        <time>2024-08-24T12:07:04Z</time>
      </trkpt>
      <trkpt lat="46.57891" lon="0.67047">
        <ele>123.6</ele>
        <time>2024-08-24T12:07:08Z</time>
      </trkpt>
      <trkpt lat="46.57873" lon="0.67069">
        <ele>123.8</ele>
        <time>2024-08-24T12:07:15Z</time>
      </trkpt>
      <trkpt lat="46.57867" lon="0.67075">
        <ele>123.6</ele>
        <time>2024-08-24T12:07:17Z</time>
      </trkpt>
      <trkpt lat="46.57856" lon="0.67085">
        <ele>123.6</ele>
        <time>2024-08-24T12:07:21Z</time>
      </trkpt>
      <trkpt lat="46.57851" lon="0.67087">
        <ele>123.6</ele>
        <time>2024-08-24T12:07:23Z</time>
      </trkpt>
      <trkpt lat="46.57847" lon="0.67083">
        <ele>123.6</ele>
        <time>2024-08-24T12:07:25Z</time>
      </trkpt>
      <trkpt lat="46.57836" lon="0.67064">
        <ele>123</ele>
        <time>2024-08-24T12:07:30Z</time>
      </trkpt>
      <trkpt lat="46.57831" lon="0.67055">
        <ele>122.2</ele>
        <time>2024-08-24T12:07:32Z</time>
      </trkpt>
      <trkpt lat="46.57828" lon="0.6705">
        <ele>121.8</ele>
        <time>2024-08-24T12:07:33Z</time>
      </trkpt>
      <trkpt lat="46.57818" lon="0.67033">
        <ele>121</ele>
        <time>2024-08-24T12:07:37Z</time>
      </trkpt>
      <trkpt lat="46.5781" lon="0.67018">
        <ele>120</ele>
        <time>2024-08-24T12:07:41Z</time>
      </trkpt>
      <trkpt lat="46.57806" lon="0.67008">
        <ele>118.8</ele>
        <time>2024-08-24T12:07:43Z</time>
      </trkpt>
      <trkpt lat="46.57804" lon="0.67003">
        <ele>118</ele>
        <time>2024-08-24T12:07:44Z</time>
      </trkpt>
      <trkpt lat="46.57799" lon="0.66994">
        <ele>117.6</ele>
        <time>2024-08-24T12:07:46Z</time>
      </trkpt>
      <trkpt lat="46.57784" lon="0.66969">
        <ele>116.8</ele>
        <time>2024-08-24T12:07:50Z</time>
      </trkpt>
      <trkpt lat="46.57776" lon="0.66952">
        <ele>116.4</ele>
        <time>2024-08-24T12:07:52Z</time>
      </trkpt>
      <trkpt lat="46.57767" lon="0.66934">
        <ele>115.8</ele>
        <time>2024-08-24T12:07:54Z</time>
      </trkpt>
      <trkpt lat="46.57762" lon="0.66924">
        <ele>115.2</ele>
        <time>2024-08-24T12:07:55Z</time>
      </trkpt>
      <trkpt lat="46.57751" lon="0.669">
        <ele>113.4</ele>
        <time>2024-08-24T12:07:57Z</time>
      </trkpt>
      <trkpt lat="46.5774" lon="0.66882">
        <ele>112</ele>
        <time>2024-08-24T12:07:59Z</time>
      </trkpt>
      <trkpt lat="46.57733" lon="0.66871">
        <ele>111.4</ele>
        <time>2024-08-24T12:08:00Z</time>
      </trkpt>
      <trkpt lat="46.57726" lon="0.66862">
        <ele>110.8</ele>
        <time>2024-08-24T12:08:01Z</time>
      </trkpt>
      <trkpt lat="46.57702" lon="0.66839">
        <ele>109.4</ele>
        <time>2024-08-24T12:08:05Z</time>
      </trkpt>
      <trkpt lat="46.57684" lon="0.66821">
        <ele>108</ele>
        <time>2024-08-24T12:08:08Z</time>
      </trkpt>
      <trkpt lat="46.5767" lon="0.66809">
        <ele>106.6</ele>
        <time>2024-08-24T12:08:10Z</time>
      </trkpt>
      <trkpt lat="46.57663" lon="0.66802">
        <ele>106.2</ele>
        <time>2024-08-24T12:08:11Z</time>
      </trkpt>
      <trkpt lat="46.57651" lon="0.66787">
        <ele>105.4</ele>
        <time>2024-08-24T12:08:13Z</time>
      </trkpt>
      <trkpt lat="46.57634" lon="0.66763">
        <ele>103.8</ele>
        <time>2024-08-24T12:08:16Z</time>
      </trkpt>
      <trkpt lat="46.57628" lon="0.66755">
        <ele>103.4</ele>
        <time>2024-08-24T12:08:17Z</time>
      </trkpt>
      <trkpt lat="46.57623" lon="0.66746">
        <ele>102.8</ele>
        <time>2024-08-24T12:08:18Z</time>
      </trkpt>
      <trkpt lat="46.57617" lon="0.66736">
        <ele>100.4</ele>
        <time>2024-08-24T12:08:19Z</time>
      </trkpt>
      <trkpt lat="46.57612" lon="0.66725">
        <ele>99.2</ele>
        <time>2024-08-24T12:08:20Z</time>
      </trkpt>
      <trkpt lat="46.57608" lon="0.66713">
        <ele>98.4</ele>
        <time>2024-08-24T12:08:21Z</time>
      </trkpt>
      <trkpt lat="46.57603" lon="0.66697">
        <ele>98</ele>
        <time>2024-08-24T12:08:22Z</time>
      </trkpt>
      <trkpt lat="46.57585" lon="0.66647">
        <ele>96.6</ele>
        <time>2024-08-24T12:08:25Z</time>
      </trkpt>
      <trkpt lat="46.57576" lon="0.66617">
        <ele>95.6</ele>
        <time>2024-08-24T12:08:27Z</time>
      </trkpt>
      <trkpt lat="46.57568" lon="0.6658">
        <ele>94.4</ele>
        <time>2024-08-24T12:08:30Z</time>
      </trkpt>
      <trkpt lat="46.57565" lon="0.66556">
        <ele>93.2</ele>
        <time>2024-08-24T12:08:32Z</time>
      </trkpt>
      <trkpt lat="46.57563" lon="0.66526">
        <ele>92.8</ele>
        <time>2024-08-24T12:08:35Z</time>
      </trkpt>
      <trkpt lat="46.5756" lon="0.6651">
        <ele>93</ele>
        <time>2024-08-24T12:08:37Z</time>
      </trkpt>
      <trkpt lat="46.57554" lon="0.66481">
        <ele>92</ele>
        <time>2024-08-24T12:08:42Z</time>
      </trkpt>
      <trkpt lat="46.57553" lon="0.66476">
        <ele>91.4</ele>
        <time>2024-08-24T12:08:43Z</time>
      </trkpt>
      <trkpt lat="46.57551" lon="0.66471">
        <ele>91</ele>
        <time>2024-08-24T12:08:44Z</time>
      </trkpt>
      <trkpt lat="46.57544" lon="0.6644">
        <ele>90.2</ele>
        <time>2024-08-24T12:08:49Z</time>
      </trkpt>
      <trkpt lat="46.5754" lon="0.66411">
        <ele>90</ele>
        <time>2024-08-24T12:08:54Z</time>
      </trkpt>
      <trkpt lat="46.57538" lon="0.664">
        <ele>90</ele>
        <time>2024-08-24T12:08:56Z</time>
      </trkpt>
      <trkpt lat="46.57531" lon="0.66364">
        <ele>88.8</ele>
        <time>2024-08-24T12:09:02Z</time>
      </trkpt>
      <trkpt lat="46.5753" lon="0.66358">
        <ele>88.6</ele>
        <time>2024-08-24T12:09:03Z</time>
      </trkpt>
      <trkpt lat="46.57526" lon="0.66335">
        <ele>87.8</ele>
        <time>2024-08-24T12:09:07Z</time>
      </trkpt>
      <trkpt lat="46.57524" lon="0.66308">
        <ele>87</ele>
        <time>2024-08-24T12:09:11Z</time>
      </trkpt>
      <trkpt lat="46.57523" lon="0.66261">
        <ele>86.6</ele>
        <time>2024-08-24T12:09:18Z</time>
      </trkpt>
      <trkpt lat="46.57523" lon="0.66255">
        <ele>86</ele>
        <time>2024-08-24T12:09:19Z</time>
      </trkpt>
      <trkpt lat="46.57522" lon="0.66249">
        <ele>85.4</ele>
        <time>2024-08-24T12:09:20Z</time>
      </trkpt>
      <trkpt lat="46.57521" lon="0.66236">
        <ele>84</ele>
        <time>2024-08-24T12:09:22Z</time>
      </trkpt>
      <trkpt lat="46.57521" lon="0.66222">
        <ele>83</ele>
        <time>2024-08-24T12:09:24Z</time>
      </trkpt>
      <trkpt lat="46.57519" lon="0.66207">
        <ele>82.4</ele>
        <time>2024-08-24T12:09:26Z</time>
      </trkpt>
      <trkpt lat="46.57516" lon="0.66193">
        <ele>81.2</ele>
        <time>2024-08-24T12:09:28Z</time>
      </trkpt>
      <trkpt lat="46.57514" lon="0.66186">
        <ele>80.8</ele>
        <time>2024-08-24T12:09:29Z</time>
      </trkpt>
      <trkpt lat="46.57507" lon="0.66173">
        <ele>80.2</ele>
        <time>2024-08-24T12:09:31Z</time>
      </trkpt>
      <trkpt lat="46.57493" lon="0.66158">
        <ele>79</ele>
        <time>2024-08-24T12:09:34Z</time>
      </trkpt>
      <trkpt lat="46.57489" lon="0.66153">
        <ele>78.8</ele>
        <time>2024-08-24T12:09:35Z</time>
      </trkpt>
      <trkpt lat="46.57475" lon="0.66137">
        <ele>77.4</ele>
        <time>2024-08-24T12:09:38Z</time>
      </trkpt>
      <trkpt lat="46.5747" lon="0.66132">
        <ele>76.2</ele>
        <time>2024-08-24T12:09:39Z</time>
      </trkpt>
      <trkpt lat="46.57456" lon="0.66116">
        <ele>75.2</ele>
        <time>2024-08-24T12:09:42Z</time>
      </trkpt>
      <trkpt lat="46.57451" lon="0.6611">
        <ele>75</ele>
        <time>2024-08-24T12:09:43Z</time>
      </trkpt>
      <trkpt lat="46.57446" lon="0.66103">
        <ele>75</ele>
        <time>2024-08-24T12:09:44Z</time>
      </trkpt>
      <trkpt lat="46.57429" lon="0.66073">
        <ele>74.8</ele>
        <time>2024-08-24T12:09:48Z</time>
      </trkpt>
      <trkpt lat="46.57411" lon="0.66025">
        <ele>73.8</ele>
        <time>2024-08-24T12:09:54Z</time>
      </trkpt>
      <trkpt lat="46.57404" lon="0.66002">
        <ele>72.8</ele>
        <time>2024-08-24T12:09:57Z</time>
      </trkpt>
      <trkpt lat="46.57398" lon="0.65982">
        <ele>72.4</ele>
        <time>2024-08-24T12:10:00Z</time>
      </trkpt>
      <trkpt lat="46.57392" lon="0.65962">
        <ele>72.2</ele>
        <time>2024-08-24T12:10:03Z</time>
      </trkpt>
      <trkpt lat="46.57389" lon="0.65938">
        <ele>71.6</ele>
        <time>2024-08-24T12:10:06Z</time>
      </trkpt>
      <trkpt lat="46.5739" lon="0.65893">
        <ele>71.2</ele>
        <time>2024-08-24T12:10:12Z</time>
      </trkpt>
      <trkpt lat="46.5739" lon="0.6587">
        <ele>71.2</ele>
        <time>2024-08-24T12:10:15Z</time>
      </trkpt>
      <trkpt lat="46.57388" lon="0.65856">
        <ele>71.2</ele>
        <time>2024-08-24T12:10:17Z</time>
      </trkpt>
      <trkpt lat="46.57372" lon="0.65812">
        <ele>71</ele>
        <time>2024-08-24T12:10:23Z</time>
      </trkpt>
      <trkpt lat="46.57368" lon="0.65804">
        <ele>71</ele>
        <time>2024-08-24T12:10:24Z</time>
      </trkpt>
      <trkpt lat="46.57351" lon="0.65779">
        <ele>71</ele>
        <time>2024-08-24T12:10:28Z</time>
      </trkpt>
      <trkpt lat="46.57322" lon="0.65751">
        <ele>72.4</ele>
        <time>2024-08-24T12:10:34Z</time>
      </trkpt>
      <trkpt lat="46.57317" lon="0.65747">
        <ele>72.6</ele>
        <time>2024-08-24T12:10:35Z</time>
      </trkpt>
      <trkpt lat="46.57288" lon="0.65734">
        <ele>72.6</ele>
        <time>2024-08-24T12:10:40Z</time>
      </trkpt>
      <trkpt lat="46.57244" lon="0.65727">
        <ele>72</ele>
        <time>2024-08-24T12:10:47Z</time>
      </trkpt>
      <trkpt lat="46.57227" lon="0.65725">
        <ele>71.6</ele>
        <time>2024-08-24T12:10:50Z</time>
      </trkpt>
      <trkpt lat="46.57212" lon="0.65725">
        <ele>71.4</ele>
        <time>2024-08-24T12:10:53Z</time>
      </trkpt>
      <trkpt lat="46.57191" lon="0.65723">
        <ele>71.4</ele>
        <time>2024-08-24T12:10:58Z</time>
      </trkpt>
      <trkpt lat="46.57159" lon="0.65719">
        <ele>70.6</ele>
        <time>2024-08-24T12:11:04Z</time>
      </trkpt>
      <trkpt lat="46.57156" lon="0.6572">
        <ele>70.4</ele>
        <time>2024-08-24T12:11:05Z</time>
      </trkpt>
      <trkpt lat="46.5715" lon="0.65723">
        <ele>70.2</ele>
        <time>2024-08-24T12:11:07Z</time>
      </trkpt>
      <trkpt lat="46.5715" lon="0.65727">
        <ele>70</ele>
        <time>2024-08-24T12:11:08Z</time>
      </trkpt>
      <trkpt lat="46.5715" lon="0.65731">
        <ele>69.8</ele>
        <time>2024-08-24T12:11:09Z</time>
      </trkpt>
      <trkpt lat="46.57153" lon="0.65749">
        <ele>69.4</ele>
        <time>2024-08-24T12:11:13Z</time>
      </trkpt>
      <trkpt lat="46.57159" lon="0.65773">
        <ele>69</ele>
        <time>2024-08-24T12:11:17Z</time>
      </trkpt>
      <trkpt lat="46.57161" lon="0.65787">
        <ele>68.8</ele>
        <time>2024-08-24T12:11:19Z</time>
      </trkpt>
      <trkpt lat="46.57163" lon="0.65799">
        <ele>68.4</ele>
        <time>2024-08-24T12:11:21Z</time>
      </trkpt>
      <trkpt lat="46.57164" lon="0.65805">
        <ele>68.4</ele>
        <time>2024-08-24T12:11:22Z</time>
      </trkpt>
      <trkpt lat="46.57166" lon="0.6581">
        <ele>68.4</ele>
        <time>2024-08-24T12:11:23Z</time>
      </trkpt>
      <trkpt lat="46.57175" lon="0.6582">
        <ele>68.2</ele>
        <time>2024-08-24T12:11:27Z</time>
      </trkpt>
      <trkpt lat="46.57187" lon="0.65822">
        <ele>68</ele>
        <time>2024-08-24T12:11:32Z</time>
      </trkpt>
      <trkpt lat="46.57203" lon="0.65828">
        <ele>67.6</ele>
        <time>2024-08-24T12:11:38Z</time>
      </trkpt>
      <trkpt lat="46.57209" lon="0.65833">
        <ele>68.2</ele>
        <time>2024-08-24T12:11:40Z</time>
      </trkpt>
      <trkpt lat="46.57221" lon="0.65845">
        <ele>69</ele>
        <time>2024-08-24T12:11:46Z</time>
      </trkpt>
      <trkpt lat="46.57226" lon="0.65853">
        <ele>69.6</ele>
        <time>2024-08-24T12:11:49Z</time>
      </trkpt>
      <trkpt lat="46.5723" lon="0.65861">
        <ele>70.2</ele>
        <time>2024-08-24T12:11:52Z</time>
      </trkpt>
      <trkpt lat="46.57231" lon="0.65862">
        <ele>70.6</ele>
        <time>2024-08-24T12:11:53Z</time>
      </trkpt>
      <trkpt lat="46.57237" lon="0.65871">
        <ele>72</ele>
        <time>2024-08-24T12:11:56Z</time>
      </trkpt>
      <trkpt lat="46.57242" lon="0.6588">
        <ele>73</ele>
        <time>2024-08-24T12:11:59Z</time>
      </trkpt>
      <trkpt lat="46.57246" lon="0.6589">
        <ele>74</ele>
        <time>2024-08-24T12:12:03Z</time>
      </trkpt>
      <trkpt lat="46.57247" lon="0.65898">
        <ele>75.2</ele>
        <time>2024-08-24T12:12:06Z</time>
      </trkpt>
      <trkpt lat="46.57247" lon="0.65904">
        <ele>76.2</ele>
        <time>2024-08-24T12:12:09Z</time>
      </trkpt>
      <trkpt lat="46.57247" lon="0.65906">
        <ele>76.4</ele>
        <time>2024-08-24T12:12:10Z</time>
      </trkpt>
      <trkpt lat="46.57244" lon="0.65911">
        <ele>77.6</ele>
        <time>2024-08-24T12:12:14Z</time>
      </trkpt>
      <trkpt lat="46.57237" lon="0.65915">
        <ele>78.6</ele>
        <time>2024-08-24T12:12:18Z</time>
      </trkpt>
      <trkpt lat="46.57234" lon="0.65917">
        <ele>79</ele>
        <time>2024-08-24T12:12:20Z</time>
      </trkpt>
      <trkpt lat="46.57228" lon="0.65918">
        <ele>79.6</ele>
        <time>2024-08-24T12:12:23Z</time>
      </trkpt>
      <trkpt lat="46.57221" lon="0.65917">
        <ele>80.4</ele>
        <time>2024-08-24T12:12:27Z</time>
      </trkpt>
      <trkpt lat="46.57218" lon="0.65917">
        <ele>81</ele>
        <time>2024-08-24T12:12:29Z</time>
      </trkpt>
      <trkpt lat="46.57209" lon="0.65918">
        <ele>82.2</ele>
        <time>2024-08-24T12:12:34Z</time>
      </trkpt>
      <trkpt lat="46.57207" lon="0.6592">
        <ele>82.4</ele>
        <time>2024-08-24T12:12:35Z</time>
      </trkpt>
      <trkpt lat="46.57204" lon="0.65923">
        <ele>83.4</ele>
        <time>2024-08-24T12:12:38Z</time>
      </trkpt>
      <trkpt lat="46.57198" lon="0.65925">
        <ele>84.2</ele>
        <time>2024-08-24T12:12:41Z</time>
      </trkpt>
      <trkpt lat="46.57196" lon="0.65926">
        <ele>84.8</ele>
        <time>2024-08-24T12:12:42Z</time>
      </trkpt>
      <trkpt lat="46.5719" lon="0.65929">
        <ele>85.6</ele>
        <time>2024-08-24T12:12:45Z</time>
      </trkpt>
      <trkpt lat="46.57185" lon="0.65931">
        <ele>85.8</ele>
        <time>2024-08-24T12:12:47Z</time>
      </trkpt>
      <trkpt lat="46.5718" lon="0.65933">
        <ele>86.8</ele>
        <time>2024-08-24T12:12:51Z</time>
      </trkpt>
      <trkpt lat="46.57178" lon="0.65934">
        <ele>87.2</ele>
        <time>2024-08-24T12:12:52Z</time>
      </trkpt>
      <trkpt lat="46.57176" lon="0.65935">
        <ele>87.4</ele>
        <time>2024-08-24T12:12:54Z</time>
      </trkpt>
      <trkpt lat="46.57175" lon="0.65936">
        <ele>87.6</ele>
        <time>2024-08-24T12:12:55Z</time>
      </trkpt>
      <trkpt lat="46.57174" lon="0.65937">
        <ele>87.8</ele>
        <time>2024-08-24T12:12:56Z</time>
      </trkpt>
      <trkpt lat="46.57173" lon="0.65937">
        <ele>88.2</ele>
        <time>2024-08-24T12:12:57Z</time>
      </trkpt>
      <trkpt lat="46.57168" lon="0.6594">
        <ele>89</ele>
        <time>2024-08-24T12:13:01Z</time>
      </trkpt>
      <trkpt lat="46.57166" lon="0.6594">
        <ele>89.4</ele>
        <time>2024-08-24T12:13:02Z</time>
      </trkpt>
      <trkpt lat="46.57165" lon="0.65941">
        <ele>89.6</ele>
        <time>2024-08-24T12:13:03Z</time>
      </trkpt>
      <trkpt lat="46.57163" lon="0.65941">
        <ele>90</ele>
        <time>2024-08-24T12:13:04Z</time>
      </trkpt>
      <trkpt lat="46.5716" lon="0.65942">
        <ele>90.4</ele>
        <time>2024-08-24T12:13:06Z</time>
      </trkpt>
      <trkpt lat="46.57153" lon="0.65946">
        <ele>91.4</ele>
        <time>2024-08-24T12:13:10Z</time>
      </trkpt>
      <trkpt lat="46.57143" lon="0.65948">
        <ele>92.6</ele>
        <time>2024-08-24T12:13:15Z</time>
      </trkpt>
      <trkpt lat="46.57137" lon="0.65951">
        <ele>92.8</ele>
        <time>2024-08-24T12:13:18Z</time>
      </trkpt>
      <trkpt lat="46.57133" lon="0.65954">
        <ele>93.2</ele>
        <time>2024-08-24T12:13:21Z</time>
      </trkpt>
      <trkpt lat="46.57128" lon="0.65954">
        <ele>93.6</ele>
        <time>2024-08-24T12:13:24Z</time>
      </trkpt>
      <trkpt lat="46.57116" lon="0.65953">
        <ele>94.6</ele>
        <time>2024-08-24T12:13:31Z</time>
      </trkpt>
      <trkpt lat="46.57114" lon="0.65954">
        <ele>94.8</ele>
        <time>2024-08-24T12:13:32Z</time>
      </trkpt>
      <trkpt lat="46.57103" lon="0.65959">
        <ele>95</ele>
        <time>2024-08-24T12:13:38Z</time>
      </trkpt>
      <trkpt lat="46.57095" lon="0.65962">
        <ele>95.2</ele>
        <time>2024-08-24T12:13:43Z</time>
      </trkpt>
      <trkpt lat="46.57089" lon="0.65964">
        <ele>95.2</ele>
        <time>2024-08-24T12:13:46Z</time>
      </trkpt>
      <trkpt lat="46.57088" lon="0.65967">
        <ele>95</ele>
        <time>2024-08-24T12:13:48Z</time>
      </trkpt>
      <trkpt lat="46.5709" lon="0.65971">
        <ele>93.2</ele>
        <time>2024-08-24T12:13:52Z</time>
      </trkpt>
      <trkpt lat="46.57092" lon="0.65973">
        <ele>92</ele>
        <time>2024-08-24T12:13:54Z</time>
      </trkpt>
      <trkpt lat="46.57093" lon="0.65974">
        <ele>91.6</ele>
        <time>2024-08-24T12:13:55Z</time>
      </trkpt>
      <trkpt lat="46.57094" lon="0.65975">
        <ele>91.4</ele>
        <time>2024-08-24T12:13:56Z</time>
      </trkpt>
      <trkpt lat="46.57095" lon="0.65977">
        <ele>90.8</ele>
        <time>2024-08-24T12:13:57Z</time>
      </trkpt>
      <trkpt lat="46.57095" lon="0.65981">
        <ele>89.6</ele>
        <time>2024-08-24T12:13:59Z</time>
      </trkpt>
      <trkpt lat="46.57096" lon="0.65984">
        <ele>87.8</ele>
        <time>2024-08-24T12:14:01Z</time>
      </trkpt>
      <trkpt lat="46.57097" lon="0.65987">
        <ele>86</ele>
        <time>2024-08-24T12:14:03Z</time>
      </trkpt>
      <trkpt lat="46.57098" lon="0.6599">
        <ele>84.8</ele>
        <time>2024-08-24T12:14:05Z</time>
      </trkpt>
      <trkpt lat="46.57098" lon="0.65993">
        <ele>83.6</ele>
        <time>2024-08-24T12:14:07Z</time>
      </trkpt>
      <trkpt lat="46.57097" lon="0.65995">
        <ele>82.8</ele>
        <time>2024-08-24T12:14:08Z</time>
      </trkpt>
      <trkpt lat="46.57097" lon="0.65998">
        <ele>81.8</ele>
        <time>2024-08-24T12:14:10Z</time>
      </trkpt>
      <trkpt lat="46.57096" lon="0.66001">
        <ele>81.2</ele>
        <time>2024-08-24T12:14:11Z</time>
      </trkpt>
      <trkpt lat="46.57096" lon="0.66004">
        <ele>80.2</ele>
        <time>2024-08-24T12:14:12Z</time>
      </trkpt>
      <trkpt lat="46.57096" lon="0.66008">
        <ele>78.8</ele>
        <time>2024-08-24T12:14:13Z</time>
      </trkpt>
      <trkpt lat="46.57095" lon="0.66014">
        <ele>77.8</ele>
        <time>2024-08-24T12:14:14Z</time>
      </trkpt>
      <trkpt lat="46.57094" lon="0.66018">
        <ele>76.2</ele>
        <time>2024-08-24T12:14:15Z</time>
      </trkpt>
      <trkpt lat="46.57093" lon="0.66021">
        <ele>74</ele>
        <time>2024-08-24T12:14:16Z</time>
      </trkpt>
      <trkpt lat="46.57093" lon="0.66023">
        <ele>73</ele>
        <time>2024-08-24T12:14:17Z</time>
      </trkpt>
      <trkpt lat="46.5709" lon="0.66026">
        <ele>71.8</ele>
        <time>2024-08-24T12:14:20Z</time>
      </trkpt>
      <trkpt lat="46.57089" lon="0.66028">
        <ele>71.6</ele>
        <time>2024-08-24T12:14:21Z</time>
      </trkpt>
      <trkpt lat="46.5708" lon="0.66043">
        <ele>70.6</ele>
        <time>2024-08-24T12:14:26Z</time>
      </trkpt>
      <trkpt lat="46.57079" lon="0.66046">
        <ele>70.4</ele>
        <time>2024-08-24T12:14:27Z</time>
      </trkpt>
      <trkpt lat="46.57074" lon="0.66051">
        <ele>70.2</ele>
        <time>2024-08-24T12:14:29Z</time>
      </trkpt>
      <trkpt lat="46.57067" lon="0.66054">
        <ele>70.4</ele>
        <time>2024-08-24T12:14:32Z</time>
      </trkpt>
      <trkpt lat="46.57053" lon="0.66063">
        <ele>71.2</ele>
        <time>2024-08-24T12:14:38Z</time>
      </trkpt>
      <trkpt lat="46.57049" lon="0.66065">
        <ele>71.8</ele>
        <time>2024-08-24T12:14:40Z</time>
      </trkpt>
      <trkpt lat="46.57043" lon="0.66072">
        <ele>72.2</ele>
        <time>2024-08-24T12:14:43Z</time>
      </trkpt>
      <trkpt lat="46.5704" lon="0.66077">
        <ele>72</ele>
        <time>2024-08-24T12:14:45Z</time>
      </trkpt>
      <trkpt lat="46.5703" lon="0.66093">
        <ele>71.2</ele>
        <time>2024-08-24T12:14:51Z</time>
      </trkpt>
      <trkpt lat="46.57029" lon="0.66096">
        <ele>71</ele>
        <time>2024-08-24T12:14:52Z</time>
      </trkpt>
      <trkpt lat="46.57026" lon="0.66098">
        <ele>71</ele>
        <time>2024-08-24T12:14:53Z</time>
      </trkpt>
      <trkpt lat="46.57021" lon="0.66105">
        <ele>70.8</ele>
        <time>2024-08-24T12:14:55Z</time>
      </trkpt>
      <trkpt lat="46.57013" lon="0.6611">
        <ele>70.8</ele>
        <time>2024-08-24T12:14:57Z</time>
      </trkpt>
      <trkpt lat="46.57009" lon="0.66114">
        <ele>70.6</ele>
        <time>2024-08-24T12:14:58Z</time>
      </trkpt>
      <trkpt lat="46.56989" lon="0.66131">
        <ele>71.6</ele>
        <time>2024-08-24T12:15:04Z</time>
      </trkpt>
      <trkpt lat="46.56986" lon="0.66134">
        <ele>72</ele>
        <time>2024-08-24T12:15:05Z</time>
      </trkpt>
      <trkpt lat="46.56972" lon="0.66151">
        <ele>71.8</ele>
        <time>2024-08-24T12:15:11Z</time>
      </trkpt>
      <trkpt lat="46.56972" lon="0.66156">
        <ele>71.6</ele>
        <time>2024-08-24T12:15:12Z</time>
      </trkpt>
      <trkpt lat="46.56972" lon="0.66163">
        <ele>71.4</ele>
        <time>2024-08-24T12:15:13Z</time>
      </trkpt>
      <trkpt lat="46.56973" lon="0.66178">
        <ele>71.2</ele>
        <time>2024-08-24T12:15:15Z</time>
      </trkpt>
      <trkpt lat="46.56972" lon="0.66185">
        <ele>71.2</ele>
        <time>2024-08-24T12:15:16Z</time>
      </trkpt>
      <trkpt lat="46.56975" lon="0.66199">
        <ele>70.8</ele>
        <time>2024-08-24T12:15:19Z</time>
      </trkpt>
      <trkpt lat="46.56978" lon="0.66204">
        <ele>70.6</ele>
        <time>2024-08-24T12:15:21Z</time>
      </trkpt>
      <trkpt lat="46.56985" lon="0.66211">
        <ele>71.8</ele>
        <time>2024-08-24T12:15:26Z</time>
      </trkpt>
      <trkpt lat="46.56986" lon="0.66211">
        <ele>72.2</ele>
        <time>2024-08-24T12:15:27Z</time>
      </trkpt>
      <trkpt lat="46.5699" lon="0.66213">
        <ele>73.6</ele>
        <time>2024-08-24T12:15:31Z</time>
      </trkpt>
      <trkpt lat="46.56992" lon="0.66213">
        <ele>74.8</ele>
        <time>2024-08-24T12:15:34Z</time>
      </trkpt>
      <trkpt lat="46.56994" lon="0.66213">
        <ele>75</ele>
        <time>2024-08-24T12:15:36Z</time>
      </trkpt>
      <trkpt lat="46.57" lon="0.66213">
        <ele>75.4</ele>
        <time>2024-08-24T12:15:41Z</time>
      </trkpt>
      <trkpt lat="46.57003" lon="0.66213">
        <ele>75.8</ele>
        <time>2024-08-24T12:15:43Z</time>
      </trkpt>
      <trkpt lat="46.57006" lon="0.66212">
        <ele>76.8</ele>
        <time>2024-08-24T12:15:46Z</time>
      </trkpt>
      <trkpt lat="46.57008" lon="0.66212">
        <ele>77</ele>
        <time>2024-08-24T12:15:48Z</time>
      </trkpt>
      <trkpt lat="46.57014" lon="0.66212">
        <ele>77.8</ele>
        <time>2024-08-24T12:15:53Z</time>
      </trkpt>
      <trkpt lat="46.57015" lon="0.66213">
        <ele>78</ele>
        <time>2024-08-24T12:15:54Z</time>
      </trkpt>
      <trkpt lat="46.57016" lon="0.66213">
        <ele>78.2</ele>
        <time>2024-08-24T12:15:55Z</time>
      </trkpt>
      <trkpt lat="46.5702" lon="0.66213">
        <ele>79</ele>
        <time>2024-08-24T12:15:58Z</time>
      </trkpt>
      <trkpt lat="46.57023" lon="0.66213">
        <ele>79.6</ele>
        <time>2024-08-24T12:16:00Z</time>
      </trkpt>
      <trkpt lat="46.57028" lon="0.66214">
        <ele>80.2</ele>
        <time>2024-08-24T12:16:03Z</time>
      </trkpt>
      <trkpt lat="46.57044" lon="0.66211">
        <ele>81</ele>
        <time>2024-08-24T12:16:11Z</time>
      </trkpt>
      <trkpt lat="46.57045" lon="0.66211">
        <ele>81.2</ele>
        <time>2024-08-24T12:16:12Z</time>
      </trkpt>
      <trkpt lat="46.57051" lon="0.66213">
        <ele>81.8</ele>
        <time>2024-08-24T12:16:15Z</time>
      </trkpt>
      <trkpt lat="46.57052" lon="0.66213">
        <ele>82.2</ele>
        <time>2024-08-24T12:16:16Z</time>
      </trkpt>
      <trkpt lat="46.57055" lon="0.66213">
        <ele>82.8</ele>
        <time>2024-08-24T12:16:18Z</time>
      </trkpt>
      <trkpt lat="46.57058" lon="0.66212">
        <ele>83.6</ele>
        <time>2024-08-24T12:16:20Z</time>
      </trkpt>
      <trkpt lat="46.57059" lon="0.66213">
        <ele>84</ele>
        <time>2024-08-24T12:16:21Z</time>
      </trkpt>
      <trkpt lat="46.57063" lon="0.66214">
        <ele>84.8</ele>
        <time>2024-08-24T12:16:24Z</time>
      </trkpt>
      <trkpt lat="46.57068" lon="0.66215">
        <ele>85</ele>
        <time>2024-08-24T12:16:27Z</time>
      </trkpt>
      <trkpt lat="46.57069" lon="0.66215">
        <ele>85.2</ele>
        <time>2024-08-24T12:16:28Z</time>
      </trkpt>
      <trkpt lat="46.57073" lon="0.66214">
        <ele>85.8</ele>
        <time>2024-08-24T12:16:31Z</time>
      </trkpt>
      <trkpt lat="46.57077" lon="0.66211">
        <ele>86.8</ele>
        <time>2024-08-24T12:16:34Z</time>
      </trkpt>
      <trkpt lat="46.5708" lon="0.6621">
        <ele>87.6</ele>
        <time>2024-08-24T12:16:37Z</time>
      </trkpt>
      <trkpt lat="46.57081" lon="0.6621">
        <ele>88.2</ele>
        <time>2024-08-24T12:16:38Z</time>
      </trkpt>
      <trkpt lat="46.57083" lon="0.6621">
        <ele>88.4</ele>
        <time>2024-08-24T12:16:39Z</time>
      </trkpt>
      <trkpt lat="46.57087" lon="0.66208">
        <ele>89.2</ele>
        <time>2024-08-24T12:16:42Z</time>
      </trkpt>
      <trkpt lat="46.5709" lon="0.66209">
        <ele>89.8</ele>
        <time>2024-08-24T12:16:44Z</time>
      </trkpt>
      <trkpt lat="46.57092" lon="0.66209">
        <ele>89.8</ele>
        <time>2024-08-24T12:16:46Z</time>
      </trkpt>
      <trkpt lat="46.57096" lon="0.66205">
        <ele>89.2</ele>
        <time>2024-08-24T12:16:48Z</time>
      </trkpt>
      <trkpt lat="46.57103" lon="0.66198">
        <ele>88.2</ele>
        <time>2024-08-24T12:16:51Z</time>
      </trkpt>
      <trkpt lat="46.57105" lon="0.66197">
        <ele>87.2</ele>
        <time>2024-08-24T12:16:52Z</time>
      </trkpt>
      <trkpt lat="46.57108" lon="0.66194">
        <ele>86</ele>
        <time>2024-08-24T12:16:54Z</time>
      </trkpt>
      <trkpt lat="46.57111" lon="0.66191">
        <ele>84.8</ele>
        <time>2024-08-24T12:16:56Z</time>
      </trkpt>
      <trkpt lat="46.57116" lon="0.66189">
        <ele>84</ele>
        <time>2024-08-24T12:16:59Z</time>
      </trkpt>
      <trkpt lat="46.57117" lon="0.66188">
        <ele>83.8</ele>
        <time>2024-08-24T12:17:00Z</time>
      </trkpt>
      <trkpt lat="46.57119" lon="0.66186">
        <ele>83.4</ele>
        <time>2024-08-24T12:17:01Z</time>
      </trkpt>
      <trkpt lat="46.57125" lon="0.66182">
        <ele>83.4</ele>
        <time>2024-08-24T12:17:05Z</time>
      </trkpt>
      <trkpt lat="46.57137" lon="0.66177">
        <ele>83</ele>
        <time>2024-08-24T12:17:11Z</time>
      </trkpt>
      <trkpt lat="46.57138" lon="0.66176">
        <ele>82.8</ele>
        <time>2024-08-24T12:17:12Z</time>
      </trkpt>
      <trkpt lat="46.57139" lon="0.66174">
        <ele>82.4</ele>
        <time>2024-08-24T12:17:13Z</time>
      </trkpt>
      <trkpt lat="46.5714" lon="0.66173">
        <ele>81.6</ele>
        <time>2024-08-24T12:17:14Z</time>
      </trkpt>
      <trkpt lat="46.57141" lon="0.66169">
        <ele>80.4</ele>
        <time>2024-08-24T12:17:16Z</time>
      </trkpt>
      <trkpt lat="46.57142" lon="0.66166">
        <ele>79.6</ele>
        <time>2024-08-24T12:17:17Z</time>
      </trkpt>
      <trkpt lat="46.57142" lon="0.66164">
        <ele>79</ele>
        <time>2024-08-24T12:17:18Z</time>
      </trkpt>
      <trkpt lat="46.57145" lon="0.66159">
        <ele>77.4</ele>
        <time>2024-08-24T12:17:21Z</time>
      </trkpt>
      <trkpt lat="46.57146" lon="0.66158">
        <ele>76.8</ele>
        <time>2024-08-24T12:17:22Z</time>
      </trkpt>
      <trkpt lat="46.57148" lon="0.66157">
        <ele>76.2</ele>
        <time>2024-08-24T12:17:23Z</time>
      </trkpt>
      <trkpt lat="46.57152" lon="0.66153">
        <ele>76</ele>
        <time>2024-08-24T12:17:26Z</time>
      </trkpt>
      <trkpt lat="46.57162" lon="0.66139">
        <ele>75.6</ele>
        <time>2024-08-24T12:17:34Z</time>
      </trkpt>
      <trkpt lat="46.57171" lon="0.66133">
        <ele>75.2</ele>
        <time>2024-08-24T12:17:38Z</time>
      </trkpt>
      <trkpt lat="46.57173" lon="0.66132">
        <ele>75</ele>
        <time>2024-08-24T12:17:39Z</time>
      </trkpt>
      <trkpt lat="46.57178" lon="0.6613">
        <ele>75</ele>
        <time>2024-08-24T12:17:41Z</time>
      </trkpt>
      <trkpt lat="46.5718" lon="0.6613">
        <ele>75.2</ele>
        <time>2024-08-24T12:17:42Z</time>
      </trkpt>
      <trkpt lat="46.57187" lon="0.66129">
        <ele>76.2</ele>
        <time>2024-08-24T12:17:45Z</time>
      </trkpt>
      <trkpt lat="46.57189" lon="0.66128">
        <ele>76.4</ele>
        <time>2024-08-24T12:17:46Z</time>
      </trkpt>
      <trkpt lat="46.57202" lon="0.66119">
        <ele>75.2</ele>
        <time>2024-08-24T12:17:52Z</time>
      </trkpt>
      <trkpt lat="46.57204" lon="0.66117">
        <ele>74.6</ele>
        <time>2024-08-24T12:17:53Z</time>
      </trkpt>
      <trkpt lat="46.57207" lon="0.66115">
        <ele>74</ele>
        <time>2024-08-24T12:17:54Z</time>
      </trkpt>
      <trkpt lat="46.5722" lon="0.66109">
        <ele>72.8</ele>
        <time>2024-08-24T12:17:59Z</time>
      </trkpt>
      <trkpt lat="46.57222" lon="0.66108">
        <ele>72.6</ele>
        <time>2024-08-24T12:18:00Z</time>
      </trkpt>
      <trkpt lat="46.57231" lon="0.66102">
        <ele>71.8</ele>
        <time>2024-08-24T12:18:04Z</time>
      </trkpt>
      <trkpt lat="46.57233" lon="0.661">
        <ele>71.4</ele>
        <time>2024-08-24T12:18:05Z</time>
      </trkpt>
      <trkpt lat="46.57236" lon="0.66094">
        <ele>71</ele>
        <time>2024-08-24T12:18:07Z</time>
      </trkpt>
      <trkpt lat="46.57239" lon="0.6609">
        <ele>70.4</ele>
        <time>2024-08-24T12:18:09Z</time>
      </trkpt>
      <trkpt lat="46.57254" lon="0.66073">
        <ele>69.6</ele>
        <time>2024-08-24T12:18:14Z</time>
      </trkpt>
      <trkpt lat="46.57263" lon="0.66065">
        <ele>69.4</ele>
        <time>2024-08-24T12:18:17Z</time>
      </trkpt>
      <trkpt lat="46.57266" lon="0.66062">
        <ele>69.4</ele>
        <time>2024-08-24T12:18:18Z</time>
      </trkpt>
      <trkpt lat="46.57274" lon="0.66058">
        <ele>69.4</ele>
        <time>2024-08-24T12:18:20Z</time>
      </trkpt>
      <trkpt lat="46.57285" lon="0.66054">
        <ele>69.4</ele>
        <time>2024-08-24T12:18:23Z</time>
      </trkpt>
      <trkpt lat="46.57294" lon="0.66054">
        <ele>69.8</ele>
        <time>2024-08-24T12:18:25Z</time>
      </trkpt>
      <trkpt lat="46.57306" lon="0.66058">
        <ele>70.6</ele>
        <time>2024-08-24T12:18:29Z</time>
      </trkpt>
      <trkpt lat="46.57312" lon="0.6606">
        <ele>71.2</ele>
        <time>2024-08-24T12:18:31Z</time>
      </trkpt>
      <trkpt lat="46.57318" lon="0.66061">
        <ele>72</ele>
        <time>2024-08-24T12:18:33Z</time>
      </trkpt>
      <trkpt lat="46.57327" lon="0.66064">
        <ele>73</ele>
        <time>2024-08-24T12:18:36Z</time>
      </trkpt>
      <trkpt lat="46.57332" lon="0.66066">
        <ele>73.4</ele>
        <time>2024-08-24T12:18:38Z</time>
      </trkpt>
      <trkpt lat="46.57345" lon="0.66074">
        <ele>74.2</ele>
        <time>2024-08-24T12:18:42Z</time>
      </trkpt>
      <trkpt lat="46.57353" lon="0.6608">
        <ele>74.6</ele>
        <time>2024-08-24T12:18:45Z</time>
      </trkpt>
      <trkpt lat="46.57362" lon="0.66086">
        <ele>75.6</ele>
        <time>2024-08-24T12:18:50Z</time>
      </trkpt>
      <trkpt lat="46.57367" lon="0.66089">
        <ele>76.4</ele>
        <time>2024-08-24T12:18:52Z</time>
      </trkpt>
      <trkpt lat="46.57371" lon="0.66094">
        <ele>76.8</ele>
        <time>2024-08-24T12:18:54Z</time>
      </trkpt>
      <trkpt lat="46.5738" lon="0.66103">
        <ele>77.2</ele>
        <time>2024-08-24T12:18:59Z</time>
      </trkpt>
      <trkpt lat="46.57384" lon="0.66107">
        <ele>77.8</ele>
        <time>2024-08-24T12:19:02Z</time>
      </trkpt>
      <trkpt lat="46.57391" lon="0.66116">
        <ele>79.2</ele>
        <time>2024-08-24T12:19:07Z</time>
      </trkpt>
      <trkpt lat="46.57399" lon="0.66129">
        <ele>80.2</ele>
        <time>2024-08-24T12:19:13Z</time>
      </trkpt>
      <trkpt lat="46.57403" lon="0.66133">
        <ele>81.2</ele>
        <time>2024-08-24T12:19:16Z</time>
      </trkpt>
      <trkpt lat="46.57406" lon="0.6614">
        <ele>82.6</ele>
        <time>2024-08-24T12:19:20Z</time>
      </trkpt>
      <trkpt lat="46.57407" lon="0.66142">
        <ele>83</ele>
        <time>2024-08-24T12:19:21Z</time>
      </trkpt>
      <trkpt lat="46.57406" lon="0.66145">
        <ele>83.8</ele>
        <time>2024-08-24T12:19:23Z</time>
      </trkpt>
      <trkpt lat="46.57407" lon="0.6615">
        <ele>85</ele>
        <time>2024-08-24T12:19:27Z</time>
      </trkpt>
      <trkpt lat="46.57407" lon="0.66151">
        <ele>85</ele>
        <time>2024-08-24T12:19:28Z</time>
      </trkpt>
      <trkpt lat="46.57408" lon="0.66153">
        <ele>85.4</ele>
        <time>2024-08-24T12:19:29Z</time>
      </trkpt>
      <trkpt lat="46.57408" lon="0.66155">
        <ele>85.6</ele>
        <time>2024-08-24T12:19:30Z</time>
      </trkpt>
      <trkpt lat="46.57409" lon="0.6616">
        <ele>86.2</ele>
        <time>2024-08-24T12:19:32Z</time>
      </trkpt>
      <trkpt lat="46.57409" lon="0.66162">
        <ele>86.6</ele>
        <time>2024-08-24T12:19:34Z</time>
      </trkpt>
      <trkpt lat="46.57408" lon="0.66164">
        <ele>87.2</ele>
        <time>2024-08-24T12:19:36Z</time>
      </trkpt>
      <trkpt lat="46.57408" lon="0.66165">
        <ele>87.4</ele>
        <time>2024-08-24T12:19:37Z</time>
      </trkpt>
      <trkpt lat="46.57406" lon="0.66168">
        <ele>88.2</ele>
        <time>2024-08-24T12:19:40Z</time>
      </trkpt>
      <trkpt lat="46.57405" lon="0.66168">
        <ele>88.4</ele>
        <time>2024-08-24T12:19:41Z</time>
      </trkpt>
      <trkpt lat="46.57404" lon="0.66169">
        <ele>88.6</ele>
        <time>2024-08-24T12:19:43Z</time>
      </trkpt>
      <trkpt lat="46.574" lon="0.66172">
        <ele>89.6</ele>
        <time>2024-08-24T12:19:49Z</time>
      </trkpt>
      <trkpt lat="46.57399" lon="0.66172">
        <ele>89.8</ele>
        <time>2024-08-24T12:19:51Z</time>
      </trkpt>
      <trkpt lat="46.57395" lon="0.66173">
        <ele>90.8</ele>
        <time>2024-08-24T12:19:55Z</time>
      </trkpt>
      <trkpt lat="46.5739" lon="0.66175">
        <ele>91.8</ele>
        <time>2024-08-24T12:20:00Z</time>
      </trkpt>
      <trkpt lat="46.57389" lon="0.66176">
        <ele>92</ele>
        <time>2024-08-24T12:20:01Z</time>
      </trkpt>
      <trkpt lat="46.57387" lon="0.66176">
        <ele>92.2</ele>
        <time>2024-08-24T12:20:03Z</time>
      </trkpt>
      <trkpt lat="46.57382" lon="0.66178">
        <ele>92.8</ele>
        <time>2024-08-24T12:20:07Z</time>
      </trkpt>
      <trkpt lat="46.57379" lon="0.6618">
        <ele>93.2</ele>
        <time>2024-08-24T12:20:09Z</time>
      </trkpt>
      <trkpt lat="46.5737" lon="0.66185">
        <ele>94</ele>
        <time>2024-08-24T12:20:14Z</time>
      </trkpt>
      <trkpt lat="46.57358" lon="0.66188">
        <ele>94.6</ele>
        <time>2024-08-24T12:20:20Z</time>
      </trkpt>
      <trkpt lat="46.57351" lon="0.66188">
        <ele>95.2</ele>
        <time>2024-08-24T12:20:23Z</time>
      </trkpt>
      <trkpt lat="46.5734" lon="0.6619">
        <ele>95.4</ele>
        <time>2024-08-24T12:20:27Z</time>
      </trkpt>
      <trkpt lat="46.57333" lon="0.66191">
        <ele>96.2</ele>
        <time>2024-08-24T12:20:30Z</time>
      </trkpt>
      <trkpt lat="46.57327" lon="0.66193">
        <ele>96.6</ele>
        <time>2024-08-24T12:20:33Z</time>
      </trkpt>
      <trkpt lat="46.57312" lon="0.66205">
        <ele>97.2</ele>
        <time>2024-08-24T12:20:42Z</time>
      </trkpt>
      <trkpt lat="46.57296" lon="0.66223">
        <ele>98.2</ele>
        <time>2024-08-24T12:20:49Z</time>
      </trkpt>
      <trkpt lat="46.57293" lon="0.66226">
        <ele>98.4</ele>
        <time>2024-08-24T12:20:50Z</time>
      </trkpt>
      <trkpt lat="46.57276" lon="0.66245">
        <ele>99</ele>
        <time>2024-08-24T12:20:58Z</time>
      </trkpt>
      <trkpt lat="46.57273" lon="0.66249">
        <ele>99.4</ele>
        <time>2024-08-24T12:21:00Z</time>
      </trkpt>
      <trkpt lat="46.57259" lon="0.66263">
        <ele>100.2</ele>
        <time>2024-08-24T12:21:05Z</time>
      </trkpt>
      <trkpt lat="46.57257" lon="0.66266">
        <ele>100.4</ele>
        <time>2024-08-24T12:21:06Z</time>
      </trkpt>
      <trkpt lat="46.57242" lon="0.66285">
        <ele>100.6</ele>
        <time>2024-08-24T12:21:13Z</time>
      </trkpt>
      <trkpt lat="46.57231" lon="0.663">
        <ele>100.6</ele>
        <time>2024-08-24T12:21:17Z</time>
      </trkpt>
      <trkpt lat="46.57226" lon="0.66307">
        <ele>100.8</ele>
        <time>2024-08-24T12:21:19Z</time>
      </trkpt>
      <trkpt lat="46.57217" lon="0.66317">
        <ele>101</ele>
        <time>2024-08-24T12:21:22Z</time>
      </trkpt>
      <trkpt lat="46.57205" lon="0.6633">
        <ele>101</ele>
        <time>2024-08-24T12:21:26Z</time>
      </trkpt>
      <trkpt lat="46.57181" lon="0.66352">
        <ele>100.8</ele>
        <time>2024-08-24T12:21:32Z</time>
      </trkpt>
      <trkpt lat="46.57175" lon="0.66357">
        <ele>100.8</ele>
        <time>2024-08-24T12:21:34Z</time>
      </trkpt>
      <trkpt lat="46.57163" lon="0.6636">
        <ele>101.2</ele>
        <time>2024-08-24T12:21:36Z</time>
      </trkpt>
      <trkpt lat="46.5716" lon="0.66359">
        <ele>101.2</ele>
        <time>2024-08-24T12:21:37Z</time>
      </trkpt>
      <trkpt lat="46.57151" lon="0.66355">
        <ele>101.2</ele>
        <time>2024-08-24T12:21:39Z</time>
      </trkpt>
      <trkpt lat="46.57145" lon="0.66348">
        <ele>101</ele>
        <time>2024-08-24T12:21:41Z</time>
      </trkpt>
      <trkpt lat="46.57114" lon="0.66327">
        <ele>100.2</ele>
        <time>2024-08-24T12:21:47Z</time>
      </trkpt>
      <trkpt lat="46.57102" lon="0.66315">
        <ele>99.4</ele>
        <time>2024-08-24T12:21:50Z</time>
      </trkpt>
      <trkpt lat="46.57084" lon="0.66298">
        <ele>98.6</ele>
        <time>2024-08-24T12:21:54Z</time>
      </trkpt>
      <trkpt lat="46.5707" lon="0.66284">
        <ele>98</ele>
        <time>2024-08-24T12:21:57Z</time>
      </trkpt>
      <trkpt lat="46.57063" lon="0.66282">
        <ele>97.8</ele>
        <time>2024-08-24T12:21:59Z</time>
      </trkpt>
      <trkpt lat="46.5705" lon="0.66284">
        <ele>97</ele>
        <time>2024-08-24T12:22:03Z</time>
      </trkpt>
      <trkpt lat="46.57047" lon="0.66285">
        <ele>96.8</ele>
        <time>2024-08-24T12:22:04Z</time>
      </trkpt>
      <trkpt lat="46.57043" lon="0.66293">
        <ele>96.4</ele>
        <time>2024-08-24T12:22:08Z</time>
      </trkpt>
      <trkpt lat="46.57036" lon="0.66299">
        <ele>96.8</ele>
        <time>2024-08-24T12:22:11Z</time>
      </trkpt>
      <trkpt lat="46.57027" lon="0.66305">
        <ele>97.2</ele>
        <time>2024-08-24T12:22:14Z</time>
      </trkpt>
      <trkpt lat="46.57021" lon="0.66313">
        <ele>97.4</ele>
        <time>2024-08-24T12:22:17Z</time>
      </trkpt>
      <trkpt lat="46.57021" lon="0.66314">
        <ele>97.4</ele>
        <time>2024-08-24T12:22:18Z</time>
      </trkpt>
      <trkpt lat="46.57019" lon="0.66319">
        <ele>97.2</ele>
        <time>2024-08-24T12:22:20Z</time>
      </trkpt>
      <trkpt lat="46.5702" lon="0.66324">
        <ele>97</ele>
        <time>2024-08-24T12:22:22Z</time>
      </trkpt>
      <trkpt lat="46.57026" lon="0.66336">
        <ele>97.4</ele>
        <time>2024-08-24T12:22:26Z</time>
      </trkpt>
      <trkpt lat="46.57026" lon="0.66339">
        <ele>97.4</ele>
        <time>2024-08-24T12:22:27Z</time>
      </trkpt>
      <trkpt lat="46.57027" lon="0.66344">
        <ele>97.4</ele>
        <time>2024-08-24T12:22:28Z</time>
      </trkpt>
      <trkpt lat="46.57032" lon="0.66354">
        <ele>97.2</ele>
        <time>2024-08-24T12:22:31Z</time>
      </trkpt>
      <trkpt lat="46.57034" lon="0.66362">
        <ele>97</ele>
        <time>2024-08-24T12:22:33Z</time>
      </trkpt>
      <trkpt lat="46.57037" lon="0.66369">
        <ele>96.8</ele>
        <time>2024-08-24T12:22:35Z</time>
      </trkpt>
      <trkpt lat="46.5704" lon="0.66379">
        <ele>96.4</ele>
        <time>2024-08-24T12:22:37Z</time>
      </trkpt>
      <trkpt lat="46.57041" lon="0.66382">
        <ele>96.4</ele>
        <time>2024-08-24T12:22:38Z</time>
      </trkpt>
      <trkpt lat="46.57045" lon="0.66392">
        <ele>96.2</ele>
        <time>2024-08-24T12:22:41Z</time>
      </trkpt>
      <trkpt lat="46.57046" lon="0.66394">
        <ele>95.8</ele>
        <time>2024-08-24T12:22:42Z</time>
      </trkpt>
      <trkpt lat="46.57047" lon="0.66397">
        <ele>95.6</ele>
        <time>2024-08-24T12:22:43Z</time>
      </trkpt>
      <trkpt lat="46.57053" lon="0.66409">
        <ele>95.2</ele>
        <time>2024-08-24T12:22:46Z</time>
      </trkpt>
      <trkpt lat="46.57061" lon="0.66427">
        <ele>95.8</ele>
        <time>2024-08-24T12:22:51Z</time>
      </trkpt>
      <trkpt lat="46.57058" lon="0.66438">
        <ele>95.8</ele>
        <time>2024-08-24T12:22:53Z</time>
      </trkpt>
      <trkpt lat="46.57061" lon="0.6645">
        <ele>96</ele>
        <time>2024-08-24T12:22:55Z</time>
      </trkpt>
      <trkpt lat="46.57067" lon="0.6646">
        <ele>95.6</ele>
        <time>2024-08-24T12:22:57Z</time>
      </trkpt>
      <trkpt lat="46.57072" lon="0.66469">
        <ele>95.2</ele>
        <time>2024-08-24T12:22:59Z</time>
      </trkpt>
      <trkpt lat="46.57075" lon="0.66474">
        <ele>95.2</ele>
        <time>2024-08-24T12:23:00Z</time>
      </trkpt>
      <trkpt lat="46.57079" lon="0.66484">
        <ele>95.2</ele>
        <time>2024-08-24T12:23:02Z</time>
      </trkpt>
      <trkpt lat="46.57083" lon="0.66494">
        <ele>95.2</ele>
        <time>2024-08-24T12:23:04Z</time>
      </trkpt>
      <trkpt lat="46.57089" lon="0.66507">
        <ele>95.2</ele>
        <time>2024-08-24T12:23:07Z</time>
      </trkpt>
      <trkpt lat="46.57093" lon="0.66515">
        <ele>95</ele>
        <time>2024-08-24T12:23:09Z</time>
      </trkpt>
      <trkpt lat="46.57093" lon="0.66518">
        <ele>94.8</ele>
        <time>2024-08-24T12:23:10Z</time>
      </trkpt>
      <trkpt lat="46.57093" lon="0.66522">
        <ele>94.6</ele>
        <time>2024-08-24T12:23:11Z</time>
      </trkpt>
      <trkpt lat="46.57092" lon="0.66532">
        <ele>93.4</ele>
        <time>2024-08-24T12:23:13Z</time>
      </trkpt>
      <trkpt lat="46.57092" lon="0.66539">
        <ele>92.2</ele>
        <time>2024-08-24T12:23:15Z</time>
      </trkpt>
      <trkpt lat="46.57091" lon="0.66546">
        <ele>90.4</ele>
        <time>2024-08-24T12:23:17Z</time>
      </trkpt>
      <trkpt lat="46.5709" lon="0.66557">
        <ele>89</ele>
        <time>2024-08-24T12:23:19Z</time>
      </trkpt>
      <trkpt lat="46.5709" lon="0.66565">
        <ele>88.2</ele>
        <time>2024-08-24T12:23:20Z</time>
      </trkpt>
      <trkpt lat="46.57089" lon="0.66571">
        <ele>87.8</ele>
        <time>2024-08-24T12:23:21Z</time>
      </trkpt>
      <trkpt lat="46.57089" lon="0.66589">
        <ele>87.4</ele>
        <time>2024-08-24T12:23:24Z</time>
      </trkpt>
      <trkpt lat="46.57089" lon="0.66599">
        <ele>87.6</ele>
        <time>2024-08-24T12:23:26Z</time>
      </trkpt>
      <trkpt lat="46.57088" lon="0.66611">
        <ele>89.2</ele>
        <time>2024-08-24T12:23:28Z</time>
      </trkpt>
      <trkpt lat="46.57088" lon="0.66626">
        <ele>90.4</ele>
        <time>2024-08-24T12:23:31Z</time>
      </trkpt>
      <trkpt lat="46.57086" lon="0.66637">
        <ele>90.8</ele>
        <time>2024-08-24T12:23:33Z</time>
      </trkpt>
      <trkpt lat="46.57087" lon="0.66656">
        <ele>91.6</ele>
        <time>2024-08-24T12:23:38Z</time>
      </trkpt>
      <trkpt lat="46.57088" lon="0.66659">
        <ele>91.8</ele>
        <time>2024-08-24T12:23:39Z</time>
      </trkpt>
      <trkpt lat="46.57093" lon="0.66666">
        <ele>92.6</ele>
        <time>2024-08-24T12:23:43Z</time>
      </trkpt>
      <trkpt lat="46.57095" lon="0.66666">
        <ele>92.8</ele>
        <time>2024-08-24T12:23:44Z</time>
      </trkpt>
      <trkpt lat="46.57096" lon="0.66672">
        <ele>93</ele>
        <time>2024-08-24T12:23:46Z</time>
      </trkpt>
      <trkpt lat="46.57097" lon="0.66678">
        <ele>93.2</ele>
        <time>2024-08-24T12:23:48Z</time>
      </trkpt>
      <trkpt lat="46.57096" lon="0.66687">
        <ele>93.6</ele>
        <time>2024-08-24T12:23:50Z</time>
      </trkpt>
      <trkpt lat="46.57097" lon="0.66695">
        <ele>94</ele>
        <time>2024-08-24T12:23:53Z</time>
      </trkpt>
      <trkpt lat="46.57097" lon="0.66697">
        <ele>94</ele>
        <time>2024-08-24T12:23:54Z</time>
      </trkpt>
      <trkpt lat="46.57103" lon="0.6671">
        <ele>94.6</ele>
        <time>2024-08-24T12:23:59Z</time>
      </trkpt>
      <trkpt lat="46.57105" lon="0.66712">
        <ele>94.8</ele>
        <time>2024-08-24T12:24:00Z</time>
      </trkpt>
      <trkpt lat="46.57114" lon="0.66728">
        <ele>95.4</ele>
        <time>2024-08-24T12:24:06Z</time>
      </trkpt>
      <trkpt lat="46.57121" lon="0.66742">
        <ele>95.8</ele>
        <time>2024-08-24T12:24:11Z</time>
      </trkpt>
      <trkpt lat="46.57123" lon="0.66754">
        <ele>95.4</ele>
        <time>2024-08-24T12:24:14Z</time>
      </trkpt>
      <trkpt lat="46.57124" lon="0.66763">
        <ele>95</ele>
        <time>2024-08-24T12:24:16Z</time>
      </trkpt>
      <trkpt lat="46.57124" lon="0.66767">
        <ele>94.6</ele>
        <time>2024-08-24T12:24:17Z</time>
      </trkpt>
      <trkpt lat="46.57124" lon="0.66771">
        <ele>94</ele>
        <time>2024-08-24T12:24:18Z</time>
      </trkpt>
      <trkpt lat="46.57125" lon="0.66777">
        <ele>93.4</ele>
        <time>2024-08-24T12:24:19Z</time>
      </trkpt>
      <trkpt lat="46.57126" lon="0.66781">
        <ele>93</ele>
        <time>2024-08-24T12:24:20Z</time>
      </trkpt>
      <trkpt lat="46.57132" lon="0.66796">
        <ele>92.4</ele>
        <time>2024-08-24T12:24:24Z</time>
      </trkpt>
      <trkpt lat="46.57136" lon="0.66803">
        <ele>92.2</ele>
        <time>2024-08-24T12:24:26Z</time>
      </trkpt>
      <trkpt lat="46.5714" lon="0.66816">
        <ele>90.8</ele>
        <time>2024-08-24T12:24:30Z</time>
      </trkpt>
      <trkpt lat="46.57142" lon="0.66821">
        <ele>89.8</ele>
        <time>2024-08-24T12:24:32Z</time>
      </trkpt>
      <trkpt lat="46.57143" lon="0.66823">
        <ele>89.6</ele>
        <time>2024-08-24T12:24:33Z</time>
      </trkpt>
      <trkpt lat="46.57147" lon="0.66832">
        <ele>87.6</ele>
        <time>2024-08-24T12:24:36Z</time>
      </trkpt>
      <trkpt lat="46.57149" lon="0.6684">
        <ele>86.2</ele>
        <time>2024-08-24T12:24:38Z</time>
      </trkpt>
      <trkpt lat="46.57149" lon="0.66847">
        <ele>84.6</ele>
        <time>2024-08-24T12:24:40Z</time>
      </trkpt>
      <trkpt lat="46.57146" lon="0.6685">
        <ele>83.6</ele>
        <time>2024-08-24T12:24:42Z</time>
      </trkpt>
      <trkpt lat="46.57141" lon="0.6685">
        <ele>82.4</ele>
        <time>2024-08-24T12:24:44Z</time>
      </trkpt>
      <trkpt lat="46.57134" lon="0.66848">
        <ele>81.4</ele>
        <time>2024-08-24T12:24:46Z</time>
      </trkpt>
      <trkpt lat="46.5713" lon="0.66847">
        <ele>80.8</ele>
        <time>2024-08-24T12:24:47Z</time>
      </trkpt>
      <trkpt lat="46.57125" lon="0.66846">
        <ele>79.2</ele>
        <time>2024-08-24T12:24:48Z</time>
      </trkpt>
      <trkpt lat="46.57121" lon="0.66845">
        <ele>78</ele>
        <time>2024-08-24T12:24:49Z</time>
      </trkpt>
      <trkpt lat="46.57112" lon="0.66842">
        <ele>76.8</ele>
        <time>2024-08-24T12:24:51Z</time>
      </trkpt>
      <trkpt lat="46.57108" lon="0.6684">
        <ele>76.2</ele>
        <time>2024-08-24T12:24:52Z</time>
      </trkpt>
      <trkpt lat="46.57101" lon="0.66836">
        <ele>75.6</ele>
        <time>2024-08-24T12:24:54Z</time>
      </trkpt>
      <trkpt lat="46.5709" lon="0.66828">
        <ele>75.2</ele>
        <time>2024-08-24T12:24:57Z</time>
      </trkpt>
      <trkpt lat="46.57078" lon="0.66816">
        <ele>74.2</ele>
        <time>2024-08-24T12:25:00Z</time>
      </trkpt>
      <trkpt lat="46.57076" lon="0.66813">
        <ele>74</ele>
        <time>2024-08-24T12:25:01Z</time>
      </trkpt>
      <trkpt lat="46.5707" lon="0.66804">
        <ele>73.4</ele>
        <time>2024-08-24T12:25:03Z</time>
      </trkpt>
      <trkpt lat="46.57068" lon="0.66801">
        <ele>73.2</ele>
        <time>2024-08-24T12:25:04Z</time>
      </trkpt>
      <trkpt lat="46.57063" lon="0.66789">
        <ele>71.8</ele>
        <time>2024-08-24T12:25:08Z</time>
      </trkpt>
      <trkpt lat="46.57059" lon="0.6678">
        <ele>71.4</ele>
        <time>2024-08-24T12:25:11Z</time>
      </trkpt>
      <trkpt lat="46.57057" lon="0.66773">
        <ele>71.4</ele>
        <time>2024-08-24T12:25:13Z</time>
      </trkpt>
      <trkpt lat="46.57055" lon="0.6677">
        <ele>71</ele>
        <time>2024-08-24T12:25:14Z</time>
      </trkpt>
      <trkpt lat="46.57051" lon="0.66767">
        <ele>70.8</ele>
        <time>2024-08-24T12:25:15Z</time>
      </trkpt>
      <trkpt lat="46.57034" lon="0.66756">
        <ele>70.8</ele>
        <time>2024-08-24T12:25:19Z</time>
      </trkpt>
      <trkpt lat="46.57009" lon="0.66739">
        <ele>70.4</ele>
        <time>2024-08-24T12:25:23Z</time>
      </trkpt>
      <trkpt lat="46.57005" lon="0.66739">
        <ele>70.2</ele>
        <time>2024-08-24T12:25:24Z</time>
      </trkpt>
      <trkpt lat="46.56992" lon="0.66743">
        <ele>69.8</ele>
        <time>2024-08-24T12:25:26Z</time>
      </trkpt>
      <trkpt lat="46.56979" lon="0.66739">
        <ele>69.6</ele>
        <time>2024-08-24T12:25:29Z</time>
      </trkpt>
      <trkpt lat="46.56972" lon="0.66736">
        <ele>69.6</ele>
        <time>2024-08-24T12:25:30Z</time>
      </trkpt>
      <trkpt lat="46.5694" lon="0.66729">
        <ele>69.8</ele>
        <time>2024-08-24T12:25:36Z</time>
      </trkpt>
      <trkpt lat="46.5692" lon="0.66729">
        <ele>69.8</ele>
        <time>2024-08-24T12:25:42Z</time>
      </trkpt>
      <trkpt lat="46.56897" lon="0.66727">
        <ele>69.8</ele>
        <time>2024-08-24T12:25:49Z</time>
      </trkpt>
      <trkpt lat="46.56877" lon="0.6673">
        <ele>70.4</ele>
        <time>2024-08-24T12:25:55Z</time>
      </trkpt>
      <trkpt lat="46.56863" lon="0.66731">
        <ele>70.2</ele>
        <time>2024-08-24T12:26:00Z</time>
      </trkpt>
      <trkpt lat="46.56857" lon="0.66726">
        <ele>70.4</ele>
        <time>2024-08-24T12:26:05Z</time>
      </trkpt>
      <trkpt lat="46.56855" lon="0.66723">
        <ele>71.2</ele>
        <time>2024-08-24T12:26:07Z</time>
      </trkpt>
      <trkpt lat="46.56853" lon="0.66719">
        <ele>71.8</ele>
        <time>2024-08-24T12:26:10Z</time>
      </trkpt>
      <trkpt lat="46.56852" lon="0.66717">
        <ele>72</ele>
        <time>2024-08-24T12:26:13Z</time>
      </trkpt>
      <trkpt lat="46.56851" lon="0.66715">
        <ele>72.4</ele>
        <time>2024-08-24T12:26:18Z</time>
      </trkpt>
      <trkpt lat="46.5685" lon="0.66714">
        <ele>72.6</ele>
        <time>2024-08-24T12:26:20Z</time>
      </trkpt>
      <trkpt lat="46.56848" lon="0.66714">
        <ele>73.4</ele>
        <time>2024-08-24T12:26:24Z</time>
      </trkpt>
      <trkpt lat="46.56845" lon="0.66714">
        <ele>74</ele>
        <time>2024-08-24T12:26:33Z</time>
      </trkpt>
      <trkpt lat="46.56843" lon="0.66712">
        <ele>74.4</ele>
        <time>2024-08-24T12:26:37Z</time>
      </trkpt>
      <trkpt lat="46.56842" lon="0.6671">
        <ele>75.6</ele>
        <time>2024-08-24T12:26:40Z</time>
      </trkpt>
      <trkpt lat="46.56839" lon="0.66707">
        <ele>76.6</ele>
        <time>2024-08-24T12:26:46Z</time>
      </trkpt>
      <trkpt lat="46.56837" lon="0.66705">
        <ele>77.4</ele>
        <time>2024-08-24T12:26:51Z</time>
      </trkpt>
      <trkpt lat="46.56837" lon="0.66705">
        <ele>77.8</ele>
        <time>2024-08-24T12:26:53Z</time>
      </trkpt>
      <trkpt lat="46.56836" lon="0.66705">
        <ele>78.6</ele>
        <time>2024-08-24T12:26:58Z</time>
      </trkpt>
      <trkpt lat="46.56835" lon="0.66704">
        <ele>78.8</ele>
        <time>2024-08-24T12:27:00Z</time>
      </trkpt>
      <trkpt lat="46.56832" lon="0.66699">
        <ele>79.6</ele>
        <time>2024-08-24T12:27:12Z</time>
      </trkpt>
      <trkpt lat="46.56831" lon="0.66698">
        <ele>80</ele>
        <time>2024-08-24T12:27:14Z</time>
      </trkpt>
      <trkpt lat="46.5683" lon="0.66696">
        <ele>81</ele>
        <time>2024-08-24T12:27:17Z</time>
      </trkpt>
      <trkpt lat="46.56828" lon="0.66693">
        <ele>82.2</ele>
        <time>2024-08-24T12:27:22Z</time>
      </trkpt>
      <trkpt lat="46.56825" lon="0.6669">
        <ele>83.2</ele>
        <time>2024-08-24T12:27:27Z</time>
      </trkpt>
      <trkpt lat="46.56825" lon="0.6669">
        <ele>83.2</ele>
        <time>2024-08-24T12:27:28Z</time>
      </trkpt>
      <trkpt lat="46.56821" lon="0.66685">
        <ele>84.2</ele>
        <time>2024-08-24T12:27:35Z</time>
      </trkpt>
      <trkpt lat="46.56821" lon="0.66685">
        <ele>84.4</ele>
        <time>2024-08-24T12:27:36Z</time>
      </trkpt>
      <trkpt lat="46.56818" lon="0.6668">
        <ele>85</ele>
        <time>2024-08-24T12:27:41Z</time>
      </trkpt>
      <trkpt lat="46.56817" lon="0.66678">
        <ele>85.4</ele>
        <time>2024-08-24T12:27:43Z</time>
      </trkpt>
      <trkpt lat="46.56817" lon="0.66677">
        <ele>85.6</ele>
        <time>2024-08-24T12:27:44Z</time>
      </trkpt>
      <trkpt lat="46.56813" lon="0.66672">
        <ele>86.4</ele>
        <time>2024-08-24T12:27:50Z</time>
      </trkpt>
      <trkpt lat="46.56812" lon="0.66672">
        <ele>86.4</ele>
        <time>2024-08-24T12:27:51Z</time>
      </trkpt>
      <trkpt lat="46.56812" lon="0.66671">
        <ele>86.4</ele>
        <time>2024-08-24T12:27:52Z</time>
      </trkpt>
      <trkpt lat="46.56811" lon="0.6667">
        <ele>86.6</ele>
        <time>2024-08-24T12:27:53Z</time>
      </trkpt>
      <trkpt lat="46.56801" lon="0.66661">
        <ele>87.2</ele>
        <time>2024-08-24T12:28:03Z</time>
      </trkpt>
      <trkpt lat="46.56799" lon="0.66658">
        <ele>87.4</ele>
        <time>2024-08-24T12:28:05Z</time>
      </trkpt>
      <trkpt lat="46.56788" lon="0.66643">
        <ele>88.4</ele>
        <time>2024-08-24T12:28:13Z</time>
      </trkpt>
      <trkpt lat="46.56787" lon="0.66642">
        <ele>88.6</ele>
        <time>2024-08-24T12:28:14Z</time>
      </trkpt>
      <trkpt lat="46.56783" lon="0.66637">
        <ele>89.6</ele>
        <time>2024-08-24T12:28:17Z</time>
      </trkpt>
      <trkpt lat="46.5678" lon="0.66633">
        <ele>90.2</ele>
        <time>2024-08-24T12:28:20Z</time>
      </trkpt>
      <trkpt lat="46.56778" lon="0.6663">
        <ele>90.6</ele>
        <time>2024-08-24T12:28:22Z</time>
      </trkpt>
      <trkpt lat="46.56771" lon="0.66622">
        <ele>91.4</ele>
        <time>2024-08-24T12:28:28Z</time>
      </trkpt>
      <trkpt lat="46.56768" lon="0.66618">
        <ele>91.8</ele>
        <time>2024-08-24T12:28:30Z</time>
      </trkpt>
      <trkpt lat="46.56759" lon="0.66609">
        <ele>92.4</ele>
        <time>2024-08-24T12:28:35Z</time>
      </trkpt>
      <trkpt lat="46.56752" lon="0.66602">
        <ele>92.8</ele>
        <time>2024-08-24T12:28:39Z</time>
      </trkpt>
      <trkpt lat="46.56746" lon="0.666">
        <ele>93.2</ele>
        <time>2024-08-24T12:28:42Z</time>
      </trkpt>
      <trkpt lat="46.56745" lon="0.66601">
        <ele>93</ele>
        <time>2024-08-24T12:28:43Z</time>
      </trkpt>
      <trkpt lat="46.56742" lon="0.6661">
        <ele>93.6</ele>
        <time>2024-08-24T12:28:47Z</time>
      </trkpt>
      <trkpt lat="46.5674" lon="0.66633">
        <ele>93</ele>
        <time>2024-08-24T12:28:54Z</time>
      </trkpt>
      <trkpt lat="46.56738" lon="0.66643">
        <ele>91.8</ele>
        <time>2024-08-24T12:28:57Z</time>
      </trkpt>
      <trkpt lat="46.56736" lon="0.66648">
        <ele>90.6</ele>
        <time>2024-08-24T12:28:59Z</time>
      </trkpt>
      <trkpt lat="46.56733" lon="0.66649">
        <ele>89.4</ele>
        <time>2024-08-24T12:29:00Z</time>
      </trkpt>
      <trkpt lat="46.56727" lon="0.66655">
        <ele>87.6</ele>
        <time>2024-08-24T12:29:03Z</time>
      </trkpt>
      <trkpt lat="46.56725" lon="0.66657">
        <ele>86.2</ele>
        <time>2024-08-24T12:29:04Z</time>
      </trkpt>
      <trkpt lat="46.5672" lon="0.66661">
        <ele>84.4</ele>
        <time>2024-08-24T12:29:06Z</time>
      </trkpt>
      <trkpt lat="46.56717" lon="0.66666">
        <ele>83</ele>
        <time>2024-08-24T12:29:07Z</time>
      </trkpt>
      <trkpt lat="46.56715" lon="0.66669">
        <ele>81.2</ele>
        <time>2024-08-24T12:29:08Z</time>
      </trkpt>
      <trkpt lat="46.56713" lon="0.66672">
        <ele>80.2</ele>
        <time>2024-08-24T12:29:09Z</time>
      </trkpt>
      <trkpt lat="46.5671" lon="0.66675">
        <ele>78.8</ele>
        <time>2024-08-24T12:29:10Z</time>
      </trkpt>
      <trkpt lat="46.56707" lon="0.66678">
        <ele>77.8</ele>
        <time>2024-08-24T12:29:11Z</time>
      </trkpt>
      <trkpt lat="46.56705" lon="0.66681">
        <ele>77.2</ele>
        <time>2024-08-24T12:29:12Z</time>
      </trkpt>
      <trkpt lat="46.56702" lon="0.66685">
        <ele>76</ele>
        <time>2024-08-24T12:29:13Z</time>
      </trkpt>
      <trkpt lat="46.56695" lon="0.66691">
        <ele>75</ele>
        <time>2024-08-24T12:29:15Z</time>
      </trkpt>
      <trkpt lat="46.56692" lon="0.66694">
        <ele>74.6</ele>
        <time>2024-08-24T12:29:16Z</time>
      </trkpt>
      <trkpt lat="46.56688" lon="0.66697">
        <ele>74.4</ele>
        <time>2024-08-24T12:29:17Z</time>
      </trkpt>
      <trkpt lat="46.56668" lon="0.66712">
        <ele>74.4</ele>
        <time>2024-08-24T12:29:23Z</time>
      </trkpt>
      <trkpt lat="46.56653" lon="0.66723">
        <ele>74.6</ele>
        <time>2024-08-24T12:29:27Z</time>
      </trkpt>
      <trkpt lat="46.56643" lon="0.66728">
        <ele>74.6</ele>
        <time>2024-08-24T12:29:29Z</time>
      </trkpt>
      <trkpt lat="46.56635" lon="0.66732">
        <ele>75.6</ele>
        <time>2024-08-24T12:29:33Z</time>
      </trkpt>
      <trkpt lat="46.56629" lon="0.66735">
        <ele>76</ele>
        <time>2024-08-24T12:29:36Z</time>
      </trkpt>
      <trkpt lat="46.56628" lon="0.66737">
        <ele>76</ele>
        <time>2024-08-24T12:29:37Z</time>
      </trkpt>
      <trkpt lat="46.56624" lon="0.66753">
        <ele>75</ele>
        <time>2024-08-24T12:29:41Z</time>
      </trkpt>
      <trkpt lat="46.56622" lon="0.66756">
        <ele>74.8</ele>
        <time>2024-08-24T12:29:42Z</time>
      </trkpt>
      <trkpt lat="46.56617" lon="0.66759">
        <ele>74.6</ele>
        <time>2024-08-24T12:29:44Z</time>
      </trkpt>
      <trkpt lat="46.56614" lon="0.66761">
        <ele>74.6</ele>
        <time>2024-08-24T12:29:45Z</time>
      </trkpt>
      <trkpt lat="46.56611" lon="0.66765">
        <ele>74.6</ele>
        <time>2024-08-24T12:29:47Z</time>
      </trkpt>
      <trkpt lat="46.56608" lon="0.66778">
        <ele>74.6</ele>
        <time>2024-08-24T12:29:50Z</time>
      </trkpt>
      <trkpt lat="46.56607" lon="0.66784">
        <ele>74.4</ele>
        <time>2024-08-24T12:29:51Z</time>
      </trkpt>
      <trkpt lat="46.56606" lon="0.6679">
        <ele>74</ele>
        <time>2024-08-24T12:29:52Z</time>
      </trkpt>
      <trkpt lat="46.56603" lon="0.66803">
        <ele>73.6</ele>
        <time>2024-08-24T12:29:54Z</time>
      </trkpt>
      <trkpt lat="46.56599" lon="0.66808">
        <ele>73.4</ele>
        <time>2024-08-24T12:29:56Z</time>
      </trkpt>
      <trkpt lat="46.56586" lon="0.6682">
        <ele>74.2</ele>
        <time>2024-08-24T12:30:03Z</time>
      </trkpt>
      <trkpt lat="46.56584" lon="0.66821">
        <ele>74.4</ele>
        <time>2024-08-24T12:30:04Z</time>
      </trkpt>
      <trkpt lat="46.56583" lon="0.66822">
        <ele>74.4</ele>
        <time>2024-08-24T12:30:05Z</time>
      </trkpt>
      <trkpt lat="46.56582" lon="0.66825">
        <ele>74.6</ele>
        <time>2024-08-24T12:30:06Z</time>
      </trkpt>
      <trkpt lat="46.56581" lon="0.66827">
        <ele>74.8</ele>
        <time>2024-08-24T12:30:07Z</time>
      </trkpt>
      <trkpt lat="46.56577" lon="0.66832">
        <ele>75.8</ele>
        <time>2024-08-24T12:30:10Z</time>
      </trkpt>
      <trkpt lat="46.56576" lon="0.66834">
        <ele>76</ele>
        <time>2024-08-24T12:30:11Z</time>
      </trkpt>
      <trkpt lat="46.56574" lon="0.66835">
        <ele>76.2</ele>
        <time>2024-08-24T12:30:12Z</time>
      </trkpt>
      <trkpt lat="46.56571" lon="0.66841">
        <ele>77.2</ele>
        <time>2024-08-24T12:30:15Z</time>
      </trkpt>
      <trkpt lat="46.5657" lon="0.66842">
        <ele>77.8</ele>
        <time>2024-08-24T12:30:16Z</time>
      </trkpt>
      <trkpt lat="46.56567" lon="0.66844">
        <ele>78.2</ele>
        <time>2024-08-24T12:30:18Z</time>
      </trkpt>
      <trkpt lat="46.56562" lon="0.66851">
        <ele>79</ele>
        <time>2024-08-24T12:30:22Z</time>
      </trkpt>
      <trkpt lat="46.56558" lon="0.66855">
        <ele>79.4</ele>
        <time>2024-08-24T12:30:24Z</time>
      </trkpt>
      <trkpt lat="46.56557" lon="0.66859">
        <ele>79.6</ele>
        <time>2024-08-24T12:30:26Z</time>
      </trkpt>
      <trkpt lat="46.56556" lon="0.66864">
        <ele>79.6</ele>
        <time>2024-08-24T12:30:28Z</time>
      </trkpt>
      <trkpt lat="46.5655" lon="0.66889">
        <ele>80</ele>
        <time>2024-08-24T12:30:36Z</time>
      </trkpt>
      <trkpt lat="46.56548" lon="0.66896">
        <ele>80.4</ele>
        <time>2024-08-24T12:30:38Z</time>
      </trkpt>
      <trkpt lat="46.5654" lon="0.6691">
        <ele>81.2</ele>
        <time>2024-08-24T12:30:43Z</time>
      </trkpt>
      <trkpt lat="46.5654" lon="0.66916">
        <ele>81.4</ele>
        <time>2024-08-24T12:30:45Z</time>
      </trkpt>
      <trkpt lat="46.56537" lon="0.66927">
        <ele>81.8</ele>
        <time>2024-08-24T12:30:49Z</time>
      </trkpt>
      <trkpt lat="46.56537" lon="0.66947">
        <ele>81.4</ele>
        <time>2024-08-24T12:30:54Z</time>
      </trkpt>
      <trkpt lat="46.56532" lon="0.66953">
        <ele>81.2</ele>
        <time>2024-08-24T12:30:57Z</time>
      </trkpt>
      <trkpt lat="46.5653" lon="0.66954">
        <ele>81.4</ele>
        <time>2024-08-24T12:30:58Z</time>
      </trkpt>
      <trkpt lat="46.56524" lon="0.66957">
        <ele>82.8</ele>
        <time>2024-08-24T12:31:01Z</time>
      </trkpt>
      <trkpt lat="46.56517" lon="0.66964">
        <ele>84</ele>
        <time>2024-08-24T12:31:05Z</time>
      </trkpt>
      <trkpt lat="46.56515" lon="0.66966">
        <ele>84.4</ele>
        <time>2024-08-24T12:31:06Z</time>
      </trkpt>
      <trkpt lat="46.56507" lon="0.66976">
        <ele>85.2</ele>
        <time>2024-08-24T12:31:10Z</time>
      </trkpt>
      <trkpt lat="46.56506" lon="0.66981">
        <ele>85.4</ele>
        <time>2024-08-24T12:31:12Z</time>
      </trkpt>
      <trkpt lat="46.56506" lon="0.67002">
        <ele>85.6</ele>
        <time>2024-08-24T12:31:18Z</time>
      </trkpt>
      <trkpt lat="46.565" lon="0.67021">
        <ele>86.4</ele>
        <time>2024-08-24T12:31:24Z</time>
      </trkpt>
      <trkpt lat="46.565" lon="0.67022">
        <ele>86.8</ele>
        <time>2024-08-24T12:31:25Z</time>
      </trkpt>
      <trkpt lat="46.56499" lon="0.67024">
        <ele>87</ele>
        <time>2024-08-24T12:31:26Z</time>
      </trkpt>
      <trkpt lat="46.56498" lon="0.67025">
        <ele>87</ele>
        <time>2024-08-24T12:31:27Z</time>
      </trkpt>
      <trkpt lat="46.56498" lon="0.67029">
        <ele>87.6</ele>
        <time>2024-08-24T12:31:29Z</time>
      </trkpt>
      <trkpt lat="46.56496" lon="0.67032">
        <ele>89</ele>
        <time>2024-08-24T12:31:31Z</time>
      </trkpt>
      <trkpt lat="46.56489" lon="0.67038">
        <ele>89.6</ele>
        <time>2024-08-24T12:31:34Z</time>
      </trkpt>
      <trkpt lat="46.56488" lon="0.67038">
        <ele>89.6</ele>
        <time>2024-08-24T12:31:35Z</time>
      </trkpt>
      <trkpt lat="46.56487" lon="0.67039">
        <ele>89.6</ele>
        <time>2024-08-24T12:31:36Z</time>
      </trkpt>
      <trkpt lat="46.56485" lon="0.67038">
        <ele>90</ele>
        <time>2024-08-24T12:31:38Z</time>
      </trkpt>
      <trkpt lat="46.56484" lon="0.67038">
        <ele>90</ele>
        <time>2024-08-24T12:31:39Z</time>
      </trkpt>
      <trkpt lat="46.5648" lon="0.67038">
        <ele>90.4</ele>
        <time>2024-08-24T12:31:42Z</time>
      </trkpt>
      <trkpt lat="46.56479" lon="0.67038">
        <ele>90.4</ele>
        <time>2024-08-24T12:31:43Z</time>
      </trkpt>
      <trkpt lat="46.56478" lon="0.67037">
        <ele>90.6</ele>
        <time>2024-08-24T12:31:44Z</time>
      </trkpt>
      <trkpt lat="46.56475" lon="0.67034">
        <ele>91.4</ele>
        <time>2024-08-24T12:31:47Z</time>
      </trkpt>
      <trkpt lat="46.56474" lon="0.67034">
        <ele>91.8</ele>
        <time>2024-08-24T12:31:48Z</time>
      </trkpt>
      <trkpt lat="46.56473" lon="0.67032">
        <ele>92.6</ele>
        <time>2024-08-24T12:31:50Z</time>
      </trkpt>
      <trkpt lat="46.5647" lon="0.6703">
        <ele>93</ele>
        <time>2024-08-24T12:31:51Z</time>
      </trkpt>
      <trkpt lat="46.56466" lon="0.67027">
        <ele>93.6</ele>
        <time>2024-08-24T12:31:55Z</time>
      </trkpt>
      <trkpt lat="46.56464" lon="0.67026">
        <ele>93.8</ele>
        <time>2024-08-24T12:31:56Z</time>
      </trkpt>
      <trkpt lat="46.56459" lon="0.67021">
        <ele>94.6</ele>
        <time>2024-08-24T12:32:00Z</time>
      </trkpt>
      <trkpt lat="46.56455" lon="0.67015">
        <ele>95.6</ele>
        <time>2024-08-24T12:32:05Z</time>
      </trkpt>
      <trkpt lat="46.56452" lon="0.67014">
        <ele>96</ele>
        <time>2024-08-24T12:32:07Z</time>
      </trkpt>
      <trkpt lat="46.56448" lon="0.67015">
        <ele>96.6</ele>
        <time>2024-08-24T12:32:10Z</time>
      </trkpt>
      <trkpt lat="46.56447" lon="0.67017">
        <ele>96.8</ele>
        <time>2024-08-24T12:32:11Z</time>
      </trkpt>
      <trkpt lat="46.56446" lon="0.67018">
        <ele>97.2</ele>
        <time>2024-08-24T12:32:12Z</time>
      </trkpt>
      <trkpt lat="46.56442" lon="0.67024">
        <ele>98.2</ele>
        <time>2024-08-24T12:32:18Z</time>
      </trkpt>
      <trkpt lat="46.56436" lon="0.67031">
        <ele>99.4</ele>
        <time>2024-08-24T12:32:25Z</time>
      </trkpt>
      <trkpt lat="46.56435" lon="0.67031">
        <ele>99.6</ele>
        <time>2024-08-24T12:32:26Z</time>
      </trkpt>
      <trkpt lat="46.56428" lon="0.67033">
        <ele>100.4</ele>
        <time>2024-08-24T12:32:32Z</time>
      </trkpt>
      <trkpt lat="46.56421" lon="0.67031">
        <ele>100.8</ele>
        <time>2024-08-24T12:32:37Z</time>
      </trkpt>
      <trkpt lat="46.56409" lon="0.67028">
        <ele>101.8</ele>
        <time>2024-08-24T12:32:44Z</time>
      </trkpt>
      <trkpt lat="46.56404" lon="0.67033">
        <ele>102.8</ele>
        <time>2024-08-24T12:32:48Z</time>
      </trkpt>
      <trkpt lat="46.56396" lon="0.67048">
        <ele>103.2</ele>
        <time>2024-08-24T12:32:54Z</time>
      </trkpt>
      <trkpt lat="46.56386" lon="0.6707">
        <ele>103.6</ele>
        <time>2024-08-24T12:33:01Z</time>
      </trkpt>
      <trkpt lat="46.56381" lon="0.67087">
        <ele>103.8</ele>
        <time>2024-08-24T12:33:06Z</time>
      </trkpt>
      <trkpt lat="46.56376" lon="0.67113">
        <ele>103.8</ele>
        <time>2024-08-24T12:33:13Z</time>
      </trkpt>
      <trkpt lat="46.56368" lon="0.67131">
        <ele>103.8</ele>
        <time>2024-08-24T12:33:18Z</time>
      </trkpt>
      <trkpt lat="46.56357" lon="0.6715">
        <ele>103.8</ele>
        <time>2024-08-24T12:33:23Z</time>
      </trkpt>
      <trkpt lat="46.56355" lon="0.67158">
        <ele>104</ele>
        <time>2024-08-24T12:33:25Z</time>
      </trkpt>
      <trkpt lat="46.56336" lon="0.67185">
        <ele>103</ele>
        <time>2024-08-24T12:33:31Z</time>
      </trkpt>
      <trkpt lat="46.56329" lon="0.67194">
        <ele>102.8</ele>
        <time>2024-08-24T12:33:33Z</time>
      </trkpt>
      <trkpt lat="46.56315" lon="0.67215">
        <ele>102</ele>
        <time>2024-08-24T12:33:37Z</time>
      </trkpt>
      <trkpt lat="46.5631" lon="0.67221">
        <ele>101.4</ele>
        <time>2024-08-24T12:33:38Z</time>
      </trkpt>
      <trkpt lat="46.56297" lon="0.6724">
        <ele>100.2</ele>
        <time>2024-08-24T12:33:41Z</time>
      </trkpt>
      <trkpt lat="46.56293" lon="0.67246">
        <ele>99.2</ele>
        <time>2024-08-24T12:33:42Z</time>
      </trkpt>
      <trkpt lat="46.5629" lon="0.67252">
        <ele>98</ele>
        <time>2024-08-24T12:33:43Z</time>
      </trkpt>
      <trkpt lat="46.56287" lon="0.67258">
        <ele>96.6</ele>
        <time>2024-08-24T12:33:44Z</time>
      </trkpt>
      <trkpt lat="46.56284" lon="0.67264">
        <ele>95.8</ele>
        <time>2024-08-24T12:33:45Z</time>
      </trkpt>
      <trkpt lat="46.56283" lon="0.67269">
        <ele>95.2</ele>
        <time>2024-08-24T12:33:46Z</time>
      </trkpt>
      <trkpt lat="46.56281" lon="0.67274">
        <ele>94.8</ele>
        <time>2024-08-24T12:33:47Z</time>
      </trkpt>
      <trkpt lat="46.56279" lon="0.67279">
        <ele>94</ele>
        <time>2024-08-24T12:33:48Z</time>
      </trkpt>
      <trkpt lat="46.56276" lon="0.67285">
        <ele>93</ele>
        <time>2024-08-24T12:33:50Z</time>
      </trkpt>
      <trkpt lat="46.56275" lon="0.67288">
        <ele>92.4</ele>
        <time>2024-08-24T12:33:51Z</time>
      </trkpt>
      <trkpt lat="46.56273" lon="0.6729">
        <ele>91.4</ele>
        <time>2024-08-24T12:33:52Z</time>
      </trkpt>
      <trkpt lat="46.56269" lon="0.67296">
        <ele>90.2</ele>
        <time>2024-08-24T12:33:55Z</time>
      </trkpt>
      <trkpt lat="46.56266" lon="0.67299">
        <ele>89.8</ele>
        <time>2024-08-24T12:33:58Z</time>
      </trkpt>
      <trkpt lat="46.56264" lon="0.67305">
        <ele>89.6</ele>
        <time>2024-08-24T12:34:04Z</time>
      </trkpt>
      <trkpt lat="46.56262" lon="0.67309">
        <ele>89</ele>
        <time>2024-08-24T12:34:13Z</time>
      </trkpt>
      <trkpt lat="46.56262" lon="0.67309">
        <ele>88.8</ele>
        <time>2024-08-24T12:34:14Z</time>
      </trkpt>
      <trkpt lat="46.56259" lon="0.67315">
        <ele>88.2</ele>
        <time>2024-08-24T12:34:31Z</time>
      </trkpt>
      <trkpt lat="46.56259" lon="0.67315">
        <ele>88</ele>
        <time>2024-08-24T12:34:32Z</time>
      </trkpt>
      <trkpt lat="46.56257" lon="0.67321">
        <ele>88</ele>
        <time>2024-08-24T12:34:48Z</time>
      </trkpt>
      <trkpt lat="46.56257" lon="0.67321">
        <ele>88</ele>
        <time>2024-08-24T12:35:02Z</time>
      </trkpt>
      <trkpt lat="46.56258" lon="0.67322">
        <ele>88</ele>
        <time>2024-08-24T12:35:07Z</time>
      </trkpt>
      <trkpt lat="46.56258" lon="0.67324">
        <ele>87.8</ele>
        <time>2024-08-24T12:35:21Z</time>
      </trkpt>
      <trkpt lat="46.56257" lon="0.67325">
        <ele>87.8</ele>
        <time>2024-08-24T12:35:38Z</time>
      </trkpt>
      <trkpt lat="46.56255" lon="0.67325">
        <ele>87.6</ele>
        <time>2024-08-24T12:35:57Z</time>
      </trkpt>
      <trkpt lat="46.56254" lon="0.67326">
        <ele>87.6</ele>
        <time>2024-08-24T12:36:16Z</time>
      </trkpt>
      <trkpt lat="46.56254" lon="0.67326">
        <ele>87.6</ele>
        <time>2024-08-24T12:36:35Z</time>
      </trkpt>
      <trkpt lat="46.5625" lon="0.67325">
        <ele>87.6</ele>
        <time>2024-08-24T12:36:57Z</time>
      </trkpt>
      <trkpt lat="46.56249" lon="0.67326">
        <ele>87.6</ele>
        <time>2024-08-24T12:37:13Z</time>
      </trkpt>
      <trkpt lat="46.56249" lon="0.67328">
        <ele>87.6</ele>
        <time>2024-08-24T12:37:29Z</time>
      </trkpt>
      <trkpt lat="46.56246" lon="0.67324">
        <ele>87.6</ele>
        <time>2024-08-24T12:37:46Z</time>
      </trkpt>
      <trkpt lat="46.5625" lon="0.67327">
        <ele>87.6</ele>
        <time>2024-08-24T12:38:03Z</time>
      </trkpt>
      <trkpt lat="46.56249" lon="0.67324">
        <ele>87.6</ele>
        <time>2024-08-24T12:38:19Z</time>
      </trkpt>
      <trkpt lat="46.56249" lon="0.67323">
        <ele>87.6</ele>
        <time>2024-08-24T12:38:29Z</time>
      </trkpt>
      <trkpt lat="46.5625" lon="0.67323">
        <ele>87.6</ele>
        <time>2024-08-24T12:38:42Z</time>
      </trkpt>
      <trkpt lat="46.56253" lon="0.67324">
        <ele>87.6</ele>
        <time>2024-08-24T12:39:00Z</time>
      </trkpt>
      <trkpt lat="46.56252" lon="0.67325">
        <ele>87.6</ele>
        <time>2024-08-24T12:39:17Z</time>
      </trkpt>
      <trkpt lat="46.5625" lon="0.67324">
        <ele>87.6</ele>
        <time>2024-08-24T12:39:30Z</time>
      </trkpt>
      <trkpt lat="46.56251" lon="0.67328">
        <ele>87.6</ele>
        <time>2024-08-24T12:39:42Z</time>
      </trkpt>
      <trkpt lat="46.56246" lon="0.67326">
        <ele>87.6</ele>
        <time>2024-08-24T12:39:55Z</time>
      </trkpt>
      <trkpt lat="46.56245" lon="0.67327">
        <ele>87.6</ele>
        <time>2024-08-24T12:39:56Z</time>
      </trkpt>
      <trkpt lat="46.56242" lon="0.6733">
        <ele>87.6</ele>
        <time>2024-08-24T12:39:58Z</time>
      </trkpt>
      <trkpt lat="46.56236" lon="0.6734">
        <ele>89</ele>
        <time>2024-08-24T12:40:05Z</time>
      </trkpt>
      <trkpt lat="46.56227" lon="0.67353">
        <ele>90.4</ele>
        <time>2024-08-24T12:40:12Z</time>
      </trkpt>
      <trkpt lat="46.56223" lon="0.67356">
        <ele>91.2</ele>
        <time>2024-08-24T12:40:14Z</time>
      </trkpt>
      <trkpt lat="46.56222" lon="0.6736">
        <ele>91.6</ele>
        <time>2024-08-24T12:40:16Z</time>
      </trkpt>
      <trkpt lat="46.56221" lon="0.67367">
        <ele>92</ele>
        <time>2024-08-24T12:40:19Z</time>
      </trkpt>
      <trkpt lat="46.56223" lon="0.67372">
        <ele>92.2</ele>
        <time>2024-08-24T12:40:22Z</time>
      </trkpt>
      <trkpt lat="46.56232" lon="0.67378">
        <ele>92.4</ele>
        <time>2024-08-24T12:40:27Z</time>
      </trkpt>
      <trkpt lat="46.56251" lon="0.67387">
        <ele>91.8</ele>
        <time>2024-08-24T12:40:33Z</time>
      </trkpt>
      <trkpt lat="46.56261" lon="0.67401">
        <ele>90.6</ele>
        <time>2024-08-24T12:40:37Z</time>
      </trkpt>
      <trkpt lat="46.56261" lon="0.67407">
        <ele>90.6</ele>
        <time>2024-08-24T12:40:38Z</time>
      </trkpt>
      <trkpt lat="46.56259" lon="0.67433">
        <ele>90</ele>
        <time>2024-08-24T12:40:42Z</time>
      </trkpt>
      <trkpt lat="46.56257" lon="0.67449">
        <ele>89.6</ele>
        <time>2024-08-24T12:40:44Z</time>
      </trkpt>
      <trkpt lat="46.56252" lon="0.67469">
        <ele>88.8</ele>
        <time>2024-08-24T12:40:47Z</time>
      </trkpt>
      <trkpt lat="46.5625" lon="0.67476">
        <ele>88.2</ele>
        <time>2024-08-24T12:40:48Z</time>
      </trkpt>
      <trkpt lat="46.56243" lon="0.67497">
        <ele>87.2</ele>
        <time>2024-08-24T12:40:51Z</time>
      </trkpt>
      <trkpt lat="46.56239" lon="0.67512">
        <ele>85.8</ele>
        <time>2024-08-24T12:40:53Z</time>
      </trkpt>
      <trkpt lat="46.56237" lon="0.6752">
        <ele>85.2</ele>
        <time>2024-08-24T12:40:54Z</time>
      </trkpt>
      <trkpt lat="46.56234" lon="0.67528">
        <ele>84.2</ele>
        <time>2024-08-24T12:40:55Z</time>
      </trkpt>
      <trkpt lat="46.56225" lon="0.67553">
        <ele>82.8</ele>
        <time>2024-08-24T12:40:58Z</time>
      </trkpt>
      <trkpt lat="46.56219" lon="0.67571">
        <ele>82.2</ele>
        <time>2024-08-24T12:41:00Z</time>
      </trkpt>
      <trkpt lat="46.5621" lon="0.67608">
        <ele>81.6</ele>
        <time>2024-08-24T12:41:04Z</time>
      </trkpt>
      <trkpt lat="46.56208" lon="0.67618">
        <ele>81.4</ele>
        <time>2024-08-24T12:41:05Z</time>
      </trkpt>
      <trkpt lat="46.56205" lon="0.67642">
        <ele>80.6</ele>
        <time>2024-08-24T12:41:08Z</time>
      </trkpt>
      <trkpt lat="46.56205" lon="0.67649">
        <ele>80.2</ele>
        <time>2024-08-24T12:41:09Z</time>
      </trkpt>
      <trkpt lat="46.56205" lon="0.67664">
        <ele>79.8</ele>
        <time>2024-08-24T12:41:11Z</time>
      </trkpt>
      <trkpt lat="46.56206" lon="0.67672">
        <ele>79.6</ele>
        <time>2024-08-24T12:41:12Z</time>
      </trkpt>
      <trkpt lat="46.5621" lon="0.67695">
        <ele>79</ele>
        <time>2024-08-24T12:41:15Z</time>
      </trkpt>
      <trkpt lat="46.56211" lon="0.67702">
        <ele>78.8</ele>
        <time>2024-08-24T12:41:16Z</time>
      </trkpt>
      <trkpt lat="46.56213" lon="0.67709">
        <ele>78.6</ele>
        <time>2024-08-24T12:41:17Z</time>
      </trkpt>
      <trkpt lat="46.56217" lon="0.67721">
        <ele>78</ele>
        <time>2024-08-24T12:41:19Z</time>
      </trkpt>
      <trkpt lat="46.5622" lon="0.67731">
        <ele>77.6</ele>
        <time>2024-08-24T12:41:21Z</time>
      </trkpt>
      <trkpt lat="46.56223" lon="0.67749">
        <ele>77.2</ele>
        <time>2024-08-24T12:41:24Z</time>
      </trkpt>
      <trkpt lat="46.56225" lon="0.67769">
        <ele>77</ele>
        <time>2024-08-24T12:41:27Z</time>
      </trkpt>
      <trkpt lat="46.56231" lon="0.67804">
        <ele>75.8</ele>
        <time>2024-08-24T12:41:32Z</time>
      </trkpt>
      <trkpt lat="46.56231" lon="0.6781">
        <ele>75.6</ele>
        <time>2024-08-24T12:41:33Z</time>
      </trkpt>
      <trkpt lat="46.5623" lon="0.67825">
        <ele>75.2</ele>
        <time>2024-08-24T12:41:35Z</time>
      </trkpt>
      <trkpt lat="46.5623" lon="0.67843">
        <ele>74.4</ele>
        <time>2024-08-24T12:41:37Z</time>
      </trkpt>
      <trkpt lat="46.5623" lon="0.67853">
        <ele>74</ele>
        <time>2024-08-24T12:41:38Z</time>
      </trkpt>
      <trkpt lat="46.56229" lon="0.67863">
        <ele>73.8</ele>
        <time>2024-08-24T12:41:39Z</time>
      </trkpt>
      <trkpt lat="46.56226" lon="0.67882">
        <ele>73.4</ele>
        <time>2024-08-24T12:41:41Z</time>
      </trkpt>
      <trkpt lat="46.56226" lon="0.67899">
        <ele>73.2</ele>
        <time>2024-08-24T12:41:43Z</time>
      </trkpt>
      <trkpt lat="46.5623" lon="0.67918">
        <ele>72.6</ele>
        <time>2024-08-24T12:41:46Z</time>
      </trkpt>
      <trkpt lat="46.56235" lon="0.67929">
        <ele>72.6</ele>
        <time>2024-08-24T12:41:48Z</time>
      </trkpt>
      <trkpt lat="46.56251" lon="0.67949">
        <ele>72.6</ele>
        <time>2024-08-24T12:41:54Z</time>
      </trkpt>
      <trkpt lat="46.56258" lon="0.67949">
        <ele>72.8</ele>
        <time>2024-08-24T12:41:58Z</time>
      </trkpt>
      <trkpt lat="46.5627" lon="0.6794">
        <ele>72.6</ele>
        <time>2024-08-24T12:42:04Z</time>
      </trkpt>
      <trkpt lat="46.56272" lon="0.6794">
        <ele>72.4</ele>
        <time>2024-08-24T12:42:05Z</time>
      </trkpt>
      <trkpt lat="46.56276" lon="0.67942">
        <ele>73</ele>
        <time>2024-08-24T12:42:09Z</time>
      </trkpt>
      <trkpt lat="46.56286" lon="0.67951">
        <ele>74.4</ele>
        <time>2024-08-24T12:42:15Z</time>
      </trkpt>
      <trkpt lat="46.56287" lon="0.67953">
        <ele>74.6</ele>
        <time>2024-08-24T12:42:16Z</time>
      </trkpt>
      <trkpt lat="46.56289" lon="0.67956">
        <ele>74.8</ele>
        <time>2024-08-24T12:42:18Z</time>
      </trkpt>
      <trkpt lat="46.56293" lon="0.67958">
        <ele>75</ele>
        <time>2024-08-24T12:42:20Z</time>
      </trkpt>
      <trkpt lat="46.56294" lon="0.67958">
        <ele>75</ele>
        <time>2024-08-24T12:42:21Z</time>
      </trkpt>
      <trkpt lat="46.56301" lon="0.67957">
        <ele>75</ele>
        <time>2024-08-24T12:42:26Z</time>
      </trkpt>
      <trkpt lat="46.56302" lon="0.67957">
        <ele>75</ele>
        <time>2024-08-24T12:42:27Z</time>
      </trkpt>
      <trkpt lat="46.56307" lon="0.67958">
        <ele>75.6</ele>
        <time>2024-08-24T12:42:30Z</time>
      </trkpt>
      <trkpt lat="46.5631" lon="0.67961">
        <ele>76</ele>
        <time>2024-08-24T12:42:33Z</time>
      </trkpt>
      <trkpt lat="46.56311" lon="0.67963">
        <ele>76.2</ele>
        <time>2024-08-24T12:42:34Z</time>
      </trkpt>
      <trkpt lat="46.56318" lon="0.67969">
        <ele>76.6</ele>
        <time>2024-08-24T12:42:37Z</time>
      </trkpt>
      <trkpt lat="46.56327" lon="0.67973">
        <ele>77.4</ele>
        <time>2024-08-24T12:42:41Z</time>
      </trkpt>
      <trkpt lat="46.5633" lon="0.67975">
        <ele>78</ele>
        <time>2024-08-24T12:42:43Z</time>
      </trkpt>
      <trkpt lat="46.56331" lon="0.67978">
        <ele>78.2</ele>
        <time>2024-08-24T12:42:44Z</time>
      </trkpt>
      <trkpt lat="46.56335" lon="0.6798">
        <ele>78.4</ele>
        <time>2024-08-24T12:42:47Z</time>
      </trkpt>
      <trkpt lat="46.56344" lon="0.67986">
        <ele>79</ele>
        <time>2024-08-24T12:42:52Z</time>
      </trkpt>
      <trkpt lat="46.56346" lon="0.67987">
        <ele>79.2</ele>
        <time>2024-08-24T12:42:53Z</time>
      </trkpt>
      <trkpt lat="46.56348" lon="0.67987">
        <ele>79.4</ele>
        <time>2024-08-24T12:42:54Z</time>
      </trkpt>
      <trkpt lat="46.56357" lon="0.6799">
        <ele>80.2</ele>
        <time>2024-08-24T12:42:59Z</time>
      </trkpt>
      <trkpt lat="46.56359" lon="0.67991">
        <ele>80.2</ele>
        <time>2024-08-24T12:43:00Z</time>
      </trkpt>
      <trkpt lat="46.56361" lon="0.67993">
        <ele>80.4</ele>
        <time>2024-08-24T12:43:01Z</time>
      </trkpt>
      <trkpt lat="46.56367" lon="0.67999">
        <ele>81.2</ele>
        <time>2024-08-24T12:43:05Z</time>
      </trkpt>
      <trkpt lat="46.56371" lon="0.68001">
        <ele>81.6</ele>
        <time>2024-08-24T12:43:08Z</time>
      </trkpt>
      <trkpt lat="46.56372" lon="0.68003">
        <ele>81.6</ele>
        <time>2024-08-24T12:43:09Z</time>
      </trkpt>
      <trkpt lat="46.56379" lon="0.68008">
        <ele>82.4</ele>
        <time>2024-08-24T12:43:12Z</time>
      </trkpt>
      <trkpt lat="46.56386" lon="0.68013">
        <ele>83.8</ele>
        <time>2024-08-24T12:43:16Z</time>
      </trkpt>
      <trkpt lat="46.56395" lon="0.6802">
        <ele>85</ele>
        <time>2024-08-24T12:43:23Z</time>
      </trkpt>
      <trkpt lat="46.56402" lon="0.68026">
        <ele>85.4</ele>
        <time>2024-08-24T12:43:29Z</time>
      </trkpt>
      <trkpt lat="46.56403" lon="0.68027">
        <ele>85.6</ele>
        <time>2024-08-24T12:43:30Z</time>
      </trkpt>
      <trkpt lat="46.56403" lon="0.68028">
        <ele>85.8</ele>
        <time>2024-08-24T12:43:31Z</time>
      </trkpt>
      <trkpt lat="46.56404" lon="0.68029">
        <ele>86</ele>
        <time>2024-08-24T12:43:32Z</time>
      </trkpt>
      <trkpt lat="46.56405" lon="0.68029">
        <ele>86.4</ele>
        <time>2024-08-24T12:43:34Z</time>
      </trkpt>
      <trkpt lat="46.56407" lon="0.68029">
        <ele>87</ele>
        <time>2024-08-24T12:43:36Z</time>
      </trkpt>
      <trkpt lat="46.56408" lon="0.68029">
        <ele>87.6</ele>
        <time>2024-08-24T12:43:38Z</time>
      </trkpt>
      <trkpt lat="46.56412" lon="0.68033">
        <ele>88</ele>
        <time>2024-08-24T12:43:41Z</time>
      </trkpt>
      <trkpt lat="46.56415" lon="0.68035">
        <ele>88.4</ele>
        <time>2024-08-24T12:43:43Z</time>
      </trkpt>
      <trkpt lat="46.56416" lon="0.68036">
        <ele>88.4</ele>
        <time>2024-08-24T12:43:44Z</time>
      </trkpt>
      <trkpt lat="46.56417" lon="0.68037">
        <ele>88.6</ele>
        <time>2024-08-24T12:43:45Z</time>
      </trkpt>
      <trkpt lat="46.5642" lon="0.6804">
        <ele>89.2</ele>
        <time>2024-08-24T12:43:48Z</time>
      </trkpt>
      <trkpt lat="46.56424" lon="0.68044">
        <ele>90</ele>
        <time>2024-08-24T12:43:52Z</time>
      </trkpt>
      <trkpt lat="46.56426" lon="0.68044">
        <ele>90.2</ele>
        <time>2024-08-24T12:43:53Z</time>
      </trkpt>
      <trkpt lat="46.56426" lon="0.68045">
        <ele>90.2</ele>
        <time>2024-08-24T12:43:54Z</time>
      </trkpt>
      <trkpt lat="46.56431" lon="0.68046">
        <ele>91.2</ele>
        <time>2024-08-24T12:43:57Z</time>
      </trkpt>
      <trkpt lat="46.56433" lon="0.68047">
        <ele>91.6</ele>
        <time>2024-08-24T12:43:58Z</time>
      </trkpt>
      <trkpt lat="46.56436" lon="0.68047">
        <ele>92</ele>
        <time>2024-08-24T12:44:00Z</time>
      </trkpt>
      <trkpt lat="46.56438" lon="0.68047">
        <ele>92.2</ele>
        <time>2024-08-24T12:44:01Z</time>
      </trkpt>
      <trkpt lat="46.5644" lon="0.68048">
        <ele>92.6</ele>
        <time>2024-08-24T12:44:04Z</time>
      </trkpt>
      <trkpt lat="46.56441" lon="0.68048">
        <ele>92.6</ele>
        <time>2024-08-24T12:44:05Z</time>
      </trkpt>
      <trkpt lat="46.56441" lon="0.68047">
        <ele>93</ele>
        <time>2024-08-24T12:44:06Z</time>
      </trkpt>
      <trkpt lat="46.56445" lon="0.6805">
        <ele>93.4</ele>
        <time>2024-08-24T12:44:10Z</time>
      </trkpt>
      <trkpt lat="46.56446" lon="0.68051">
        <ele>93.8</ele>
        <time>2024-08-24T12:44:11Z</time>
      </trkpt>
      <trkpt lat="46.56446" lon="0.68053">
        <ele>94</ele>
        <time>2024-08-24T12:44:12Z</time>
      </trkpt>
      <trkpt lat="46.56448" lon="0.68053">
        <ele>94.4</ele>
        <time>2024-08-24T12:44:13Z</time>
      </trkpt>
      <trkpt lat="46.56448" lon="0.68054">
        <ele>94.8</ele>
        <time>2024-08-24T12:44:14Z</time>
      </trkpt>
      <trkpt lat="46.56451" lon="0.68056">
        <ele>95.6</ele>
        <time>2024-08-24T12:44:17Z</time>
      </trkpt>
      <trkpt lat="46.56452" lon="0.68057">
        <ele>96</ele>
        <time>2024-08-24T12:44:19Z</time>
      </trkpt>
      <trkpt lat="46.56453" lon="0.68058">
        <ele>96.4</ele>
        <time>2024-08-24T12:44:20Z</time>
      </trkpt>
      <trkpt lat="46.56455" lon="0.68058">
        <ele>96.8</ele>
        <time>2024-08-24T12:44:22Z</time>
      </trkpt>
      <trkpt lat="46.56456" lon="0.68058">
        <ele>97</ele>
        <time>2024-08-24T12:44:23Z</time>
      </trkpt>
      <trkpt lat="46.56459" lon="0.68059">
        <ele>98.2</ele>
        <time>2024-08-24T12:44:26Z</time>
      </trkpt>
      <trkpt lat="46.5646" lon="0.6806">
        <ele>99</ele>
        <time>2024-08-24T12:44:28Z</time>
      </trkpt>
      <trkpt lat="46.5646" lon="0.68061">
        <ele>99.2</ele>
        <time>2024-08-24T12:44:29Z</time>
      </trkpt>
      <trkpt lat="46.56461" lon="0.68062">
        <ele>99.2</ele>
        <time>2024-08-24T12:44:30Z</time>
      </trkpt>
      <trkpt lat="46.56461" lon="0.68064">
        <ele>99.4</ele>
        <time>2024-08-24T12:44:32Z</time>
      </trkpt>
      <trkpt lat="46.56463" lon="0.68067">
        <ele>100.4</ele>
        <time>2024-08-24T12:44:35Z</time>
      </trkpt>
      <trkpt lat="46.56465" lon="0.68069">
        <ele>101</ele>
        <time>2024-08-24T12:44:37Z</time>
      </trkpt>
      <trkpt lat="46.56467" lon="0.68071">
        <ele>101.4</ele>
        <time>2024-08-24T12:44:38Z</time>
      </trkpt>
      <trkpt lat="46.5647" lon="0.68077">
        <ele>102.6</ele>
        <time>2024-08-24T12:44:42Z</time>
      </trkpt>
      <trkpt lat="46.56472" lon="0.68079">
        <ele>103</ele>
        <time>2024-08-24T12:44:44Z</time>
      </trkpt>
      <trkpt lat="46.56473" lon="0.68081">
        <ele>103.6</ele>
        <time>2024-08-24T12:44:46Z</time>
      </trkpt>
      <trkpt lat="46.56473" lon="0.68083">
        <ele>104</ele>
        <time>2024-08-24T12:44:48Z</time>
      </trkpt>
      <trkpt lat="46.56474" lon="0.68086">
        <ele>104.2</ele>
        <time>2024-08-24T12:44:50Z</time>
      </trkpt>
      <trkpt lat="46.56476" lon="0.68089">
        <ele>104.6</ele>
        <time>2024-08-24T12:44:52Z</time>
      </trkpt>
      <trkpt lat="46.56477" lon="0.6809">
        <ele>104.6</ele>
        <time>2024-08-24T12:44:53Z</time>
      </trkpt>
      <trkpt lat="46.56478" lon="0.68091">
        <ele>104.6</ele>
        <time>2024-08-24T12:44:54Z</time>
      </trkpt>
      <trkpt lat="46.56483" lon="0.68098">
        <ele>105.8</ele>
        <time>2024-08-24T12:45:00Z</time>
      </trkpt>
      <trkpt lat="46.56484" lon="0.681">
        <ele>106</ele>
        <time>2024-08-24T12:45:01Z</time>
      </trkpt>
      <trkpt lat="46.56485" lon="0.68102">
        <ele>106.4</ele>
        <time>2024-08-24T12:45:03Z</time>
      </trkpt>
      <trkpt lat="46.56486" lon="0.68102">
        <ele>106.8</ele>
        <time>2024-08-24T12:45:04Z</time>
      </trkpt>
      <trkpt lat="46.56486" lon="0.68103">
        <ele>107.2</ele>
        <time>2024-08-24T12:45:05Z</time>
      </trkpt>
      <trkpt lat="46.56489" lon="0.68106">
        <ele>108</ele>
        <time>2024-08-24T12:45:10Z</time>
      </trkpt>
      <trkpt lat="46.56489" lon="0.68108">
        <ele>108</ele>
        <time>2024-08-24T12:45:12Z</time>
      </trkpt>
      <trkpt lat="46.5649" lon="0.68112">
        <ele>108.4</ele>
        <time>2024-08-24T12:45:15Z</time>
      </trkpt>
      <trkpt lat="46.56489" lon="0.68115">
        <ele>108.8</ele>
        <time>2024-08-24T12:45:18Z</time>
      </trkpt>
      <trkpt lat="46.56488" lon="0.68117">
        <ele>109</ele>
        <time>2024-08-24T12:45:20Z</time>
      </trkpt>
      <trkpt lat="46.56488" lon="0.68118">
        <ele>109</ele>
        <time>2024-08-24T12:45:21Z</time>
      </trkpt>
      <trkpt lat="46.56487" lon="0.6813">
        <ele>109.2</ele>
        <time>2024-08-24T12:45:29Z</time>
      </trkpt>
      <trkpt lat="46.56482" lon="0.68147">
        <ele>109</ele>
        <time>2024-08-24T12:45:36Z</time>
      </trkpt>
      <trkpt lat="46.5648" lon="0.68164">
        <ele>109.4</ele>
        <time>2024-08-24T12:45:43Z</time>
      </trkpt>
      <trkpt lat="46.56478" lon="0.68167">
        <ele>109.4</ele>
        <time>2024-08-24T12:45:45Z</time>
      </trkpt>
      <trkpt lat="46.56475" lon="0.68169">
        <ele>109</ele>
        <time>2024-08-24T12:45:48Z</time>
      </trkpt>
      <trkpt lat="46.5647" lon="0.68174">
        <ele>108.8</ele>
        <time>2024-08-24T12:45:49Z</time>
      </trkpt>
      <trkpt lat="46.56456" lon="0.6819">
        <ele>108.6</ele>
        <time>2024-08-24T12:45:57Z</time>
      </trkpt>
      <trkpt lat="46.56454" lon="0.68193">
        <ele>108.6</ele>
        <time>2024-08-24T12:45:58Z</time>
      </trkpt>
      <trkpt lat="46.56453" lon="0.68198">
        <ele>108.8</ele>
        <time>2024-08-24T12:46:00Z</time>
      </trkpt>
      <trkpt lat="46.5645" lon="0.68209">
        <ele>109</ele>
        <time>2024-08-24T12:46:05Z</time>
      </trkpt>
      <trkpt lat="46.56438" lon="0.68219">
        <ele>109.6</ele>
        <time>2024-08-24T12:46:10Z</time>
      </trkpt>
      <trkpt lat="46.56417" lon="0.6823">
        <ele>109.2</ele>
        <time>2024-08-24T12:46:15Z</time>
      </trkpt>
      <trkpt lat="46.564" lon="0.68236">
        <ele>107.8</ele>
        <time>2024-08-24T12:46:19Z</time>
      </trkpt>
      <trkpt lat="46.56392" lon="0.68239">
        <ele>106.6</ele>
        <time>2024-08-24T12:46:21Z</time>
      </trkpt>
      <trkpt lat="46.56381" lon="0.68242">
        <ele>106</ele>
        <time>2024-08-24T12:46:23Z</time>
      </trkpt>
      <trkpt lat="46.56377" lon="0.68244">
        <ele>105.2</ele>
        <time>2024-08-24T12:46:24Z</time>
      </trkpt>
      <trkpt lat="46.56371" lon="0.68247">
        <ele>103.8</ele>
        <time>2024-08-24T12:46:26Z</time>
      </trkpt>
      <trkpt lat="46.56368" lon="0.68248">
        <ele>102.6</ele>
        <time>2024-08-24T12:46:27Z</time>
      </trkpt>
      <trkpt lat="46.56365" lon="0.68249">
        <ele>102</ele>
        <time>2024-08-24T12:46:28Z</time>
      </trkpt>
      <trkpt lat="46.56363" lon="0.68249">
        <ele>101</ele>
        <time>2024-08-24T12:46:29Z</time>
      </trkpt>
      <trkpt lat="46.56356" lon="0.6825">
        <ele>98.8</ele>
        <time>2024-08-24T12:46:31Z</time>
      </trkpt>
      <trkpt lat="46.56354" lon="0.6825">
        <ele>97.6</ele>
        <time>2024-08-24T12:46:32Z</time>
      </trkpt>
      <trkpt lat="46.56352" lon="0.68251">
        <ele>96.6</ele>
        <time>2024-08-24T12:46:33Z</time>
      </trkpt>
      <trkpt lat="46.5635" lon="0.68252">
        <ele>95.6</ele>
        <time>2024-08-24T12:46:34Z</time>
      </trkpt>
      <trkpt lat="46.56349" lon="0.68253">
        <ele>95</ele>
        <time>2024-08-24T12:46:35Z</time>
      </trkpt>
      <trkpt lat="46.56344" lon="0.68256">
        <ele>93.8</ele>
        <time>2024-08-24T12:46:38Z</time>
      </trkpt>
      <trkpt lat="46.56338" lon="0.68259">
        <ele>91.6</ele>
        <time>2024-08-24T12:46:40Z</time>
      </trkpt>
      <trkpt lat="46.56334" lon="0.68261">
        <ele>90</ele>
        <time>2024-08-24T12:46:42Z</time>
      </trkpt>
      <trkpt lat="46.5633" lon="0.68264">
        <ele>88.4</ele>
        <time>2024-08-24T12:46:44Z</time>
      </trkpt>
      <trkpt lat="46.56327" lon="0.68265">
        <ele>87.6</ele>
        <time>2024-08-24T12:46:45Z</time>
      </trkpt>
      <trkpt lat="46.56325" lon="0.68266">
        <ele>86.8</ele>
        <time>2024-08-24T12:46:46Z</time>
      </trkpt>
      <trkpt lat="46.56323" lon="0.68268">
        <ele>85.4</ele>
        <time>2024-08-24T12:46:47Z</time>
      </trkpt>
      <trkpt lat="46.5632" lon="0.68271">
        <ele>84.2</ele>
        <time>2024-08-24T12:46:49Z</time>
      </trkpt>
      <trkpt lat="46.56318" lon="0.68271">
        <ele>83.4</ele>
        <time>2024-08-24T12:46:50Z</time>
      </trkpt>
      <trkpt lat="46.56317" lon="0.68272">
        <ele>82.4</ele>
        <time>2024-08-24T12:46:51Z</time>
      </trkpt>
      <trkpt lat="46.56314" lon="0.68272">
        <ele>81</ele>
        <time>2024-08-24T12:46:53Z</time>
      </trkpt>
      <trkpt lat="46.56311" lon="0.68272">
        <ele>79.6</ele>
        <time>2024-08-24T12:46:55Z</time>
      </trkpt>
      <trkpt lat="46.56308" lon="0.68273">
        <ele>79</ele>
        <time>2024-08-24T12:46:56Z</time>
      </trkpt>
      <trkpt lat="46.56297" lon="0.68279">
        <ele>78.2</ele>
        <time>2024-08-24T12:46:58Z</time>
      </trkpt>
      <trkpt lat="46.56292" lon="0.68287">
        <ele>77.8</ele>
        <time>2024-08-24T12:47:00Z</time>
      </trkpt>
      <trkpt lat="46.5629" lon="0.68295">
        <ele>77.4</ele>
        <time>2024-08-24T12:47:02Z</time>
      </trkpt>
      <trkpt lat="46.56276" lon="0.68317">
        <ele>77.6</ele>
        <time>2024-08-24T12:47:09Z</time>
      </trkpt>
      <trkpt lat="46.56265" lon="0.68327">
        <ele>78.4</ele>
        <time>2024-08-24T12:47:12Z</time>
      </trkpt>
      <trkpt lat="46.5626" lon="0.68337">
        <ele>79</ele>
        <time>2024-08-24T12:47:14Z</time>
      </trkpt>
      <trkpt lat="46.5626" lon="0.6834">
        <ele>79.2</ele>
        <time>2024-08-24T12:47:15Z</time>
      </trkpt>
      <trkpt lat="46.56264" lon="0.68351">
        <ele>80.2</ele>
        <time>2024-08-24T12:47:21Z</time>
      </trkpt>
      <trkpt lat="46.56265" lon="0.68354">
        <ele>80.4</ele>
        <time>2024-08-24T12:47:22Z</time>
      </trkpt>
      <trkpt lat="46.5627" lon="0.68365">
        <ele>81.6</ele>
        <time>2024-08-24T12:47:27Z</time>
      </trkpt>
      <trkpt lat="46.56273" lon="0.6837">
        <ele>82</ele>
        <time>2024-08-24T12:47:29Z</time>
      </trkpt>
      <trkpt lat="46.56275" lon="0.6838">
        <ele>82.8</ele>
        <time>2024-08-24T12:47:33Z</time>
      </trkpt>
      <trkpt lat="46.56277" lon="0.68387">
        <ele>83.2</ele>
        <time>2024-08-24T12:47:36Z</time>
      </trkpt>
      <trkpt lat="46.5628" lon="0.684">
        <ele>83.8</ele>
        <time>2024-08-24T12:47:41Z</time>
      </trkpt>
      <trkpt lat="46.56283" lon="0.68407">
        <ele>84.2</ele>
        <time>2024-08-24T12:47:44Z</time>
      </trkpt>
      <trkpt lat="46.56286" lon="0.68415">
        <ele>85</ele>
        <time>2024-08-24T12:47:48Z</time>
      </trkpt>
      <trkpt lat="46.56292" lon="0.68428">
        <ele>85.4</ele>
        <time>2024-08-24T12:47:54Z</time>
      </trkpt>
      <trkpt lat="46.56296" lon="0.68448">
        <ele>86</ele>
        <time>2024-08-24T12:48:01Z</time>
      </trkpt>
      <trkpt lat="46.56297" lon="0.68456">
        <ele>86.8</ele>
        <time>2024-08-24T12:48:03Z</time>
      </trkpt>
      <trkpt lat="46.56297" lon="0.68459">
        <ele>87.2</ele>
        <time>2024-08-24T12:48:04Z</time>
      </trkpt>
      <trkpt lat="46.56297" lon="0.68481">
        <ele>88</ele>
        <time>2024-08-24T12:48:11Z</time>
      </trkpt>
      <trkpt lat="46.56297" lon="0.68484">
        <ele>88.4</ele>
        <time>2024-08-24T12:48:12Z</time>
      </trkpt>
      <trkpt lat="46.56291" lon="0.68502">
        <ele>89.4</ele>
        <time>2024-08-24T12:48:19Z</time>
      </trkpt>
      <trkpt lat="46.56282" lon="0.6852">
        <ele>89</ele>
        <time>2024-08-24T12:48:27Z</time>
      </trkpt>
      <trkpt lat="46.56273" lon="0.68539">
        <ele>88.6</ele>
        <time>2024-08-24T12:48:35Z</time>
      </trkpt>
      <trkpt lat="46.56265" lon="0.68557">
        <ele>90</ele>
        <time>2024-08-24T12:48:42Z</time>
      </trkpt>
      <trkpt lat="46.56264" lon="0.68559">
        <ele>90.2</ele>
        <time>2024-08-24T12:48:43Z</time>
      </trkpt>
      <trkpt lat="46.56264" lon="0.68562">
        <ele>90.6</ele>
        <time>2024-08-24T12:48:44Z</time>
      </trkpt>
      <trkpt lat="46.56261" lon="0.6857">
        <ele>91</ele>
        <time>2024-08-24T12:48:48Z</time>
      </trkpt>
      <trkpt lat="46.56255" lon="0.68582">
        <ele>91.6</ele>
        <time>2024-08-24T12:48:54Z</time>
      </trkpt>
      <trkpt lat="46.56253" lon="0.68587">
        <ele>91.8</ele>
        <time>2024-08-24T12:48:56Z</time>
      </trkpt>
      <trkpt lat="46.5625" lon="0.68595">
        <ele>92.6</ele>
        <time>2024-08-24T12:49:00Z</time>
      </trkpt>
      <trkpt lat="46.56247" lon="0.68602">
        <ele>93.8</ele>
        <time>2024-08-24T12:49:04Z</time>
      </trkpt>
      <trkpt lat="46.56243" lon="0.68612">
        <ele>94.8</ele>
        <time>2024-08-24T12:49:09Z</time>
      </trkpt>
      <trkpt lat="46.56241" lon="0.68618">
        <ele>95.2</ele>
        <time>2024-08-24T12:49:12Z</time>
      </trkpt>
      <trkpt lat="46.56239" lon="0.68626">
        <ele>96</ele>
        <time>2024-08-24T12:49:16Z</time>
      </trkpt>
      <trkpt lat="46.56238" lon="0.6863">
        <ele>96.2</ele>
        <time>2024-08-24T12:49:18Z</time>
      </trkpt>
      <trkpt lat="46.56237" lon="0.68634">
        <ele>96.4</ele>
        <time>2024-08-24T12:49:20Z</time>
      </trkpt>
      <trkpt lat="46.56235" lon="0.68641">
        <ele>97.2</ele>
        <time>2024-08-24T12:49:24Z</time>
      </trkpt>
      <trkpt lat="46.56235" lon="0.68643">
        <ele>98.4</ele>
        <time>2024-08-24T12:49:26Z</time>
      </trkpt>
      <trkpt lat="46.56235" lon="0.68644">
        <ele>99</ele>
        <time>2024-08-24T12:49:27Z</time>
      </trkpt>
      <trkpt lat="46.56236" lon="0.68648">
        <ele>99.6</ele>
        <time>2024-08-24T12:49:30Z</time>
      </trkpt>
      <trkpt lat="46.56239" lon="0.68653">
        <ele>100.8</ele>
        <time>2024-08-24T12:49:34Z</time>
      </trkpt>
      <trkpt lat="46.5624" lon="0.68655">
        <ele>101.4</ele>
        <time>2024-08-24T12:49:36Z</time>
      </trkpt>
      <trkpt lat="46.56242" lon="0.68658">
        <ele>101.8</ele>
        <time>2024-08-24T12:49:39Z</time>
      </trkpt>
      <trkpt lat="46.56246" lon="0.68661">
        <ele>103</ele>
        <time>2024-08-24T12:49:43Z</time>
      </trkpt>
      <trkpt lat="46.56248" lon="0.68662">
        <ele>103.2</ele>
        <time>2024-08-24T12:49:45Z</time>
      </trkpt>
      <trkpt lat="46.56256" lon="0.68665">
        <ele>104.2</ele>
        <time>2024-08-24T12:49:52Z</time>
      </trkpt>
      <trkpt lat="46.56257" lon="0.68666">
        <ele>104.2</ele>
        <time>2024-08-24T12:49:53Z</time>
      </trkpt>
      <trkpt lat="46.56265" lon="0.68667">
        <ele>105.4</ele>
        <time>2024-08-24T12:49:59Z</time>
      </trkpt>
      <trkpt lat="46.56268" lon="0.68667">
        <ele>105.6</ele>
        <time>2024-08-24T12:50:01Z</time>
      </trkpt>
      <trkpt lat="46.56278" lon="0.6867">
        <ele>106.4</ele>
        <time>2024-08-24T12:50:08Z</time>
      </trkpt>
      <trkpt lat="46.5628" lon="0.68671">
        <ele>106.6</ele>
        <time>2024-08-24T12:50:09Z</time>
      </trkpt>
      <trkpt lat="46.56287" lon="0.68674">
        <ele>107.4</ele>
        <time>2024-08-24T12:50:16Z</time>
      </trkpt>
      <trkpt lat="46.56294" lon="0.68679">
        <ele>108.6</ele>
        <time>2024-08-24T12:50:20Z</time>
      </trkpt>
      <trkpt lat="46.56302" lon="0.68681">
        <ele>109.2</ele>
        <time>2024-08-24T12:50:24Z</time>
      </trkpt>
      <trkpt lat="46.56307" lon="0.68687">
        <ele>109.8</ele>
        <time>2024-08-24T12:50:27Z</time>
      </trkpt>
      <trkpt lat="46.56317" lon="0.687">
        <ele>110.6</ele>
        <time>2024-08-24T12:50:32Z</time>
      </trkpt>
      <trkpt lat="46.56318" lon="0.68703">
        <ele>111</ele>
        <time>2024-08-24T12:50:33Z</time>
      </trkpt>
      <trkpt lat="46.56332" lon="0.68729">
        <ele>112</ele>
        <time>2024-08-24T12:50:41Z</time>
      </trkpt>
      <trkpt lat="46.56333" lon="0.68732">
        <ele>112</ele>
        <time>2024-08-24T12:50:42Z</time>
      </trkpt>
      <trkpt lat="46.56344" lon="0.68757">
        <ele>113</ele>
        <time>2024-08-24T12:50:49Z</time>
      </trkpt>
      <trkpt lat="46.56346" lon="0.68761">
        <ele>113.2</ele>
        <time>2024-08-24T12:50:50Z</time>
      </trkpt>
      <trkpt lat="46.5636" lon="0.68788">
        <ele>114</ele>
        <time>2024-08-24T12:50:57Z</time>
      </trkpt>
      <trkpt lat="46.56364" lon="0.68796">
        <ele>114.2</ele>
        <time>2024-08-24T12:50:59Z</time>
      </trkpt>
      <trkpt lat="46.56379" lon="0.68819">
        <ele>115.4</ele>
        <time>2024-08-24T12:51:06Z</time>
      </trkpt>
      <trkpt lat="46.56381" lon="0.68822">
        <ele>116</ele>
        <time>2024-08-24T12:51:07Z</time>
      </trkpt>
      <trkpt lat="46.56385" lon="0.68829">
        <ele>116.4</ele>
        <time>2024-08-24T12:51:09Z</time>
      </trkpt>
      <trkpt lat="46.56396" lon="0.68844">
        <ele>117.2</ele>
        <time>2024-08-24T12:51:14Z</time>
      </trkpt>
      <trkpt lat="46.56398" lon="0.68847">
        <ele>117.4</ele>
        <time>2024-08-24T12:51:15Z</time>
      </trkpt>
      <trkpt lat="46.56415" lon="0.68871">
        <ele>118.2</ele>
        <time>2024-08-24T12:51:23Z</time>
      </trkpt>
      <trkpt lat="46.56424" lon="0.68884">
        <ele>118.4</ele>
        <time>2024-08-24T12:51:27Z</time>
      </trkpt>
      <trkpt lat="46.56438" lon="0.68902">
        <ele>119</ele>
        <time>2024-08-24T12:51:33Z</time>
      </trkpt>
      <trkpt lat="46.56443" lon="0.68908">
        <ele>119.6</ele>
        <time>2024-08-24T12:51:35Z</time>
      </trkpt>
      <trkpt lat="46.5645" lon="0.68918">
        <ele>120.8</ele>
        <time>2024-08-24T12:51:38Z</time>
      </trkpt>
      <trkpt lat="46.56459" lon="0.6893">
        <ele>121.6</ele>
        <time>2024-08-24T12:51:42Z</time>
      </trkpt>
      <trkpt lat="46.56463" lon="0.68937">
        <ele>122</ele>
        <time>2024-08-24T12:51:44Z</time>
      </trkpt>
      <trkpt lat="46.56469" lon="0.68951">
        <ele>122.2</ele>
        <time>2024-08-24T12:51:48Z</time>
      </trkpt>
      <trkpt lat="46.56479" lon="0.68969">
        <ele>123.2</ele>
        <time>2024-08-24T12:51:53Z</time>
      </trkpt>
      <trkpt lat="46.56483" lon="0.68982">
        <ele>123.4</ele>
        <time>2024-08-24T12:51:56Z</time>
      </trkpt>
      <trkpt lat="46.56487" lon="0.69017">
        <ele>123.4</ele>
        <time>2024-08-24T12:52:03Z</time>
      </trkpt>
      <trkpt lat="46.56486" lon="0.69047">
        <ele>124.2</ele>
        <time>2024-08-24T12:52:09Z</time>
      </trkpt>
      <trkpt lat="46.56477" lon="0.69069">
        <ele>125</ele>
        <time>2024-08-24T12:52:14Z</time>
      </trkpt>
      <trkpt lat="46.5647" lon="0.69082">
        <ele>125.2</ele>
        <time>2024-08-24T12:52:17Z</time>
      </trkpt>
      <trkpt lat="46.56458" lon="0.69104">
        <ele>125</ele>
        <time>2024-08-24T12:52:22Z</time>
      </trkpt>
      <trkpt lat="46.56453" lon="0.69112">
        <ele>125.2</ele>
        <time>2024-08-24T12:52:24Z</time>
      </trkpt>
      <trkpt lat="46.56439" lon="0.69131">
        <ele>126.4</ele>
        <time>2024-08-24T12:52:29Z</time>
      </trkpt>
      <trkpt lat="46.56432" lon="0.69145">
        <ele>125.2</ele>
        <time>2024-08-24T12:52:32Z</time>
      </trkpt>
      <trkpt lat="46.56423" lon="0.69161">
        <ele>124.6</ele>
        <time>2024-08-24T12:52:35Z</time>
      </trkpt>
      <trkpt lat="46.564" lon="0.69195">
        <ele>126.2</ele>
        <time>2024-08-24T12:52:42Z</time>
      </trkpt>
      <trkpt lat="46.56393" lon="0.69204">
        <ele>126.4</ele>
        <time>2024-08-24T12:52:44Z</time>
      </trkpt>
      <trkpt lat="46.56389" lon="0.69209">
        <ele>126.4</ele>
        <time>2024-08-24T12:52:45Z</time>
      </trkpt>
      <trkpt lat="46.56381" lon="0.69215">
        <ele>127</ele>
        <time>2024-08-24T12:52:47Z</time>
      </trkpt>
      <trkpt lat="46.56376" lon="0.69216">
        <ele>127</ele>
        <time>2024-08-24T12:52:48Z</time>
      </trkpt>
      <trkpt lat="46.56371" lon="0.69216">
        <ele>127</ele>
        <time>2024-08-24T12:52:49Z</time>
      </trkpt>
      <trkpt lat="46.56357" lon="0.6921">
        <ele>127</ele>
        <time>2024-08-24T12:52:52Z</time>
      </trkpt>
      <trkpt lat="46.56318" lon="0.6919">
        <ele>125.6</ele>
        <time>2024-08-24T12:53:00Z</time>
      </trkpt>
      <trkpt lat="46.56291" lon="0.69178">
        <ele>125.8</ele>
        <time>2024-08-24T12:53:06Z</time>
      </trkpt>
      <trkpt lat="46.56275" lon="0.6917">
        <ele>124.4</ele>
        <time>2024-08-24T12:53:10Z</time>
      </trkpt>
      <trkpt lat="46.56257" lon="0.69161">
        <ele>123.6</ele>
        <time>2024-08-24T12:53:14Z</time>
      </trkpt>
      <trkpt lat="46.56252" lon="0.69159">
        <ele>123</ele>
        <time>2024-08-24T12:53:15Z</time>
      </trkpt>
      <trkpt lat="46.56237" lon="0.69151">
        <ele>121.8</ele>
        <time>2024-08-24T12:53:18Z</time>
      </trkpt>
      <trkpt lat="46.56227" lon="0.69145">
        <ele>121.2</ele>
        <time>2024-08-24T12:53:20Z</time>
      </trkpt>
      <trkpt lat="46.56189" lon="0.69126">
        <ele>120.6</ele>
        <time>2024-08-24T12:53:27Z</time>
      </trkpt>
      <trkpt lat="46.56178" lon="0.6912">
        <ele>119.6</ele>
        <time>2024-08-24T12:53:29Z</time>
      </trkpt>
      <trkpt lat="46.56161" lon="0.69111">
        <ele>118.2</ele>
        <time>2024-08-24T12:53:32Z</time>
      </trkpt>
      <trkpt lat="46.56155" lon="0.69108">
        <ele>117.6</ele>
        <time>2024-08-24T12:53:33Z</time>
      </trkpt>
      <trkpt lat="46.56149" lon="0.69105">
        <ele>117</ele>
        <time>2024-08-24T12:53:34Z</time>
      </trkpt>
      <trkpt lat="46.56137" lon="0.69099">
        <ele>115.6</ele>
        <time>2024-08-24T12:53:36Z</time>
      </trkpt>
      <trkpt lat="46.56122" lon="0.69091">
        <ele>114.2</ele>
        <time>2024-08-24T12:53:39Z</time>
      </trkpt>
      <trkpt lat="46.56113" lon="0.69087">
        <ele>113.6</ele>
        <time>2024-08-24T12:53:41Z</time>
      </trkpt>
      <trkpt lat="46.56106" lon="0.69078">
        <ele>113.2</ele>
        <time>2024-08-24T12:53:43Z</time>
      </trkpt>
      <trkpt lat="46.56105" lon="0.69073">
        <ele>112.6</ele>
        <time>2024-08-24T12:53:44Z</time>
      </trkpt>
      <trkpt lat="46.56105" lon="0.69068">
        <ele>112</ele>
        <time>2024-08-24T12:53:45Z</time>
      </trkpt>
      <trkpt lat="46.56105" lon="0.69058">
        <ele>111.6</ele>
        <time>2024-08-24T12:53:47Z</time>
      </trkpt>
      <trkpt lat="46.56104" lon="0.69053">
        <ele>111.6</ele>
        <time>2024-08-24T12:53:48Z</time>
      </trkpt>
      <trkpt lat="46.56103" lon="0.69047">
        <ele>111.4</ele>
        <time>2024-08-24T12:53:49Z</time>
      </trkpt>
      <trkpt lat="46.561" lon="0.69036">
        <ele>111.4</ele>
        <time>2024-08-24T12:53:51Z</time>
      </trkpt>
      <trkpt lat="46.56099" lon="0.69029">
        <ele>111.2</ele>
        <time>2024-08-24T12:53:52Z</time>
      </trkpt>
      <trkpt lat="46.56094" lon="0.69">
        <ele>110.4</ele>
        <time>2024-08-24T12:53:56Z</time>
      </trkpt>
      <trkpt lat="46.56093" lon="0.68993">
        <ele>110.2</ele>
        <time>2024-08-24T12:53:57Z</time>
      </trkpt>
      <trkpt lat="46.56085" lon="0.68976">
        <ele>110.4</ele>
        <time>2024-08-24T12:54:00Z</time>
      </trkpt>
      <trkpt lat="46.56078" lon="0.68971">
        <ele>110.4</ele>
        <time>2024-08-24T12:54:02Z</time>
      </trkpt>
      <trkpt lat="46.5607" lon="0.68966">
        <ele>110.2</ele>
        <time>2024-08-24T12:54:04Z</time>
      </trkpt>
      <trkpt lat="46.56063" lon="0.68959">
        <ele>109.4</ele>
        <time>2024-08-24T12:54:06Z</time>
      </trkpt>
      <trkpt lat="46.5606" lon="0.68954">
        <ele>109.4</ele>
        <time>2024-08-24T12:54:07Z</time>
      </trkpt>
      <trkpt lat="46.56058" lon="0.68948">
        <ele>109.2</ele>
        <time>2024-08-24T12:54:08Z</time>
      </trkpt>
      <trkpt lat="46.56054" lon="0.68936">
        <ele>108.8</ele>
        <time>2024-08-24T12:54:10Z</time>
      </trkpt>
      <trkpt lat="46.56053" lon="0.68928">
        <ele>108.4</ele>
        <time>2024-08-24T12:54:11Z</time>
      </trkpt>
      <trkpt lat="46.56051" lon="0.6892">
        <ele>108</ele>
        <time>2024-08-24T12:54:12Z</time>
      </trkpt>
      <trkpt lat="46.5605" lon="0.68904">
        <ele>107.4</ele>
        <time>2024-08-24T12:54:14Z</time>
      </trkpt>
      <trkpt lat="46.56051" lon="0.68896">
        <ele>106.6</ele>
        <time>2024-08-24T12:54:15Z</time>
      </trkpt>
      <trkpt lat="46.56052" lon="0.68888">
        <ele>106</ele>
        <time>2024-08-24T12:54:16Z</time>
      </trkpt>
      <trkpt lat="46.56059" lon="0.68864">
        <ele>105.6</ele>
        <time>2024-08-24T12:54:19Z</time>
      </trkpt>
      <trkpt lat="46.56065" lon="0.68847">
        <ele>105.2</ele>
        <time>2024-08-24T12:54:21Z</time>
      </trkpt>
      <trkpt lat="46.56074" lon="0.68824">
        <ele>104.4</ele>
        <time>2024-08-24T12:54:24Z</time>
      </trkpt>
      <trkpt lat="46.56077" lon="0.68816">
        <ele>104.2</ele>
        <time>2024-08-24T12:54:25Z</time>
      </trkpt>
      <trkpt lat="46.56084" lon="0.688">
        <ele>103.8</ele>
        <time>2024-08-24T12:54:27Z</time>
      </trkpt>
      <trkpt lat="46.56091" lon="0.68775">
        <ele>103.4</ele>
        <time>2024-08-24T12:54:30Z</time>
      </trkpt>
      <trkpt lat="46.56093" lon="0.68768">
        <ele>103.2</ele>
        <time>2024-08-24T12:54:31Z</time>
      </trkpt>
      <trkpt lat="46.56094" lon="0.68758">
        <ele>103</ele>
        <time>2024-08-24T12:54:32Z</time>
      </trkpt>
      <trkpt lat="46.56095" lon="0.68751">
        <ele>102.8</ele>
        <time>2024-08-24T12:54:33Z</time>
      </trkpt>
      <trkpt lat="46.56096" lon="0.68743">
        <ele>102.8</ele>
        <time>2024-08-24T12:54:34Z</time>
      </trkpt>
      <trkpt lat="46.561" lon="0.68708">
        <ele>101.4</ele>
        <time>2024-08-24T12:54:38Z</time>
      </trkpt>
      <trkpt lat="46.56103" lon="0.68688">
        <ele>100</ele>
        <time>2024-08-24T12:54:40Z</time>
      </trkpt>
      <trkpt lat="46.56108" lon="0.68657">
        <ele>98.2</ele>
        <time>2024-08-24T12:54:43Z</time>
      </trkpt>
      <trkpt lat="46.56108" lon="0.68649">
        <ele>97</ele>
        <time>2024-08-24T12:54:44Z</time>
      </trkpt>
      <trkpt lat="46.56108" lon="0.68644">
        <ele>95.4</ele>
        <time>2024-08-24T12:54:45Z</time>
      </trkpt>
      <trkpt lat="46.56106" lon="0.68639">
        <ele>94.6</ele>
        <time>2024-08-24T12:54:46Z</time>
      </trkpt>
      <trkpt lat="46.56104" lon="0.68635">
        <ele>93.8</ele>
        <time>2024-08-24T12:54:47Z</time>
      </trkpt>
      <trkpt lat="46.56102" lon="0.68633">
        <ele>93.2</ele>
        <time>2024-08-24T12:54:48Z</time>
      </trkpt>
      <trkpt lat="46.56101" lon="0.68632">
        <ele>92.4</ele>
        <time>2024-08-24T12:54:49Z</time>
      </trkpt>
      <trkpt lat="46.56096" lon="0.68628">
        <ele>91</ele>
        <time>2024-08-24T12:54:51Z</time>
      </trkpt>
      <trkpt lat="46.56093" lon="0.68623">
        <ele>89.6</ele>
        <time>2024-08-24T12:54:53Z</time>
      </trkpt>
      <trkpt lat="46.56091" lon="0.68622">
        <ele>88.6</ele>
        <time>2024-08-24T12:54:54Z</time>
      </trkpt>
      <trkpt lat="46.56088" lon="0.68618">
        <ele>87</ele>
        <time>2024-08-24T12:54:56Z</time>
      </trkpt>
      <trkpt lat="46.56086" lon="0.68611">
        <ele>85.2</ele>
        <time>2024-08-24T12:54:58Z</time>
      </trkpt>
      <trkpt lat="46.56085" lon="0.68608">
        <ele>84</ele>
        <time>2024-08-24T12:54:59Z</time>
      </trkpt>
      <trkpt lat="46.56084" lon="0.68605">
        <ele>82.6</ele>
        <time>2024-08-24T12:55:00Z</time>
      </trkpt>
      <trkpt lat="46.56082" lon="0.686">
        <ele>80.4</ele>
        <time>2024-08-24T12:55:02Z</time>
      </trkpt>
      <trkpt lat="46.5608" lon="0.68596">
        <ele>79</ele>
        <time>2024-08-24T12:55:04Z</time>
      </trkpt>
      <trkpt lat="46.5608" lon="0.6859">
        <ele>77.8</ele>
        <time>2024-08-24T12:55:06Z</time>
      </trkpt>
      <trkpt lat="46.56079" lon="0.68585">
        <ele>77.4</ele>
        <time>2024-08-24T12:55:08Z</time>
      </trkpt>
      <trkpt lat="46.56078" lon="0.68583">
        <ele>77.2</ele>
        <time>2024-08-24T12:55:15Z</time>
      </trkpt>
      <trkpt lat="46.56075" lon="0.68581">
        <ele>77.4</ele>
        <time>2024-08-24T12:55:24Z</time>
      </trkpt>
      <trkpt lat="46.56065" lon="0.68576">
        <ele>77.2</ele>
        <time>2024-08-24T12:55:32Z</time>
      </trkpt>
      <trkpt lat="46.56053" lon="0.68571">
        <ele>77.4</ele>
        <time>2024-08-24T12:55:38Z</time>
      </trkpt>
      <trkpt lat="46.56035" lon="0.68568">
        <ele>78.4</ele>
        <time>2024-08-24T12:55:44Z</time>
      </trkpt>
      <trkpt lat="46.56031" lon="0.6857">
        <ele>79.2</ele>
        <time>2024-08-24T12:55:46Z</time>
      </trkpt>
      <trkpt lat="46.56026" lon="0.68575">
        <ele>80</ele>
        <time>2024-08-24T12:55:50Z</time>
      </trkpt>
      <trkpt lat="46.56025" lon="0.68576">
        <ele>80.4</ele>
        <time>2024-08-24T12:55:51Z</time>
      </trkpt>
      <trkpt lat="46.56023" lon="0.68578">
        <ele>81.6</ele>
        <time>2024-08-24T12:55:54Z</time>
      </trkpt>
      <trkpt lat="46.56021" lon="0.68581">
        <ele>82.4</ele>
        <time>2024-08-24T12:55:57Z</time>
      </trkpt>
      <trkpt lat="46.56019" lon="0.68582">
        <ele>82.6</ele>
        <time>2024-08-24T12:55:59Z</time>
      </trkpt>
      <trkpt lat="46.56015" lon="0.68585">
        <ele>83.8</ele>
        <time>2024-08-24T12:56:03Z</time>
      </trkpt>
      <trkpt lat="46.56013" lon="0.68586">
        <ele>84.2</ele>
        <time>2024-08-24T12:56:05Z</time>
      </trkpt>
      <trkpt lat="46.56011" lon="0.68586">
        <ele>84.4</ele>
        <time>2024-08-24T12:56:06Z</time>
      </trkpt>
      <trkpt lat="46.56009" lon="0.68587">
        <ele>85</ele>
        <time>2024-08-24T12:56:08Z</time>
      </trkpt>
      <trkpt lat="46.56001" lon="0.6859">
        <ele>85.6</ele>
        <time>2024-08-24T12:56:13Z</time>
      </trkpt>
      <trkpt lat="46.55997" lon="0.6859">
        <ele>86</ele>
        <time>2024-08-24T12:56:16Z</time>
      </trkpt>
      <trkpt lat="46.5599" lon="0.68589">
        <ele>86.8</ele>
        <time>2024-08-24T12:56:20Z</time>
      </trkpt>
      <trkpt lat="46.55987" lon="0.68588">
        <ele>87.2</ele>
        <time>2024-08-24T12:56:22Z</time>
      </trkpt>
      <trkpt lat="46.5598" lon="0.68585">
        <ele>88.2</ele>
        <time>2024-08-24T12:56:28Z</time>
      </trkpt>
      <trkpt lat="46.55979" lon="0.68584">
        <ele>88.4</ele>
        <time>2024-08-24T12:56:29Z</time>
      </trkpt>
      <trkpt lat="46.55972" lon="0.68581">
        <ele>89</ele>
        <time>2024-08-24T12:56:34Z</time>
      </trkpt>
      <trkpt lat="46.55971" lon="0.6858">
        <ele>89.4</ele>
        <time>2024-08-24T12:56:35Z</time>
      </trkpt>
      <trkpt lat="46.55967" lon="0.68577">
        <ele>90.6</ele>
        <time>2024-08-24T12:56:40Z</time>
      </trkpt>
      <trkpt lat="46.55965" lon="0.68574">
        <ele>91</ele>
        <time>2024-08-24T12:56:43Z</time>
      </trkpt>
      <trkpt lat="46.55963" lon="0.68571">
        <ele>91.6</ele>
        <time>2024-08-24T12:56:46Z</time>
      </trkpt>
      <trkpt lat="46.55957" lon="0.68561">
        <ele>92.8</ele>
        <time>2024-08-24T12:56:52Z</time>
      </trkpt>
      <trkpt lat="46.55947" lon="0.68546">
        <ele>92.6</ele>
        <time>2024-08-24T12:57:00Z</time>
      </trkpt>
      <trkpt lat="46.55932" lon="0.68532">
        <ele>93.2</ele>
        <time>2024-08-24T12:57:06Z</time>
      </trkpt>
      <trkpt lat="46.55921" lon="0.6853">
        <ele>93.6</ele>
        <time>2024-08-24T12:57:12Z</time>
      </trkpt>
      <trkpt lat="46.5592" lon="0.68531">
        <ele>93.8</ele>
        <time>2024-08-24T12:57:13Z</time>
      </trkpt>
      <trkpt lat="46.55914" lon="0.68533">
        <ele>95</ele>
        <time>2024-08-24T12:57:17Z</time>
      </trkpt>
      <trkpt lat="46.55911" lon="0.68536">
        <ele>95.8</ele>
        <time>2024-08-24T12:57:19Z</time>
      </trkpt>
      <trkpt lat="46.55907" lon="0.6854">
        <ele>96.4</ele>
        <time>2024-08-24T12:57:21Z</time>
      </trkpt>
      <trkpt lat="46.5589" lon="0.68552">
        <ele>96.8</ele>
        <time>2024-08-24T12:57:28Z</time>
      </trkpt>
      <trkpt lat="46.55881" lon="0.68556">
        <ele>97.4</ele>
        <time>2024-08-24T12:57:31Z</time>
      </trkpt>
      <trkpt lat="46.55866" lon="0.68557">
        <ele>98.6</ele>
        <time>2024-08-24T12:57:36Z</time>
      </trkpt>
      <trkpt lat="46.55863" lon="0.68557">
        <ele>98.8</ele>
        <time>2024-08-24T12:57:37Z</time>
      </trkpt>
      <trkpt lat="46.55848" lon="0.68554">
        <ele>99.6</ele>
        <time>2024-08-24T12:57:43Z</time>
      </trkpt>
      <trkpt lat="46.55843" lon="0.68555">
        <ele>100.2</ele>
        <time>2024-08-24T12:57:45Z</time>
      </trkpt>
      <trkpt lat="46.55836" lon="0.68557">
        <ele>100.6</ele>
        <time>2024-08-24T12:57:48Z</time>
      </trkpt>
      <trkpt lat="46.55827" lon="0.68561">
        <ele>100.8</ele>
        <time>2024-08-24T12:57:53Z</time>
      </trkpt>
      <trkpt lat="46.55814" lon="0.6857">
        <ele>100.8</ele>
        <time>2024-08-24T12:57:59Z</time>
      </trkpt>
      <trkpt lat="46.55799" lon="0.68588">
        <ele>101.2</ele>
        <time>2024-08-24T12:58:07Z</time>
      </trkpt>
      <trkpt lat="46.55782" lon="0.686">
        <ele>101.6</ele>
        <time>2024-08-24T12:58:14Z</time>
      </trkpt>
      <trkpt lat="46.55774" lon="0.68604">
        <ele>101.6</ele>
        <time>2024-08-24T12:58:17Z</time>
      </trkpt>
      <trkpt lat="46.55757" lon="0.6861">
        <ele>101.4</ele>
        <time>2024-08-24T12:58:21Z</time>
      </trkpt>
      <trkpt lat="46.55734" lon="0.68623">
        <ele>101.6</ele>
        <time>2024-08-24T12:58:27Z</time>
      </trkpt>
      <trkpt lat="46.55725" lon="0.68629">
        <ele>102</ele>
        <time>2024-08-24T12:58:29Z</time>
      </trkpt>
      <trkpt lat="46.55718" lon="0.68631">
        <ele>102.4</ele>
        <time>2024-08-24T12:58:31Z</time>
      </trkpt>
      <trkpt lat="46.55715" lon="0.68631">
        <ele>102.8</ele>
        <time>2024-08-24T12:58:32Z</time>
      </trkpt>
      <trkpt lat="46.55702" lon="0.68632">
        <ele>104</ele>
        <time>2024-08-24T12:58:36Z</time>
      </trkpt>
      <trkpt lat="46.55699" lon="0.68632">
        <ele>104.2</ele>
        <time>2024-08-24T12:58:37Z</time>
      </trkpt>
      <trkpt lat="46.55677" lon="0.68624">
        <ele>104.8</ele>
        <time>2024-08-24T12:58:43Z</time>
      </trkpt>
      <trkpt lat="46.55655" lon="0.68612">
        <ele>105</ele>
        <time>2024-08-24T12:58:50Z</time>
      </trkpt>
      <trkpt lat="46.55638" lon="0.68602">
        <ele>104.4</ele>
        <time>2024-08-24T12:58:54Z</time>
      </trkpt>
      <trkpt lat="46.55629" lon="0.68603">
        <ele>104</ele>
        <time>2024-08-24T12:58:56Z</time>
      </trkpt>
      <trkpt lat="46.55614" lon="0.6861">
        <ele>103.4</ele>
        <time>2024-08-24T12:58:59Z</time>
      </trkpt>
      <trkpt lat="46.55605" lon="0.68615">
        <ele>103.4</ele>
        <time>2024-08-24T12:59:01Z</time>
      </trkpt>
      <trkpt lat="46.55598" lon="0.68625">
        <ele>103.4</ele>
        <time>2024-08-24T12:59:03Z</time>
      </trkpt>
      <trkpt lat="46.55597" lon="0.68631">
        <ele>103.4</ele>
        <time>2024-08-24T12:59:04Z</time>
      </trkpt>
      <trkpt lat="46.55597" lon="0.68638">
        <ele>103.4</ele>
        <time>2024-08-24T12:59:05Z</time>
      </trkpt>
      <trkpt lat="46.55599" lon="0.68648">
        <ele>103.4</ele>
        <time>2024-08-24T12:59:07Z</time>
      </trkpt>
      <trkpt lat="46.55608" lon="0.68659">
        <ele>103.8</ele>
        <time>2024-08-24T12:59:10Z</time>
      </trkpt>
      <trkpt lat="46.55608" lon="0.68663">
        <ele>104</ele>
        <time>2024-08-24T12:59:11Z</time>
      </trkpt>
      <trkpt lat="46.55605" lon="0.68678">
        <ele>104</ele>
        <time>2024-08-24T12:59:14Z</time>
      </trkpt>
      <trkpt lat="46.55603" lon="0.68684">
        <ele>104</ele>
        <time>2024-08-24T12:59:15Z</time>
      </trkpt>
      <trkpt lat="46.55602" lon="0.68698">
        <ele>104.4</ele>
        <time>2024-08-24T12:59:17Z</time>
      </trkpt>
      <trkpt lat="46.55602" lon="0.68717">
        <ele>104.4</ele>
        <time>2024-08-24T12:59:20Z</time>
      </trkpt>
      <trkpt lat="46.55601" lon="0.6875">
        <ele>104.8</ele>
        <time>2024-08-24T12:59:25Z</time>
      </trkpt>
      <trkpt lat="46.556" lon="0.68761">
        <ele>104.8</ele>
        <time>2024-08-24T12:59:27Z</time>
      </trkpt>
      <trkpt lat="46.55599" lon="0.68771">
        <ele>104.6</ele>
        <time>2024-08-24T12:59:29Z</time>
      </trkpt>
      <trkpt lat="46.55596" lon="0.6878">
        <ele>104.6</ele>
        <time>2024-08-24T12:59:32Z</time>
      </trkpt>
      <trkpt lat="46.55588" lon="0.68784">
        <ele>105.2</ele>
        <time>2024-08-24T12:59:35Z</time>
      </trkpt>
      <trkpt lat="46.55581" lon="0.68786">
        <ele>105.4</ele>
        <time>2024-08-24T12:59:37Z</time>
      </trkpt>
      <trkpt lat="46.55567" lon="0.68792">
        <ele>105.6</ele>
        <time>2024-08-24T12:59:42Z</time>
      </trkpt>
      <trkpt lat="46.55565" lon="0.68791">
        <ele>106</ele>
        <time>2024-08-24T12:59:43Z</time>
      </trkpt>
      <trkpt lat="46.5556" lon="0.68789">
        <ele>106.2</ele>
        <time>2024-08-24T12:59:45Z</time>
      </trkpt>
      <trkpt lat="46.5555" lon="0.6879">
        <ele>106.8</ele>
        <time>2024-08-24T12:59:49Z</time>
      </trkpt>
      <trkpt lat="46.55539" lon="0.68799">
        <ele>106.6</ele>
        <time>2024-08-24T12:59:54Z</time>
      </trkpt>
      <trkpt lat="46.55525" lon="0.68802">
        <ele>106.2</ele>
        <time>2024-08-24T12:59:58Z</time>
      </trkpt>
      <trkpt lat="46.55522" lon="0.68801">
        <ele>106.2</ele>
        <time>2024-08-24T12:59:59Z</time>
      </trkpt>
      <trkpt lat="46.5551" lon="0.68789">
        <ele>105.8</ele>
        <time>2024-08-24T13:00:03Z</time>
      </trkpt>
      <trkpt lat="46.55501" lon="0.6878">
        <ele>105.6</ele>
        <time>2024-08-24T13:00:07Z</time>
      </trkpt>
      <trkpt lat="46.55495" lon="0.68776">
        <ele>105.4</ele>
        <time>2024-08-24T13:00:09Z</time>
      </trkpt>
      <trkpt lat="46.55491" lon="0.68772">
        <ele>105</ele>
        <time>2024-08-24T13:00:11Z</time>
      </trkpt>
      <trkpt lat="46.5549" lon="0.68766">
        <ele>104.4</ele>
        <time>2024-08-24T13:00:13Z</time>
      </trkpt>
      <trkpt lat="46.5549" lon="0.68757">
        <ele>104</ele>
        <time>2024-08-24T13:00:16Z</time>
      </trkpt>
      <trkpt lat="46.55489" lon="0.68748">
        <ele>102.8</ele>
        <time>2024-08-24T13:00:19Z</time>
      </trkpt>
      <trkpt lat="46.55488" lon="0.68745">
        <ele>102.6</ele>
        <time>2024-08-24T13:00:20Z</time>
      </trkpt>
      <trkpt lat="46.55478" lon="0.68735">
        <ele>102</ele>
        <time>2024-08-24T13:00:24Z</time>
      </trkpt>
      <trkpt lat="46.5547" lon="0.68729">
        <ele>101.8</ele>
        <time>2024-08-24T13:00:26Z</time>
      </trkpt>
      <trkpt lat="46.55467" lon="0.68727">
        <ele>101.6</ele>
        <time>2024-08-24T13:00:27Z</time>
      </trkpt>
      <trkpt lat="46.55463" lon="0.68724">
        <ele>101.6</ele>
        <time>2024-08-24T13:00:28Z</time>
      </trkpt>
      <trkpt lat="46.55456" lon="0.68717">
        <ele>100.8</ele>
        <time>2024-08-24T13:00:30Z</time>
      </trkpt>
      <trkpt lat="46.55453" lon="0.68714">
        <ele>100.2</ele>
        <time>2024-08-24T13:00:31Z</time>
      </trkpt>
      <trkpt lat="46.5545" lon="0.68713">
        <ele>99.6</ele>
        <time>2024-08-24T13:00:32Z</time>
      </trkpt>
      <trkpt lat="46.55448" lon="0.68712">
        <ele>98.6</ele>
        <time>2024-08-24T13:00:33Z</time>
      </trkpt>
      <trkpt lat="46.55446" lon="0.68713">
        <ele>98</ele>
        <time>2024-08-24T13:00:34Z</time>
      </trkpt>
      <trkpt lat="46.55444" lon="0.68715">
        <ele>97.4</ele>
        <time>2024-08-24T13:00:35Z</time>
      </trkpt>
      <trkpt lat="46.55438" lon="0.68718">
        <ele>96.2</ele>
        <time>2024-08-24T13:00:40Z</time>
      </trkpt>
      <trkpt lat="46.55431" lon="0.68718">
        <ele>95</ele>
        <time>2024-08-24T13:00:43Z</time>
      </trkpt>
      <trkpt lat="46.55429" lon="0.68718">
        <ele>93.4</ele>
        <time>2024-08-24T13:00:44Z</time>
      </trkpt>
      <trkpt lat="46.55423" lon="0.6872">
        <ele>91.4</ele>
        <time>2024-08-24T13:00:46Z</time>
      </trkpt>
      <trkpt lat="46.55417" lon="0.68721">
        <ele>90</ele>
        <time>2024-08-24T13:00:48Z</time>
      </trkpt>
      <trkpt lat="46.55411" lon="0.68723">
        <ele>88</ele>
        <time>2024-08-24T13:00:50Z</time>
      </trkpt>
      <trkpt lat="46.55405" lon="0.68723">
        <ele>86.2</ele>
        <time>2024-08-24T13:00:52Z</time>
      </trkpt>
      <trkpt lat="46.55403" lon="0.68722">
        <ele>85.6</ele>
        <time>2024-08-24T13:00:53Z</time>
      </trkpt>
      <trkpt lat="46.55402" lon="0.68722">
        <ele>84.8</ele>
        <time>2024-08-24T13:00:54Z</time>
      </trkpt>
      <trkpt lat="46.554" lon="0.68722">
        <ele>84</ele>
        <time>2024-08-24T13:00:55Z</time>
      </trkpt>
      <trkpt lat="46.55399" lon="0.68722">
        <ele>83</ele>
        <time>2024-08-24T13:00:56Z</time>
      </trkpt>
      <trkpt lat="46.55396" lon="0.68722">
        <ele>81.6</ele>
        <time>2024-08-24T13:00:58Z</time>
      </trkpt>
      <trkpt lat="46.55393" lon="0.68721">
        <ele>80.8</ele>
        <time>2024-08-24T13:01:00Z</time>
      </trkpt>
      <trkpt lat="46.55389" lon="0.68722">
        <ele>80.6</ele>
        <time>2024-08-24T13:01:03Z</time>
      </trkpt>
      <trkpt lat="46.55379" lon="0.68724">
        <ele>81</ele>
        <time>2024-08-24T13:01:13Z</time>
      </trkpt>
      <trkpt lat="46.55372" lon="0.68723">
        <ele>80.6</ele>
        <time>2024-08-24T13:01:24Z</time>
      </trkpt>
      <trkpt lat="46.5537" lon="0.68723">
        <ele>80.2</ele>
        <time>2024-08-24T13:01:29Z</time>
      </trkpt>
      <trkpt lat="46.55367" lon="0.68725">
        <ele>80.4</ele>
        <time>2024-08-24T13:01:33Z</time>
      </trkpt>
      <trkpt lat="46.55363" lon="0.68725">
        <ele>80.8</ele>
        <time>2024-08-24T13:01:37Z</time>
      </trkpt>
      <trkpt lat="46.5536" lon="0.68726">
        <ele>81.2</ele>
        <time>2024-08-24T13:01:39Z</time>
      </trkpt>
      <trkpt lat="46.55343" lon="0.68729">
        <ele>81.4</ele>
        <time>2024-08-24T13:01:48Z</time>
      </trkpt>
      <trkpt lat="46.5534" lon="0.6873">
        <ele>81.6</ele>
        <time>2024-08-24T13:01:51Z</time>
      </trkpt>
      <trkpt lat="46.55335" lon="0.6873">
        <ele>82.6</ele>
        <time>2024-08-24T13:01:55Z</time>
      </trkpt>
      <trkpt lat="46.55333" lon="0.6873">
        <ele>82.8</ele>
        <time>2024-08-24T13:01:56Z</time>
      </trkpt>
      <trkpt lat="46.55332" lon="0.6873">
        <ele>83</ele>
        <time>2024-08-24T13:01:57Z</time>
      </trkpt>
      <trkpt lat="46.55323" lon="0.68729">
        <ele>83.2</ele>
        <time>2024-08-24T13:02:01Z</time>
      </trkpt>
      <trkpt lat="46.55313" lon="0.68732">
        <ele>83.8</ele>
        <time>2024-08-24T13:02:07Z</time>
      </trkpt>
      <trkpt lat="46.55306" lon="0.68733">
        <ele>85</ele>
        <time>2024-08-24T13:02:11Z</time>
      </trkpt>
      <trkpt lat="46.55299" lon="0.68736">
        <ele>86.2</ele>
        <time>2024-08-24T13:02:15Z</time>
      </trkpt>
      <trkpt lat="46.55296" lon="0.68738">
        <ele>86.8</ele>
        <time>2024-08-24T13:02:18Z</time>
      </trkpt>
      <trkpt lat="46.55294" lon="0.6874">
        <ele>87.4</ele>
        <time>2024-08-24T13:02:19Z</time>
      </trkpt>
      <trkpt lat="46.55294" lon="0.68741">
        <ele>87.6</ele>
        <time>2024-08-24T13:02:20Z</time>
      </trkpt>
      <trkpt lat="46.55293" lon="0.68743">
        <ele>88</ele>
        <time>2024-08-24T13:02:21Z</time>
      </trkpt>
      <trkpt lat="46.5529" lon="0.68745">
        <ele>88.6</ele>
        <time>2024-08-24T13:02:24Z</time>
      </trkpt>
      <trkpt lat="46.55289" lon="0.68745">
        <ele>88.8</ele>
        <time>2024-08-24T13:02:25Z</time>
      </trkpt>
      <trkpt lat="46.55287" lon="0.68748">
        <ele>89.8</ele>
        <time>2024-08-24T13:02:28Z</time>
      </trkpt>
      <trkpt lat="46.55284" lon="0.6875">
        <ele>90.4</ele>
        <time>2024-08-24T13:02:30Z</time>
      </trkpt>
      <trkpt lat="46.55282" lon="0.6875">
        <ele>90.6</ele>
        <time>2024-08-24T13:02:31Z</time>
      </trkpt>
      <trkpt lat="46.5527" lon="0.68754">
        <ele>90.8</ele>
        <time>2024-08-24T13:02:37Z</time>
      </trkpt>
      <trkpt lat="46.55255" lon="0.6876">
        <ele>91.2</ele>
        <time>2024-08-24T13:02:44Z</time>
      </trkpt>
      <trkpt lat="46.5525" lon="0.68756">
        <ele>89.6</ele>
        <time>2024-08-24T13:02:49Z</time>
      </trkpt>
      <trkpt lat="46.55247" lon="0.68756">
        <ele>88.6</ele>
        <time>2024-08-24T13:02:51Z</time>
      </trkpt>
      <trkpt lat="46.55245" lon="0.68756">
        <ele>88.4</ele>
        <time>2024-08-24T13:02:52Z</time>
      </trkpt>
      <trkpt lat="46.55239" lon="0.68755">
        <ele>88.8</ele>
        <time>2024-08-24T13:02:56Z</time>
      </trkpt>
      <trkpt lat="46.55234" lon="0.68755">
        <ele>89.4</ele>
        <time>2024-08-24T13:03:00Z</time>
      </trkpt>
      <trkpt lat="46.55231" lon="0.68755">
        <ele>89.8</ele>
        <time>2024-08-24T13:03:02Z</time>
      </trkpt>
      <trkpt lat="46.55218" lon="0.68754">
        <ele>89.8</ele>
        <time>2024-08-24T13:03:09Z</time>
      </trkpt>
      <trkpt lat="46.55215" lon="0.68757">
        <ele>90.8</ele>
        <time>2024-08-24T13:03:12Z</time>
      </trkpt>
      <trkpt lat="46.55212" lon="0.6876">
        <ele>91.6</ele>
        <time>2024-08-24T13:03:15Z</time>
      </trkpt>
      <trkpt lat="46.55211" lon="0.68761">
        <ele>91.8</ele>
        <time>2024-08-24T13:03:16Z</time>
      </trkpt>
      <trkpt lat="46.55208" lon="0.68763">
        <ele>92.6</ele>
        <time>2024-08-24T13:03:18Z</time>
      </trkpt>
      <trkpt lat="46.55205" lon="0.68764">
        <ele>93</ele>
        <time>2024-08-24T13:03:20Z</time>
      </trkpt>
      <trkpt lat="46.55201" lon="0.68764">
        <ele>93.2</ele>
        <time>2024-08-24T13:03:22Z</time>
      </trkpt>
      <trkpt lat="46.55189" lon="0.68763">
        <ele>93.8</ele>
        <time>2024-08-24T13:03:29Z</time>
      </trkpt>
      <trkpt lat="46.55178" lon="0.68761">
        <ele>94</ele>
        <time>2024-08-24T13:03:34Z</time>
      </trkpt>
      <trkpt lat="46.55174" lon="0.6876">
        <ele>94</ele>
        <time>2024-08-24T13:03:37Z</time>
      </trkpt>
      <trkpt lat="46.55167" lon="0.68756">
        <ele>94.4</ele>
        <time>2024-08-24T13:03:41Z</time>
      </trkpt>
      <trkpt lat="46.55158" lon="0.68752">
        <ele>95</ele>
        <time>2024-08-24T13:03:46Z</time>
      </trkpt>
      <trkpt lat="46.55157" lon="0.68751">
        <ele>95</ele>
        <time>2024-08-24T13:03:47Z</time>
      </trkpt>
      <trkpt lat="46.55148" lon="0.68749">
        <ele>95.4</ele>
        <time>2024-08-24T13:03:53Z</time>
      </trkpt>
      <trkpt lat="46.55134" lon="0.68746">
        <ele>96</ele>
        <time>2024-08-24T13:04:00Z</time>
      </trkpt>
      <trkpt lat="46.5512" lon="0.68745">
        <ele>96.4</ele>
        <time>2024-08-24T13:04:06Z</time>
      </trkpt>
      <trkpt lat="46.55107" lon="0.68746">
        <ele>96.6</ele>
        <time>2024-08-24T13:04:12Z</time>
      </trkpt>
      <trkpt lat="46.55102" lon="0.68746">
        <ele>96</ele>
        <time>2024-08-24T13:04:14Z</time>
      </trkpt>
      <trkpt lat="46.55097" lon="0.68742">
        <ele>95.6</ele>
        <time>2024-08-24T13:04:17Z</time>
      </trkpt>
      <trkpt lat="46.5509" lon="0.68735">
        <ele>95.4</ele>
        <time>2024-08-24T13:04:21Z</time>
      </trkpt>
      <trkpt lat="46.55088" lon="0.68734">
        <ele>95.4</ele>
        <time>2024-08-24T13:04:22Z</time>
      </trkpt>
      <trkpt lat="46.55084" lon="0.68733">
        <ele>95</ele>
        <time>2024-08-24T13:04:24Z</time>
      </trkpt>
      <trkpt lat="46.55079" lon="0.68737">
        <ele>93.6</ele>
        <time>2024-08-24T13:04:27Z</time>
      </trkpt>
      <trkpt lat="46.55078" lon="0.68738">
        <ele>93</ele>
        <time>2024-08-24T13:04:28Z</time>
      </trkpt>
      <trkpt lat="46.55076" lon="0.68739">
        <ele>92.6</ele>
        <time>2024-08-24T13:04:29Z</time>
      </trkpt>
      <trkpt lat="46.55075" lon="0.68739">
        <ele>91.6</ele>
        <time>2024-08-24T13:04:30Z</time>
      </trkpt>
      <trkpt lat="46.55073" lon="0.68739">
        <ele>90.6</ele>
        <time>2024-08-24T13:04:31Z</time>
      </trkpt>
      <trkpt lat="46.55069" lon="0.68739">
        <ele>89.4</ele>
        <time>2024-08-24T13:04:33Z</time>
      </trkpt>
      <trkpt lat="46.55063" lon="0.6874">
        <ele>87.4</ele>
        <time>2024-08-24T13:04:36Z</time>
      </trkpt>
      <trkpt lat="46.5506" lon="0.68743">
        <ele>85.4</ele>
        <time>2024-08-24T13:04:39Z</time>
      </trkpt>
      <trkpt lat="46.55058" lon="0.68742">
        <ele>84.4</ele>
        <time>2024-08-24T13:04:40Z</time>
      </trkpt>
      <trkpt lat="46.55057" lon="0.68742">
        <ele>83</ele>
        <time>2024-08-24T13:04:42Z</time>
      </trkpt>
      <trkpt lat="46.55054" lon="0.68741">
        <ele>82.2</ele>
        <time>2024-08-24T13:04:46Z</time>
      </trkpt>
      <trkpt lat="46.55045" lon="0.68742">
        <ele>82.2</ele>
        <time>2024-08-24T13:04:52Z</time>
      </trkpt>
      <trkpt lat="46.55036" lon="0.6874">
        <ele>81.8</ele>
        <time>2024-08-24T13:04:57Z</time>
      </trkpt>
      <trkpt lat="46.55032" lon="0.6874">
        <ele>81.4</ele>
        <time>2024-08-24T13:04:59Z</time>
      </trkpt>
      <trkpt lat="46.55021" lon="0.68738">
        <ele>81.2</ele>
        <time>2024-08-24T13:05:07Z</time>
      </trkpt>
      <trkpt lat="46.55013" lon="0.68737">
        <ele>81.4</ele>
        <time>2024-08-24T13:05:13Z</time>
      </trkpt>
      <trkpt lat="46.55012" lon="0.68737">
        <ele>81.4</ele>
        <time>2024-08-24T13:05:14Z</time>
      </trkpt>
      <trkpt lat="46.55005" lon="0.68733">
        <ele>81.4</ele>
        <time>2024-08-24T13:05:20Z</time>
      </trkpt>
      <trkpt lat="46.55004" lon="0.68732">
        <ele>81.6</ele>
        <time>2024-08-24T13:05:21Z</time>
      </trkpt>
      <trkpt lat="46.54994" lon="0.68728">
        <ele>82</ele>
        <time>2024-08-24T13:05:27Z</time>
      </trkpt>
      <trkpt lat="46.54992" lon="0.68728">
        <ele>82</ele>
        <time>2024-08-24T13:05:28Z</time>
      </trkpt>
      <trkpt lat="46.54979" lon="0.68722">
        <ele>81.8</ele>
        <time>2024-08-24T13:05:35Z</time>
      </trkpt>
      <trkpt lat="46.54971" lon="0.68716">
        <ele>83.2</ele>
        <time>2024-08-24T13:05:39Z</time>
      </trkpt>
      <trkpt lat="46.54962" lon="0.68713">
        <ele>84.2</ele>
        <time>2024-08-24T13:05:43Z</time>
      </trkpt>
      <trkpt lat="46.5496" lon="0.68713">
        <ele>84.4</ele>
        <time>2024-08-24T13:05:44Z</time>
      </trkpt>
      <trkpt lat="46.54951" lon="0.68706">
        <ele>84.8</ele>
        <time>2024-08-24T13:05:49Z</time>
      </trkpt>
      <trkpt lat="46.5495" lon="0.68705">
        <ele>85.6</ele>
        <time>2024-08-24T13:05:50Z</time>
      </trkpt>
      <trkpt lat="46.54943" lon="0.687">
        <ele>86.8</ele>
        <time>2024-08-24T13:05:54Z</time>
      </trkpt>
      <trkpt lat="46.54939" lon="0.68698">
        <ele>87</ele>
        <time>2024-08-24T13:05:56Z</time>
      </trkpt>
      <trkpt lat="46.54938" lon="0.68699">
        <ele>87.2</ele>
        <time>2024-08-24T13:05:57Z</time>
      </trkpt>
      <trkpt lat="46.5493" lon="0.68699">
        <ele>86.4</ele>
        <time>2024-08-24T13:06:01Z</time>
      </trkpt>
      <trkpt lat="46.54922" lon="0.68701">
        <ele>85.6</ele>
        <time>2024-08-24T13:06:04Z</time>
      </trkpt>
      <trkpt lat="46.54917" lon="0.68703">
        <ele>84.8</ele>
        <time>2024-08-24T13:06:06Z</time>
      </trkpt>
      <trkpt lat="46.54914" lon="0.68703">
        <ele>84</ele>
        <time>2024-08-24T13:06:07Z</time>
      </trkpt>
      <trkpt lat="46.54906" lon="0.68705">
        <ele>82.8</ele>
        <time>2024-08-24T13:06:10Z</time>
      </trkpt>
      <trkpt lat="46.54902" lon="0.68704">
        <ele>82.2</ele>
        <time>2024-08-24T13:06:12Z</time>
      </trkpt>
      <trkpt lat="46.54896" lon="0.68703">
        <ele>81.6</ele>
        <time>2024-08-24T13:06:15Z</time>
      </trkpt>
      <trkpt lat="46.54887" lon="0.68699">
        <ele>81.6</ele>
        <time>2024-08-24T13:06:20Z</time>
      </trkpt>
      <trkpt lat="46.54886" lon="0.68698">
        <ele>81.6</ele>
        <time>2024-08-24T13:06:21Z</time>
      </trkpt>
      <trkpt lat="46.54879" lon="0.6869">
        <ele>82.2</ele>
        <time>2024-08-24T13:06:26Z</time>
      </trkpt>
      <trkpt lat="46.54875" lon="0.68685">
        <ele>82.8</ele>
        <time>2024-08-24T13:06:30Z</time>
      </trkpt>
      <trkpt lat="46.54873" lon="0.6868">
        <ele>83</ele>
        <time>2024-08-24T13:06:32Z</time>
      </trkpt>
      <trkpt lat="46.54864" lon="0.68668">
        <ele>83.6</ele>
        <time>2024-08-24T13:06:38Z</time>
      </trkpt>
      <trkpt lat="46.54859" lon="0.68656">
        <ele>83.6</ele>
        <time>2024-08-24T13:06:43Z</time>
      </trkpt>
      <trkpt lat="46.54859" lon="0.68654">
        <ele>83.6</ele>
        <time>2024-08-24T13:06:44Z</time>
      </trkpt>
      <trkpt lat="46.54859" lon="0.6865">
        <ele>84</ele>
        <time>2024-08-24T13:06:46Z</time>
      </trkpt>
      <trkpt lat="46.54858" lon="0.68638">
        <ele>84.6</ele>
        <time>2024-08-24T13:06:50Z</time>
      </trkpt>
      <trkpt lat="46.54859" lon="0.68633">
        <ele>85</ele>
        <time>2024-08-24T13:06:52Z</time>
      </trkpt>
      <trkpt lat="46.54861" lon="0.68621">
        <ele>84.8</ele>
        <time>2024-08-24T13:06:56Z</time>
      </trkpt>
      <trkpt lat="46.54861" lon="0.68619">
        <ele>84.8</ele>
        <time>2024-08-24T13:06:57Z</time>
      </trkpt>
      <trkpt lat="46.54862" lon="0.68609">
        <ele>84.8</ele>
        <time>2024-08-24T13:07:01Z</time>
      </trkpt>
      <trkpt lat="46.54863" lon="0.68606">
        <ele>84.8</ele>
        <time>2024-08-24T13:07:02Z</time>
      </trkpt>
      <trkpt lat="46.54865" lon="0.68599">
        <ele>84.4</ele>
        <time>2024-08-24T13:07:04Z</time>
      </trkpt>
      <trkpt lat="46.54867" lon="0.68593">
        <ele>83.8</ele>
        <time>2024-08-24T13:07:06Z</time>
      </trkpt>
      <trkpt lat="46.54867" lon="0.68587">
        <ele>83</ele>
        <time>2024-08-24T13:07:08Z</time>
      </trkpt>
      <trkpt lat="46.54866" lon="0.68585">
        <ele>82.8</ele>
        <time>2024-08-24T13:07:09Z</time>
      </trkpt>
      <trkpt lat="46.54867" lon="0.68584">
        <ele>82.6</ele>
        <time>2024-08-24T13:07:10Z</time>
      </trkpt>
      <trkpt lat="46.54868" lon="0.68583">
        <ele>82.6</ele>
        <time>2024-08-24T13:07:11Z</time>
      </trkpt>
      <trkpt lat="46.54877" lon="0.68573">
        <ele>82.6</ele>
        <time>2024-08-24T13:07:16Z</time>
      </trkpt>
      <trkpt lat="46.54887" lon="0.68574">
        <ele>82.6</ele>
        <time>2024-08-24T13:07:22Z</time>
      </trkpt>
      <trkpt lat="46.54893" lon="0.68573">
        <ele>83.4</ele>
        <time>2024-08-24T13:07:27Z</time>
      </trkpt>
      <trkpt lat="46.54893" lon="0.68572">
        <ele>83.8</ele>
        <time>2024-08-24T13:07:28Z</time>
      </trkpt>
      <trkpt lat="46.54895" lon="0.68571">
        <ele>83.8</ele>
        <time>2024-08-24T13:07:29Z</time>
      </trkpt>
      <trkpt lat="46.54898" lon="0.68561">
        <ele>82.6</ele>
        <time>2024-08-24T13:07:35Z</time>
      </trkpt>
      <trkpt lat="46.54907" lon="0.68556">
        <ele>81.8</ele>
        <time>2024-08-24T13:07:42Z</time>
      </trkpt>
      <trkpt lat="46.5491" lon="0.68551">
        <ele>81.6</ele>
        <time>2024-08-24T13:07:45Z</time>
      </trkpt>
      <trkpt lat="46.54917" lon="0.68548">
        <ele>81.4</ele>
        <time>2024-08-24T13:07:51Z</time>
      </trkpt>
      <trkpt lat="46.54921" lon="0.68547">
        <ele>81.4</ele>
        <time>2024-08-24T13:07:54Z</time>
      </trkpt>
      <trkpt lat="46.54927" lon="0.68548">
        <ele>81.4</ele>
        <time>2024-08-24T13:07:57Z</time>
      </trkpt>
      <trkpt lat="46.54934" lon="0.6855">
        <ele>81.6</ele>
        <time>2024-08-24T13:08:00Z</time>
      </trkpt>
      <trkpt lat="46.54939" lon="0.68554">
        <ele>83.2</ele>
        <time>2024-08-24T13:08:03Z</time>
      </trkpt>
      <trkpt lat="46.54943" lon="0.6856">
        <ele>84.2</ele>
        <time>2024-08-24T13:08:08Z</time>
      </trkpt>
      <trkpt lat="46.54943" lon="0.68562">
        <ele>84.4</ele>
        <time>2024-08-24T13:08:09Z</time>
      </trkpt>
      <trkpt lat="46.54944" lon="0.68566">
        <ele>84.8</ele>
        <time>2024-08-24T13:08:11Z</time>
      </trkpt>
      <trkpt lat="46.54944" lon="0.68568">
        <ele>85.4</ele>
        <time>2024-08-24T13:08:13Z</time>
      </trkpt>
      <trkpt lat="46.54947" lon="0.68575">
        <ele>86.2</ele>
        <time>2024-08-24T13:08:20Z</time>
      </trkpt>
      <trkpt lat="46.54955" lon="0.68582">
        <ele>86</ele>
        <time>2024-08-24T13:08:30Z</time>
      </trkpt>
      <trkpt lat="46.54956" lon="0.68582">
        <ele>85.8</ele>
        <time>2024-08-24T13:08:31Z</time>
      </trkpt>
      <trkpt lat="46.54966" lon="0.68572">
        <ele>85.6</ele>
        <time>2024-08-24T13:08:39Z</time>
      </trkpt>
      <trkpt lat="46.54968" lon="0.68566">
        <ele>84.4</ele>
        <time>2024-08-24T13:08:41Z</time>
      </trkpt>
      <trkpt lat="46.54969" lon="0.68559">
        <ele>83.6</ele>
        <time>2024-08-24T13:08:43Z</time>
      </trkpt>
      <trkpt lat="46.54971" lon="0.68557">
        <ele>82.8</ele>
        <time>2024-08-24T13:08:44Z</time>
      </trkpt>
      <trkpt lat="46.54974" lon="0.68556">
        <ele>81.6</ele>
        <time>2024-08-24T13:08:46Z</time>
      </trkpt>
      <trkpt lat="46.54975" lon="0.68556">
        <ele>81.4</ele>
        <time>2024-08-24T13:08:47Z</time>
      </trkpt>
      <trkpt lat="46.54982" lon="0.68555">
        <ele>80.6</ele>
        <time>2024-08-24T13:08:52Z</time>
      </trkpt>
      <trkpt lat="46.54985" lon="0.68555">
        <ele>80.2</ele>
        <time>2024-08-24T13:08:54Z</time>
      </trkpt>
      <trkpt lat="46.54996" lon="0.68559">
        <ele>80</ele>
        <time>2024-08-24T13:09:00Z</time>
      </trkpt>
      <trkpt lat="46.5501" lon="0.68564">
        <ele>80</ele>
        <time>2024-08-24T13:09:07Z</time>
      </trkpt>
      <trkpt lat="46.55012" lon="0.68565">
        <ele>80</ele>
        <time>2024-08-24T13:09:08Z</time>
      </trkpt>
      <trkpt lat="46.55018" lon="0.68566">
        <ele>80</ele>
        <time>2024-08-24T13:09:10Z</time>
      </trkpt>
      <trkpt lat="46.5502" lon="0.68567">
        <ele>80</ele>
        <time>2024-08-24T13:09:11Z</time>
      </trkpt>
      <trkpt lat="46.55022" lon="0.68568">
        <ele>79.8</ele>
        <time>2024-08-24T13:09:12Z</time>
      </trkpt>
      <trkpt lat="46.55032" lon="0.68576">
        <ele>80.4</ele>
        <time>2024-08-24T13:09:16Z</time>
      </trkpt>
      <trkpt lat="46.55048" lon="0.68581">
        <ele>80.4</ele>
        <time>2024-08-24T13:09:22Z</time>
      </trkpt>
      <trkpt lat="46.55054" lon="0.68584">
        <ele>80.4</ele>
        <time>2024-08-24T13:09:25Z</time>
      </trkpt>
      <trkpt lat="46.55057" lon="0.68587">
        <ele>80.2</ele>
        <time>2024-08-24T13:09:27Z</time>
      </trkpt>
      <trkpt lat="46.55058" lon="0.68588">
        <ele>80.2</ele>
        <time>2024-08-24T13:09:28Z</time>
      </trkpt>
      <trkpt lat="46.55071" lon="0.68598">
        <ele>80.6</ele>
        <time>2024-08-24T13:09:35Z</time>
      </trkpt>
      <trkpt lat="46.55083" lon="0.68611">
        <ele>81.4</ele>
        <time>2024-08-24T13:09:42Z</time>
      </trkpt>
      <trkpt lat="46.55085" lon="0.68612">
        <ele>81.8</ele>
        <time>2024-08-24T13:09:43Z</time>
      </trkpt>
      <trkpt lat="46.55091" lon="0.68619">
        <ele>82.6</ele>
        <time>2024-08-24T13:09:48Z</time>
      </trkpt>
      <trkpt lat="46.55102" lon="0.68628">
        <ele>82.8</ele>
        <time>2024-08-24T13:09:54Z</time>
      </trkpt>
      <trkpt lat="46.55106" lon="0.68634">
        <ele>83.4</ele>
        <time>2024-08-24T13:09:58Z</time>
      </trkpt>
      <trkpt lat="46.55109" lon="0.68638">
        <ele>83.8</ele>
        <time>2024-08-24T13:10:00Z</time>
      </trkpt>
      <trkpt lat="46.55111" lon="0.68639">
        <ele>84</ele>
        <time>2024-08-24T13:10:01Z</time>
      </trkpt>
      <trkpt lat="46.55117" lon="0.68642">
        <ele>84.2</ele>
        <time>2024-08-24T13:10:06Z</time>
      </trkpt>
      <trkpt lat="46.55118" lon="0.68641">
        <ele>84.2</ele>
        <time>2024-08-24T13:10:07Z</time>
      </trkpt>
      <trkpt lat="46.55122" lon="0.68641">
        <ele>83.2</ele>
        <time>2024-08-24T13:10:10Z</time>
      </trkpt>
      <trkpt lat="46.55124" lon="0.68642">
        <ele>82.6</ele>
        <time>2024-08-24T13:10:11Z</time>
      </trkpt>
      <trkpt lat="46.55125" lon="0.68643">
        <ele>82.4</ele>
        <time>2024-08-24T13:10:12Z</time>
      </trkpt>
      <trkpt lat="46.55132" lon="0.6865">
        <ele>82</ele>
        <time>2024-08-24T13:10:18Z</time>
      </trkpt>
      <trkpt lat="46.55133" lon="0.68651">
        <ele>82</ele>
        <time>2024-08-24T13:10:19Z</time>
      </trkpt>
      <trkpt lat="46.5514" lon="0.6866">
        <ele>83.6</ele>
        <time>2024-08-24T13:10:25Z</time>
      </trkpt>
      <trkpt lat="46.55144" lon="0.68664">
        <ele>84.4</ele>
        <time>2024-08-24T13:10:28Z</time>
      </trkpt>
      <trkpt lat="46.55145" lon="0.68666">
        <ele>85</ele>
        <time>2024-08-24T13:10:29Z</time>
      </trkpt>
      <trkpt lat="46.55146" lon="0.68669">
        <ele>86</ele>
        <time>2024-08-24T13:10:31Z</time>
      </trkpt>
      <trkpt lat="46.55149" lon="0.68676">
        <ele>86.6</ele>
        <time>2024-08-24T13:10:35Z</time>
      </trkpt>
      <trkpt lat="46.55151" lon="0.6868">
        <ele>87</ele>
        <time>2024-08-24T13:10:37Z</time>
      </trkpt>
      <trkpt lat="46.55152" lon="0.68683">
        <ele>87.2</ele>
        <time>2024-08-24T13:10:38Z</time>
      </trkpt>
      <trkpt lat="46.55162" lon="0.687">
        <ele>88.4</ele>
        <time>2024-08-24T13:10:49Z</time>
      </trkpt>
      <trkpt lat="46.55164" lon="0.68704">
        <ele>88.8</ele>
        <time>2024-08-24T13:10:51Z</time>
      </trkpt>
      <trkpt lat="46.55167" lon="0.68715">
        <ele>89.4</ele>
        <time>2024-08-24T13:10:56Z</time>
      </trkpt>
      <trkpt lat="46.55172" lon="0.68725">
        <ele>90.4</ele>
        <time>2024-08-24T13:11:02Z</time>
      </trkpt>
      <trkpt lat="46.55172" lon="0.68727">
        <ele>90.8</ele>
        <time>2024-08-24T13:11:04Z</time>
      </trkpt>
      <trkpt lat="46.55174" lon="0.6873">
        <ele>91</ele>
        <time>2024-08-24T13:11:14Z</time>
      </trkpt>
      <trkpt lat="46.55174" lon="0.68736">
        <ele>91.6</ele>
        <time>2024-08-24T13:11:19Z</time>
      </trkpt>
      <trkpt lat="46.55175" lon="0.68741">
        <ele>92.2</ele>
        <time>2024-08-24T13:11:25Z</time>
      </trkpt>
      <trkpt lat="46.55175" lon="0.68745">
        <ele>92.2</ele>
        <time>2024-08-24T13:11:42Z</time>
      </trkpt>
      <trkpt lat="46.55175" lon="0.68746">
        <ele>92.2</ele>
        <time>2024-08-24T13:11:43Z</time>
      </trkpt>
      <trkpt lat="46.55176" lon="0.68749">
        <ele>92.2</ele>
        <time>2024-08-24T13:11:45Z</time>
      </trkpt>
      <trkpt lat="46.55177" lon="0.68754">
        <ele>92.6</ele>
        <time>2024-08-24T13:11:48Z</time>
      </trkpt>
      <trkpt lat="46.55178" lon="0.68755">
        <ele>92.8</ele>
        <time>2024-08-24T13:11:49Z</time>
      </trkpt>
      <trkpt lat="46.5518" lon="0.68757">
        <ele>93.6</ele>
        <time>2024-08-24T13:11:51Z</time>
      </trkpt>
      <trkpt lat="46.55184" lon="0.68754">
        <ele>93.6</ele>
        <time>2024-08-24T13:11:55Z</time>
      </trkpt>
      <trkpt lat="46.55189" lon="0.68752">
        <ele>92.4</ele>
        <time>2024-08-24T13:11:58Z</time>
      </trkpt>
      <trkpt lat="46.55192" lon="0.68754">
        <ele>91.8</ele>
        <time>2024-08-24T13:12:01Z</time>
      </trkpt>
      <trkpt lat="46.55196" lon="0.68756">
        <ele>92.4</ele>
        <time>2024-08-24T13:12:04Z</time>
      </trkpt>
      <trkpt lat="46.55197" lon="0.68757">
        <ele>92.4</ele>
        <time>2024-08-24T13:12:06Z</time>
      </trkpt>
      <trkpt lat="46.55203" lon="0.68759">
        <ele>92.6</ele>
        <time>2024-08-24T13:12:18Z</time>
      </trkpt>
      <trkpt lat="46.55201" lon="0.68757">
        <ele>92.2</ele>
        <time>2024-08-24T13:12:30Z</time>
      </trkpt>
      <trkpt lat="46.55201" lon="0.68752">
        <ele>91</ele>
        <time>2024-08-24T13:12:44Z</time>
      </trkpt>
      <trkpt lat="46.55198" lon="0.68744">
        <ele>91</ele>
        <time>2024-08-24T13:12:54Z</time>
      </trkpt>
      <trkpt lat="46.55198" lon="0.68739">
        <ele>90.6</ele>
        <time>2024-08-24T13:12:56Z</time>
      </trkpt>
      <trkpt lat="46.55198" lon="0.68731">
        <ele>89</ele>
        <time>2024-08-24T13:12:59Z</time>
      </trkpt>
      <trkpt lat="46.55199" lon="0.68724">
        <ele>87.6</ele>
        <time>2024-08-24T13:13:01Z</time>
      </trkpt>
      <trkpt lat="46.55199" lon="0.68721">
        <ele>86.6</ele>
        <time>2024-08-24T13:13:02Z</time>
      </trkpt>
      <trkpt lat="46.55199" lon="0.68715">
        <ele>84.8</ele>
        <time>2024-08-24T13:13:04Z</time>
      </trkpt>
      <trkpt lat="46.552" lon="0.6871">
        <ele>83.4</ele>
        <time>2024-08-24T13:13:06Z</time>
      </trkpt>
      <trkpt lat="46.55201" lon="0.68708">
        <ele>82.6</ele>
        <time>2024-08-24T13:13:07Z</time>
      </trkpt>
      <trkpt lat="46.55201" lon="0.68706">
        <ele>82.2</ele>
        <time>2024-08-24T13:13:08Z</time>
      </trkpt>
      <trkpt lat="46.55202" lon="0.687">
        <ele>80.6</ele>
        <time>2024-08-24T13:13:10Z</time>
      </trkpt>
      <trkpt lat="46.55204" lon="0.68692">
        <ele>80</ele>
        <time>2024-08-24T13:13:12Z</time>
      </trkpt>
      <trkpt lat="46.55206" lon="0.6869">
        <ele>79.6</ele>
        <time>2024-08-24T13:13:13Z</time>
      </trkpt>
      <trkpt lat="46.55209" lon="0.68688">
        <ele>78.4</ele>
        <time>2024-08-24T13:13:14Z</time>
      </trkpt>
      <trkpt lat="46.55214" lon="0.68686">
        <ele>78</ele>
        <time>2024-08-24T13:13:16Z</time>
      </trkpt>
      <trkpt lat="46.55216" lon="0.68686">
        <ele>77.6</ele>
        <time>2024-08-24T13:13:17Z</time>
      </trkpt>
      <trkpt lat="46.5522" lon="0.68685">
        <ele>77.4</ele>
        <time>2024-08-24T13:13:20Z</time>
      </trkpt>
      <trkpt lat="46.55226" lon="0.68685">
        <ele>77.2</ele>
        <time>2024-08-24T13:13:23Z</time>
      </trkpt>
      <trkpt lat="46.55239" lon="0.68691">
        <ele>76.8</ele>
        <time>2024-08-24T13:13:29Z</time>
      </trkpt>
      <trkpt lat="46.55249" lon="0.68694">
        <ele>76.6</ele>
        <time>2024-08-24T13:13:35Z</time>
      </trkpt>
      <trkpt lat="46.55261" lon="0.68696">
        <ele>76.2</ele>
        <time>2024-08-24T13:13:41Z</time>
      </trkpt>
      <trkpt lat="46.55264" lon="0.68695">
        <ele>76.2</ele>
        <time>2024-08-24T13:13:42Z</time>
      </trkpt>
      <trkpt lat="46.55278" lon="0.68691">
        <ele>76</ele>
        <time>2024-08-24T13:13:48Z</time>
      </trkpt>
      <trkpt lat="46.55297" lon="0.68679">
        <ele>76.4</ele>
        <time>2024-08-24T13:13:55Z</time>
      </trkpt>
      <trkpt lat="46.55313" lon="0.68667">
        <ele>77.4</ele>
        <time>2024-08-24T13:14:01Z</time>
      </trkpt>
      <trkpt lat="46.55316" lon="0.68663">
        <ele>77.6</ele>
        <time>2024-08-24T13:14:03Z</time>
      </trkpt>
      <trkpt lat="46.55324" lon="0.6865">
        <ele>78.4</ele>
        <time>2024-08-24T13:14:08Z</time>
      </trkpt>
      <trkpt lat="46.55324" lon="0.68645">
        <ele>78.6</ele>
        <time>2024-08-24T13:14:10Z</time>
      </trkpt>
      <trkpt lat="46.55318" lon="0.68643">
        <ele>78.8</ele>
        <time>2024-08-24T13:14:14Z</time>
      </trkpt>
      <trkpt lat="46.55305" lon="0.68641">
        <ele>79.4</ele>
        <time>2024-08-24T13:14:20Z</time>
      </trkpt>
      <trkpt lat="46.55303" lon="0.68641">
        <ele>79.6</ele>
        <time>2024-08-24T13:14:21Z</time>
      </trkpt>
      <trkpt lat="46.55287" lon="0.68636">
        <ele>80.6</ele>
        <time>2024-08-24T13:14:28Z</time>
      </trkpt>
      <trkpt lat="46.55285" lon="0.68635">
        <ele>80.6</ele>
        <time>2024-08-24T13:14:29Z</time>
      </trkpt>
      <trkpt lat="46.55272" lon="0.68627">
        <ele>81.6</ele>
        <time>2024-08-24T13:14:36Z</time>
      </trkpt>
      <trkpt lat="46.55268" lon="0.68626">
        <ele>81.6</ele>
        <time>2024-08-24T13:14:38Z</time>
      </trkpt>
      <trkpt lat="46.55257" lon="0.68619">
        <ele>81.8</ele>
        <time>2024-08-24T13:14:46Z</time>
      </trkpt>
      <trkpt lat="46.55255" lon="0.6862">
        <ele>82</ele>
        <time>2024-08-24T13:14:48Z</time>
      </trkpt>
      <trkpt lat="46.55252" lon="0.6862">
        <ele>82.2</ele>
        <time>2024-08-24T13:14:50Z</time>
      </trkpt>
      <trkpt lat="46.55251" lon="0.68619">
        <ele>82.2</ele>
        <time>2024-08-24T13:14:51Z</time>
      </trkpt>
      <trkpt lat="46.55248" lon="0.68617">
        <ele>82.6</ele>
        <time>2024-08-24T13:14:53Z</time>
      </trkpt>
      <trkpt lat="46.55246" lon="0.68617">
        <ele>83</ele>
        <time>2024-08-24T13:14:54Z</time>
      </trkpt>
      <trkpt lat="46.55239" lon="0.6862">
        <ele>82.8</ele>
        <time>2024-08-24T13:14:58Z</time>
      </trkpt>
      <trkpt lat="46.55233" lon="0.68621">
        <ele>81</ele>
        <time>2024-08-24T13:15:00Z</time>
      </trkpt>
      <trkpt lat="46.55224" lon="0.68622">
        <ele>79.8</ele>
        <time>2024-08-24T13:15:03Z</time>
      </trkpt>
      <trkpt lat="46.55221" lon="0.68621">
        <ele>79.6</ele>
        <time>2024-08-24T13:15:04Z</time>
      </trkpt>
      <trkpt lat="46.55211" lon="0.68618">
        <ele>78.8</ele>
        <time>2024-08-24T13:15:08Z</time>
      </trkpt>
      <trkpt lat="46.55207" lon="0.68615">
        <ele>79</ele>
        <time>2024-08-24T13:15:10Z</time>
      </trkpt>
      <trkpt lat="46.55199" lon="0.68609">
        <ele>79.8</ele>
        <time>2024-08-24T13:15:14Z</time>
      </trkpt>
      <trkpt lat="46.55191" lon="0.68606">
        <ele>80.2</ele>
        <time>2024-08-24T13:15:17Z</time>
      </trkpt>
      <trkpt lat="46.55178" lon="0.68599">
        <ele>79.8</ele>
        <time>2024-08-24T13:15:23Z</time>
      </trkpt>
      <trkpt lat="46.55168" lon="0.68592">
        <ele>79.6</ele>
        <time>2024-08-24T13:15:28Z</time>
      </trkpt>
      <trkpt lat="46.55164" lon="0.68592">
        <ele>79.6</ele>
        <time>2024-08-24T13:15:30Z</time>
      </trkpt>
      <trkpt lat="46.55156" lon="0.68585">
        <ele>79.2</ele>
        <time>2024-08-24T13:15:34Z</time>
      </trkpt>
      <trkpt lat="46.55142" lon="0.68574">
        <ele>79.6</ele>
        <time>2024-08-24T13:15:41Z</time>
      </trkpt>
      <trkpt lat="46.55134" lon="0.68566">
        <ele>79</ele>
        <time>2024-08-24T13:15:47Z</time>
      </trkpt>
      <trkpt lat="46.55125" lon="0.68553">
        <ele>80</ele>
        <time>2024-08-24T13:15:54Z</time>
      </trkpt>
      <trkpt lat="46.5512" lon="0.6855">
        <ele>80</ele>
        <time>2024-08-24T13:15:57Z</time>
      </trkpt>
      <trkpt lat="46.55113" lon="0.68547">
        <ele>79.2</ele>
        <time>2024-08-24T13:16:00Z</time>
      </trkpt>
      <trkpt lat="46.5511" lon="0.68546">
        <ele>78.6</ele>
        <time>2024-08-24T13:16:01Z</time>
      </trkpt>
      <trkpt lat="46.55103" lon="0.68541">
        <ele>77.6</ele>
        <time>2024-08-24T13:16:04Z</time>
      </trkpt>
      <trkpt lat="46.55099" lon="0.68536">
        <ele>77.2</ele>
        <time>2024-08-24T13:16:06Z</time>
      </trkpt>
      <trkpt lat="46.5508" lon="0.68522">
        <ele>76.8</ele>
        <time>2024-08-24T13:16:13Z</time>
      </trkpt>
      <trkpt lat="46.55061" lon="0.68513">
        <ele>77</ele>
        <time>2024-08-24T13:16:20Z</time>
      </trkpt>
      <trkpt lat="46.55047" lon="0.68502">
        <ele>78</ele>
        <time>2024-08-24T13:16:27Z</time>
      </trkpt>
      <trkpt lat="46.55044" lon="0.68499">
        <ele>78.6</ele>
        <time>2024-08-24T13:16:29Z</time>
      </trkpt>
      <trkpt lat="46.55043" lon="0.68495">
        <ele>79.8</ele>
        <time>2024-08-24T13:16:32Z</time>
      </trkpt>
      <trkpt lat="46.55042" lon="0.68494">
        <ele>80.2</ele>
        <time>2024-08-24T13:16:33Z</time>
      </trkpt>
      <trkpt lat="46.55041" lon="0.68493">
        <ele>80.4</ele>
        <time>2024-08-24T13:16:34Z</time>
      </trkpt>
      <trkpt lat="46.55037" lon="0.68491">
        <ele>81</ele>
        <time>2024-08-24T13:16:36Z</time>
      </trkpt>
      <trkpt lat="46.5503" lon="0.68484">
        <ele>81.4</ele>
        <time>2024-08-24T13:16:39Z</time>
      </trkpt>
      <trkpt lat="46.55016" lon="0.68476">
        <ele>81.4</ele>
        <time>2024-08-24T13:16:45Z</time>
      </trkpt>
      <trkpt lat="46.54999" lon="0.68468">
        <ele>81</ele>
        <time>2024-08-24T13:16:51Z</time>
      </trkpt>
      <trkpt lat="46.54983" lon="0.68461">
        <ele>81</ele>
        <time>2024-08-24T13:16:57Z</time>
      </trkpt>
      <trkpt lat="46.54965" lon="0.6846">
        <ele>80.8</ele>
        <time>2024-08-24T13:17:04Z</time>
      </trkpt>
      <trkpt lat="46.54949" lon="0.68458">
        <ele>80.8</ele>
        <time>2024-08-24T13:17:10Z</time>
      </trkpt>
      <trkpt lat="46.54931" lon="0.68455">
        <ele>81.6</ele>
        <time>2024-08-24T13:17:16Z</time>
      </trkpt>
      <trkpt lat="46.54921" lon="0.68456">
        <ele>82.2</ele>
        <time>2024-08-24T13:17:20Z</time>
      </trkpt>
      <trkpt lat="46.54916" lon="0.68457">
        <ele>82.4</ele>
        <time>2024-08-24T13:17:22Z</time>
      </trkpt>
      <trkpt lat="46.54903" lon="0.68457">
        <ele>83.2</ele>
        <time>2024-08-24T13:17:28Z</time>
      </trkpt>
      <trkpt lat="46.549" lon="0.68457">
        <ele>83.4</ele>
        <time>2024-08-24T13:17:29Z</time>
      </trkpt>
      <trkpt lat="46.54892" lon="0.68455">
        <ele>84.4</ele>
        <time>2024-08-24T13:17:33Z</time>
      </trkpt>
      <trkpt lat="46.5489" lon="0.68455">
        <ele>84.6</ele>
        <time>2024-08-24T13:17:34Z</time>
      </trkpt>
      <trkpt lat="46.54877" lon="0.68459">
        <ele>84.4</ele>
        <time>2024-08-24T13:17:39Z</time>
      </trkpt>
      <trkpt lat="46.54863" lon="0.68463">
        <ele>84.2</ele>
        <time>2024-08-24T13:17:43Z</time>
      </trkpt>
      <trkpt lat="46.5486" lon="0.6847">
        <ele>83.6</ele>
        <time>2024-08-24T13:17:46Z</time>
      </trkpt>
      <trkpt lat="46.54858" lon="0.68477">
        <ele>83</ele>
        <time>2024-08-24T13:17:48Z</time>
      </trkpt>
      <trkpt lat="46.54854" lon="0.68484">
        <ele>81.8</ele>
        <time>2024-08-24T13:17:50Z</time>
      </trkpt>
      <trkpt lat="46.54849" lon="0.68491">
        <ele>81</ele>
        <time>2024-08-24T13:17:53Z</time>
      </trkpt>
      <trkpt lat="46.54845" lon="0.68495">
        <ele>80.8</ele>
        <time>2024-08-24T13:17:56Z</time>
      </trkpt>
      <trkpt lat="46.54842" lon="0.68497">
        <ele>80.2</ele>
        <time>2024-08-24T13:17:58Z</time>
      </trkpt>
      <trkpt lat="46.54838" lon="0.68502">
        <ele>80.2</ele>
        <time>2024-08-24T13:18:01Z</time>
      </trkpt>
      <trkpt lat="46.54831" lon="0.6851">
        <ele>80</ele>
        <time>2024-08-24T13:18:05Z</time>
      </trkpt>
      <trkpt lat="46.54829" lon="0.68513">
        <ele>79.6</ele>
        <time>2024-08-24T13:18:07Z</time>
      </trkpt>
      <trkpt lat="46.5482" lon="0.68521">
        <ele>79.4</ele>
        <time>2024-08-24T13:18:11Z</time>
      </trkpt>
      <trkpt lat="46.54818" lon="0.68525">
        <ele>79.4</ele>
        <time>2024-08-24T13:18:12Z</time>
      </trkpt>
      <trkpt lat="46.54816" lon="0.68526">
        <ele>79.4</ele>
        <time>2024-08-24T13:18:13Z</time>
      </trkpt>
      <trkpt lat="46.54809" lon="0.68534">
        <ele>79.8</ele>
        <time>2024-08-24T13:18:19Z</time>
      </trkpt>
      <trkpt lat="46.54804" lon="0.6854">
        <ele>79.6</ele>
        <time>2024-08-24T13:18:26Z</time>
      </trkpt>
      <trkpt lat="46.54798" lon="0.68544">
        <ele>80.4</ele>
        <time>2024-08-24T13:18:35Z</time>
      </trkpt>
      <trkpt lat="46.54797" lon="0.68544">
        <ele>80.8</ele>
        <time>2024-08-24T13:18:36Z</time>
      </trkpt>
      <trkpt lat="46.54786" lon="0.68546">
        <ele>81.4</ele>
        <time>2024-08-24T13:18:46Z</time>
      </trkpt>
      <trkpt lat="46.54784" lon="0.68546">
        <ele>81.6</ele>
        <time>2024-08-24T13:18:48Z</time>
      </trkpt>
      <trkpt lat="46.54783" lon="0.68546">
        <ele>81.6</ele>
        <time>2024-08-24T13:18:49Z</time>
      </trkpt>
      <trkpt lat="46.54781" lon="0.68547">
        <ele>81.6</ele>
        <time>2024-08-24T13:18:51Z</time>
      </trkpt>
      <trkpt lat="46.54778" lon="0.68549">
        <ele>81.6</ele>
        <time>2024-08-24T13:18:54Z</time>
      </trkpt>
      <trkpt lat="46.54776" lon="0.68549">
        <ele>81.8</ele>
        <time>2024-08-24T13:18:55Z</time>
      </trkpt>
      <trkpt lat="46.54769" lon="0.68556">
        <ele>82.6</ele>
        <time>2024-08-24T13:19:02Z</time>
      </trkpt>
      <trkpt lat="46.54768" lon="0.68559">
        <ele>82.4</ele>
        <time>2024-08-24T13:19:03Z</time>
      </trkpt>
      <trkpt lat="46.54768" lon="0.68562">
        <ele>82.4</ele>
        <time>2024-08-24T13:19:04Z</time>
      </trkpt>
      <trkpt lat="46.54765" lon="0.68573">
        <ele>81.6</ele>
        <time>2024-08-24T13:19:08Z</time>
      </trkpt>
      <trkpt lat="46.54762" lon="0.68586">
        <ele>80.6</ele>
        <time>2024-08-24T13:19:13Z</time>
      </trkpt>
      <trkpt lat="46.54761" lon="0.68595">
        <ele>80.4</ele>
        <time>2024-08-24T13:19:16Z</time>
      </trkpt>
      <trkpt lat="46.54761" lon="0.68623">
        <ele>79.8</ele>
        <time>2024-08-24T13:19:25Z</time>
      </trkpt>
      <trkpt lat="46.54762" lon="0.6863">
        <ele>79.6</ele>
        <time>2024-08-24T13:19:27Z</time>
      </trkpt>
      <trkpt lat="46.54764" lon="0.68649">
        <ele>79.6</ele>
        <time>2024-08-24T13:19:32Z</time>
      </trkpt>
      <trkpt lat="46.54768" lon="0.68661">
        <ele>79.6</ele>
        <time>2024-08-24T13:19:37Z</time>
      </trkpt>
      <trkpt lat="46.54769" lon="0.68666">
        <ele>79.4</ele>
        <time>2024-08-24T13:19:39Z</time>
      </trkpt>
      <trkpt lat="46.54779" lon="0.68681">
        <ele>79.4</ele>
        <time>2024-08-24T13:19:46Z</time>
      </trkpt>
      <trkpt lat="46.54787" lon="0.68695">
        <ele>80.2</ele>
        <time>2024-08-24T13:19:53Z</time>
      </trkpt>
      <trkpt lat="46.54796" lon="0.68703">
        <ele>79.4</ele>
        <time>2024-08-24T13:19:58Z</time>
      </trkpt>
      <trkpt lat="46.54806" lon="0.68715">
        <ele>79.8</ele>
        <time>2024-08-24T13:20:04Z</time>
      </trkpt>
      <trkpt lat="46.54807" lon="0.68718">
        <ele>80</ele>
        <time>2024-08-24T13:20:05Z</time>
      </trkpt>
      <trkpt lat="46.54809" lon="0.68721">
        <ele>80.2</ele>
        <time>2024-08-24T13:20:06Z</time>
      </trkpt>
      <trkpt lat="46.54818" lon="0.68732">
        <ele>80.6</ele>
        <time>2024-08-24T13:20:11Z</time>
      </trkpt>
      <trkpt lat="46.5482" lon="0.68733">
        <ele>80.6</ele>
        <time>2024-08-24T13:20:12Z</time>
      </trkpt>
      <trkpt lat="46.54827" lon="0.68742">
        <ele>80.2</ele>
        <time>2024-08-24T13:20:18Z</time>
      </trkpt>
      <trkpt lat="46.54843" lon="0.68755">
        <ele>80.2</ele>
        <time>2024-08-24T13:20:24Z</time>
      </trkpt>
      <trkpt lat="46.54853" lon="0.68762">
        <ele>79.8</ele>
        <time>2024-08-24T13:20:29Z</time>
      </trkpt>
      <trkpt lat="46.54864" lon="0.68771">
        <ele>80</ele>
        <time>2024-08-24T13:20:35Z</time>
      </trkpt>
      <trkpt lat="46.54875" lon="0.68784">
        <ele>81</ele>
        <time>2024-08-24T13:20:41Z</time>
      </trkpt>
      <trkpt lat="46.54888" lon="0.68797">
        <ele>81.6</ele>
        <time>2024-08-24T13:20:47Z</time>
      </trkpt>
      <trkpt lat="46.5489" lon="0.68797">
        <ele>82</ele>
        <time>2024-08-24T13:20:48Z</time>
      </trkpt>
      <trkpt lat="46.54908" lon="0.68805">
        <ele>82.2</ele>
        <time>2024-08-24T13:20:56Z</time>
      </trkpt>
      <trkpt lat="46.54916" lon="0.68806">
        <ele>82.6</ele>
        <time>2024-08-24T13:21:00Z</time>
      </trkpt>
      <trkpt lat="46.54918" lon="0.68806">
        <ele>82.6</ele>
        <time>2024-08-24T13:21:01Z</time>
      </trkpt>
      <trkpt lat="46.54931" lon="0.68805">
        <ele>82.2</ele>
        <time>2024-08-24T13:21:06Z</time>
      </trkpt>
      <trkpt lat="46.54945" lon="0.68806">
        <ele>82</ele>
        <time>2024-08-24T13:21:12Z</time>
      </trkpt>
      <trkpt lat="46.54963" lon="0.68814">
        <ele>82.4</ele>
        <time>2024-08-24T13:21:18Z</time>
      </trkpt>
      <trkpt lat="46.5497" lon="0.68818">
        <ele>82.8</ele>
        <time>2024-08-24T13:21:21Z</time>
      </trkpt>
      <trkpt lat="46.54974" lon="0.68823">
        <ele>82.8</ele>
        <time>2024-08-24T13:21:23Z</time>
      </trkpt>
      <trkpt lat="46.5498" lon="0.68838">
        <ele>83.4</ele>
        <time>2024-08-24T13:21:28Z</time>
      </trkpt>
      <trkpt lat="46.54981" lon="0.68841">
        <ele>83.2</ele>
        <time>2024-08-24T13:21:30Z</time>
      </trkpt>
      <trkpt lat="46.54983" lon="0.68847">
        <ele>82.8</ele>
        <time>2024-08-24T13:21:33Z</time>
      </trkpt>
      <trkpt lat="46.54987" lon="0.68852">
        <ele>82.2</ele>
        <time>2024-08-24T13:21:35Z</time>
      </trkpt>
      <trkpt lat="46.54992" lon="0.68859">
        <ele>81.6</ele>
        <time>2024-08-24T13:21:38Z</time>
      </trkpt>
      <trkpt lat="46.54994" lon="0.68867">
        <ele>81.2</ele>
        <time>2024-08-24T13:21:40Z</time>
      </trkpt>
      <trkpt lat="46.54995" lon="0.6887">
        <ele>80.8</ele>
        <time>2024-08-24T13:21:41Z</time>
      </trkpt>
      <trkpt lat="46.55001" lon="0.68882">
        <ele>80.8</ele>
        <time>2024-08-24T13:21:44Z</time>
      </trkpt>
      <trkpt lat="46.55002" lon="0.68886">
        <ele>80.8</ele>
        <time>2024-08-24T13:21:45Z</time>
      </trkpt>
      <trkpt lat="46.55002" lon="0.68905">
        <ele>80.8</ele>
        <time>2024-08-24T13:21:50Z</time>
      </trkpt>
      <trkpt lat="46.55005" lon="0.6892">
        <ele>81.6</ele>
        <time>2024-08-24T13:21:56Z</time>
      </trkpt>
      <trkpt lat="46.55008" lon="0.68933">
        <ele>81.8</ele>
        <time>2024-08-24T13:22:01Z</time>
      </trkpt>
      <trkpt lat="46.55018" lon="0.68955">
        <ele>81.8</ele>
        <time>2024-08-24T13:22:09Z</time>
      </trkpt>
      <trkpt lat="46.55024" lon="0.68963">
        <ele>82.6</ele>
        <time>2024-08-24T13:22:13Z</time>
      </trkpt>
      <trkpt lat="46.55026" lon="0.68969">
        <ele>83.4</ele>
        <time>2024-08-24T13:22:16Z</time>
      </trkpt>
      <trkpt lat="46.55027" lon="0.68973">
        <ele>83.8</ele>
        <time>2024-08-24T13:22:18Z</time>
      </trkpt>
      <trkpt lat="46.5503" lon="0.68986">
        <ele>84.4</ele>
        <time>2024-08-24T13:22:24Z</time>
      </trkpt>
      <trkpt lat="46.5503" lon="0.68988">
        <ele>84.6</ele>
        <time>2024-08-24T13:22:26Z</time>
      </trkpt>
      <trkpt lat="46.55031" lon="0.68994">
        <ele>84.8</ele>
        <time>2024-08-24T13:22:29Z</time>
      </trkpt>
      <trkpt lat="46.55031" lon="0.68999">
        <ele>84.8</ele>
        <time>2024-08-24T13:22:31Z</time>
      </trkpt>
      <trkpt lat="46.55032" lon="0.69011">
        <ele>85</ele>
        <time>2024-08-24T13:22:37Z</time>
      </trkpt>
      <trkpt lat="46.55033" lon="0.69016">
        <ele>85.2</ele>
        <time>2024-08-24T13:22:39Z</time>
      </trkpt>
      <trkpt lat="46.55036" lon="0.69022">
        <ele>85.4</ele>
        <time>2024-08-24T13:22:42Z</time>
      </trkpt>
      <trkpt lat="46.55036" lon="0.69024">
        <ele>85.4</ele>
        <time>2024-08-24T13:22:43Z</time>
      </trkpt>
      <trkpt lat="46.5504" lon="0.69036">
        <ele>86</ele>
        <time>2024-08-24T13:22:49Z</time>
      </trkpt>
      <trkpt lat="46.5504" lon="0.69042">
        <ele>86.2</ele>
        <time>2024-08-24T13:22:51Z</time>
      </trkpt>
      <trkpt lat="46.55045" lon="0.6906">
        <ele>87</ele>
        <time>2024-08-24T13:22:59Z</time>
      </trkpt>
      <trkpt lat="46.55049" lon="0.69074">
        <ele>87.6</ele>
        <time>2024-08-24T13:23:06Z</time>
      </trkpt>
      <trkpt lat="46.5505" lon="0.69077">
        <ele>87.8</ele>
        <time>2024-08-24T13:23:07Z</time>
      </trkpt>
      <trkpt lat="46.55051" lon="0.69079">
        <ele>88.2</ele>
        <time>2024-08-24T13:23:08Z</time>
      </trkpt>
      <trkpt lat="46.55055" lon="0.69093">
        <ele>89</ele>
        <time>2024-08-24T13:23:14Z</time>
      </trkpt>
      <trkpt lat="46.55057" lon="0.69098">
        <ele>89.2</ele>
        <time>2024-08-24T13:23:16Z</time>
      </trkpt>
      <trkpt lat="46.55062" lon="0.69104">
        <ele>90</ele>
        <time>2024-08-24T13:23:20Z</time>
      </trkpt>
      <trkpt lat="46.55065" lon="0.69106">
        <ele>90.4</ele>
        <time>2024-08-24T13:23:22Z</time>
      </trkpt>
      <trkpt lat="46.55067" lon="0.69109">
        <ele>90.4</ele>
        <time>2024-08-24T13:23:24Z</time>
      </trkpt>
      <trkpt lat="46.5507" lon="0.69112">
        <ele>90.4</ele>
        <time>2024-08-24T13:23:26Z</time>
      </trkpt>
      <trkpt lat="46.55077" lon="0.69115">
        <ele>90.4</ele>
        <time>2024-08-24T13:23:31Z</time>
      </trkpt>
      <trkpt lat="46.55079" lon="0.69117">
        <ele>90.4</ele>
        <time>2024-08-24T13:23:32Z</time>
      </trkpt>
      <trkpt lat="46.55091" lon="0.69126">
        <ele>90.4</ele>
        <time>2024-08-24T13:23:39Z</time>
      </trkpt>
      <trkpt lat="46.55095" lon="0.69129">
        <ele>90.8</ele>
        <time>2024-08-24T13:23:41Z</time>
      </trkpt>
      <trkpt lat="46.55102" lon="0.69134">
        <ele>91.2</ele>
        <time>2024-08-24T13:23:45Z</time>
      </trkpt>
      <trkpt lat="46.55104" lon="0.69134">
        <ele>91.4</ele>
        <time>2024-08-24T13:23:46Z</time>
      </trkpt>
      <trkpt lat="46.55105" lon="0.69135">
        <ele>91.6</ele>
        <time>2024-08-24T13:23:47Z</time>
      </trkpt>
      <trkpt lat="46.55108" lon="0.69142">
        <ele>92.2</ele>
        <time>2024-08-24T13:23:51Z</time>
      </trkpt>
      <trkpt lat="46.55109" lon="0.69143">
        <ele>92.2</ele>
        <time>2024-08-24T13:23:52Z</time>
      </trkpt>
      <trkpt lat="46.55116" lon="0.69151">
        <ele>92.6</ele>
        <time>2024-08-24T13:23:57Z</time>
      </trkpt>
      <trkpt lat="46.55121" lon="0.69157">
        <ele>93.4</ele>
        <time>2024-08-24T13:24:00Z</time>
      </trkpt>
      <trkpt lat="46.55122" lon="0.69158">
        <ele>93.8</ele>
        <time>2024-08-24T13:24:01Z</time>
      </trkpt>
      <trkpt lat="46.55127" lon="0.69171">
        <ele>94.6</ele>
        <time>2024-08-24T13:24:10Z</time>
      </trkpt>
      <trkpt lat="46.55127" lon="0.69173">
        <ele>94.8</ele>
        <time>2024-08-24T13:24:11Z</time>
      </trkpt>
      <trkpt lat="46.55133" lon="0.69189">
        <ele>94.8</ele>
        <time>2024-08-24T13:24:19Z</time>
      </trkpt>
      <trkpt lat="46.55134" lon="0.692">
        <ele>96</ele>
        <time>2024-08-24T13:24:25Z</time>
      </trkpt>
      <trkpt lat="46.55132" lon="0.69206">
        <ele>97</ele>
        <time>2024-08-24T13:24:28Z</time>
      </trkpt>
      <trkpt lat="46.55131" lon="0.69207">
        <ele>97.2</ele>
        <time>2024-08-24T13:24:29Z</time>
      </trkpt>
      <trkpt lat="46.55124" lon="0.69215">
        <ele>98.4</ele>
        <time>2024-08-24T13:24:36Z</time>
      </trkpt>
      <trkpt lat="46.55121" lon="0.69218">
        <ele>98.4</ele>
        <time>2024-08-24T13:24:39Z</time>
      </trkpt>
      <trkpt lat="46.5512" lon="0.6922">
        <ele>98.6</ele>
        <time>2024-08-24T13:24:40Z</time>
      </trkpt>
      <trkpt lat="46.55105" lon="0.69235">
        <ele>99.4</ele>
        <time>2024-08-24T13:24:51Z</time>
      </trkpt>
      <trkpt lat="46.55101" lon="0.69238">
        <ele>99.6</ele>
        <time>2024-08-24T13:24:54Z</time>
      </trkpt>
      <trkpt lat="46.55091" lon="0.6924">
        <ele>100</ele>
        <time>2024-08-24T13:24:58Z</time>
      </trkpt>
      <trkpt lat="46.55073" lon="0.6924">
        <ele>99.4</ele>
        <time>2024-08-24T13:25:05Z</time>
      </trkpt>
      <trkpt lat="46.55061" lon="0.69236">
        <ele>100.4</ele>
        <time>2024-08-24T13:25:09Z</time>
      </trkpt>
      <trkpt lat="46.55052" lon="0.69232">
        <ele>100.8</ele>
        <time>2024-08-24T13:25:12Z</time>
      </trkpt>
      <trkpt lat="46.55034" lon="0.6922">
        <ele>100.8</ele>
        <time>2024-08-24T13:25:19Z</time>
      </trkpt>
      <trkpt lat="46.55012" lon="0.69208">
        <ele>100.6</ele>
        <time>2024-08-24T13:25:26Z</time>
      </trkpt>
      <trkpt lat="46.54994" lon="0.692">
        <ele>100.4</ele>
        <time>2024-08-24T13:25:32Z</time>
      </trkpt>
      <trkpt lat="46.54975" lon="0.69187">
        <ele>99.4</ele>
        <time>2024-08-24T13:25:39Z</time>
      </trkpt>
      <trkpt lat="46.54959" lon="0.69177">
        <ele>98.2</ele>
        <time>2024-08-24T13:25:44Z</time>
      </trkpt>
      <trkpt lat="46.54947" lon="0.6917">
        <ele>97.4</ele>
        <time>2024-08-24T13:25:47Z</time>
      </trkpt>
      <trkpt lat="46.54943" lon="0.69167">
        <ele>97</ele>
        <time>2024-08-24T13:25:48Z</time>
      </trkpt>
      <trkpt lat="46.54934" lon="0.6916">
        <ele>96.4</ele>
        <time>2024-08-24T13:25:50Z</time>
      </trkpt>
      <trkpt lat="46.5493" lon="0.69155">
        <ele>95.8</ele>
        <time>2024-08-24T13:25:51Z</time>
      </trkpt>
      <trkpt lat="46.54925" lon="0.69152">
        <ele>95.6</ele>
        <time>2024-08-24T13:25:52Z</time>
      </trkpt>
      <trkpt lat="46.5492" lon="0.69148">
        <ele>94.8</ele>
        <time>2024-08-24T13:25:53Z</time>
      </trkpt>
      <trkpt lat="46.54912" lon="0.69139">
        <ele>93.4</ele>
        <time>2024-08-24T13:25:55Z</time>
      </trkpt>
      <trkpt lat="46.549" lon="0.69125">
        <ele>92.6</ele>
        <time>2024-08-24T13:25:58Z</time>
      </trkpt>
      <trkpt lat="46.54893" lon="0.69115">
        <ele>92.2</ele>
        <time>2024-08-24T13:26:00Z</time>
      </trkpt>
      <trkpt lat="46.54885" lon="0.69102">
        <ele>91</ele>
        <time>2024-08-24T13:26:02Z</time>
      </trkpt>
      <trkpt lat="46.54882" lon="0.69096">
        <ele>90.6</ele>
        <time>2024-08-24T13:26:03Z</time>
      </trkpt>
      <trkpt lat="46.54875" lon="0.69084">
        <ele>90</ele>
        <time>2024-08-24T13:26:05Z</time>
      </trkpt>
      <trkpt lat="46.54863" lon="0.69067">
        <ele>88.6</ele>
        <time>2024-08-24T13:26:08Z</time>
      </trkpt>
      <trkpt lat="46.54859" lon="0.69062">
        <ele>88</ele>
        <time>2024-08-24T13:26:09Z</time>
      </trkpt>
      <trkpt lat="46.54854" lon="0.69058">
        <ele>87.4</ele>
        <time>2024-08-24T13:26:10Z</time>
      </trkpt>
      <trkpt lat="46.54844" lon="0.69051">
        <ele>86.6</ele>
        <time>2024-08-24T13:26:12Z</time>
      </trkpt>
      <trkpt lat="46.54838" lon="0.69049">
        <ele>86.2</ele>
        <time>2024-08-24T13:26:13Z</time>
      </trkpt>
      <trkpt lat="46.54832" lon="0.69048">
        <ele>85.8</ele>
        <time>2024-08-24T13:26:14Z</time>
      </trkpt>
      <trkpt lat="46.54818" lon="0.69047">
        <ele>85.2</ele>
        <time>2024-08-24T13:26:16Z</time>
      </trkpt>
      <trkpt lat="46.54803" lon="0.69044">
        <ele>83.2</ele>
        <time>2024-08-24T13:26:18Z</time>
      </trkpt>
      <trkpt lat="46.54795" lon="0.69042">
        <ele>82.8</ele>
        <time>2024-08-24T13:26:19Z</time>
      </trkpt>
      <trkpt lat="46.5478" lon="0.69032">
        <ele>82.4</ele>
        <time>2024-08-24T13:26:21Z</time>
      </trkpt>
      <trkpt lat="46.54774" lon="0.69024">
        <ele>82.2</ele>
        <time>2024-08-24T13:26:22Z</time>
      </trkpt>
      <trkpt lat="46.54757" lon="0.68991">
        <ele>83.2</ele>
        <time>2024-08-24T13:26:26Z</time>
      </trkpt>
      <trkpt lat="46.54754" lon="0.68984">
        <ele>83.4</ele>
        <time>2024-08-24T13:26:27Z</time>
      </trkpt>
      <trkpt lat="46.54746" lon="0.68968">
        <ele>84</ele>
        <time>2024-08-24T13:26:30Z</time>
      </trkpt>
      <trkpt lat="46.54741" lon="0.68956">
        <ele>84.6</ele>
        <time>2024-08-24T13:26:33Z</time>
      </trkpt>
      <trkpt lat="46.54734" lon="0.68943">
        <ele>86</ele>
        <time>2024-08-24T13:26:36Z</time>
      </trkpt>
      <trkpt lat="46.54732" lon="0.6894">
        <ele>86.4</ele>
        <time>2024-08-24T13:26:37Z</time>
      </trkpt>
      <trkpt lat="46.54727" lon="0.68932">
        <ele>87</ele>
        <time>2024-08-24T13:26:39Z</time>
      </trkpt>
      <trkpt lat="46.54715" lon="0.68918">
        <ele>88</ele>
        <time>2024-08-24T13:26:43Z</time>
      </trkpt>
      <trkpt lat="46.54712" lon="0.68915">
        <ele>88.4</ele>
        <time>2024-08-24T13:26:44Z</time>
      </trkpt>
      <trkpt lat="46.54689" lon="0.68891">
        <ele>89.4</ele>
        <time>2024-08-24T13:26:51Z</time>
      </trkpt>
      <trkpt lat="46.54687" lon="0.68888">
        <ele>89.6</ele>
        <time>2024-08-24T13:26:52Z</time>
      </trkpt>
      <trkpt lat="46.54675" lon="0.68871">
        <ele>90.2</ele>
        <time>2024-08-24T13:26:57Z</time>
      </trkpt>
      <trkpt lat="46.54673" lon="0.68868">
        <ele>90.8</ele>
        <time>2024-08-24T13:26:58Z</time>
      </trkpt>
      <trkpt lat="46.54668" lon="0.68858">
        <ele>92</ele>
        <time>2024-08-24T13:27:01Z</time>
      </trkpt>
      <trkpt lat="46.54664" lon="0.68851">
        <ele>92.4</ele>
        <time>2024-08-24T13:27:03Z</time>
      </trkpt>
      <trkpt lat="46.54656" lon="0.68833">
        <ele>93</ele>
        <time>2024-08-24T13:27:08Z</time>
      </trkpt>
      <trkpt lat="46.54653" lon="0.68826">
        <ele>93.4</ele>
        <time>2024-08-24T13:27:10Z</time>
      </trkpt>
      <trkpt lat="46.54646" lon="0.68807">
        <ele>94.2</ele>
        <time>2024-08-24T13:27:16Z</time>
      </trkpt>
      <trkpt lat="46.54643" lon="0.68801">
        <ele>94.4</ele>
        <time>2024-08-24T13:27:18Z</time>
      </trkpt>
      <trkpt lat="46.54636" lon="0.68777">
        <ele>95.2</ele>
        <time>2024-08-24T13:27:24Z</time>
      </trkpt>
      <trkpt lat="46.54635" lon="0.68753">
        <ele>95.8</ele>
        <time>2024-08-24T13:27:30Z</time>
      </trkpt>
      <trkpt lat="46.54636" lon="0.6874">
        <ele>96.4</ele>
        <time>2024-08-24T13:27:33Z</time>
      </trkpt>
      <trkpt lat="46.54638" lon="0.68727">
        <ele>96.8</ele>
        <time>2024-08-24T13:27:36Z</time>
      </trkpt>
      <trkpt lat="46.54639" lon="0.68719">
        <ele>97.2</ele>
        <time>2024-08-24T13:27:38Z</time>
      </trkpt>
      <trkpt lat="46.54641" lon="0.6871">
        <ele>97.6</ele>
        <time>2024-08-24T13:27:40Z</time>
      </trkpt>
      <trkpt lat="46.54643" lon="0.68696">
        <ele>98</ele>
        <time>2024-08-24T13:27:43Z</time>
      </trkpt>
      <trkpt lat="46.54643" lon="0.68684">
        <ele>98.8</ele>
        <time>2024-08-24T13:27:46Z</time>
      </trkpt>
      <trkpt lat="46.54643" lon="0.68672">
        <ele>99</ele>
        <time>2024-08-24T13:27:49Z</time>
      </trkpt>
      <trkpt lat="46.54635" lon="0.68639">
        <ele>98.8</ele>
        <time>2024-08-24T13:27:56Z</time>
      </trkpt>
      <trkpt lat="46.54623" lon="0.68605">
        <ele>99.2</ele>
        <time>2024-08-24T13:28:03Z</time>
      </trkpt>
      <trkpt lat="46.54615" lon="0.68585">
        <ele>99.8</ele>
        <time>2024-08-24T13:28:07Z</time>
      </trkpt>
      <trkpt lat="46.54608" lon="0.68566">
        <ele>100.4</ele>
        <time>2024-08-24T13:28:11Z</time>
      </trkpt>
      <trkpt lat="46.54592" lon="0.68531">
        <ele>100.4</ele>
        <time>2024-08-24T13:28:18Z</time>
      </trkpt>
      <trkpt lat="46.54587" lon="0.68521">
        <ele>100.8</ele>
        <time>2024-08-24T13:28:20Z</time>
      </trkpt>
      <trkpt lat="46.5457" lon="0.68494">
        <ele>101</ele>
        <time>2024-08-24T13:28:26Z</time>
      </trkpt>
      <trkpt lat="46.54542" lon="0.68463">
        <ele>100.2</ele>
        <time>2024-08-24T13:28:34Z</time>
      </trkpt>
      <trkpt lat="46.54514" lon="0.68436">
        <ele>99.8</ele>
        <time>2024-08-24T13:28:42Z</time>
      </trkpt>
      <trkpt lat="46.54512" lon="0.68432">
        <ele>99.8</ele>
        <time>2024-08-24T13:28:43Z</time>
      </trkpt>
      <trkpt lat="46.54512" lon="0.68418">
        <ele>100</ele>
        <time>2024-08-24T13:28:46Z</time>
      </trkpt>
      <trkpt lat="46.54519" lon="0.68378">
        <ele>100.6</ele>
        <time>2024-08-24T13:28:53Z</time>
      </trkpt>
      <trkpt lat="46.5452" lon="0.68372">
        <ele>100.6</ele>
        <time>2024-08-24T13:28:54Z</time>
      </trkpt>
      <trkpt lat="46.54522" lon="0.68367">
        <ele>100.6</ele>
        <time>2024-08-24T13:28:55Z</time>
      </trkpt>
      <trkpt lat="46.54524" lon="0.68363">
        <ele>100.6</ele>
        <time>2024-08-24T13:28:56Z</time>
      </trkpt>
      <trkpt lat="46.54531" lon="0.68356">
        <ele>100.8</ele>
        <time>2024-08-24T13:28:58Z</time>
      </trkpt>
      <trkpt lat="46.54535" lon="0.68353">
        <ele>101</ele>
        <time>2024-08-24T13:28:59Z</time>
      </trkpt>
      <trkpt lat="46.54563" lon="0.68335">
        <ele>102</ele>
        <time>2024-08-24T13:29:06Z</time>
      </trkpt>
      <trkpt lat="46.54567" lon="0.68333">
        <ele>102</ele>
        <time>2024-08-24T13:29:07Z</time>
      </trkpt>
      <trkpt lat="46.54607" lon="0.68306">
        <ele>102.6</ele>
        <time>2024-08-24T13:29:17Z</time>
      </trkpt>
      <trkpt lat="46.54644" lon="0.68278">
        <ele>102.4</ele>
        <time>2024-08-24T13:29:26Z</time>
      </trkpt>
      <trkpt lat="46.54678" lon="0.68256">
        <ele>102.2</ele>
        <time>2024-08-24T13:29:34Z</time>
      </trkpt>
      <trkpt lat="46.54722" lon="0.68227">
        <ele>102.2</ele>
        <time>2024-08-24T13:29:44Z</time>
      </trkpt>
      <trkpt lat="46.54759" lon="0.68202">
        <ele>102</ele>
        <time>2024-08-24T13:29:53Z</time>
      </trkpt>
      <trkpt lat="46.54771" lon="0.68194">
        <ele>102.4</ele>
        <time>2024-08-24T13:29:56Z</time>
      </trkpt>
      <trkpt lat="46.5481" lon="0.68166">
        <ele>102.8</ele>
        <time>2024-08-24T13:30:06Z</time>
      </trkpt>
      <trkpt lat="46.54841" lon="0.68145">
        <ele>102.6</ele>
        <time>2024-08-24T13:30:14Z</time>
      </trkpt>
      <trkpt lat="46.54865" lon="0.68128">
        <ele>103</ele>
        <time>2024-08-24T13:30:20Z</time>
      </trkpt>
      <trkpt lat="46.5488" lon="0.68117">
        <ele>103.6</ele>
        <time>2024-08-24T13:30:24Z</time>
      </trkpt>
      <trkpt lat="46.549" lon="0.68103">
        <ele>104</ele>
        <time>2024-08-24T13:30:29Z</time>
      </trkpt>
      <trkpt lat="46.54916" lon="0.68092">
        <ele>104.2</ele>
        <time>2024-08-24T13:30:33Z</time>
      </trkpt>
      <trkpt lat="46.5496" lon="0.68071">
        <ele>103.8</ele>
        <time>2024-08-24T13:30:43Z</time>
      </trkpt>
      <trkpt lat="46.54982" lon="0.68064">
        <ele>102.8</ele>
        <time>2024-08-24T13:30:48Z</time>
      </trkpt>
      <trkpt lat="46.54995" lon="0.6806">
        <ele>101.6</ele>
        <time>2024-08-24T13:30:51Z</time>
      </trkpt>
      <trkpt lat="46.55021" lon="0.68046">
        <ele>100.8</ele>
        <time>2024-08-24T13:30:58Z</time>
      </trkpt>
      <trkpt lat="46.55026" lon="0.68041">
        <ele>100.4</ele>
        <time>2024-08-24T13:31:00Z</time>
      </trkpt>
      <trkpt lat="46.55029" lon="0.6804">
        <ele>100.2</ele>
        <time>2024-08-24T13:31:01Z</time>
      </trkpt>
      <trkpt lat="46.55034" lon="0.68042">
        <ele>99.8</ele>
        <time>2024-08-24T13:31:03Z</time>
      </trkpt>
      <trkpt lat="46.55041" lon="0.68047">
        <ele>99.2</ele>
        <time>2024-08-24T13:31:05Z</time>
      </trkpt>
      <trkpt lat="46.55044" lon="0.6805">
        <ele>99.2</ele>
        <time>2024-08-24T13:31:06Z</time>
      </trkpt>
      <trkpt lat="46.55051" lon="0.68057">
        <ele>99</ele>
        <time>2024-08-24T13:31:08Z</time>
      </trkpt>
      <trkpt lat="46.55071" lon="0.68081">
        <ele>98.2</ele>
        <time>2024-08-24T13:31:14Z</time>
      </trkpt>
      <trkpt lat="46.55075" lon="0.68086">
        <ele>97.8</ele>
        <time>2024-08-24T13:31:15Z</time>
      </trkpt>
      <trkpt lat="46.55079" lon="0.68091">
        <ele>97</ele>
        <time>2024-08-24T13:31:16Z</time>
      </trkpt>
      <trkpt lat="46.55096" lon="0.68111">
        <ele>95.8</ele>
        <time>2024-08-24T13:31:20Z</time>
      </trkpt>
      <trkpt lat="46.55099" lon="0.68117">
        <ele>95</ele>
        <time>2024-08-24T13:31:21Z</time>
      </trkpt>
      <trkpt lat="46.551" lon="0.68123">
        <ele>94.4</ele>
        <time>2024-08-24T13:31:22Z</time>
      </trkpt>
      <trkpt lat="46.55099" lon="0.68136">
        <ele>94</ele>
        <time>2024-08-24T13:31:24Z</time>
      </trkpt>
      <trkpt lat="46.55084" lon="0.68183">
        <ele>93.4</ele>
        <time>2024-08-24T13:31:31Z</time>
      </trkpt>
      <trkpt lat="46.55082" lon="0.6819">
        <ele>93.2</ele>
        <time>2024-08-24T13:31:32Z</time>
      </trkpt>
      <trkpt lat="46.55073" lon="0.68229">
        <ele>93</ele>
        <time>2024-08-24T13:31:37Z</time>
      </trkpt>
      <trkpt lat="46.55069" lon="0.68253">
        <ele>93</ele>
        <time>2024-08-24T13:31:40Z</time>
      </trkpt>
      <trkpt lat="46.55071" lon="0.68269">
        <ele>92.8</ele>
        <time>2024-08-24T13:31:42Z</time>
      </trkpt>
      <trkpt lat="46.55079" lon="0.68301">
        <ele>92.2</ele>
        <time>2024-08-24T13:31:46Z</time>
      </trkpt>
      <trkpt lat="46.55085" lon="0.68326">
        <ele>90.8</ele>
        <time>2024-08-24T13:31:49Z</time>
      </trkpt>
      <trkpt lat="46.55092" lon="0.68352">
        <ele>89.8</ele>
        <time>2024-08-24T13:31:52Z</time>
      </trkpt>
      <trkpt lat="46.55098" lon="0.68377">
        <ele>88.8</ele>
        <time>2024-08-24T13:31:55Z</time>
      </trkpt>
      <trkpt lat="46.55101" lon="0.68385">
        <ele>88.6</ele>
        <time>2024-08-24T13:31:56Z</time>
      </trkpt>
      <trkpt lat="46.55112" lon="0.68412">
        <ele>87.6</ele>
        <time>2024-08-24T13:32:00Z</time>
      </trkpt>
      <trkpt lat="46.55117" lon="0.68423">
        <ele>87.4</ele>
        <time>2024-08-24T13:32:02Z</time>
      </trkpt>
      <trkpt lat="46.55124" lon="0.6844">
        <ele>87</ele>
        <time>2024-08-24T13:32:05Z</time>
      </trkpt>
      <trkpt lat="46.55129" lon="0.68455">
        <ele>87</ele>
        <time>2024-08-24T13:32:08Z</time>
      </trkpt>
      <trkpt lat="46.55136" lon="0.68469">
        <ele>86.8</ele>
        <time>2024-08-24T13:32:12Z</time>
      </trkpt>
      <trkpt lat="46.55141" lon="0.68467">
        <ele>86.6</ele>
        <time>2024-08-24T13:32:14Z</time>
      </trkpt>
      <trkpt lat="46.55145" lon="0.68462">
        <ele>86.6</ele>
        <time>2024-08-24T13:32:16Z</time>
      </trkpt>
      <trkpt lat="46.55164" lon="0.68448">
        <ele>85.8</ele>
        <time>2024-08-24T13:32:22Z</time>
      </trkpt>
      <trkpt lat="46.55167" lon="0.68446">
        <ele>85.4</ele>
        <time>2024-08-24T13:32:23Z</time>
      </trkpt>
      <trkpt lat="46.55177" lon="0.68442">
        <ele>84.8</ele>
        <time>2024-08-24T13:32:26Z</time>
      </trkpt>
      <trkpt lat="46.55184" lon="0.68437">
        <ele>84.6</ele>
        <time>2024-08-24T13:32:28Z</time>
      </trkpt>
      <trkpt lat="46.55187" lon="0.68434">
        <ele>84.2</ele>
        <time>2024-08-24T13:32:29Z</time>
      </trkpt>
      <trkpt lat="46.55191" lon="0.68431">
        <ele>83.8</ele>
        <time>2024-08-24T13:32:30Z</time>
      </trkpt>
      <trkpt lat="46.55198" lon="0.68424">
        <ele>83</ele>
        <time>2024-08-24T13:32:32Z</time>
      </trkpt>
      <trkpt lat="46.55205" lon="0.68415">
        <ele>81.8</ele>
        <time>2024-08-24T13:32:34Z</time>
      </trkpt>
      <trkpt lat="46.55218" lon="0.68402">
        <ele>80.6</ele>
        <time>2024-08-24T13:32:37Z</time>
      </trkpt>
      <trkpt lat="46.55223" lon="0.68393">
        <ele>79.8</ele>
        <time>2024-08-24T13:32:39Z</time>
      </trkpt>
      <trkpt lat="46.55224" lon="0.68388">
        <ele>79.4</ele>
        <time>2024-08-24T13:32:40Z</time>
      </trkpt>
      <trkpt lat="46.55231" lon="0.68372">
        <ele>78.2</ele>
        <time>2024-08-24T13:32:43Z</time>
      </trkpt>
      <trkpt lat="46.55233" lon="0.68367">
        <ele>77.6</ele>
        <time>2024-08-24T13:32:44Z</time>
      </trkpt>
      <trkpt lat="46.55233" lon="0.68363">
        <ele>76.8</ele>
        <time>2024-08-24T13:32:45Z</time>
      </trkpt>
      <trkpt lat="46.55232" lon="0.68359">
        <ele>76.4</ele>
        <time>2024-08-24T13:32:46Z</time>
      </trkpt>
      <trkpt lat="46.55232" lon="0.68345">
        <ele>75.8</ele>
        <time>2024-08-24T13:32:49Z</time>
      </trkpt>
      <trkpt lat="46.55235" lon="0.68337">
        <ele>75.6</ele>
        <time>2024-08-24T13:32:51Z</time>
      </trkpt>
      <trkpt lat="46.55238" lon="0.68328">
        <ele>75.4</ele>
        <time>2024-08-24T13:32:53Z</time>
      </trkpt>
      <trkpt lat="46.55238" lon="0.6832">
        <ele>75.4</ele>
        <time>2024-08-24T13:32:55Z</time>
      </trkpt>
      <trkpt lat="46.55239" lon="0.68312">
        <ele>75</ele>
        <time>2024-08-24T13:32:57Z</time>
      </trkpt>
      <trkpt lat="46.5524" lon="0.68308">
        <ele>74.8</ele>
        <time>2024-08-24T13:32:58Z</time>
      </trkpt>
      <trkpt lat="46.55238" lon="0.68303">
        <ele>74.6</ele>
        <time>2024-08-24T13:32:59Z</time>
      </trkpt>
      <trkpt lat="46.55235" lon="0.68293">
        <ele>74.6</ele>
        <time>2024-08-24T13:33:02Z</time>
      </trkpt>
      <trkpt lat="46.55232" lon="0.68287">
        <ele>74.8</ele>
        <time>2024-08-24T13:33:04Z</time>
      </trkpt>
      <trkpt lat="46.5523" lon="0.68284">
        <ele>74.8</ele>
        <time>2024-08-24T13:33:07Z</time>
      </trkpt>
      <trkpt lat="46.55223" lon="0.6828">
        <ele>75.6</ele>
        <time>2024-08-24T13:33:13Z</time>
      </trkpt>
      <trkpt lat="46.55223" lon="0.68281">
        <ele>75.6</ele>
        <time>2024-08-24T13:33:14Z</time>
      </trkpt>
      <trkpt lat="46.55222" lon="0.68281">
        <ele>75.8</ele>
        <time>2024-08-24T13:33:15Z</time>
      </trkpt>
      <trkpt lat="46.55219" lon="0.68279">
        <ele>76.2</ele>
        <time>2024-08-24T13:33:17Z</time>
      </trkpt>
      <trkpt lat="46.55218" lon="0.68281">
        <ele>76.4</ele>
        <time>2024-08-24T13:33:19Z</time>
      </trkpt>
      <trkpt lat="46.55216" lon="0.68283">
        <ele>76.4</ele>
        <time>2024-08-24T13:33:21Z</time>
      </trkpt>
      <trkpt lat="46.55207" lon="0.68286">
        <ele>77</ele>
        <time>2024-08-24T13:33:25Z</time>
      </trkpt>
      <trkpt lat="46.55202" lon="0.68285">
        <ele>77.2</ele>
        <time>2024-08-24T13:33:27Z</time>
      </trkpt>
      <trkpt lat="46.55198" lon="0.68283">
        <ele>77.4</ele>
        <time>2024-08-24T13:33:29Z</time>
      </trkpt>
      <trkpt lat="46.55192" lon="0.68278">
        <ele>78</ele>
        <time>2024-08-24T13:33:33Z</time>
      </trkpt>
      <trkpt lat="46.55186" lon="0.68275">
        <ele>78.2</ele>
        <time>2024-08-24T13:33:36Z</time>
      </trkpt>
      <trkpt lat="46.55175" lon="0.68269">
        <ele>79</ele>
        <time>2024-08-24T13:33:41Z</time>
      </trkpt>
      <trkpt lat="46.55173" lon="0.68267">
        <ele>79.4</ele>
        <time>2024-08-24T13:33:42Z</time>
      </trkpt>
      <trkpt lat="46.55169" lon="0.68259">
        <ele>80.2</ele>
        <time>2024-08-24T13:33:46Z</time>
      </trkpt>
      <trkpt lat="46.55168" lon="0.68256">
        <ele>80.4</ele>
        <time>2024-08-24T13:33:48Z</time>
      </trkpt>
      <trkpt lat="46.55167" lon="0.68255">
        <ele>80.4</ele>
        <time>2024-08-24T13:33:49Z</time>
      </trkpt>
      <trkpt lat="46.5516" lon="0.68235">
        <ele>80.8</ele>
        <time>2024-08-24T13:33:56Z</time>
      </trkpt>
      <trkpt lat="46.55159" lon="0.68224">
        <ele>81.2</ele>
        <time>2024-08-24T13:33:59Z</time>
      </trkpt>
      <trkpt lat="46.55158" lon="0.68211">
        <ele>81.4</ele>
        <time>2024-08-24T13:34:04Z</time>
      </trkpt>
      <trkpt lat="46.55156" lon="0.68193">
        <ele>82.4</ele>
        <time>2024-08-24T13:34:12Z</time>
      </trkpt>
      <trkpt lat="46.55155" lon="0.68188">
        <ele>83.4</ele>
        <time>2024-08-24T13:34:14Z</time>
      </trkpt>
      <trkpt lat="46.55155" lon="0.68186">
        <ele>83.8</ele>
        <time>2024-08-24T13:34:15Z</time>
      </trkpt>
      <trkpt lat="46.55155" lon="0.68176">
        <ele>84.4</ele>
        <time>2024-08-24T13:34:19Z</time>
      </trkpt>
      <trkpt lat="46.55155" lon="0.68158">
        <ele>84.8</ele>
        <time>2024-08-24T13:34:26Z</time>
      </trkpt>
      <trkpt lat="46.55155" lon="0.68158">
        <ele>84.6</ele>
        <time>2024-08-24T13:34:27Z</time>
      </trkpt>
      <trkpt lat="46.55158" lon="0.6816">
        <ele>82.6</ele>
        <time>2024-08-24T13:34:31Z</time>
      </trkpt>
      <trkpt lat="46.55159" lon="0.6816">
        <ele>81.6</ele>
        <time>2024-08-24T13:34:32Z</time>
      </trkpt>
      <trkpt lat="46.5516" lon="0.68158">
        <ele>80</ele>
        <time>2024-08-24T13:34:34Z</time>
      </trkpt>
      <trkpt lat="46.55163" lon="0.68153">
        <ele>79.2</ele>
        <time>2024-08-24T13:34:37Z</time>
      </trkpt>
      <trkpt lat="46.55165" lon="0.68149">
        <ele>79</ele>
        <time>2024-08-24T13:34:39Z</time>
      </trkpt>
      <trkpt lat="46.55166" lon="0.68147">
        <ele>79</ele>
        <time>2024-08-24T13:34:40Z</time>
      </trkpt>
      <trkpt lat="46.55171" lon="0.68141">
        <ele>79</ele>
        <time>2024-08-24T13:34:43Z</time>
      </trkpt>
      <trkpt lat="46.55174" lon="0.68133">
        <ele>78.8</ele>
        <time>2024-08-24T13:34:46Z</time>
      </trkpt>
      <trkpt lat="46.55178" lon="0.68124">
        <ele>79.2</ele>
        <time>2024-08-24T13:34:50Z</time>
      </trkpt>
      <trkpt lat="46.5518" lon="0.6812">
        <ele>79.4</ele>
        <time>2024-08-24T13:34:52Z</time>
      </trkpt>
      <trkpt lat="46.55182" lon="0.68111">
        <ele>79.8</ele>
        <time>2024-08-24T13:34:56Z</time>
      </trkpt>
      <trkpt lat="46.55183" lon="0.68106">
        <ele>80</ele>
        <time>2024-08-24T13:34:58Z</time>
      </trkpt>
      <trkpt lat="46.55184" lon="0.68093">
        <ele>81.2</ele>
        <time>2024-08-24T13:35:03Z</time>
      </trkpt>
      <trkpt lat="46.55185" lon="0.68081">
        <ele>81.6</ele>
        <time>2024-08-24T13:35:09Z</time>
      </trkpt>
      <trkpt lat="46.55183" lon="0.68072">
        <ele>82.2</ele>
        <time>2024-08-24T13:35:13Z</time>
      </trkpt>
      <trkpt lat="46.55182" lon="0.68067">
        <ele>82.8</ele>
        <time>2024-08-24T13:35:15Z</time>
      </trkpt>
      <trkpt lat="46.55182" lon="0.68065">
        <ele>83.4</ele>
        <time>2024-08-24T13:35:16Z</time>
      </trkpt>
      <trkpt lat="46.55182" lon="0.68048">
        <ele>84.2</ele>
        <time>2024-08-24T13:35:21Z</time>
      </trkpt>
      <trkpt lat="46.55182" lon="0.68046">
        <ele>84.4</ele>
        <time>2024-08-24T13:35:22Z</time>
      </trkpt>
      <trkpt lat="46.55185" lon="0.68039">
        <ele>85.8</ele>
        <time>2024-08-24T13:35:26Z</time>
      </trkpt>
      <trkpt lat="46.55186" lon="0.68038">
        <ele>86.2</ele>
        <time>2024-08-24T13:35:27Z</time>
      </trkpt>
      <trkpt lat="46.55188" lon="0.68036">
        <ele>87</ele>
        <time>2024-08-24T13:35:29Z</time>
      </trkpt>
      <trkpt lat="46.55189" lon="0.68036">
        <ele>87.4</ele>
        <time>2024-08-24T13:35:31Z</time>
      </trkpt>
      <trkpt lat="46.55191" lon="0.68038">
        <ele>87.4</ele>
        <time>2024-08-24T13:35:34Z</time>
      </trkpt>
      <trkpt lat="46.55193" lon="0.68042">
        <ele>87</ele>
        <time>2024-08-24T13:35:36Z</time>
      </trkpt>
      <trkpt lat="46.55195" lon="0.68048">
        <ele>85.8</ele>
        <time>2024-08-24T13:35:39Z</time>
      </trkpt>
      <trkpt lat="46.55199" lon="0.68055">
        <ele>84.8</ele>
        <time>2024-08-24T13:35:43Z</time>
      </trkpt>
      <trkpt lat="46.55204" lon="0.68059">
        <ele>84</ele>
        <time>2024-08-24T13:35:45Z</time>
      </trkpt>
      <trkpt lat="46.55206" lon="0.68062">
        <ele>83.8</ele>
        <time>2024-08-24T13:35:46Z</time>
      </trkpt>
      <trkpt lat="46.55213" lon="0.6807">
        <ele>83</ele>
        <time>2024-08-24T13:35:49Z</time>
      </trkpt>
      <trkpt lat="46.55218" lon="0.68075">
        <ele>82.4</ele>
        <time>2024-08-24T13:35:51Z</time>
      </trkpt>
      <trkpt lat="46.5522" lon="0.68077">
        <ele>81.8</ele>
        <time>2024-08-24T13:35:52Z</time>
      </trkpt>
      <trkpt lat="46.55223" lon="0.68078">
        <ele>80.8</ele>
        <time>2024-08-24T13:35:53Z</time>
      </trkpt>
      <trkpt lat="46.55231" lon="0.68082">
        <ele>79.4</ele>
        <time>2024-08-24T13:35:55Z</time>
      </trkpt>
      <trkpt lat="46.55235" lon="0.68084">
        <ele>78</ele>
        <time>2024-08-24T13:35:56Z</time>
      </trkpt>
      <trkpt lat="46.55239" lon="0.68086">
        <ele>77</ele>
        <time>2024-08-24T13:35:57Z</time>
      </trkpt>
      <trkpt lat="46.55243" lon="0.68086">
        <ele>76</ele>
        <time>2024-08-24T13:35:58Z</time>
      </trkpt>
      <trkpt lat="46.55248" lon="0.68086">
        <ele>75.2</ele>
        <time>2024-08-24T13:35:59Z</time>
      </trkpt>
      <trkpt lat="46.55257" lon="0.68084">
        <ele>74.4</ele>
        <time>2024-08-24T13:36:01Z</time>
      </trkpt>
      <trkpt lat="46.5526" lon="0.68085">
        <ele>74</ele>
        <time>2024-08-24T13:36:02Z</time>
      </trkpt>
      <trkpt lat="46.55266" lon="0.68085">
        <ele>73.8</ele>
        <time>2024-08-24T13:36:05Z</time>
      </trkpt>
      <trkpt lat="46.55269" lon="0.68085">
        <ele>74.2</ele>
        <time>2024-08-24T13:36:06Z</time>
      </trkpt>
      <trkpt lat="46.55274" lon="0.68082">
        <ele>74</ele>
        <time>2024-08-24T13:36:09Z</time>
      </trkpt>
      <trkpt lat="46.5528" lon="0.68082">
        <ele>74</ele>
        <time>2024-08-24T13:36:11Z</time>
      </trkpt>
      <trkpt lat="46.55297" lon="0.68083">
        <ele>73.8</ele>
        <time>2024-08-24T13:36:16Z</time>
      </trkpt>
      <trkpt lat="46.55306" lon="0.68081">
        <ele>73</ele>
        <time>2024-08-24T13:36:19Z</time>
      </trkpt>
      <trkpt lat="46.5531" lon="0.68081">
        <ele>72.8</ele>
        <time>2024-08-24T13:36:21Z</time>
      </trkpt>
      <trkpt lat="46.55312" lon="0.68082">
        <ele>73</ele>
        <time>2024-08-24T13:36:22Z</time>
      </trkpt>
      <trkpt lat="46.5533" lon="0.68089">
        <ele>73.4</ele>
        <time>2024-08-24T13:36:30Z</time>
      </trkpt>
      <trkpt lat="46.55336" lon="0.68091">
        <ele>73.4</ele>
        <time>2024-08-24T13:36:33Z</time>
      </trkpt>
      <trkpt lat="46.55343" lon="0.68092">
        <ele>73.4</ele>
        <time>2024-08-24T13:36:36Z</time>
      </trkpt>
      <trkpt lat="46.55356" lon="0.68096">
        <ele>73.2</ele>
        <time>2024-08-24T13:36:41Z</time>
      </trkpt>
      <trkpt lat="46.55365" lon="0.68104">
        <ele>73</ele>
        <time>2024-08-24T13:36:46Z</time>
      </trkpt>
      <trkpt lat="46.55367" lon="0.68106">
        <ele>73</ele>
        <time>2024-08-24T13:36:47Z</time>
      </trkpt>
      <trkpt lat="46.55375" lon="0.68116">
        <ele>72.6</ele>
        <time>2024-08-24T13:36:53Z</time>
      </trkpt>
      <trkpt lat="46.55379" lon="0.68124">
        <ele>73.2</ele>
        <time>2024-08-24T13:36:57Z</time>
      </trkpt>
      <trkpt lat="46.55379" lon="0.6813">
        <ele>73.4</ele>
        <time>2024-08-24T13:36:59Z</time>
      </trkpt>
      <trkpt lat="46.5538" lon="0.68136">
        <ele>73.8</ele>
        <time>2024-08-24T13:37:02Z</time>
      </trkpt>
      <trkpt lat="46.5538" lon="0.68139">
        <ele>74</ele>
        <time>2024-08-24T13:37:04Z</time>
      </trkpt>
      <trkpt lat="46.55381" lon="0.6814">
        <ele>74</ele>
        <time>2024-08-24T13:37:05Z</time>
      </trkpt>
      <trkpt lat="46.55382" lon="0.68142">
        <ele>74.2</ele>
        <time>2024-08-24T13:37:07Z</time>
      </trkpt>
      <trkpt lat="46.55384" lon="0.68148">
        <ele>74.6</ele>
        <time>2024-08-24T13:37:11Z</time>
      </trkpt>
      <trkpt lat="46.55386" lon="0.68151">
        <ele>74.6</ele>
        <time>2024-08-24T13:37:12Z</time>
      </trkpt>
      <trkpt lat="46.55392" lon="0.68159">
        <ele>75</ele>
        <time>2024-08-24T13:37:17Z</time>
      </trkpt>
      <trkpt lat="46.55393" lon="0.68161">
        <ele>75</ele>
        <time>2024-08-24T13:37:18Z</time>
      </trkpt>
      <trkpt lat="46.55402" lon="0.6817">
        <ele>75</ele>
        <time>2024-08-24T13:37:24Z</time>
      </trkpt>
      <trkpt lat="46.55411" lon="0.68181">
        <ele>75</ele>
        <time>2024-08-24T13:37:30Z</time>
      </trkpt>
      <trkpt lat="46.55412" lon="0.68182">
        <ele>75</ele>
        <time>2024-08-24T13:37:31Z</time>
      </trkpt>
      <trkpt lat="46.55424" lon="0.68193">
        <ele>74.6</ele>
        <time>2024-08-24T13:37:38Z</time>
      </trkpt>
      <trkpt lat="46.55429" lon="0.68196">
        <ele>74.6</ele>
        <time>2024-08-24T13:37:40Z</time>
      </trkpt>
      <trkpt lat="46.55436" lon="0.68203">
        <ele>74.2</ele>
        <time>2024-08-24T13:37:44Z</time>
      </trkpt>
      <trkpt lat="46.55447" lon="0.68216">
        <ele>74.6</ele>
        <time>2024-08-24T13:37:50Z</time>
      </trkpt>
      <trkpt lat="46.55453" lon="0.68228">
        <ele>76</ele>
        <time>2024-08-24T13:37:56Z</time>
      </trkpt>
      <trkpt lat="46.55454" lon="0.6823">
        <ele>76</ele>
        <time>2024-08-24T13:37:57Z</time>
      </trkpt>
      <trkpt lat="46.55459" lon="0.6824">
        <ele>77</ele>
        <time>2024-08-24T13:38:02Z</time>
      </trkpt>
      <trkpt lat="46.5546" lon="0.68242">
        <ele>77.2</ele>
        <time>2024-08-24T13:38:03Z</time>
      </trkpt>
      <trkpt lat="46.55461" lon="0.68243">
        <ele>77.2</ele>
        <time>2024-08-24T13:38:04Z</time>
      </trkpt>
      <trkpt lat="46.55469" lon="0.68254">
        <ele>78</ele>
        <time>2024-08-24T13:38:10Z</time>
      </trkpt>
      <trkpt lat="46.55478" lon="0.68264">
        <ele>77.4</ele>
        <time>2024-08-24T13:38:16Z</time>
      </trkpt>
      <trkpt lat="46.55484" lon="0.68268">
        <ele>77.2</ele>
        <time>2024-08-24T13:38:20Z</time>
      </trkpt>
      <trkpt lat="46.55486" lon="0.68267">
        <ele>77.2</ele>
        <time>2024-08-24T13:38:22Z</time>
      </trkpt>
      <trkpt lat="46.55492" lon="0.68272">
        <ele>75.8</ele>
        <time>2024-08-24T13:38:25Z</time>
      </trkpt>
      <trkpt lat="46.55496" lon="0.68273">
        <ele>75.2</ele>
        <time>2024-08-24T13:38:27Z</time>
      </trkpt>
      <trkpt lat="46.55498" lon="0.68274">
        <ele>75.2</ele>
        <time>2024-08-24T13:38:28Z</time>
      </trkpt>
      <trkpt lat="46.55504" lon="0.68277">
        <ele>74.8</ele>
        <time>2024-08-24T13:38:33Z</time>
      </trkpt>
      <trkpt lat="46.55504" lon="0.68278">
        <ele>74.8</ele>
        <time>2024-08-24T13:38:34Z</time>
      </trkpt>
      <trkpt lat="46.55507" lon="0.6828">
        <ele>75.2</ele>
        <time>2024-08-24T13:38:37Z</time>
      </trkpt>
      <trkpt lat="46.55513" lon="0.68284">
        <ele>75.6</ele>
        <time>2024-08-24T13:38:41Z</time>
      </trkpt>
      <trkpt lat="46.55519" lon="0.68288">
        <ele>75.6</ele>
        <time>2024-08-24T13:38:45Z</time>
      </trkpt>
      <trkpt lat="46.55539" lon="0.68302">
        <ele>75.2</ele>
        <time>2024-08-24T13:38:56Z</time>
      </trkpt>
      <trkpt lat="46.55545" lon="0.68306">
        <ele>74.8</ele>
        <time>2024-08-24T13:38:59Z</time>
      </trkpt>
      <trkpt lat="46.55547" lon="0.68307">
        <ele>74.6</ele>
        <time>2024-08-24T13:39:00Z</time>
      </trkpt>
      <trkpt lat="46.55551" lon="0.68311">
        <ele>74.6</ele>
        <time>2024-08-24T13:39:02Z</time>
      </trkpt>
      <trkpt lat="46.55567" lon="0.68325">
        <ele>75.4</ele>
        <time>2024-08-24T13:39:11Z</time>
      </trkpt>
      <trkpt lat="46.55572" lon="0.68325">
        <ele>75.2</ele>
        <time>2024-08-24T13:39:15Z</time>
      </trkpt>
      <trkpt lat="46.55575" lon="0.68324">
        <ele>75</ele>
        <time>2024-08-24T13:39:16Z</time>
      </trkpt>
      <trkpt lat="46.5558" lon="0.6832">
        <ele>74.2</ele>
        <time>2024-08-24T13:39:18Z</time>
      </trkpt>
      <trkpt lat="46.55582" lon="0.68317">
        <ele>73.8</ele>
        <time>2024-08-24T13:39:19Z</time>
      </trkpt>
      <trkpt lat="46.55589" lon="0.68309">
        <ele>72.8</ele>
        <time>2024-08-24T13:39:22Z</time>
      </trkpt>
      <trkpt lat="46.55592" lon="0.68309">
        <ele>72.6</ele>
        <time>2024-08-24T13:39:23Z</time>
      </trkpt>
      <trkpt lat="46.55601" lon="0.68309">
        <ele>72.8</ele>
        <time>2024-08-24T13:39:26Z</time>
      </trkpt>
      <trkpt lat="46.55608" lon="0.68309">
        <ele>73.6</ele>
        <time>2024-08-24T13:39:29Z</time>
      </trkpt>
      <trkpt lat="46.55619" lon="0.68312">
        <ele>73.8</ele>
        <time>2024-08-24T13:39:34Z</time>
      </trkpt>
      <trkpt lat="46.55625" lon="0.68314">
        <ele>73.8</ele>
        <time>2024-08-24T13:39:37Z</time>
      </trkpt>
      <trkpt lat="46.55631" lon="0.68318">
        <ele>73.8</ele>
        <time>2024-08-24T13:39:40Z</time>
      </trkpt>
      <trkpt lat="46.55641" lon="0.68322">
        <ele>73.8</ele>
        <time>2024-08-24T13:39:45Z</time>
      </trkpt>
      <trkpt lat="46.55642" lon="0.68322">
        <ele>73.8</ele>
        <time>2024-08-24T13:39:46Z</time>
      </trkpt>
      <trkpt lat="46.55652" lon="0.68322">
        <ele>74</ele>
        <time>2024-08-24T13:39:53Z</time>
      </trkpt>
      <trkpt lat="46.55665" lon="0.68326">
        <ele>74</ele>
        <time>2024-08-24T13:40:06Z</time>
      </trkpt>
      <trkpt lat="46.55666" lon="0.68326">
        <ele>74</ele>
        <time>2024-08-24T13:40:07Z</time>
      </trkpt>
      <trkpt lat="46.55673" lon="0.68323">
        <ele>74</ele>
        <time>2024-08-24T13:40:16Z</time>
      </trkpt>
      <trkpt lat="46.55675" lon="0.6832">
        <ele>75</ele>
        <time>2024-08-24T13:40:18Z</time>
      </trkpt>
      <trkpt lat="46.55676" lon="0.68319">
        <ele>75.6</ele>
        <time>2024-08-24T13:40:19Z</time>
      </trkpt>
      <trkpt lat="46.55678" lon="0.68318">
        <ele>76.2</ele>
        <time>2024-08-24T13:40:21Z</time>
      </trkpt>
      <trkpt lat="46.55682" lon="0.6832">
        <ele>76.6</ele>
        <time>2024-08-24T13:40:25Z</time>
      </trkpt>
      <trkpt lat="46.55685" lon="0.6832">
        <ele>76.8</ele>
        <time>2024-08-24T13:40:27Z</time>
      </trkpt>
      <trkpt lat="46.55688" lon="0.68321">
        <ele>77</ele>
        <time>2024-08-24T13:40:29Z</time>
      </trkpt>
      <trkpt lat="46.55697" lon="0.68322">
        <ele>76.4</ele>
        <time>2024-08-24T13:40:35Z</time>
      </trkpt>
      <trkpt lat="46.55699" lon="0.68322">
        <ele>76.4</ele>
        <time>2024-08-24T13:40:36Z</time>
      </trkpt>
      <trkpt lat="46.55704" lon="0.6832">
        <ele>77.4</ele>
        <time>2024-08-24T13:40:41Z</time>
      </trkpt>
      <trkpt lat="46.55709" lon="0.68322">
        <ele>78</ele>
        <time>2024-08-24T13:40:45Z</time>
      </trkpt>
      <trkpt lat="46.55722" lon="0.6833">
        <ele>77.6</ele>
        <time>2024-08-24T13:40:51Z</time>
      </trkpt>
      <trkpt lat="46.55735" lon="0.68339">
        <ele>76.4</ele>
        <time>2024-08-24T13:40:57Z</time>
      </trkpt>
      <trkpt lat="46.5575" lon="0.68339">
        <ele>76.4</ele>
        <time>2024-08-24T13:41:04Z</time>
      </trkpt>
      <trkpt lat="46.55756" lon="0.68336">
        <ele>77.2</ele>
        <time>2024-08-24T13:41:10Z</time>
      </trkpt>
      <trkpt lat="46.55756" lon="0.68339">
        <ele>77</ele>
        <time>2024-08-24T13:41:13Z</time>
      </trkpt>
      <trkpt lat="46.55756" lon="0.68345">
        <ele>76.8</ele>
        <time>2024-08-24T13:41:17Z</time>
      </trkpt>
      <trkpt lat="46.55759" lon="0.68357">
        <ele>76.6</ele>
        <time>2024-08-24T13:41:21Z</time>
      </trkpt>
      <trkpt lat="46.55759" lon="0.68377">
        <ele>76.4</ele>
        <time>2024-08-24T13:41:26Z</time>
      </trkpt>
      <trkpt lat="46.55759" lon="0.68379">
        <ele>76.2</ele>
        <time>2024-08-24T13:41:28Z</time>
      </trkpt>
      <trkpt lat="46.55759" lon="0.68381">
        <ele>76.2</ele>
        <time>2024-08-24T13:41:30Z</time>
      </trkpt>
      <trkpt lat="46.55763" lon="0.6839">
        <ele>76</ele>
        <time>2024-08-24T13:41:37Z</time>
      </trkpt>
      <trkpt lat="46.55767" lon="0.68414">
        <ele>75.6</ele>
        <time>2024-08-24T13:41:43Z</time>
      </trkpt>
      <trkpt lat="46.55768" lon="0.68429">
        <ele>75.6</ele>
        <time>2024-08-24T13:41:49Z</time>
      </trkpt>
      <trkpt lat="46.55775" lon="0.68436">
        <ele>77.4</ele>
        <time>2024-08-24T13:41:55Z</time>
      </trkpt>
      <trkpt lat="46.55777" lon="0.68437">
        <ele>77.6</ele>
        <time>2024-08-24T13:41:56Z</time>
      </trkpt>
      <trkpt lat="46.55781" lon="0.68442">
        <ele>78.6</ele>
        <time>2024-08-24T13:42:00Z</time>
      </trkpt>
      <trkpt lat="46.55783" lon="0.68444">
        <ele>79.2</ele>
        <time>2024-08-24T13:42:02Z</time>
      </trkpt>
      <trkpt lat="46.55785" lon="0.68445">
        <ele>80</ele>
        <time>2024-08-24T13:42:04Z</time>
      </trkpt>
      <trkpt lat="46.55788" lon="0.68445">
        <ele>80.2</ele>
        <time>2024-08-24T13:42:06Z</time>
      </trkpt>
      <trkpt lat="46.5579" lon="0.68446">
        <ele>80.8</ele>
        <time>2024-08-24T13:42:08Z</time>
      </trkpt>
      <trkpt lat="46.5579" lon="0.68446">
        <ele>81</ele>
        <time>2024-08-24T13:42:09Z</time>
      </trkpt>
      <trkpt lat="46.55791" lon="0.68447">
        <ele>81.2</ele>
        <time>2024-08-24T13:42:10Z</time>
      </trkpt>
      <trkpt lat="46.55798" lon="0.68451">
        <ele>82</ele>
        <time>2024-08-24T13:42:15Z</time>
      </trkpt>
      <trkpt lat="46.55799" lon="0.68451">
        <ele>82.4</ele>
        <time>2024-08-24T13:42:16Z</time>
      </trkpt>
      <trkpt lat="46.55803" lon="0.68453">
        <ele>82.8</ele>
        <time>2024-08-24T13:42:19Z</time>
      </trkpt>
      <trkpt lat="46.5581" lon="0.68456">
        <ele>83.6</ele>
        <time>2024-08-24T13:42:23Z</time>
      </trkpt>
      <trkpt lat="46.55811" lon="0.68456">
        <ele>83.6</ele>
        <time>2024-08-24T13:42:24Z</time>
      </trkpt>
      <trkpt lat="46.55813" lon="0.68456">
        <ele>84</ele>
        <time>2024-08-24T13:42:26Z</time>
      </trkpt>
      <trkpt lat="46.55823" lon="0.68458">
        <ele>84.8</ele>
        <time>2024-08-24T13:42:31Z</time>
      </trkpt>
      <trkpt lat="46.55837" lon="0.68465">
        <ele>86</ele>
        <time>2024-08-24T13:42:37Z</time>
      </trkpt>
      <trkpt lat="46.5584" lon="0.68466">
        <ele>86.4</ele>
        <time>2024-08-24T13:42:38Z</time>
      </trkpt>
      <trkpt lat="46.55847" lon="0.68466">
        <ele>87</ele>
        <time>2024-08-24T13:42:41Z</time>
      </trkpt>
      <trkpt lat="46.55851" lon="0.68467">
        <ele>87.4</ele>
        <time>2024-08-24T13:42:43Z</time>
      </trkpt>
      <trkpt lat="46.55859" lon="0.68469">
        <ele>88</ele>
        <time>2024-08-24T13:42:47Z</time>
      </trkpt>
      <trkpt lat="46.55865" lon="0.68468">
        <ele>88.4</ele>
        <time>2024-08-24T13:42:50Z</time>
      </trkpt>
      <trkpt lat="46.55879" lon="0.68471">
        <ele>88.6</ele>
        <time>2024-08-24T13:42:55Z</time>
      </trkpt>
      <trkpt lat="46.55889" lon="0.68469">
        <ele>88.8</ele>
        <time>2024-08-24T13:42:59Z</time>
      </trkpt>
      <trkpt lat="46.55892" lon="0.68467">
        <ele>88.8</ele>
        <time>2024-08-24T13:43:00Z</time>
      </trkpt>
      <trkpt lat="46.55894" lon="0.68466">
        <ele>88.8</ele>
        <time>2024-08-24T13:43:01Z</time>
      </trkpt>
      <trkpt lat="46.55904" lon="0.68462">
        <ele>88.4</ele>
        <time>2024-08-24T13:43:05Z</time>
      </trkpt>
      <trkpt lat="46.55915" lon="0.68454">
        <ele>88.6</ele>
        <time>2024-08-24T13:43:09Z</time>
      </trkpt>
      <trkpt lat="46.55916" lon="0.68451">
        <ele>88.4</ele>
        <time>2024-08-24T13:43:10Z</time>
      </trkpt>
      <trkpt lat="46.55919" lon="0.68442">
        <ele>87.4</ele>
        <time>2024-08-24T13:43:13Z</time>
      </trkpt>
      <trkpt lat="46.55921" lon="0.68441">
        <ele>87</ele>
        <time>2024-08-24T13:43:14Z</time>
      </trkpt>
      <trkpt lat="46.55924" lon="0.6844">
        <ele>86.8</ele>
        <time>2024-08-24T13:43:15Z</time>
      </trkpt>
      <trkpt lat="46.55929" lon="0.68441">
        <ele>87.2</ele>
        <time>2024-08-24T13:43:17Z</time>
      </trkpt>
      <trkpt lat="46.55932" lon="0.6844">
        <ele>87.2</ele>
        <time>2024-08-24T13:43:18Z</time>
      </trkpt>
      <trkpt lat="46.55938" lon="0.68434">
        <ele>87.8</ele>
        <time>2024-08-24T13:43:21Z</time>
      </trkpt>
      <trkpt lat="46.55946" lon="0.68426">
        <ele>88</ele>
        <time>2024-08-24T13:43:25Z</time>
      </trkpt>
      <trkpt lat="46.55947" lon="0.6842">
        <ele>87.8</ele>
        <time>2024-08-24T13:43:27Z</time>
      </trkpt>
      <trkpt lat="46.55948" lon="0.68412">
        <ele>87.6</ele>
        <time>2024-08-24T13:43:29Z</time>
      </trkpt>
      <trkpt lat="46.55953" lon="0.68404">
        <ele>87.4</ele>
        <time>2024-08-24T13:43:31Z</time>
      </trkpt>
      <trkpt lat="46.55958" lon="0.68399">
        <ele>87.4</ele>
        <time>2024-08-24T13:43:34Z</time>
      </trkpt>
      <trkpt lat="46.55959" lon="0.68396">
        <ele>87.6</ele>
        <time>2024-08-24T13:43:35Z</time>
      </trkpt>
      <trkpt lat="46.55961" lon="0.6839">
        <ele>88</ele>
        <time>2024-08-24T13:43:37Z</time>
      </trkpt>
      <trkpt lat="46.55968" lon="0.6837">
        <ele>89</ele>
        <time>2024-08-24T13:43:42Z</time>
      </trkpt>
      <trkpt lat="46.55972" lon="0.68362">
        <ele>89.2</ele>
        <time>2024-08-24T13:43:44Z</time>
      </trkpt>
      <trkpt lat="46.55975" lon="0.68359">
        <ele>89.2</ele>
        <time>2024-08-24T13:43:46Z</time>
      </trkpt>
      <trkpt lat="46.55978" lon="0.68357">
        <ele>89.6</ele>
        <time>2024-08-24T13:43:48Z</time>
      </trkpt>
      <trkpt lat="46.55981" lon="0.68351">
        <ele>90.2</ele>
        <time>2024-08-24T13:43:50Z</time>
      </trkpt>
      <trkpt lat="46.55981" lon="0.68347">
        <ele>90.6</ele>
        <time>2024-08-24T13:43:51Z</time>
      </trkpt>
      <trkpt lat="46.55982" lon="0.68336">
        <ele>91.4</ele>
        <time>2024-08-24T13:43:54Z</time>
      </trkpt>
      <trkpt lat="46.55984" lon="0.68325">
        <ele>91.8</ele>
        <time>2024-08-24T13:43:57Z</time>
      </trkpt>
      <trkpt lat="46.55985" lon="0.68312">
        <ele>92.6</ele>
        <time>2024-08-24T13:44:00Z</time>
      </trkpt>
      <trkpt lat="46.55989" lon="0.68284">
        <ele>93.4</ele>
        <time>2024-08-24T13:44:07Z</time>
      </trkpt>
      <trkpt lat="46.5599" lon="0.68268">
        <ele>93.6</ele>
        <time>2024-08-24T13:44:11Z</time>
      </trkpt>
      <trkpt lat="46.55992" lon="0.68259">
        <ele>93.6</ele>
        <time>2024-08-24T13:44:13Z</time>
      </trkpt>
      <trkpt lat="46.55993" lon="0.68228">
        <ele>92.2</ele>
        <time>2024-08-24T13:44:19Z</time>
      </trkpt>
      <trkpt lat="46.55992" lon="0.68224">
        <ele>91.8</ele>
        <time>2024-08-24T13:44:20Z</time>
      </trkpt>
      <trkpt lat="46.55988" lon="0.68217">
        <ele>91.4</ele>
        <time>2024-08-24T13:44:22Z</time>
      </trkpt>
      <trkpt lat="46.55984" lon="0.68212">
        <ele>91.2</ele>
        <time>2024-08-24T13:44:24Z</time>
      </trkpt>
      <trkpt lat="46.55983" lon="0.68209">
        <ele>91.2</ele>
        <time>2024-08-24T13:44:25Z</time>
      </trkpt>
      <trkpt lat="46.55977" lon="0.68195">
        <ele>90</ele>
        <time>2024-08-24T13:44:29Z</time>
      </trkpt>
      <trkpt lat="46.55976" lon="0.6819">
        <ele>89.6</ele>
        <time>2024-08-24T13:44:30Z</time>
      </trkpt>
      <trkpt lat="46.55976" lon="0.68185">
        <ele>89.4</ele>
        <time>2024-08-24T13:44:31Z</time>
      </trkpt>
      <trkpt lat="46.55977" lon="0.6818">
        <ele>89</ele>
        <time>2024-08-24T13:44:32Z</time>
      </trkpt>
      <trkpt lat="46.55978" lon="0.68171">
        <ele>88</ele>
        <time>2024-08-24T13:44:34Z</time>
      </trkpt>
      <trkpt lat="46.55979" lon="0.68166">
        <ele>88</ele>
        <time>2024-08-24T13:44:35Z</time>
      </trkpt>
      <trkpt lat="46.5598" lon="0.68157">
        <ele>87.6</ele>
        <time>2024-08-24T13:44:37Z</time>
      </trkpt>
      <trkpt lat="46.55979" lon="0.68148">
        <ele>86.8</ele>
        <time>2024-08-24T13:44:39Z</time>
      </trkpt>
      <trkpt lat="46.55969" lon="0.68139">
        <ele>85.8</ele>
        <time>2024-08-24T13:44:41Z</time>
      </trkpt>
      <trkpt lat="46.55966" lon="0.68136">
        <ele>85</ele>
        <time>2024-08-24T13:44:42Z</time>
      </trkpt>
      <trkpt lat="46.55964" lon="0.68132">
        <ele>84.4</ele>
        <time>2024-08-24T13:44:43Z</time>
      </trkpt>
      <trkpt lat="46.55964" lon="0.68126">
        <ele>84</ele>
        <time>2024-08-24T13:44:44Z</time>
      </trkpt>
      <trkpt lat="46.55965" lon="0.68115">
        <ele>83.6</ele>
        <time>2024-08-24T13:44:45Z</time>
      </trkpt>
      <trkpt lat="46.55965" lon="0.68109">
        <ele>83.4</ele>
        <time>2024-08-24T13:44:47Z</time>
      </trkpt>
      <trkpt lat="46.55965" lon="0.68104">
        <ele>83.2</ele>
        <time>2024-08-24T13:44:48Z</time>
      </trkpt>
      <trkpt lat="46.55963" lon="0.68098">
        <ele>82.8</ele>
        <time>2024-08-24T13:44:49Z</time>
      </trkpt>
      <trkpt lat="46.55961" lon="0.68092">
        <ele>82.4</ele>
        <time>2024-08-24T13:44:50Z</time>
      </trkpt>
      <trkpt lat="46.55959" lon="0.68087">
        <ele>81.6</ele>
        <time>2024-08-24T13:44:51Z</time>
      </trkpt>
      <trkpt lat="46.55954" lon="0.68076">
        <ele>79.4</ele>
        <time>2024-08-24T13:44:53Z</time>
      </trkpt>
      <trkpt lat="46.55953" lon="0.68071">
        <ele>78.8</ele>
        <time>2024-08-24T13:44:54Z</time>
      </trkpt>
      <trkpt lat="46.55952" lon="0.68065">
        <ele>78.2</ele>
        <time>2024-08-24T13:44:55Z</time>
      </trkpt>
      <trkpt lat="46.55954" lon="0.68054">
        <ele>77.4</ele>
        <time>2024-08-24T13:44:57Z</time>
      </trkpt>
      <trkpt lat="46.55958" lon="0.6805">
        <ele>77.2</ele>
        <time>2024-08-24T13:44:58Z</time>
      </trkpt>
      <trkpt lat="46.55961" lon="0.68045">
        <ele>77</ele>
        <time>2024-08-24T13:44:59Z</time>
      </trkpt>
      <trkpt lat="46.55969" lon="0.68029">
        <ele>75.8</ele>
        <time>2024-08-24T13:45:02Z</time>
      </trkpt>
      <trkpt lat="46.55971" lon="0.68024">
        <ele>75.4</ele>
        <time>2024-08-24T13:45:03Z</time>
      </trkpt>
      <trkpt lat="46.55975" lon="0.68014">
        <ele>74.6</ele>
        <time>2024-08-24T13:45:05Z</time>
      </trkpt>
      <trkpt lat="46.55976" lon="0.68008">
        <ele>73.6</ele>
        <time>2024-08-24T13:45:06Z</time>
      </trkpt>
      <trkpt lat="46.55976" lon="0.68002">
        <ele>72.6</ele>
        <time>2024-08-24T13:45:07Z</time>
      </trkpt>
      <trkpt lat="46.55978" lon="0.67996">
        <ele>72</ele>
        <time>2024-08-24T13:45:08Z</time>
      </trkpt>
      <trkpt lat="46.5598" lon="0.67992">
        <ele>71.6</ele>
        <time>2024-08-24T13:45:09Z</time>
      </trkpt>
      <trkpt lat="46.55983" lon="0.67989">
        <ele>71.2</ele>
        <time>2024-08-24T13:45:10Z</time>
      </trkpt>
      <trkpt lat="46.56" lon="0.67982">
        <ele>71.4</ele>
        <time>2024-08-24T13:45:16Z</time>
      </trkpt>
      <trkpt lat="46.56011" lon="0.67973">
        <ele>71.2</ele>
        <time>2024-08-24T13:45:20Z</time>
      </trkpt>
      <trkpt lat="46.56013" lon="0.67969">
        <ele>71</ele>
        <time>2024-08-24T13:45:21Z</time>
      </trkpt>
      <trkpt lat="46.56015" lon="0.67967">
        <ele>70.8</ele>
        <time>2024-08-24T13:45:22Z</time>
      </trkpt>
      <trkpt lat="46.56019" lon="0.67966">
        <ele>70.4</ele>
        <time>2024-08-24T13:45:24Z</time>
      </trkpt>
      <trkpt lat="46.56019" lon="0.67968">
        <ele>70.2</ele>
        <time>2024-08-24T13:45:26Z</time>
      </trkpt>
      <trkpt lat="46.56019" lon="0.67972">
        <ele>70.4</ele>
        <time>2024-08-24T13:45:29Z</time>
      </trkpt>
      <trkpt lat="46.56017" lon="0.67982">
        <ele>72</ele>
        <time>2024-08-24T13:45:35Z</time>
      </trkpt>
      <trkpt lat="46.56017" lon="0.67985">
        <ele>72.8</ele>
        <time>2024-08-24T13:45:38Z</time>
      </trkpt>
      <trkpt lat="46.56017" lon="0.67988">
        <ele>72.8</ele>
        <time>2024-08-24T13:45:39Z</time>
      </trkpt>
      <trkpt lat="46.56017" lon="0.6799">
        <ele>73.2</ele>
        <time>2024-08-24T13:45:40Z</time>
      </trkpt>
      <trkpt lat="46.56017" lon="0.67991">
        <ele>73.4</ele>
        <time>2024-08-24T13:45:41Z</time>
      </trkpt>
      <trkpt lat="46.56016" lon="0.6799">
        <ele>73.6</ele>
        <time>2024-08-24T13:45:43Z</time>
      </trkpt>
      <trkpt lat="46.56015" lon="0.67991">
        <ele>73.6</ele>
        <time>2024-08-24T13:45:50Z</time>
      </trkpt>
      <trkpt lat="46.56018" lon="0.67994">
        <ele>74</ele>
        <time>2024-08-24T13:45:57Z</time>
      </trkpt>
      <trkpt lat="46.5602" lon="0.67996">
        <ele>74.2</ele>
        <time>2024-08-24T13:45:59Z</time>
      </trkpt>
      <trkpt lat="46.56023" lon="0.68001">
        <ele>74.8</ele>
        <time>2024-08-24T13:46:05Z</time>
      </trkpt>
      <trkpt lat="46.56025" lon="0.68005">
        <ele>75.2</ele>
        <time>2024-08-24T13:46:13Z</time>
      </trkpt>
      <trkpt lat="46.56026" lon="0.68006">
        <ele>75.4</ele>
        <time>2024-08-24T13:46:14Z</time>
      </trkpt>
      <trkpt lat="46.56026" lon="0.68007">
        <ele>75.6</ele>
        <time>2024-08-24T13:46:15Z</time>
      </trkpt>
      <trkpt lat="46.56028" lon="0.68013">
        <ele>76.4</ele>
        <time>2024-08-24T13:46:20Z</time>
      </trkpt>
      <trkpt lat="46.56027" lon="0.68015">
        <ele>77.2</ele>
        <time>2024-08-24T13:46:22Z</time>
      </trkpt>
      <trkpt lat="46.56027" lon="0.68015">
        <ele>77.6</ele>
        <time>2024-08-24T13:46:23Z</time>
      </trkpt>
      <trkpt lat="46.56026" lon="0.68019">
        <ele>78.8</ele>
        <time>2024-08-24T13:46:27Z</time>
      </trkpt>
      <trkpt lat="46.56028" lon="0.68026">
        <ele>79.2</ele>
        <time>2024-08-24T13:46:34Z</time>
      </trkpt>
      <trkpt lat="46.56028" lon="0.68027">
        <ele>79.2</ele>
        <time>2024-08-24T13:46:35Z</time>
      </trkpt>
      <trkpt lat="46.56029" lon="0.68033">
        <ele>79.4</ele>
        <time>2024-08-24T13:46:39Z</time>
      </trkpt>
      <trkpt lat="46.56031" lon="0.68038">
        <ele>79.4</ele>
        <time>2024-08-24T13:46:43Z</time>
      </trkpt>
      <trkpt lat="46.56033" lon="0.68041">
        <ele>79.8</ele>
        <time>2024-08-24T13:46:45Z</time>
      </trkpt>
      <trkpt lat="46.56038" lon="0.68051">
        <ele>81</ele>
        <time>2024-08-24T13:46:52Z</time>
      </trkpt>
      <trkpt lat="46.56042" lon="0.68052">
        <ele>81.4</ele>
        <time>2024-08-24T13:46:55Z</time>
      </trkpt>
      <trkpt lat="46.56045" lon="0.68053">
        <ele>82</ele>
        <time>2024-08-24T13:46:59Z</time>
      </trkpt>
      <trkpt lat="46.56046" lon="0.68053">
        <ele>82</ele>
        <time>2024-08-24T13:47:00Z</time>
      </trkpt>
      <trkpt lat="46.56048" lon="0.6805">
        <ele>81.2</ele>
        <time>2024-08-24T13:47:04Z</time>
      </trkpt>
      <trkpt lat="46.5605" lon="0.68048">
        <ele>81</ele>
        <time>2024-08-24T13:47:06Z</time>
      </trkpt>
      <trkpt lat="46.56052" lon="0.68045">
        <ele>81</ele>
        <time>2024-08-24T13:47:09Z</time>
      </trkpt>
      <trkpt lat="46.56059" lon="0.68037">
        <ele>80.8</ele>
        <time>2024-08-24T13:47:13Z</time>
      </trkpt>
      <trkpt lat="46.56065" lon="0.68035">
        <ele>79.8</ele>
        <time>2024-08-24T13:47:17Z</time>
      </trkpt>
      <trkpt lat="46.56066" lon="0.68034">
        <ele>79.6</ele>
        <time>2024-08-24T13:47:19Z</time>
      </trkpt>
      <trkpt lat="46.56069" lon="0.68029">
        <ele>79.8</ele>
        <time>2024-08-24T13:47:24Z</time>
      </trkpt>
      <trkpt lat="46.5607" lon="0.6802">
        <ele>80</ele>
        <time>2024-08-24T13:47:27Z</time>
      </trkpt>
      <trkpt lat="46.5607" lon="0.68015">
        <ele>78</ele>
        <time>2024-08-24T13:47:29Z</time>
      </trkpt>
      <trkpt lat="46.5607" lon="0.68011">
        <ele>76.4</ele>
        <time>2024-08-24T13:47:31Z</time>
      </trkpt>
      <trkpt lat="46.56071" lon="0.68008">
        <ele>75.6</ele>
        <time>2024-08-24T13:47:32Z</time>
      </trkpt>
      <trkpt lat="46.56072" lon="0.68006">
        <ele>74.4</ele>
        <time>2024-08-24T13:47:33Z</time>
      </trkpt>
      <trkpt lat="46.56073" lon="0.68002">
        <ele>73.2</ele>
        <time>2024-08-24T13:47:35Z</time>
      </trkpt>
      <trkpt lat="46.56073" lon="0.67993">
        <ele>71.8</ele>
        <time>2024-08-24T13:47:38Z</time>
      </trkpt>
      <trkpt lat="46.56074" lon="0.67986">
        <ele>70.8</ele>
        <time>2024-08-24T13:47:40Z</time>
      </trkpt>
      <trkpt lat="46.56073" lon="0.67983">
        <ele>70.4</ele>
        <time>2024-08-24T13:47:41Z</time>
      </trkpt>
      <trkpt lat="46.56074" lon="0.67979">
        <ele>69.6</ele>
        <time>2024-08-24T13:47:43Z</time>
      </trkpt>
      <trkpt lat="46.5608" lon="0.67962">
        <ele>69</ele>
        <time>2024-08-24T13:47:51Z</time>
      </trkpt>
      <trkpt lat="46.56079" lon="0.67941">
        <ele>68.8</ele>
        <time>2024-08-24T13:47:58Z</time>
      </trkpt>
      <trkpt lat="46.56075" lon="0.67927">
        <ele>69.4</ele>
        <time>2024-08-24T13:48:04Z</time>
      </trkpt>
      <trkpt lat="46.56075" lon="0.67924">
        <ele>70</ele>
        <time>2024-08-24T13:48:05Z</time>
      </trkpt>
      <trkpt lat="46.56075" lon="0.6792">
        <ele>71</ele>
        <time>2024-08-24T13:48:07Z</time>
      </trkpt>
      <trkpt lat="46.56073" lon="0.67909">
        <ele>72.2</ele>
        <time>2024-08-24T13:48:11Z</time>
      </trkpt>
      <trkpt lat="46.56073" lon="0.67906">
        <ele>72.4</ele>
        <time>2024-08-24T13:48:12Z</time>
      </trkpt>
      <trkpt lat="46.56072" lon="0.67896">
        <ele>73.2</ele>
        <time>2024-08-24T13:48:15Z</time>
      </trkpt>
      <trkpt lat="46.56072" lon="0.67894">
        <ele>73.6</ele>
        <time>2024-08-24T13:48:16Z</time>
      </trkpt>
      <trkpt lat="46.5607" lon="0.67889">
        <ele>74.2</ele>
        <time>2024-08-24T13:48:18Z</time>
      </trkpt>
      <trkpt lat="46.56066" lon="0.67877">
        <ele>75.4</ele>
        <time>2024-08-24T13:48:24Z</time>
      </trkpt>
      <trkpt lat="46.56064" lon="0.67874">
        <ele>76</ele>
        <time>2024-08-24T13:48:26Z</time>
      </trkpt>
      <trkpt lat="46.56062" lon="0.67872">
        <ele>76.6</ele>
        <time>2024-08-24T13:48:28Z</time>
      </trkpt>
      <trkpt lat="46.56059" lon="0.67868">
        <ele>77.6</ele>
        <time>2024-08-24T13:48:32Z</time>
      </trkpt>
      <trkpt lat="46.56058" lon="0.67867">
        <ele>77.8</ele>
        <time>2024-08-24T13:48:33Z</time>
      </trkpt>
      <trkpt lat="46.56054" lon="0.67864">
        <ele>78.6</ele>
        <time>2024-08-24T13:48:38Z</time>
      </trkpt>
      <trkpt lat="46.56051" lon="0.67861">
        <ele>79</ele>
        <time>2024-08-24T13:48:41Z</time>
      </trkpt>
      <trkpt lat="46.56046" lon="0.67856">
        <ele>79.6</ele>
        <time>2024-08-24T13:48:46Z</time>
      </trkpt>
      <trkpt lat="46.56043" lon="0.67854">
        <ele>80</ele>
        <time>2024-08-24T13:48:48Z</time>
      </trkpt>
      <trkpt lat="46.56038" lon="0.67854">
        <ele>80.6</ele>
        <time>2024-08-24T13:48:52Z</time>
      </trkpt>
      <trkpt lat="46.56035" lon="0.67853">
        <ele>81.2</ele>
        <time>2024-08-24T13:48:55Z</time>
      </trkpt>
      <trkpt lat="46.56034" lon="0.67853">
        <ele>81.4</ele>
        <time>2024-08-24T13:48:56Z</time>
      </trkpt>
      <trkpt lat="46.56033" lon="0.67853">
        <ele>81.6</ele>
        <time>2024-08-24T13:48:57Z</time>
      </trkpt>
      <trkpt lat="46.56029" lon="0.67847">
        <ele>82.2</ele>
        <time>2024-08-24T13:49:05Z</time>
      </trkpt>
      <trkpt lat="46.56025" lon="0.67845">
        <ele>82.8</ele>
        <time>2024-08-24T13:49:11Z</time>
      </trkpt>
      <trkpt lat="46.56024" lon="0.67843">
        <ele>83.2</ele>
        <time>2024-08-24T13:49:15Z</time>
      </trkpt>
      <trkpt lat="46.56021" lon="0.67843">
        <ele>83.8</ele>
        <time>2024-08-24T13:49:19Z</time>
      </trkpt>
      <trkpt lat="46.56018" lon="0.67838">
        <ele>85</ele>
        <time>2024-08-24T13:49:28Z</time>
      </trkpt>
      <trkpt lat="46.56018" lon="0.67838">
        <ele>85.2</ele>
        <time>2024-08-24T13:49:29Z</time>
      </trkpt>
      <trkpt lat="46.56016" lon="0.67835">
        <ele>86.2</ele>
        <time>2024-08-24T13:49:33Z</time>
      </trkpt>
      <trkpt lat="46.56013" lon="0.67828">
        <ele>86.2</ele>
        <time>2024-08-24T13:49:42Z</time>
      </trkpt>
      <trkpt lat="46.56014" lon="0.67825">
        <ele>86.2</ele>
        <time>2024-08-24T13:49:44Z</time>
      </trkpt>
      <trkpt lat="46.56015" lon="0.67804">
        <ele>86.6</ele>
        <time>2024-08-24T13:49:54Z</time>
      </trkpt>
      <trkpt lat="46.56017" lon="0.67788">
        <ele>87.2</ele>
        <time>2024-08-24T13:50:01Z</time>
      </trkpt>
      <trkpt lat="46.56021" lon="0.67765">
        <ele>87.6</ele>
        <time>2024-08-24T13:50:07Z</time>
      </trkpt>
      <trkpt lat="46.56025" lon="0.67726">
        <ele>87.6</ele>
        <time>2024-08-24T13:50:15Z</time>
      </trkpt>
      <trkpt lat="46.56029" lon="0.67689">
        <ele>88</ele>
        <time>2024-08-24T13:50:23Z</time>
      </trkpt>
      <trkpt lat="46.5603" lon="0.67684">
        <ele>87.8</ele>
        <time>2024-08-24T13:50:24Z</time>
      </trkpt>
      <trkpt lat="46.56037" lon="0.67644">
        <ele>88.2</ele>
        <time>2024-08-24T13:50:30Z</time>
      </trkpt>
      <trkpt lat="46.56042" lon="0.67621">
        <ele>88.8</ele>
        <time>2024-08-24T13:50:34Z</time>
      </trkpt>
      <trkpt lat="46.56045" lon="0.67609">
        <ele>89.4</ele>
        <time>2024-08-24T13:50:36Z</time>
      </trkpt>
      <trkpt lat="46.5606" lon="0.67556">
        <ele>89.6</ele>
        <time>2024-08-24T13:50:44Z</time>
      </trkpt>
      <trkpt lat="46.56065" lon="0.67544">
        <ele>89.8</ele>
        <time>2024-08-24T13:50:46Z</time>
      </trkpt>
      <trkpt lat="46.56072" lon="0.67528">
        <ele>90</ele>
        <time>2024-08-24T13:50:49Z</time>
      </trkpt>
      <trkpt lat="46.56076" lon="0.67517">
        <ele>90</ele>
        <time>2024-08-24T13:50:51Z</time>
      </trkpt>
      <trkpt lat="46.56095" lon="0.67477">
        <ele>90.2</ele>
        <time>2024-08-24T13:50:59Z</time>
      </trkpt>
      <trkpt lat="46.56108" lon="0.67453">
        <ele>91</ele>
        <time>2024-08-24T13:51:04Z</time>
      </trkpt>
      <trkpt lat="46.56114" lon="0.67444">
        <ele>91.2</ele>
        <time>2024-08-24T13:51:06Z</time>
      </trkpt>
      <trkpt lat="46.56124" lon="0.67425">
        <ele>91</ele>
        <time>2024-08-24T13:51:10Z</time>
      </trkpt>
      <trkpt lat="46.56129" lon="0.67418">
        <ele>91.2</ele>
        <time>2024-08-24T13:51:12Z</time>
      </trkpt>
      <trkpt lat="46.56152" lon="0.67388">
        <ele>92</ele>
        <time>2024-08-24T13:51:20Z</time>
      </trkpt>
      <trkpt lat="46.5617" lon="0.67368">
        <ele>92.2</ele>
        <time>2024-08-24T13:51:25Z</time>
      </trkpt>
      <trkpt lat="46.56194" lon="0.67343">
        <ele>92.4</ele>
        <time>2024-08-24T13:51:32Z</time>
      </trkpt>
      <trkpt lat="46.56209" lon="0.67324">
        <ele>92.4</ele>
        <time>2024-08-24T13:51:38Z</time>
      </trkpt>
      <trkpt lat="46.56231" lon="0.67302">
        <ele>92</ele>
        <time>2024-08-24T13:51:45Z</time>
      </trkpt>
      <trkpt lat="46.56241" lon="0.67291">
        <ele>92</ele>
        <time>2024-08-24T13:51:50Z</time>
      </trkpt>
      <trkpt lat="46.56244" lon="0.67292">
        <ele>91.8</ele>
        <time>2024-08-24T13:51:58Z</time>
      </trkpt>
      <trkpt lat="46.56246" lon="0.67294">
        <ele>90.4</ele>
        <time>2024-08-24T13:52:00Z</time>
      </trkpt>
      <trkpt lat="46.56247" lon="0.67297">
        <ele>88.6</ele>
        <time>2024-08-24T13:52:01Z</time>
      </trkpt>
      <trkpt lat="46.56249" lon="0.673">
        <ele>87.4</ele>
        <time>2024-08-24T13:52:02Z</time>
      </trkpt>
      <trkpt lat="46.5625" lon="0.67304">
        <ele>86.2</ele>
        <time>2024-08-24T13:52:03Z</time>
      </trkpt>
      <trkpt lat="46.5625" lon="0.67307">
        <ele>84.8</ele>
        <time>2024-08-24T13:52:04Z</time>
      </trkpt>
      <trkpt lat="46.5625" lon="0.67308">
        <ele>83.8</ele>
        <time>2024-08-24T13:52:05Z</time>
      </trkpt>
      <trkpt lat="46.5625" lon="0.6731">
        <ele>83.4</ele>
        <time>2024-08-24T13:52:06Z</time>
      </trkpt>
      <trkpt lat="46.5625" lon="0.6731">
        <ele>83</ele>
        <time>2024-08-24T13:52:07Z</time>
      </trkpt>
      <trkpt lat="46.56252" lon="0.67316">
        <ele>82.6</ele>
        <time>2024-08-24T13:52:20Z</time>
      </trkpt>
      <trkpt lat="46.56255" lon="0.67317">
        <ele>82.6</ele>
        <time>2024-08-24T13:52:33Z</time>
      </trkpt>
      <trkpt lat="46.56254" lon="0.67318">
        <ele>82.4</ele>
        <time>2024-08-24T13:52:47Z</time>
      </trkpt>
      <trkpt lat="46.56254" lon="0.67319">
        <ele>82.8</ele>
        <time>2024-08-24T13:53:01Z</time>
      </trkpt>
      <trkpt lat="46.56255" lon="0.67318">
        <ele>82.2</ele>
        <time>2024-08-24T13:53:09Z</time>
      </trkpt>
      <trkpt lat="46.56255" lon="0.6732">
        <ele>82.2</ele>
        <time>2024-08-24T13:53:15Z</time>
      </trkpt>
      <trkpt lat="46.56256" lon="0.67321">
        <ele>81.2</ele>
        <time>2024-08-24T13:53:23Z</time>
      </trkpt>
      <trkpt lat="46.56256" lon="0.67321">
        <ele>81</ele>
        <time>2024-08-24T13:53:30Z</time>
      </trkpt>
      <trkpt lat="46.56256" lon="0.6732">
        <ele>81.2</ele>
        <time>2024-08-24T13:53:49Z</time>
      </trkpt>
      <trkpt lat="46.56254" lon="0.67322">
        <ele>80.8</ele>
        <time>2024-08-24T13:54:06Z</time>
      </trkpt>
      <trkpt lat="46.56253" lon="0.67323">
        <ele>80.8</ele>
        <time>2024-08-24T13:54:22Z</time>
      </trkpt>
      <trkpt lat="46.56252" lon="0.67322">
        <ele>80.4</ele>
        <time>2024-08-24T13:54:36Z</time>
      </trkpt>
      <trkpt lat="46.56252" lon="0.67321">
        <ele>80.6</ele>
        <time>2024-08-24T13:54:50Z</time>
      </trkpt>
      <trkpt lat="46.56253" lon="0.67321">
        <ele>80.6</ele>
        <time>2024-08-24T13:55:07Z</time>
      </trkpt>
      <trkpt lat="46.56253" lon="0.67321">
        <ele>80.6</ele>
        <time>2024-08-24T13:55:22Z</time>
      </trkpt>
      <trkpt lat="46.56253" lon="0.6732">
        <ele>80.6</ele>
        <time>2024-08-24T13:55:37Z</time>
      </trkpt>
      <trkpt lat="46.56254" lon="0.67322">
        <ele>80.6</ele>
        <time>2024-08-24T13:55:53Z</time>
      </trkpt>
      <trkpt lat="46.56253" lon="0.67322">
        <ele>80.6</ele>
        <time>2024-08-24T13:56:09Z</time>
      </trkpt>
      <trkpt lat="46.56254" lon="0.67321">
        <ele>80.6</ele>
        <time>2024-08-24T13:56:23Z</time>
      </trkpt>
      <trkpt lat="46.56254" lon="0.67322">
        <ele>80.6</ele>
        <time>2024-08-24T13:56:38Z</time>
      </trkpt>
      <trkpt lat="46.56255" lon="0.67321">
        <ele>80.6</ele>
        <time>2024-08-24T13:56:58Z</time>
      </trkpt>
      <trkpt lat="46.56255" lon="0.67321">
        <ele>80.6</ele>
        <time>2024-08-24T13:57:13Z</time>
      </trkpt>
      <trkpt lat="46.56255" lon="0.6732">
        <ele>80.6</ele>
        <time>2024-08-24T13:57:29Z</time>
      </trkpt>
      <trkpt lat="46.56252" lon="0.67318">
        <ele>80.6</ele>
        <time>2024-08-24T13:57:44Z</time>
      </trkpt>
      <trkpt lat="46.56252" lon="0.67318">
        <ele>80.6</ele>
        <time>2024-08-24T13:58:02Z</time>
      </trkpt>
      <trkpt lat="46.56251" lon="0.67323">
        <ele>80.6</ele>
        <time>2024-08-24T13:58:21Z</time>
      </trkpt>
      <trkpt lat="46.56253" lon="0.67322">
        <ele>80.6</ele>
        <time>2024-08-24T13:58:40Z</time>
      </trkpt>
      <trkpt lat="46.56252" lon="0.67322">
        <ele>80.6</ele>
        <time>2024-08-24T13:58:56Z</time>
      </trkpt>
      <trkpt lat="46.56252" lon="0.67323">
        <ele>80.6</ele>
        <time>2024-08-24T13:59:10Z</time>
      </trkpt>
      <trkpt lat="46.56253" lon="0.67322">
        <ele>80.6</ele>
        <time>2024-08-24T13:59:27Z</time>
      </trkpt>
      <trkpt lat="46.56253" lon="0.67321">
        <ele>80.6</ele>
        <time>2024-08-24T13:59:44Z</time>
      </trkpt>
      <trkpt lat="46.56253" lon="0.6732">
        <ele>80.6</ele>
        <time>2024-08-24T13:59:58Z</time>
      </trkpt>
      <trkpt lat="46.56254" lon="0.67319">
        <ele>80.6</ele>
        <time>2024-08-24T14:00:12Z</time>
      </trkpt>
      <trkpt lat="46.56253" lon="0.67318">
        <ele>80.6</ele>
        <time>2024-08-24T14:00:28Z</time>
      </trkpt>
      <trkpt lat="46.56253" lon="0.67318">
        <ele>80.6</ele>
        <time>2024-08-24T14:00:47Z</time>
      </trkpt>
      <trkpt lat="46.56253" lon="0.67319">
        <ele>80.6</ele>
        <time>2024-08-24T14:00:55Z</time>
      </trkpt>
      <trkpt lat="46.56253" lon="0.67319">
        <ele>80.6</ele>
        <time>2024-08-24T14:01:02Z</time>
      </trkpt>
      <trkpt lat="46.56255" lon="0.67321">
        <ele>80.6</ele>
        <time>2024-08-24T14:01:18Z</time>
      </trkpt>
      <trkpt lat="46.56255" lon="0.67321">
        <ele>80.6</ele>
        <time>2024-08-24T14:01:32Z</time>
      </trkpt>
      <trkpt lat="46.56255" lon="0.6732">
        <ele>80.6</ele>
        <time>2024-08-24T14:01:43Z</time>
      </trkpt>
      <trkpt lat="46.56256" lon="0.67321">
        <ele>80.6</ele>
        <time>2024-08-24T14:01:55Z</time>
      </trkpt>
      <trkpt lat="46.56255" lon="0.67319">
        <ele>80.6</ele>
        <time>2024-08-24T14:02:13Z</time>
      </trkpt>
      <trkpt lat="46.56255" lon="0.67318">
        <ele>80.6</ele>
        <time>2024-08-24T14:02:28Z</time>
      </trkpt>
      <trkpt lat="46.56256" lon="0.67318">
        <ele>80.6</ele>
        <time>2024-08-24T14:02:44Z</time>
      </trkpt>
      <trkpt lat="46.56256" lon="0.67318">
        <ele>80.6</ele>
        <time>2024-08-24T14:03:01Z</time>
      </trkpt>
      <trkpt lat="46.56256" lon="0.67317">
        <ele>80.6</ele>
        <time>2024-08-24T14:03:21Z</time>
      </trkpt>
      <trkpt lat="46.56256" lon="0.67317">
        <ele>80.6</ele>
        <time>2024-08-24T14:03:37Z</time>
      </trkpt>
      <trkpt lat="46.5626" lon="0.67317">
        <ele>80.6</ele>
        <time>2024-08-24T14:03:47Z</time>
      </trkpt>
      <trkpt lat="46.56264" lon="0.67319">
        <ele>80.6</ele>
        <time>2024-08-24T14:03:59Z</time>
      </trkpt>
      <trkpt lat="46.56273" lon="0.6733">
        <ele>80.6</ele>
        <time>2024-08-24T14:04:08Z</time>
      </trkpt>
      <trkpt lat="46.56283" lon="0.67348">
        <ele>79.8</ele>
        <time>2024-08-24T14:04:12Z</time>
      </trkpt>
      <trkpt lat="46.56285" lon="0.67354">
        <ele>78.6</ele>
        <time>2024-08-24T14:04:13Z</time>
      </trkpt>
      <trkpt lat="46.56293" lon="0.67365">
        <ele>77</ele>
        <time>2024-08-24T14:04:15Z</time>
      </trkpt>
      <trkpt lat="46.56305" lon="0.67388">
        <ele>75.8</ele>
        <time>2024-08-24T14:04:18Z</time>
      </trkpt>
      <trkpt lat="46.56314" lon="0.67403">
        <ele>75.2</ele>
        <time>2024-08-24T14:04:20Z</time>
      </trkpt>
      <trkpt lat="46.5632" lon="0.67413">
        <ele>74.4</ele>
        <time>2024-08-24T14:04:21Z</time>
      </trkpt>
      <trkpt lat="46.56324" lon="0.67422">
        <ele>73.8</ele>
        <time>2024-08-24T14:04:22Z</time>
      </trkpt>
      <trkpt lat="46.56327" lon="0.67432">
        <ele>73.2</ele>
        <time>2024-08-24T14:04:23Z</time>
      </trkpt>
      <trkpt lat="46.5633" lon="0.67441">
        <ele>72.8</ele>
        <time>2024-08-24T14:04:24Z</time>
      </trkpt>
      <trkpt lat="46.5633" lon="0.6745">
        <ele>71.4</ele>
        <time>2024-08-24T14:04:25Z</time>
      </trkpt>
      <trkpt lat="46.5633" lon="0.67461">
        <ele>71</ele>
        <time>2024-08-24T14:04:26Z</time>
      </trkpt>
      <trkpt lat="46.56328" lon="0.67484">
        <ele>70</ele>
        <time>2024-08-24T14:04:28Z</time>
      </trkpt>
      <trkpt lat="46.56329" lon="0.67501">
        <ele>69.2</ele>
        <time>2024-08-24T14:04:30Z</time>
      </trkpt>
      <trkpt lat="46.56329" lon="0.67517">
        <ele>69</ele>
        <time>2024-08-24T14:04:33Z</time>
      </trkpt>
      <trkpt lat="46.56329" lon="0.67521">
        <ele>69</ele>
        <time>2024-08-24T14:04:34Z</time>
      </trkpt>
      <trkpt lat="46.56326" lon="0.67541">
        <ele>70</ele>
        <time>2024-08-24T14:04:39Z</time>
      </trkpt>
      <trkpt lat="46.56325" lon="0.67547">
        <ele>70.6</ele>
        <time>2024-08-24T14:04:41Z</time>
      </trkpt>
      <trkpt lat="46.56325" lon="0.67554">
        <ele>71.2</ele>
        <time>2024-08-24T14:04:43Z</time>
      </trkpt>
      <trkpt lat="46.56323" lon="0.67564">
        <ele>72.6</ele>
        <time>2024-08-24T14:04:46Z</time>
      </trkpt>
      <trkpt lat="46.56322" lon="0.67572">
        <ele>73</ele>
        <time>2024-08-24T14:04:48Z</time>
      </trkpt>
      <trkpt lat="46.56322" lon="0.67579">
        <ele>73.6</ele>
        <time>2024-08-24T14:04:50Z</time>
      </trkpt>
      <trkpt lat="46.56321" lon="0.67587">
        <ele>74.8</ele>
        <time>2024-08-24T14:04:53Z</time>
      </trkpt>
      <trkpt lat="46.56321" lon="0.67597">
        <ele>75.2</ele>
        <time>2024-08-24T14:04:56Z</time>
      </trkpt>
      <trkpt lat="46.56322" lon="0.67607">
        <ele>75.8</ele>
        <time>2024-08-24T14:05:00Z</time>
      </trkpt>
      <trkpt lat="46.56324" lon="0.67614">
        <ele>76.4</ele>
        <time>2024-08-24T14:05:03Z</time>
      </trkpt>
      <trkpt lat="46.56325" lon="0.67618">
        <ele>76.8</ele>
        <time>2024-08-24T14:05:05Z</time>
      </trkpt>
      <trkpt lat="46.56328" lon="0.67628">
        <ele>77.6</ele>
        <time>2024-08-24T14:05:09Z</time>
      </trkpt>
      <trkpt lat="46.5633" lon="0.67636">
        <ele>78</ele>
        <time>2024-08-24T14:05:12Z</time>
      </trkpt>
      <trkpt lat="46.56331" lon="0.67638">
        <ele>78.2</ele>
        <time>2024-08-24T14:05:13Z</time>
      </trkpt>
      <trkpt lat="46.56332" lon="0.67643">
        <ele>78.4</ele>
        <time>2024-08-24T14:05:15Z</time>
      </trkpt>
      <trkpt lat="46.56335" lon="0.67651">
        <ele>79.2</ele>
        <time>2024-08-24T14:05:19Z</time>
      </trkpt>
      <trkpt lat="46.56336" lon="0.67655">
        <ele>79.6</ele>
        <time>2024-08-24T14:05:21Z</time>
      </trkpt>
      <trkpt lat="46.56341" lon="0.67662">
        <ele>80</ele>
        <time>2024-08-24T14:05:26Z</time>
      </trkpt>
      <trkpt lat="46.56342" lon="0.67664">
        <ele>80.2</ele>
        <time>2024-08-24T14:05:27Z</time>
      </trkpt>
      <trkpt lat="46.56345" lon="0.67667">
        <ele>80.6</ele>
        <time>2024-08-24T14:05:29Z</time>
      </trkpt>
      <trkpt lat="46.56346" lon="0.67669">
        <ele>80.8</ele>
        <time>2024-08-24T14:05:30Z</time>
      </trkpt>
      <trkpt lat="46.56353" lon="0.67678">
        <ele>81.2</ele>
        <time>2024-08-24T14:05:35Z</time>
      </trkpt>
      <trkpt lat="46.56356" lon="0.67682">
        <ele>81.4</ele>
        <time>2024-08-24T14:05:37Z</time>
      </trkpt>
      <trkpt lat="46.56362" lon="0.67689">
        <ele>82.2</ele>
        <time>2024-08-24T14:05:41Z</time>
      </trkpt>
      <trkpt lat="46.56365" lon="0.67694">
        <ele>82.6</ele>
        <time>2024-08-24T14:05:44Z</time>
      </trkpt>
      <trkpt lat="46.56371" lon="0.67701">
        <ele>83.4</ele>
        <time>2024-08-24T14:05:48Z</time>
      </trkpt>
      <trkpt lat="46.56376" lon="0.6771">
        <ele>84.2</ele>
        <time>2024-08-24T14:05:52Z</time>
      </trkpt>
      <trkpt lat="46.56377" lon="0.67711">
        <ele>84.2</ele>
        <time>2024-08-24T14:05:53Z</time>
      </trkpt>
      <trkpt lat="46.56379" lon="0.67714">
        <ele>84.6</ele>
        <time>2024-08-24T14:05:55Z</time>
      </trkpt>
      <trkpt lat="46.56386" lon="0.67725">
        <ele>85.4</ele>
        <time>2024-08-24T14:06:01Z</time>
      </trkpt>
      <trkpt lat="46.56387" lon="0.67726">
        <ele>85.6</ele>
        <time>2024-08-24T14:06:02Z</time>
      </trkpt>
      <trkpt lat="46.56397" lon="0.67739">
        <ele>86.4</ele>
        <time>2024-08-24T14:06:09Z</time>
      </trkpt>
      <trkpt lat="46.56399" lon="0.67743">
        <ele>86.8</ele>
        <time>2024-08-24T14:06:11Z</time>
      </trkpt>
      <trkpt lat="46.56403" lon="0.67749">
        <ele>88</ele>
        <time>2024-08-24T14:06:15Z</time>
      </trkpt>
      <trkpt lat="46.56404" lon="0.6775">
        <ele>88.2</ele>
        <time>2024-08-24T14:06:16Z</time>
      </trkpt>
      <trkpt lat="46.56411" lon="0.67758">
        <ele>89</ele>
        <time>2024-08-24T14:06:22Z</time>
      </trkpt>
      <trkpt lat="46.56412" lon="0.6776">
        <ele>89</ele>
        <time>2024-08-24T14:06:23Z</time>
      </trkpt>
      <trkpt lat="46.56419" lon="0.67768">
        <ele>89.6</ele>
        <time>2024-08-24T14:06:28Z</time>
      </trkpt>
      <trkpt lat="46.5642" lon="0.6777">
        <ele>90.2</ele>
        <time>2024-08-24T14:06:30Z</time>
      </trkpt>
      <trkpt lat="46.56421" lon="0.67772">
        <ele>90.6</ele>
        <time>2024-08-24T14:06:31Z</time>
      </trkpt>
      <trkpt lat="46.56423" lon="0.67775">
        <ele>91.2</ele>
        <time>2024-08-24T14:06:33Z</time>
      </trkpt>
      <trkpt lat="46.56431" lon="0.67783">
        <ele>92.2</ele>
        <time>2024-08-24T14:06:38Z</time>
      </trkpt>
      <trkpt lat="46.56432" lon="0.67785">
        <ele>92.4</ele>
        <time>2024-08-24T14:06:39Z</time>
      </trkpt>
      <trkpt lat="46.5644" lon="0.67791">
        <ele>93.4</ele>
        <time>2024-08-24T14:06:45Z</time>
      </trkpt>
      <trkpt lat="46.56445" lon="0.67795">
        <ele>93.6</ele>
        <time>2024-08-24T14:06:48Z</time>
      </trkpt>
      <trkpt lat="46.56454" lon="0.67809">
        <ele>94.6</ele>
        <time>2024-08-24T14:06:56Z</time>
      </trkpt>
      <trkpt lat="46.56467" lon="0.67826">
        <ele>95.6</ele>
        <time>2024-08-24T14:07:08Z</time>
      </trkpt>
      <trkpt lat="46.56469" lon="0.67828">
        <ele>95.6</ele>
        <time>2024-08-24T14:07:09Z</time>
      </trkpt>
      <trkpt lat="46.56477" lon="0.67836">
        <ele>96.6</ele>
        <time>2024-08-24T14:07:14Z</time>
      </trkpt>
      <trkpt lat="46.56488" lon="0.67848">
        <ele>97.8</ele>
        <time>2024-08-24T14:07:22Z</time>
      </trkpt>
      <trkpt lat="46.56492" lon="0.67852">
        <ele>98.8</ele>
        <time>2024-08-24T14:07:25Z</time>
      </trkpt>
      <trkpt lat="46.56497" lon="0.67857">
        <ele>100</ele>
        <time>2024-08-24T14:07:29Z</time>
      </trkpt>
      <trkpt lat="46.56502" lon="0.67863">
        <ele>101</ele>
        <time>2024-08-24T14:07:33Z</time>
      </trkpt>
      <trkpt lat="46.56514" lon="0.67878">
        <ele>102</ele>
        <time>2024-08-24T14:07:44Z</time>
      </trkpt>
      <trkpt lat="46.56515" lon="0.6788">
        <ele>102.4</ele>
        <time>2024-08-24T14:07:45Z</time>
      </trkpt>
      <trkpt lat="46.56518" lon="0.67885">
        <ele>103.2</ele>
        <time>2024-08-24T14:07:48Z</time>
      </trkpt>
      <trkpt lat="46.56523" lon="0.67896">
        <ele>104.4</ele>
        <time>2024-08-24T14:07:55Z</time>
      </trkpt>
      <trkpt lat="46.56527" lon="0.67902">
        <ele>104.8</ele>
        <time>2024-08-24T14:07:59Z</time>
      </trkpt>
      <trkpt lat="46.56532" lon="0.67911">
        <ele>105.4</ele>
        <time>2024-08-24T14:08:04Z</time>
      </trkpt>
      <trkpt lat="46.56537" lon="0.67923">
        <ele>106.6</ele>
        <time>2024-08-24T14:08:10Z</time>
      </trkpt>
      <trkpt lat="46.56539" lon="0.6793">
        <ele>106.8</ele>
        <time>2024-08-24T14:08:13Z</time>
      </trkpt>
      <trkpt lat="46.56553" lon="0.67954">
        <ele>106.4</ele>
        <time>2024-08-24T14:08:23Z</time>
      </trkpt>
      <trkpt lat="46.56565" lon="0.67974">
        <ele>107.2</ele>
        <time>2024-08-24T14:08:30Z</time>
      </trkpt>
      <trkpt lat="46.56571" lon="0.67982">
        <ele>107.6</ele>
        <time>2024-08-24T14:08:33Z</time>
      </trkpt>
      <trkpt lat="46.5658" lon="0.67991">
        <ele>107.2</ele>
        <time>2024-08-24T14:08:37Z</time>
      </trkpt>
      <trkpt lat="46.56589" lon="0.68001">
        <ele>107.4</ele>
        <time>2024-08-24T14:08:42Z</time>
      </trkpt>
      <trkpt lat="46.56601" lon="0.68012">
        <ele>108</ele>
        <time>2024-08-24T14:08:48Z</time>
      </trkpt>
      <trkpt lat="46.56606" lon="0.68018">
        <ele>108.6</ele>
        <time>2024-08-24T14:08:51Z</time>
      </trkpt>
      <trkpt lat="46.56611" lon="0.68025">
        <ele>108.6</ele>
        <time>2024-08-24T14:08:54Z</time>
      </trkpt>
      <trkpt lat="46.56623" lon="0.68036">
        <ele>108.6</ele>
        <time>2024-08-24T14:09:00Z</time>
      </trkpt>
      <trkpt lat="46.56633" lon="0.68041">
        <ele>108.6</ele>
        <time>2024-08-24T14:09:04Z</time>
      </trkpt>
      <trkpt lat="46.5664" lon="0.6804">
        <ele>108.4</ele>
        <time>2024-08-24T14:09:06Z</time>
      </trkpt>
      <trkpt lat="46.56659" lon="0.68028">
        <ele>109.2</ele>
        <time>2024-08-24T14:09:13Z</time>
      </trkpt>
      <trkpt lat="46.56672" lon="0.68019">
        <ele>109</ele>
        <time>2024-08-24T14:09:18Z</time>
      </trkpt>
      <trkpt lat="46.56685" lon="0.68006">
        <ele>108.6</ele>
        <time>2024-08-24T14:09:23Z</time>
      </trkpt>
      <trkpt lat="46.56685" lon="0.68003">
        <ele>108.4</ele>
        <time>2024-08-24T14:09:24Z</time>
      </trkpt>
      <trkpt lat="46.56685" lon="0.68001">
        <ele>108.2</ele>
        <time>2024-08-24T14:09:25Z</time>
      </trkpt>
      <trkpt lat="46.56684" lon="0.67991">
        <ele>108.2</ele>
        <time>2024-08-24T14:09:29Z</time>
      </trkpt>
      <trkpt lat="46.56683" lon="0.67988">
        <ele>108.4</ele>
        <time>2024-08-24T14:09:31Z</time>
      </trkpt>
      <trkpt lat="46.5668" lon="0.6798">
        <ele>108.8</ele>
        <time>2024-08-24T14:09:35Z</time>
      </trkpt>
      <trkpt lat="46.56677" lon="0.67971">
        <ele>109.2</ele>
        <time>2024-08-24T14:09:39Z</time>
      </trkpt>
      <trkpt lat="46.56678" lon="0.67969">
        <ele>109.2</ele>
        <time>2024-08-24T14:09:40Z</time>
      </trkpt>
      <trkpt lat="46.56684" lon="0.67953">
        <ele>109</ele>
        <time>2024-08-24T14:09:45Z</time>
      </trkpt>
      <trkpt lat="46.56688" lon="0.67936">
        <ele>108.6</ele>
        <time>2024-08-24T14:09:50Z</time>
      </trkpt>
      <trkpt lat="46.56688" lon="0.67933">
        <ele>108.6</ele>
        <time>2024-08-24T14:09:51Z</time>
      </trkpt>
      <trkpt lat="46.56691" lon="0.67924">
        <ele>107.6</ele>
        <time>2024-08-24T14:09:54Z</time>
      </trkpt>
      <trkpt lat="46.56693" lon="0.67918">
        <ele>107.2</ele>
        <time>2024-08-24T14:09:56Z</time>
      </trkpt>
      <trkpt lat="46.56693" lon="0.67905">
        <ele>107</ele>
        <time>2024-08-24T14:10:00Z</time>
      </trkpt>
      <trkpt lat="46.56694" lon="0.67903">
        <ele>107</ele>
        <time>2024-08-24T14:10:01Z</time>
      </trkpt>
      <trkpt lat="46.56694" lon="0.67887">
        <ele>106.6</ele>
        <time>2024-08-24T14:10:06Z</time>
      </trkpt>
      <trkpt lat="46.56693" lon="0.67883">
        <ele>106.4</ele>
        <time>2024-08-24T14:10:07Z</time>
      </trkpt>
      <trkpt lat="46.56692" lon="0.67869">
        <ele>105.6</ele>
        <time>2024-08-24T14:10:10Z</time>
      </trkpt>
      <trkpt lat="46.56691" lon="0.67865">
        <ele>104.8</ele>
        <time>2024-08-24T14:10:11Z</time>
      </trkpt>
      <trkpt lat="46.56689" lon="0.67854">
        <ele>104</ele>
        <time>2024-08-24T14:10:13Z</time>
      </trkpt>
      <trkpt lat="46.5669" lon="0.67848">
        <ele>103.2</ele>
        <time>2024-08-24T14:10:14Z</time>
      </trkpt>
      <trkpt lat="46.56691" lon="0.67843">
        <ele>102.8</ele>
        <time>2024-08-24T14:10:15Z</time>
      </trkpt>
      <trkpt lat="46.56691" lon="0.67834">
        <ele>102.2</ele>
        <time>2024-08-24T14:10:16Z</time>
      </trkpt>
      <trkpt lat="46.56692" lon="0.67828">
        <ele>101.8</ele>
        <time>2024-08-24T14:10:17Z</time>
      </trkpt>
      <trkpt lat="46.56696" lon="0.67817">
        <ele>100.8</ele>
        <time>2024-08-24T14:10:19Z</time>
      </trkpt>
      <trkpt lat="46.56703" lon="0.67803">
        <ele>99.8</ele>
        <time>2024-08-24T14:10:22Z</time>
      </trkpt>
      <trkpt lat="46.56705" lon="0.67798">
        <ele>99.4</ele>
        <time>2024-08-24T14:10:23Z</time>
      </trkpt>
      <trkpt lat="46.56711" lon="0.67785">
        <ele>98.6</ele>
        <time>2024-08-24T14:10:25Z</time>
      </trkpt>
      <trkpt lat="46.56713" lon="0.67777">
        <ele>98.4</ele>
        <time>2024-08-24T14:10:26Z</time>
      </trkpt>
      <trkpt lat="46.56719" lon="0.67761">
        <ele>98</ele>
        <time>2024-08-24T14:10:28Z</time>
      </trkpt>
      <trkpt lat="46.56721" lon="0.67753">
        <ele>97.4</ele>
        <time>2024-08-24T14:10:29Z</time>
      </trkpt>
      <trkpt lat="46.56728" lon="0.67742">
        <ele>95.8</ele>
        <time>2024-08-24T14:10:31Z</time>
      </trkpt>
      <trkpt lat="46.56733" lon="0.6773">
        <ele>94.6</ele>
        <time>2024-08-24T14:10:33Z</time>
      </trkpt>
      <trkpt lat="46.56736" lon="0.67717">
        <ele>94.2</ele>
        <time>2024-08-24T14:10:35Z</time>
      </trkpt>
      <trkpt lat="46.56745" lon="0.67703">
        <ele>93.6</ele>
        <time>2024-08-24T14:10:38Z</time>
      </trkpt>
      <trkpt lat="46.56754" lon="0.67689">
        <ele>92.6</ele>
        <time>2024-08-24T14:10:42Z</time>
      </trkpt>
      <trkpt lat="46.56756" lon="0.67689">
        <ele>91.8</ele>
        <time>2024-08-24T14:10:43Z</time>
      </trkpt>
      <trkpt lat="46.56762" lon="0.67689">
        <ele>90</ele>
        <time>2024-08-24T14:10:45Z</time>
      </trkpt>
      <trkpt lat="46.56765" lon="0.67688">
        <ele>89.2</ele>
        <time>2024-08-24T14:10:46Z</time>
      </trkpt>
      <trkpt lat="46.56767" lon="0.67687">
        <ele>88.4</ele>
        <time>2024-08-24T14:10:47Z</time>
      </trkpt>
      <trkpt lat="46.56769" lon="0.67688">
        <ele>87.8</ele>
        <time>2024-08-24T14:10:48Z</time>
      </trkpt>
      <trkpt lat="46.56771" lon="0.67688">
        <ele>87.2</ele>
        <time>2024-08-24T14:10:49Z</time>
      </trkpt>
      <trkpt lat="46.56772" lon="0.67689">
        <ele>87</ele>
        <time>2024-08-24T14:10:50Z</time>
      </trkpt>
      <trkpt lat="46.56781" lon="0.67687">
        <ele>87.6</ele>
        <time>2024-08-24T14:10:56Z</time>
      </trkpt>
      <trkpt lat="46.56783" lon="0.67685">
        <ele>87.8</ele>
        <time>2024-08-24T14:10:57Z</time>
      </trkpt>
      <trkpt lat="46.56794" lon="0.67662">
        <ele>86.8</ele>
        <time>2024-08-24T14:11:02Z</time>
      </trkpt>
      <trkpt lat="46.56796" lon="0.67655">
        <ele>86</ele>
        <time>2024-08-24T14:11:03Z</time>
      </trkpt>
      <trkpt lat="46.56804" lon="0.67623">
        <ele>84.8</ele>
        <time>2024-08-24T14:11:07Z</time>
      </trkpt>
      <trkpt lat="46.56806" lon="0.67615">
        <ele>84.6</ele>
        <time>2024-08-24T14:11:08Z</time>
      </trkpt>
      <trkpt lat="46.5681" lon="0.67594">
        <ele>83.8</ele>
        <time>2024-08-24T14:11:11Z</time>
      </trkpt>
      <trkpt lat="46.56811" lon="0.67588">
        <ele>83.6</ele>
        <time>2024-08-24T14:11:12Z</time>
      </trkpt>
      <trkpt lat="46.56813" lon="0.67566">
        <ele>82.6</ele>
        <time>2024-08-24T14:11:15Z</time>
      </trkpt>
      <trkpt lat="46.56814" lon="0.6755">
        <ele>81.8</ele>
        <time>2024-08-24T14:11:17Z</time>
      </trkpt>
      <trkpt lat="46.56814" lon="0.67543">
        <ele>81.4</ele>
        <time>2024-08-24T14:11:18Z</time>
      </trkpt>
      <trkpt lat="46.5682" lon="0.67536">
        <ele>80.8</ele>
        <time>2024-08-24T14:11:20Z</time>
      </trkpt>
      <trkpt lat="46.56824" lon="0.67536">
        <ele>80.6</ele>
        <time>2024-08-24T14:11:22Z</time>
      </trkpt>
      <trkpt lat="46.56828" lon="0.67536">
        <ele>80.8</ele>
        <time>2024-08-24T14:11:24Z</time>
      </trkpt>
      <trkpt lat="46.56842" lon="0.67533">
        <ele>82.4</ele>
        <time>2024-08-24T14:11:30Z</time>
      </trkpt>
      <trkpt lat="46.56844" lon="0.67532">
        <ele>82.8</ele>
        <time>2024-08-24T14:11:31Z</time>
      </trkpt>
      <trkpt lat="46.5685" lon="0.67526">
        <ele>83.8</ele>
        <time>2024-08-24T14:11:34Z</time>
      </trkpt>
      <trkpt lat="46.56852" lon="0.67524">
        <ele>84</ele>
        <time>2024-08-24T14:11:35Z</time>
      </trkpt>
      <trkpt lat="46.56855" lon="0.67502">
        <ele>84.4</ele>
        <time>2024-08-24T14:11:40Z</time>
      </trkpt>
      <trkpt lat="46.56855" lon="0.67486">
        <ele>84.8</ele>
        <time>2024-08-24T14:11:44Z</time>
      </trkpt>
      <trkpt lat="46.56856" lon="0.6748">
        <ele>85.4</ele>
        <time>2024-08-24T14:11:46Z</time>
      </trkpt>
      <trkpt lat="46.56856" lon="0.6748">
        <ele>86.6</ele>
        <time>2024-08-24T14:11:49Z</time>
      </trkpt>
      <trkpt lat="46.56855" lon="0.67463">
        <ele>87.8</ele>
        <time>2024-08-24T14:11:52Z</time>
      </trkpt>
      <trkpt lat="46.56854" lon="0.67458">
        <ele>88.4</ele>
        <time>2024-08-24T14:11:54Z</time>
      </trkpt>
      <trkpt lat="46.56853" lon="0.6744">
        <ele>88.8</ele>
        <time>2024-08-24T14:12:00Z</time>
      </trkpt>
      <trkpt lat="46.56852" lon="0.67434">
        <ele>88.8</ele>
        <time>2024-08-24T14:12:02Z</time>
      </trkpt>
      <trkpt lat="46.56847" lon="0.67417">
        <ele>89.4</ele>
        <time>2024-08-24T14:12:08Z</time>
      </trkpt>
      <trkpt lat="46.56845" lon="0.6741">
        <ele>89.8</ele>
        <time>2024-08-24T14:12:10Z</time>
      </trkpt>
      <trkpt lat="46.56842" lon="0.67397">
        <ele>90.4</ele>
        <time>2024-08-24T14:12:14Z</time>
      </trkpt>
      <trkpt lat="46.56835" lon="0.67379">
        <ele>90.6</ele>
        <time>2024-08-24T14:12:20Z</time>
      </trkpt>
      <trkpt lat="46.56834" lon="0.67373">
        <ele>90.8</ele>
        <time>2024-08-24T14:12:22Z</time>
      </trkpt>
      <trkpt lat="46.56827" lon="0.67352">
        <ele>91.8</ele>
        <time>2024-08-24T14:12:28Z</time>
      </trkpt>
      <trkpt lat="46.56826" lon="0.67348">
        <ele>92</ele>
        <time>2024-08-24T14:12:29Z</time>
      </trkpt>
      <trkpt lat="46.5682" lon="0.67328">
        <ele>93</ele>
        <time>2024-08-24T14:12:35Z</time>
      </trkpt>
      <trkpt lat="46.56817" lon="0.67321">
        <ele>93.2</ele>
        <time>2024-08-24T14:12:37Z</time>
      </trkpt>
      <trkpt lat="46.5681" lon="0.67306">
        <ele>93.6</ele>
        <time>2024-08-24T14:12:42Z</time>
      </trkpt>
      <trkpt lat="46.56804" lon="0.67289">
        <ele>94.2</ele>
        <time>2024-08-24T14:12:47Z</time>
      </trkpt>
      <trkpt lat="46.56801" lon="0.67267">
        <ele>95.4</ele>
        <time>2024-08-24T14:12:52Z</time>
      </trkpt>
      <trkpt lat="46.568" lon="0.6726">
        <ele>95.8</ele>
        <time>2024-08-24T14:12:54Z</time>
      </trkpt>
      <trkpt lat="46.56797" lon="0.67235">
        <ele>95.4</ele>
        <time>2024-08-24T14:13:00Z</time>
      </trkpt>
      <trkpt lat="46.56797" lon="0.67229">
        <ele>95.4</ele>
        <time>2024-08-24T14:13:01Z</time>
      </trkpt>
      <trkpt lat="46.56793" lon="0.67205">
        <ele>95.4</ele>
        <time>2024-08-24T14:13:05Z</time>
      </trkpt>
      <trkpt lat="46.56789" lon="0.67187">
        <ele>95.6</ele>
        <time>2024-08-24T14:13:08Z</time>
      </trkpt>
      <trkpt lat="46.56786" lon="0.67166">
        <ele>95.4</ele>
        <time>2024-08-24T14:13:11Z</time>
      </trkpt>
      <trkpt lat="46.56783" lon="0.67145">
        <ele>94.6</ele>
        <time>2024-08-24T14:13:14Z</time>
      </trkpt>
      <trkpt lat="46.56775" lon="0.6711">
        <ele>94.4</ele>
        <time>2024-08-24T14:13:19Z</time>
      </trkpt>
      <trkpt lat="46.56775" lon="0.67104">
        <ele>94.4</ele>
        <time>2024-08-24T14:13:20Z</time>
      </trkpt>
      <trkpt lat="46.56773" lon="0.6709">
        <ele>94.2</ele>
        <time>2024-08-24T14:13:22Z</time>
      </trkpt>
      <trkpt lat="46.56768" lon="0.67058">
        <ele>93.4</ele>
        <time>2024-08-24T14:13:27Z</time>
      </trkpt>
      <trkpt lat="46.56763" lon="0.67038">
        <ele>93.2</ele>
        <time>2024-08-24T14:13:29Z</time>
      </trkpt>
      <trkpt lat="46.56756" lon="0.67028">
        <ele>92.2</ele>
        <time>2024-08-24T14:13:31Z</time>
      </trkpt>
      <trkpt lat="46.56751" lon="0.67024">
        <ele>90.8</ele>
        <time>2024-08-24T14:13:32Z</time>
      </trkpt>
      <trkpt lat="46.5674" lon="0.67015">
        <ele>90.2</ele>
        <time>2024-08-24T14:13:34Z</time>
      </trkpt>
      <trkpt lat="46.56737" lon="0.67012">
        <ele>90</ele>
        <time>2024-08-24T14:13:35Z</time>
      </trkpt>
      <trkpt lat="46.56735" lon="0.67007">
        <ele>89.4</ele>
        <time>2024-08-24T14:13:36Z</time>
      </trkpt>
      <trkpt lat="46.56736" lon="0.66998">
        <ele>88.8</ele>
        <time>2024-08-24T14:13:38Z</time>
      </trkpt>
      <trkpt lat="46.56741" lon="0.66984">
        <ele>88</ele>
        <time>2024-08-24T14:13:42Z</time>
      </trkpt>
      <trkpt lat="46.56744" lon="0.66985">
        <ele>87.8</ele>
        <time>2024-08-24T14:13:44Z</time>
      </trkpt>
      <trkpt lat="46.56746" lon="0.66983">
        <ele>87.8</ele>
        <time>2024-08-24T14:13:46Z</time>
      </trkpt>
      <trkpt lat="46.56758" lon="0.6697">
        <ele>88.6</ele>
        <time>2024-08-24T14:13:51Z</time>
      </trkpt>
      <trkpt lat="46.5677" lon="0.66957">
        <ele>88.2</ele>
        <time>2024-08-24T14:13:56Z</time>
      </trkpt>
      <trkpt lat="46.56788" lon="0.66939">
        <ele>87.4</ele>
        <time>2024-08-24T14:14:02Z</time>
      </trkpt>
      <trkpt lat="46.56791" lon="0.66935">
        <ele>87</ele>
        <time>2024-08-24T14:14:03Z</time>
      </trkpt>
      <trkpt lat="46.56794" lon="0.66933">
        <ele>86.8</ele>
        <time>2024-08-24T14:14:04Z</time>
      </trkpt>
      <trkpt lat="46.56802" lon="0.6693">
        <ele>86.6</ele>
        <time>2024-08-24T14:14:06Z</time>
      </trkpt>
      <trkpt lat="46.56806" lon="0.66929">
        <ele>86.6</ele>
        <time>2024-08-24T14:14:07Z</time>
      </trkpt>
      <trkpt lat="46.5681" lon="0.66927">
        <ele>86.6</ele>
        <time>2024-08-24T14:14:08Z</time>
      </trkpt>
      <trkpt lat="46.56816" lon="0.66922">
        <ele>86.6</ele>
        <time>2024-08-24T14:14:10Z</time>
      </trkpt>
      <trkpt lat="46.56819" lon="0.66921">
        <ele>86.6</ele>
        <time>2024-08-24T14:14:11Z</time>
      </trkpt>
      <trkpt lat="46.56826" lon="0.66916">
        <ele>86</ele>
        <time>2024-08-24T14:14:14Z</time>
      </trkpt>
      <trkpt lat="46.56829" lon="0.66913">
        <ele>86</ele>
        <time>2024-08-24T14:14:15Z</time>
      </trkpt>
      <trkpt lat="46.56832" lon="0.66911">
        <ele>85.6</ele>
        <time>2024-08-24T14:14:16Z</time>
      </trkpt>
      <trkpt lat="46.56838" lon="0.66908">
        <ele>84.6</ele>
        <time>2024-08-24T14:14:18Z</time>
      </trkpt>
      <trkpt lat="46.56841" lon="0.66906">
        <ele>84.2</ele>
        <time>2024-08-24T14:14:19Z</time>
      </trkpt>
      <trkpt lat="46.56844" lon="0.66905">
        <ele>83.8</ele>
        <time>2024-08-24T14:14:20Z</time>
      </trkpt>
      <trkpt lat="46.56847" lon="0.66903">
        <ele>83.4</ele>
        <time>2024-08-24T14:14:21Z</time>
      </trkpt>
      <trkpt lat="46.5685" lon="0.66903">
        <ele>83</ele>
        <time>2024-08-24T14:14:22Z</time>
      </trkpt>
      <trkpt lat="46.56854" lon="0.66904">
        <ele>82.8</ele>
        <time>2024-08-24T14:14:23Z</time>
      </trkpt>
      <trkpt lat="46.56864" lon="0.66908">
        <ele>82.8</ele>
        <time>2024-08-24T14:14:26Z</time>
      </trkpt>
      <trkpt lat="46.5687" lon="0.66907">
        <ele>82.8</ele>
        <time>2024-08-24T14:14:28Z</time>
      </trkpt>
      <trkpt lat="46.56872" lon="0.66908">
        <ele>83</ele>
        <time>2024-08-24T14:14:29Z</time>
      </trkpt>
      <trkpt lat="46.5688" lon="0.6691">
        <ele>84.4</ele>
        <time>2024-08-24T14:14:33Z</time>
      </trkpt>
      <trkpt lat="46.56891" lon="0.66914">
        <ele>85.6</ele>
        <time>2024-08-24T14:14:37Z</time>
      </trkpt>
      <trkpt lat="46.56892" lon="0.66914">
        <ele>85.8</ele>
        <time>2024-08-24T14:14:38Z</time>
      </trkpt>
      <trkpt lat="46.56894" lon="0.66913">
        <ele>86</ele>
        <time>2024-08-24T14:14:39Z</time>
      </trkpt>
      <trkpt lat="46.56901" lon="0.66905">
        <ele>86</ele>
        <time>2024-08-24T14:14:42Z</time>
      </trkpt>
      <trkpt lat="46.56904" lon="0.66904">
        <ele>85.8</ele>
        <time>2024-08-24T14:14:43Z</time>
      </trkpt>
      <trkpt lat="46.5691" lon="0.66906">
        <ele>85.4</ele>
        <time>2024-08-24T14:14:45Z</time>
      </trkpt>
      <trkpt lat="46.56912" lon="0.66907">
        <ele>85.2</ele>
        <time>2024-08-24T14:14:46Z</time>
      </trkpt>
      <trkpt lat="46.56925" lon="0.66916">
        <ele>85.4</ele>
        <time>2024-08-24T14:14:51Z</time>
      </trkpt>
      <trkpt lat="46.56927" lon="0.66916">
        <ele>85.4</ele>
        <time>2024-08-24T14:14:52Z</time>
      </trkpt>
      <trkpt lat="46.5693" lon="0.66915">
        <ele>85.6</ele>
        <time>2024-08-24T14:14:53Z</time>
      </trkpt>
      <trkpt lat="46.56935" lon="0.66907">
        <ele>85.6</ele>
        <time>2024-08-24T14:14:56Z</time>
      </trkpt>
      <trkpt lat="46.56939" lon="0.66907">
        <ele>85.4</ele>
        <time>2024-08-24T14:14:57Z</time>
      </trkpt>
      <trkpt lat="46.56944" lon="0.66912">
        <ele>85</ele>
        <time>2024-08-24T14:14:59Z</time>
      </trkpt>
      <trkpt lat="46.56946" lon="0.66914">
        <ele>84.6</ele>
        <time>2024-08-24T14:15:00Z</time>
      </trkpt>
      <trkpt lat="46.56954" lon="0.66927">
        <ele>85.4</ele>
        <time>2024-08-24T14:15:05Z</time>
      </trkpt>
      <trkpt lat="46.56955" lon="0.66929">
        <ele>85.6</ele>
        <time>2024-08-24T14:15:06Z</time>
      </trkpt>
      <trkpt lat="46.56959" lon="0.66933">
        <ele>86.6</ele>
        <time>2024-08-24T14:15:10Z</time>
      </trkpt>
      <trkpt lat="46.56967" lon="0.66937">
        <ele>87</ele>
        <time>2024-08-24T14:15:15Z</time>
      </trkpt>
      <trkpt lat="46.56968" lon="0.66935">
        <ele>87</ele>
        <time>2024-08-24T14:15:16Z</time>
      </trkpt>
      <trkpt lat="46.5697" lon="0.66933">
        <ele>86.6</ele>
        <time>2024-08-24T14:15:17Z</time>
      </trkpt>
      <trkpt lat="46.56972" lon="0.66928">
        <ele>85.4</ele>
        <time>2024-08-24T14:15:19Z</time>
      </trkpt>
      <trkpt lat="46.56975" lon="0.6692">
        <ele>84.2</ele>
        <time>2024-08-24T14:15:21Z</time>
      </trkpt>
      <trkpt lat="46.56979" lon="0.66913">
        <ele>83</ele>
        <time>2024-08-24T14:15:23Z</time>
      </trkpt>
      <trkpt lat="46.56984" lon="0.66906">
        <ele>81</ele>
        <time>2024-08-24T14:15:25Z</time>
      </trkpt>
      <trkpt lat="46.56987" lon="0.66903">
        <ele>79.8</ele>
        <time>2024-08-24T14:15:26Z</time>
      </trkpt>
      <trkpt lat="46.5699" lon="0.66901">
        <ele>78.8</ele>
        <time>2024-08-24T14:15:27Z</time>
      </trkpt>
      <trkpt lat="46.56995" lon="0.66898">
        <ele>77.6</ele>
        <time>2024-08-24T14:15:29Z</time>
      </trkpt>
      <trkpt lat="46.56999" lon="0.66894">
        <ele>76.6</ele>
        <time>2024-08-24T14:15:31Z</time>
      </trkpt>
      <trkpt lat="46.57001" lon="0.6689">
        <ele>76.2</ele>
        <time>2024-08-24T14:15:32Z</time>
      </trkpt>
      <trkpt lat="46.57002" lon="0.66886">
        <ele>75.8</ele>
        <time>2024-08-24T14:15:33Z</time>
      </trkpt>
      <trkpt lat="46.57003" lon="0.66878">
        <ele>74.8</ele>
        <time>2024-08-24T14:15:35Z</time>
      </trkpt>
      <trkpt lat="46.57003" lon="0.66875">
        <ele>74.4</ele>
        <time>2024-08-24T14:15:36Z</time>
      </trkpt>
      <trkpt lat="46.57003" lon="0.66873">
        <ele>73.8</ele>
        <time>2024-08-24T14:15:37Z</time>
      </trkpt>
      <trkpt lat="46.57002" lon="0.6687">
        <ele>73.4</ele>
        <time>2024-08-24T14:15:38Z</time>
      </trkpt>
      <trkpt lat="46.57003" lon="0.66863">
        <ele>72.8</ele>
        <time>2024-08-24T14:15:41Z</time>
      </trkpt>
      <trkpt lat="46.57002" lon="0.6686">
        <ele>72.8</ele>
        <time>2024-08-24T14:15:42Z</time>
      </trkpt>
      <trkpt lat="46.57001" lon="0.66855">
        <ele>71.8</ele>
        <time>2024-08-24T14:15:45Z</time>
      </trkpt>
      <trkpt lat="46.57" lon="0.66854">
        <ele>71.6</ele>
        <time>2024-08-24T14:15:46Z</time>
      </trkpt>
      <trkpt lat="46.56999" lon="0.66853">
        <ele>71.6</ele>
        <time>2024-08-24T14:15:47Z</time>
      </trkpt>
      <trkpt lat="46.56997" lon="0.66848">
        <ele>71.4</ele>
        <time>2024-08-24T14:15:50Z</time>
      </trkpt>
      <trkpt lat="46.56994" lon="0.66842">
        <ele>71.4</ele>
        <time>2024-08-24T14:15:52Z</time>
      </trkpt>
      <trkpt lat="46.56989" lon="0.66832">
        <ele>70.8</ele>
        <time>2024-08-24T14:15:55Z</time>
      </trkpt>
      <trkpt lat="46.56988" lon="0.66827">
        <ele>70.4</ele>
        <time>2024-08-24T14:15:56Z</time>
      </trkpt>
      <trkpt lat="46.56987" lon="0.66822">
        <ele>70.2</ele>
        <time>2024-08-24T14:15:57Z</time>
      </trkpt>
      <trkpt lat="46.56986" lon="0.66818">
        <ele>69.2</ele>
        <time>2024-08-24T14:15:58Z</time>
      </trkpt>
      <trkpt lat="46.56985" lon="0.66814">
        <ele>68.6</ele>
        <time>2024-08-24T14:15:59Z</time>
      </trkpt>
      <trkpt lat="46.56984" lon="0.66812">
        <ele>67.8</ele>
        <time>2024-08-24T14:16:00Z</time>
      </trkpt>
      <trkpt lat="46.56982" lon="0.66809">
        <ele>67.4</ele>
        <time>2024-08-24T14:16:01Z</time>
      </trkpt>
      <trkpt lat="46.56982" lon="0.66805">
        <ele>65.8</ele>
        <time>2024-08-24T14:16:02Z</time>
      </trkpt>
      <trkpt lat="46.56982" lon="0.668">
        <ele>65.2</ele>
        <time>2024-08-24T14:16:04Z</time>
      </trkpt>
      <trkpt lat="46.56982" lon="0.66796">
        <ele>64.6</ele>
        <time>2024-08-24T14:16:05Z</time>
      </trkpt>
      <trkpt lat="46.56981" lon="0.66789">
        <ele>64</ele>
        <time>2024-08-24T14:16:06Z</time>
      </trkpt>
      <trkpt lat="46.56979" lon="0.66783">
        <ele>63.6</ele>
        <time>2024-08-24T14:16:07Z</time>
      </trkpt>
      <trkpt lat="46.56973" lon="0.6677">
        <ele>63.2</ele>
        <time>2024-08-24T14:16:09Z</time>
      </trkpt>
      <trkpt lat="46.56965" lon="0.66755">
        <ele>62.2</ele>
        <time>2024-08-24T14:16:11Z</time>
      </trkpt>
      <trkpt lat="46.56962" lon="0.66747">
        <ele>61.8</ele>
        <time>2024-08-24T14:16:12Z</time>
      </trkpt>
      <trkpt lat="46.5696" lon="0.66738">
        <ele>61.6</ele>
        <time>2024-08-24T14:16:13Z</time>
      </trkpt>
      <trkpt lat="46.5695" lon="0.66712">
        <ele>61.4</ele>
        <time>2024-08-24T14:16:17Z</time>
      </trkpt>
      <trkpt lat="46.56943" lon="0.66688">
        <ele>61.8</ele>
        <time>2024-08-24T14:16:22Z</time>
      </trkpt>
      <trkpt lat="46.5694" lon="0.66682">
        <ele>62.8</ele>
        <time>2024-08-24T14:16:24Z</time>
      </trkpt>
      <trkpt lat="46.56938" lon="0.6668">
        <ele>63</ele>
        <time>2024-08-24T14:16:25Z</time>
      </trkpt>
      <trkpt lat="46.56936" lon="0.66679">
        <ele>63.2</ele>
        <time>2024-08-24T14:16:26Z</time>
      </trkpt>
      <trkpt lat="46.56926" lon="0.66676">
        <ele>63.6</ele>
        <time>2024-08-24T14:16:30Z</time>
      </trkpt>
      <trkpt lat="46.56921" lon="0.66673">
        <ele>64.4</ele>
        <time>2024-08-24T14:16:33Z</time>
      </trkpt>
      <trkpt lat="46.56919" lon="0.66672">
        <ele>64.8</ele>
        <time>2024-08-24T14:16:35Z</time>
      </trkpt>
      <trkpt lat="46.56913" lon="0.66669">
        <ele>64.8</ele>
        <time>2024-08-24T14:16:47Z</time>
      </trkpt>
      <trkpt lat="46.56905" lon="0.66663">
        <ele>65.4</ele>
        <time>2024-08-24T14:16:53Z</time>
      </trkpt>
      <trkpt lat="46.56903" lon="0.66662">
        <ele>65.6</ele>
        <time>2024-08-24T14:16:54Z</time>
      </trkpt>
      <trkpt lat="46.56896" lon="0.66655">
        <ele>66.6</ele>
        <time>2024-08-24T14:16:59Z</time>
      </trkpt>
      <trkpt lat="46.56892" lon="0.66649">
        <ele>67.4</ele>
        <time>2024-08-24T14:17:03Z</time>
      </trkpt>
      <trkpt lat="46.56889" lon="0.66646">
        <ele>67.8</ele>
        <time>2024-08-24T14:17:05Z</time>
      </trkpt>
      <trkpt lat="46.56884" lon="0.66643">
        <ele>69</ele>
        <time>2024-08-24T14:17:08Z</time>
      </trkpt>
      <trkpt lat="46.56881" lon="0.6664">
        <ele>69.6</ele>
        <time>2024-08-24T14:17:11Z</time>
      </trkpt>
      <trkpt lat="46.56879" lon="0.66637">
        <ele>69.8</ele>
        <time>2024-08-24T14:17:12Z</time>
      </trkpt>
      <trkpt lat="46.56878" lon="0.66635">
        <ele>70</ele>
        <time>2024-08-24T14:17:13Z</time>
      </trkpt>
      <trkpt lat="46.56873" lon="0.66631">
        <ele>70.6</ele>
        <time>2024-08-24T14:17:16Z</time>
      </trkpt>
      <trkpt lat="46.5687" lon="0.66628">
        <ele>71</ele>
        <time>2024-08-24T14:17:18Z</time>
      </trkpt>
      <trkpt lat="46.56864" lon="0.66622">
        <ele>72</ele>
        <time>2024-08-24T14:17:24Z</time>
      </trkpt>
      <trkpt lat="46.5686" lon="0.66618">
        <ele>72.2</ele>
        <time>2024-08-24T14:17:27Z</time>
      </trkpt>
      <trkpt lat="46.56854" lon="0.66612">
        <ele>73</ele>
        <time>2024-08-24T14:17:32Z</time>
      </trkpt>
      <trkpt lat="46.56849" lon="0.66609">
        <ele>73.2</ele>
        <time>2024-08-24T14:17:38Z</time>
      </trkpt>
      <trkpt lat="46.56848" lon="0.66608">
        <ele>73</ele>
        <time>2024-08-24T14:17:39Z</time>
      </trkpt>
      <trkpt lat="46.56847" lon="0.66607">
        <ele>73</ele>
        <time>2024-08-24T14:17:40Z</time>
      </trkpt>
      <trkpt lat="46.56841" lon="0.66604">
        <ele>73</ele>
        <time>2024-08-24T14:17:46Z</time>
      </trkpt>
      <trkpt lat="46.5684" lon="0.66605">
        <ele>73</ele>
        <time>2024-08-24T14:17:47Z</time>
      </trkpt>
      <trkpt lat="46.56838" lon="0.66605">
        <ele>73.2</ele>
        <time>2024-08-24T14:17:49Z</time>
      </trkpt>
      <trkpt lat="46.56837" lon="0.66605">
        <ele>73.2</ele>
        <time>2024-08-24T14:17:50Z</time>
      </trkpt>
      <trkpt lat="46.56831" lon="0.66602">
        <ele>73.2</ele>
        <time>2024-08-24T14:17:53Z</time>
      </trkpt>
      <trkpt lat="46.56821" lon="0.66589">
        <ele>74.6</ele>
        <time>2024-08-24T14:17:59Z</time>
      </trkpt>
      <trkpt lat="46.56819" lon="0.66588">
        <ele>74.8</ele>
        <time>2024-08-24T14:18:00Z</time>
      </trkpt>
      <trkpt lat="46.56817" lon="0.66587">
        <ele>75</ele>
        <time>2024-08-24T14:18:01Z</time>
      </trkpt>
      <trkpt lat="46.56814" lon="0.66586">
        <ele>75.6</ele>
        <time>2024-08-24T14:18:04Z</time>
      </trkpt>
      <trkpt lat="46.56813" lon="0.66584">
        <ele>75.6</ele>
        <time>2024-08-24T14:18:05Z</time>
      </trkpt>
      <trkpt lat="46.5681" lon="0.66577">
        <ele>76.4</ele>
        <time>2024-08-24T14:18:09Z</time>
      </trkpt>
      <trkpt lat="46.56809" lon="0.66576">
        <ele>76.6</ele>
        <time>2024-08-24T14:18:10Z</time>
      </trkpt>
      <trkpt lat="46.56807" lon="0.66574">
        <ele>76.8</ele>
        <time>2024-08-24T14:18:11Z</time>
      </trkpt>
      <trkpt lat="46.56797" lon="0.66567">
        <ele>77.6</ele>
        <time>2024-08-24T14:18:16Z</time>
      </trkpt>
      <trkpt lat="46.56796" lon="0.66564">
        <ele>78.2</ele>
        <time>2024-08-24T14:18:17Z</time>
      </trkpt>
      <trkpt lat="46.56786" lon="0.66554">
        <ele>79.2</ele>
        <time>2024-08-24T14:18:23Z</time>
      </trkpt>
      <trkpt lat="46.5678" lon="0.66547">
        <ele>79.4</ele>
        <time>2024-08-24T14:18:26Z</time>
      </trkpt>
      <trkpt lat="46.56775" lon="0.6654">
        <ele>80</ele>
        <time>2024-08-24T14:18:29Z</time>
      </trkpt>
      <trkpt lat="46.56771" lon="0.66537">
        <ele>80.4</ele>
        <time>2024-08-24T14:18:31Z</time>
      </trkpt>
      <trkpt lat="46.56761" lon="0.66532">
        <ele>81.4</ele>
        <time>2024-08-24T14:18:36Z</time>
      </trkpt>
      <trkpt lat="46.56758" lon="0.66531">
        <ele>81.6</ele>
        <time>2024-08-24T14:18:37Z</time>
      </trkpt>
      <trkpt lat="46.56746" lon="0.66524">
        <ele>82.8</ele>
        <time>2024-08-24T14:18:42Z</time>
      </trkpt>
      <trkpt lat="46.56735" lon="0.66526">
        <ele>83.4</ele>
        <time>2024-08-24T14:18:47Z</time>
      </trkpt>
      <trkpt lat="46.56731" lon="0.66528">
        <ele>83.2</ele>
        <time>2024-08-24T14:18:50Z</time>
      </trkpt>
      <trkpt lat="46.56727" lon="0.66526">
        <ele>83.6</ele>
        <time>2024-08-24T14:18:52Z</time>
      </trkpt>
      <trkpt lat="46.56723" lon="0.66524">
        <ele>84</ele>
        <time>2024-08-24T14:18:54Z</time>
      </trkpt>
      <trkpt lat="46.56712" lon="0.66519">
        <ele>84.6</ele>
        <time>2024-08-24T14:18:58Z</time>
      </trkpt>
      <trkpt lat="46.5671" lon="0.66518">
        <ele>85</ele>
        <time>2024-08-24T14:18:59Z</time>
      </trkpt>
      <trkpt lat="46.56694" lon="0.66508">
        <ele>85.8</ele>
        <time>2024-08-24T14:19:05Z</time>
      </trkpt>
      <trkpt lat="46.56692" lon="0.66507">
        <ele>86.2</ele>
        <time>2024-08-24T14:19:06Z</time>
      </trkpt>
      <trkpt lat="46.56688" lon="0.66503">
        <ele>86.4</ele>
        <time>2024-08-24T14:19:08Z</time>
      </trkpt>
      <trkpt lat="46.5669" lon="0.66496">
        <ele>86.6</ele>
        <time>2024-08-24T14:19:11Z</time>
      </trkpt>
      <trkpt lat="46.5669" lon="0.66494">
        <ele>86.6</ele>
        <time>2024-08-24T14:19:12Z</time>
      </trkpt>
      <trkpt lat="46.56699" lon="0.66476">
        <ele>87.4</ele>
        <time>2024-08-24T14:19:18Z</time>
      </trkpt>
      <trkpt lat="46.56709" lon="0.66458">
        <ele>88.4</ele>
        <time>2024-08-24T14:19:24Z</time>
      </trkpt>
      <trkpt lat="46.5671" lon="0.66455">
        <ele>88.8</ele>
        <time>2024-08-24T14:19:25Z</time>
      </trkpt>
      <trkpt lat="46.56728" lon="0.66434">
        <ele>89.4</ele>
        <time>2024-08-24T14:19:32Z</time>
      </trkpt>
      <trkpt lat="46.5673" lon="0.66432">
        <ele>89.6</ele>
        <time>2024-08-24T14:19:33Z</time>
      </trkpt>
      <trkpt lat="46.56746" lon="0.66415">
        <ele>90.4</ele>
        <time>2024-08-24T14:19:39Z</time>
      </trkpt>
      <trkpt lat="46.5676" lon="0.66399">
        <ele>90.4</ele>
        <time>2024-08-24T14:19:45Z</time>
      </trkpt>
      <trkpt lat="46.56779" lon="0.66379">
        <ele>90.4</ele>
        <time>2024-08-24T14:19:51Z</time>
      </trkpt>
      <trkpt lat="46.56791" lon="0.66367">
        <ele>90</ele>
        <time>2024-08-24T14:19:54Z</time>
      </trkpt>
      <trkpt lat="46.56799" lon="0.66357">
        <ele>89.8</ele>
        <time>2024-08-24T14:19:56Z</time>
      </trkpt>
      <trkpt lat="46.56816" lon="0.66334">
        <ele>88.8</ele>
        <time>2024-08-24T14:20:00Z</time>
      </trkpt>
      <trkpt lat="46.56818" lon="0.66329">
        <ele>88.4</ele>
        <time>2024-08-24T14:20:01Z</time>
      </trkpt>
      <trkpt lat="46.5682" lon="0.66326">
        <ele>87.4</ele>
        <time>2024-08-24T14:20:02Z</time>
      </trkpt>
      <trkpt lat="46.56822" lon="0.66324">
        <ele>87</ele>
        <time>2024-08-24T14:20:03Z</time>
      </trkpt>
      <trkpt lat="46.56823" lon="0.66324">
        <ele>86.6</ele>
        <time>2024-08-24T14:20:04Z</time>
      </trkpt>
      <trkpt lat="46.56825" lon="0.66326">
        <ele>86.2</ele>
        <time>2024-08-24T14:20:07Z</time>
      </trkpt>
      <trkpt lat="46.56827" lon="0.66331">
        <ele>85.8</ele>
        <time>2024-08-24T14:20:09Z</time>
      </trkpt>
      <trkpt lat="46.56829" lon="0.66339">
        <ele>85.6</ele>
        <time>2024-08-24T14:20:13Z</time>
      </trkpt>
      <trkpt lat="46.5683" lon="0.66341">
        <ele>85.6</ele>
        <time>2024-08-24T14:20:14Z</time>
      </trkpt>
      <trkpt lat="46.56831" lon="0.66351">
        <ele>85.6</ele>
        <time>2024-08-24T14:20:20Z</time>
      </trkpt>
      <trkpt lat="46.56831" lon="0.66352">
        <ele>85.6</ele>
        <time>2024-08-24T14:20:21Z</time>
      </trkpt>
      <trkpt lat="46.56831" lon="0.66356">
        <ele>85.8</ele>
        <time>2024-08-24T14:20:24Z</time>
      </trkpt>
      <trkpt lat="46.56831" lon="0.6636">
        <ele>86</ele>
        <time>2024-08-24T14:20:26Z</time>
      </trkpt>
      <trkpt lat="46.56831" lon="0.66363">
        <ele>86</ele>
        <time>2024-08-24T14:20:28Z</time>
      </trkpt>
      <trkpt lat="46.56831" lon="0.66365">
        <ele>86</ele>
        <time>2024-08-24T14:20:29Z</time>
      </trkpt>
      <trkpt lat="46.56834" lon="0.66385">
        <ele>86.4</ele>
        <time>2024-08-24T14:20:36Z</time>
      </trkpt>
      <trkpt lat="46.56841" lon="0.66405">
        <ele>85.8</ele>
        <time>2024-08-24T14:20:42Z</time>
      </trkpt>
      <trkpt lat="46.56846" lon="0.66423">
        <ele>85</ele>
        <time>2024-08-24T14:20:47Z</time>
      </trkpt>
      <trkpt lat="46.56846" lon="0.66427">
        <ele>84.6</ele>
        <time>2024-08-24T14:20:48Z</time>
      </trkpt>
      <trkpt lat="46.56849" lon="0.66439">
        <ele>83.4</ele>
        <time>2024-08-24T14:20:51Z</time>
      </trkpt>
      <trkpt lat="46.56851" lon="0.66447">
        <ele>83</ele>
        <time>2024-08-24T14:20:53Z</time>
      </trkpt>
      <trkpt lat="46.56859" lon="0.66467">
        <ele>83</ele>
        <time>2024-08-24T14:20:58Z</time>
      </trkpt>
      <trkpt lat="46.56863" lon="0.6648">
        <ele>83.2</ele>
        <time>2024-08-24T14:21:01Z</time>
      </trkpt>
      <trkpt lat="46.56865" lon="0.66488">
        <ele>83</ele>
        <time>2024-08-24T14:21:03Z</time>
      </trkpt>
      <trkpt lat="46.56866" lon="0.66499">
        <ele>82.6</ele>
        <time>2024-08-24T14:21:07Z</time>
      </trkpt>
      <trkpt lat="46.56868" lon="0.66503">
        <ele>82.4</ele>
        <time>2024-08-24T14:21:09Z</time>
      </trkpt>
      <trkpt lat="46.56869" lon="0.66507">
        <ele>82.4</ele>
        <time>2024-08-24T14:21:10Z</time>
      </trkpt>
      <trkpt lat="46.56872" lon="0.66526">
        <ele>81.2</ele>
        <time>2024-08-24T14:21:14Z</time>
      </trkpt>
      <trkpt lat="46.56877" lon="0.66536">
        <ele>80</ele>
        <time>2024-08-24T14:21:18Z</time>
      </trkpt>
      <trkpt lat="46.56878" lon="0.66539">
        <ele>79.6</ele>
        <time>2024-08-24T14:21:19Z</time>
      </trkpt>
      <trkpt lat="46.56879" lon="0.66543">
        <ele>79</ele>
        <time>2024-08-24T14:21:21Z</time>
      </trkpt>
      <trkpt lat="46.56881" lon="0.66551">
        <ele>78</ele>
        <time>2024-08-24T14:21:24Z</time>
      </trkpt>
      <trkpt lat="46.56883" lon="0.66553">
        <ele>77.8</ele>
        <time>2024-08-24T14:21:25Z</time>
      </trkpt>
      <trkpt lat="46.56892" lon="0.66564">
        <ele>76.2</ele>
        <time>2024-08-24T14:21:30Z</time>
      </trkpt>
      <trkpt lat="46.56895" lon="0.66569">
        <ele>75</ele>
        <time>2024-08-24T14:21:32Z</time>
      </trkpt>
      <trkpt lat="46.56896" lon="0.66571">
        <ele>74.4</ele>
        <time>2024-08-24T14:21:33Z</time>
      </trkpt>
      <trkpt lat="46.56898" lon="0.66574">
        <ele>73.6</ele>
        <time>2024-08-24T14:21:34Z</time>
      </trkpt>
      <trkpt lat="46.56899" lon="0.66576">
        <ele>73.4</ele>
        <time>2024-08-24T14:21:35Z</time>
      </trkpt>
      <trkpt lat="46.56902" lon="0.66586">
        <ele>72</ele>
        <time>2024-08-24T14:21:38Z</time>
      </trkpt>
      <trkpt lat="46.56903" lon="0.66593">
        <ele>70.6</ele>
        <time>2024-08-24T14:21:40Z</time>
      </trkpt>
      <trkpt lat="46.56906" lon="0.66599">
        <ele>69.4</ele>
        <time>2024-08-24T14:21:42Z</time>
      </trkpt>
      <trkpt lat="46.56906" lon="0.66602">
        <ele>68.8</ele>
        <time>2024-08-24T14:21:43Z</time>
      </trkpt>
      <trkpt lat="46.56907" lon="0.66605">
        <ele>68.4</ele>
        <time>2024-08-24T14:21:44Z</time>
      </trkpt>
      <trkpt lat="46.56908" lon="0.66608">
        <ele>68.2</ele>
        <time>2024-08-24T14:21:45Z</time>
      </trkpt>
      <trkpt lat="46.56911" lon="0.66619">
        <ele>66.8</ele>
        <time>2024-08-24T14:21:48Z</time>
      </trkpt>
      <trkpt lat="46.56909" lon="0.66625">
        <ele>66.4</ele>
        <time>2024-08-24T14:21:49Z</time>
      </trkpt>
      <trkpt lat="46.56907" lon="0.66633">
        <ele>66</ele>
        <time>2024-08-24T14:21:51Z</time>
      </trkpt>
      <trkpt lat="46.56904" lon="0.66639">
        <ele>65.8</ele>
        <time>2024-08-24T14:21:52Z</time>
      </trkpt>
      <trkpt lat="46.56904" lon="0.66639">
        <ele>65.8</ele>
        <time>2024-08-24T14:21:53Z</time>
      </trkpt>
      <trkpt lat="46.56901" lon="0.66643">
        <ele>66</ele>
        <time>2024-08-24T14:21:56Z</time>
      </trkpt>
      <trkpt lat="46.56898" lon="0.66644">
        <ele>66.4</ele>
        <time>2024-08-24T14:21:58Z</time>
      </trkpt>
      <trkpt lat="46.56893" lon="0.66644">
        <ele>67</ele>
        <time>2024-08-24T14:22:02Z</time>
      </trkpt>
      <trkpt lat="46.56891" lon="0.66643">
        <ele>67.6</ele>
        <time>2024-08-24T14:22:05Z</time>
      </trkpt>
      <trkpt lat="46.5689" lon="0.66642">
        <ele>68</ele>
        <time>2024-08-24T14:22:06Z</time>
      </trkpt>
      <trkpt lat="46.56883" lon="0.6664">
        <ele>69</ele>
        <time>2024-08-24T14:22:12Z</time>
      </trkpt>
      <trkpt lat="46.56879" lon="0.66638">
        <ele>69.6</ele>
        <time>2024-08-24T14:22:15Z</time>
      </trkpt>
      <trkpt lat="46.56877" lon="0.66635">
        <ele>70.4</ele>
        <time>2024-08-24T14:22:17Z</time>
      </trkpt>
      <trkpt lat="46.56873" lon="0.66633">
        <ele>70.8</ele>
        <time>2024-08-24T14:22:19Z</time>
      </trkpt>
      <trkpt lat="46.56867" lon="0.66629">
        <ele>71.4</ele>
        <time>2024-08-24T14:22:23Z</time>
      </trkpt>
      <trkpt lat="46.56861" lon="0.66625">
        <ele>72</ele>
        <time>2024-08-24T14:22:27Z</time>
      </trkpt>
      <trkpt lat="46.5686" lon="0.66622">
        <ele>72</ele>
        <time>2024-08-24T14:22:29Z</time>
      </trkpt>
      <trkpt lat="46.56859" lon="0.66617">
        <ele>72.2</ele>
        <time>2024-08-24T14:22:31Z</time>
      </trkpt>
      <trkpt lat="46.56855" lon="0.66614">
        <ele>72.4</ele>
        <time>2024-08-24T14:22:33Z</time>
      </trkpt>
      <trkpt lat="46.56848" lon="0.66605">
        <ele>73</ele>
        <time>2024-08-24T14:22:40Z</time>
      </trkpt>
      <trkpt lat="46.56846" lon="0.66601">
        <ele>73.4</ele>
        <time>2024-08-24T14:22:48Z</time>
      </trkpt>
      <trkpt lat="46.56841" lon="0.66601">
        <ele>73.2</ele>
        <time>2024-08-24T14:22:55Z</time>
      </trkpt>
      <trkpt lat="46.56832" lon="0.666">
        <ele>73.4</ele>
        <time>2024-08-24T14:23:02Z</time>
      </trkpt>
      <trkpt lat="46.5683" lon="0.66599">
        <ele>73.6</ele>
        <time>2024-08-24T14:23:03Z</time>
      </trkpt>
      <trkpt lat="46.56823" lon="0.66591">
        <ele>74</ele>
        <time>2024-08-24T14:23:10Z</time>
      </trkpt>
      <trkpt lat="46.56816" lon="0.66585">
        <ele>74.6</ele>
        <time>2024-08-24T14:23:15Z</time>
      </trkpt>
      <trkpt lat="46.56815" lon="0.66585">
        <ele>74.8</ele>
        <time>2024-08-24T14:23:16Z</time>
      </trkpt>
      <trkpt lat="46.56811" lon="0.66581">
        <ele>75.2</ele>
        <time>2024-08-24T14:23:20Z</time>
      </trkpt>
      <trkpt lat="46.5681" lon="0.66578">
        <ele>75.6</ele>
        <time>2024-08-24T14:23:22Z</time>
      </trkpt>
      <trkpt lat="46.56809" lon="0.66574">
        <ele>75.8</ele>
        <time>2024-08-24T14:23:25Z</time>
      </trkpt>
      <trkpt lat="46.56807" lon="0.66572">
        <ele>76.2</ele>
        <time>2024-08-24T14:23:27Z</time>
      </trkpt>
      <trkpt lat="46.56806" lon="0.66571">
        <ele>76.4</ele>
        <time>2024-08-24T14:23:28Z</time>
      </trkpt>
      <trkpt lat="46.56805" lon="0.6657">
        <ele>76.8</ele>
        <time>2024-08-24T14:23:29Z</time>
      </trkpt>
      <trkpt lat="46.56795" lon="0.66565">
        <ele>77.8</ele>
        <time>2024-08-24T14:23:34Z</time>
      </trkpt>
      <trkpt lat="46.56794" lon="0.66564">
        <ele>78</ele>
        <time>2024-08-24T14:23:35Z</time>
      </trkpt>
      <trkpt lat="46.56784" lon="0.66554">
        <ele>78.6</ele>
        <time>2024-08-24T14:23:42Z</time>
      </trkpt>
      <trkpt lat="46.56783" lon="0.66553">
        <ele>79</ele>
        <time>2024-08-24T14:23:43Z</time>
      </trkpt>
      <trkpt lat="46.56774" lon="0.66544">
        <ele>79.6</ele>
        <time>2024-08-24T14:23:48Z</time>
      </trkpt>
      <trkpt lat="46.56772" lon="0.66541">
        <ele>80</ele>
        <time>2024-08-24T14:23:50Z</time>
      </trkpt>
      <trkpt lat="46.56768" lon="0.66538">
        <ele>80.6</ele>
        <time>2024-08-24T14:23:53Z</time>
      </trkpt>
      <trkpt lat="46.56767" lon="0.66538">
        <ele>80.8</ele>
        <time>2024-08-24T14:23:54Z</time>
      </trkpt>
      <trkpt lat="46.56763" lon="0.66537">
        <ele>81.2</ele>
        <time>2024-08-24T14:23:56Z</time>
      </trkpt>
      <trkpt lat="46.56751" lon="0.66531">
        <ele>82.8</ele>
        <time>2024-08-24T14:24:02Z</time>
      </trkpt>
      <trkpt lat="46.56738" lon="0.66527">
        <ele>83.8</ele>
        <time>2024-08-24T14:24:07Z</time>
      </trkpt>
      <trkpt lat="46.56736" lon="0.66528">
        <ele>83.8</ele>
        <time>2024-08-24T14:24:08Z</time>
      </trkpt>
      <trkpt lat="46.56732" lon="0.66531">
        <ele>83.8</ele>
        <time>2024-08-24T14:24:11Z</time>
      </trkpt>
      <trkpt lat="46.56728" lon="0.6653">
        <ele>83.8</ele>
        <time>2024-08-24T14:24:13Z</time>
      </trkpt>
      <trkpt lat="46.56727" lon="0.66529">
        <ele>83.8</ele>
        <time>2024-08-24T14:24:14Z</time>
      </trkpt>
      <trkpt lat="46.56713" lon="0.66521">
        <ele>84.6</ele>
        <time>2024-08-24T14:24:22Z</time>
      </trkpt>
      <trkpt lat="46.567" lon="0.66515">
        <ele>84.8</ele>
        <time>2024-08-24T14:24:28Z</time>
      </trkpt>
      <trkpt lat="46.56698" lon="0.66513">
        <ele>85</ele>
        <time>2024-08-24T14:24:29Z</time>
      </trkpt>
      <trkpt lat="46.56688" lon="0.66508">
        <ele>86</ele>
        <time>2024-08-24T14:24:35Z</time>
      </trkpt>
      <trkpt lat="46.56687" lon="0.66507">
        <ele>86</ele>
        <time>2024-08-24T14:24:36Z</time>
      </trkpt>
      <trkpt lat="46.56677" lon="0.66497">
        <ele>86</ele>
        <time>2024-08-24T14:24:42Z</time>
      </trkpt>
      <trkpt lat="46.56665" lon="0.66477">
        <ele>85.8</ele>
        <time>2024-08-24T14:24:49Z</time>
      </trkpt>
      <trkpt lat="46.56656" lon="0.66456">
        <ele>86.6</ele>
        <time>2024-08-24T14:24:56Z</time>
      </trkpt>
      <trkpt lat="46.5666" lon="0.66446">
        <ele>87</ele>
        <time>2024-08-24T14:24:59Z</time>
      </trkpt>
      <trkpt lat="46.56662" lon="0.6644">
        <ele>87.4</ele>
        <time>2024-08-24T14:25:01Z</time>
      </trkpt>
      <trkpt lat="46.56669" lon="0.66428">
        <ele>88</ele>
        <time>2024-08-24T14:25:05Z</time>
      </trkpt>
      <trkpt lat="46.56674" lon="0.66416">
        <ele>88.6</ele>
        <time>2024-08-24T14:25:09Z</time>
      </trkpt>
      <trkpt lat="46.56679" lon="0.66407">
        <ele>89</ele>
        <time>2024-08-24T14:25:12Z</time>
      </trkpt>
      <trkpt lat="46.56687" lon="0.66392">
        <ele>90</ele>
        <time>2024-08-24T14:25:17Z</time>
      </trkpt>
      <trkpt lat="46.56689" lon="0.66388">
        <ele>90.6</ele>
        <time>2024-08-24T14:25:18Z</time>
      </trkpt>
      <trkpt lat="46.56702" lon="0.6636">
        <ele>90.8</ele>
        <time>2024-08-24T14:25:26Z</time>
      </trkpt>
      <trkpt lat="46.56721" lon="0.66325">
        <ele>90.4</ele>
        <time>2024-08-24T14:25:35Z</time>
      </trkpt>
      <trkpt lat="46.5673" lon="0.66293">
        <ele>90.8</ele>
        <time>2024-08-24T14:25:41Z</time>
      </trkpt>
      <trkpt lat="46.56735" lon="0.66246">
        <ele>91.2</ele>
        <time>2024-08-24T14:25:49Z</time>
      </trkpt>
      <trkpt lat="46.56738" lon="0.66222">
        <ele>91</ele>
        <time>2024-08-24T14:25:53Z</time>
      </trkpt>
      <trkpt lat="46.5674" lon="0.66212">
        <ele>91</ele>
        <time>2024-08-24T14:25:55Z</time>
      </trkpt>
      <trkpt lat="46.56746" lon="0.66187">
        <ele>91.6</ele>
        <time>2024-08-24T14:26:00Z</time>
      </trkpt>
      <trkpt lat="46.56748" lon="0.66181">
        <ele>91.8</ele>
        <time>2024-08-24T14:26:01Z</time>
      </trkpt>
      <trkpt lat="46.56758" lon="0.66151">
        <ele>90.6</ele>
        <time>2024-08-24T14:26:06Z</time>
      </trkpt>
      <trkpt lat="46.56764" lon="0.6614">
        <ele>90</ele>
        <time>2024-08-24T14:26:08Z</time>
      </trkpt>
      <trkpt lat="46.56788" lon="0.66105">
        <ele>90</ele>
        <time>2024-08-24T14:26:15Z</time>
      </trkpt>
      <trkpt lat="46.56815" lon="0.66073">
        <ele>89.8</ele>
        <time>2024-08-24T14:26:22Z</time>
      </trkpt>
      <trkpt lat="46.56817" lon="0.66068">
        <ele>89.8</ele>
        <time>2024-08-24T14:26:23Z</time>
      </trkpt>
      <trkpt lat="46.5682" lon="0.66058">
        <ele>89.6</ele>
        <time>2024-08-24T14:26:25Z</time>
      </trkpt>
      <trkpt lat="46.5682" lon="0.66052">
        <ele>89.6</ele>
        <time>2024-08-24T14:26:26Z</time>
      </trkpt>
      <trkpt lat="46.5682" lon="0.66018">
        <ele>89.6</ele>
        <time>2024-08-24T14:26:31Z</time>
      </trkpt>
      <trkpt lat="46.56823" lon="0.65977">
        <ele>89.4</ele>
        <time>2024-08-24T14:26:37Z</time>
      </trkpt>
      <trkpt lat="46.56823" lon="0.65971">
        <ele>89.8</ele>
        <time>2024-08-24T14:26:38Z</time>
      </trkpt>
      <trkpt lat="46.56824" lon="0.65932">
        <ele>89.6</ele>
        <time>2024-08-24T14:26:43Z</time>
      </trkpt>
      <trkpt lat="46.56824" lon="0.65916">
        <ele>88.4</ele>
        <time>2024-08-24T14:26:45Z</time>
      </trkpt>
      <trkpt lat="46.56824" lon="0.65888">
        <ele>86.8</ele>
        <time>2024-08-24T14:26:48Z</time>
      </trkpt>
      <trkpt lat="46.56823" lon="0.65868">
        <ele>85.6</ele>
        <time>2024-08-24T14:26:50Z</time>
      </trkpt>
      <trkpt lat="46.56822" lon="0.65847">
        <ele>84.2</ele>
        <time>2024-08-24T14:26:52Z</time>
      </trkpt>
      <trkpt lat="46.5682" lon="0.65824">
        <ele>83</ele>
        <time>2024-08-24T14:26:54Z</time>
      </trkpt>
      <trkpt lat="46.56815" lon="0.65804">
        <ele>82.8</ele>
        <time>2024-08-24T14:26:56Z</time>
      </trkpt>
      <trkpt lat="46.56811" lon="0.65787">
        <ele>84</ele>
        <time>2024-08-24T14:26:58Z</time>
      </trkpt>
      <trkpt lat="46.56809" lon="0.65781">
        <ele>84.6</ele>
        <time>2024-08-24T14:26:59Z</time>
      </trkpt>
      <trkpt lat="46.56807" lon="0.65775">
        <ele>84.8</ele>
        <time>2024-08-24T14:27:00Z</time>
      </trkpt>
      <trkpt lat="46.56799" lon="0.65749">
        <ele>85.8</ele>
        <time>2024-08-24T14:27:05Z</time>
      </trkpt>
      <trkpt lat="46.56798" lon="0.65743">
        <ele>85.8</ele>
        <time>2024-08-24T14:27:06Z</time>
      </trkpt>
      <trkpt lat="46.5679" lon="0.65701">
        <ele>86.4</ele>
        <time>2024-08-24T14:27:12Z</time>
      </trkpt>
      <trkpt lat="46.56791" lon="0.65695">
        <ele>86.2</ele>
        <time>2024-08-24T14:27:13Z</time>
      </trkpt>
      <trkpt lat="46.56792" lon="0.65689">
        <ele>86</ele>
        <time>2024-08-24T14:27:14Z</time>
      </trkpt>
      <trkpt lat="46.56797" lon="0.65681">
        <ele>85.8</ele>
        <time>2024-08-24T14:27:16Z</time>
      </trkpt>
      <trkpt lat="46.56806" lon="0.65677">
        <ele>85.4</ele>
        <time>2024-08-24T14:27:18Z</time>
      </trkpt>
      <trkpt lat="46.5681" lon="0.65676">
        <ele>85.6</ele>
        <time>2024-08-24T14:27:19Z</time>
      </trkpt>
      <trkpt lat="46.56827" lon="0.65666">
        <ele>84.8</ele>
        <time>2024-08-24T14:27:24Z</time>
      </trkpt>
      <trkpt lat="46.56828" lon="0.65662">
        <ele>84.6</ele>
        <time>2024-08-24T14:27:25Z</time>
      </trkpt>
      <trkpt lat="46.56828" lon="0.65657">
        <ele>84.6</ele>
        <time>2024-08-24T14:27:26Z</time>
      </trkpt>
      <trkpt lat="46.56828" lon="0.65651">
        <ele>84.8</ele>
        <time>2024-08-24T14:27:27Z</time>
      </trkpt>
      <trkpt lat="46.56823" lon="0.65607">
        <ele>85.6</ele>
        <time>2024-08-24T14:27:34Z</time>
      </trkpt>
      <trkpt lat="46.56815" lon="0.65562">
        <ele>85.6</ele>
        <time>2024-08-24T14:27:41Z</time>
      </trkpt>
      <trkpt lat="46.56806" lon="0.65517">
        <ele>84.8</ele>
        <time>2024-08-24T14:27:48Z</time>
      </trkpt>
      <trkpt lat="46.56797" lon="0.6547">
        <ele>84.8</ele>
        <time>2024-08-24T14:27:55Z</time>
      </trkpt>
      <trkpt lat="46.56793" lon="0.65415">
        <ele>84.4</ele>
        <time>2024-08-24T14:28:02Z</time>
      </trkpt>
      <trkpt lat="46.5679" lon="0.65391">
        <ele>84.6</ele>
        <time>2024-08-24T14:28:05Z</time>
      </trkpt>
      <trkpt lat="46.56787" lon="0.65377">
        <ele>84.4</ele>
        <time>2024-08-24T14:28:07Z</time>
      </trkpt>
      <trkpt lat="46.56784" lon="0.65371">
        <ele>84.2</ele>
        <time>2024-08-24T14:28:08Z</time>
      </trkpt>
      <trkpt lat="46.5678" lon="0.65366">
        <ele>83.8</ele>
        <time>2024-08-24T14:28:09Z</time>
      </trkpt>
      <trkpt lat="46.56776" lon="0.65361">
        <ele>83.4</ele>
        <time>2024-08-24T14:28:10Z</time>
      </trkpt>
      <trkpt lat="46.56772" lon="0.65357">
        <ele>83</ele>
        <time>2024-08-24T14:28:11Z</time>
      </trkpt>
      <trkpt lat="46.56767" lon="0.65353">
        <ele>82.6</ele>
        <time>2024-08-24T14:28:12Z</time>
      </trkpt>
      <trkpt lat="46.56762" lon="0.65349">
        <ele>82.2</ele>
        <time>2024-08-24T14:28:13Z</time>
      </trkpt>
      <trkpt lat="46.56758" lon="0.65344">
        <ele>81.6</ele>
        <time>2024-08-24T14:28:14Z</time>
      </trkpt>
      <trkpt lat="46.56754" lon="0.65338">
        <ele>80.8</ele>
        <time>2024-08-24T14:28:15Z</time>
      </trkpt>
      <trkpt lat="46.56752" lon="0.65332">
        <ele>80.2</ele>
        <time>2024-08-24T14:28:16Z</time>
      </trkpt>
      <trkpt lat="46.56745" lon="0.65312">
        <ele>79.4</ele>
        <time>2024-08-24T14:28:19Z</time>
      </trkpt>
      <trkpt lat="46.5674" lon="0.65297">
        <ele>78.2</ele>
        <time>2024-08-24T14:28:21Z</time>
      </trkpt>
      <trkpt lat="46.56739" lon="0.6529">
        <ele>76</ele>
        <time>2024-08-24T14:28:22Z</time>
      </trkpt>
      <trkpt lat="46.56736" lon="0.65276">
        <ele>75</ele>
        <time>2024-08-24T14:28:24Z</time>
      </trkpt>
      <trkpt lat="46.56735" lon="0.65263">
        <ele>73.4</ele>
        <time>2024-08-24T14:28:26Z</time>
      </trkpt>
      <trkpt lat="46.56733" lon="0.65251">
        <ele>72.2</ele>
        <time>2024-08-24T14:28:28Z</time>
      </trkpt>
      <trkpt lat="46.56733" lon="0.65244">
        <ele>71.6</ele>
        <time>2024-08-24T14:28:29Z</time>
      </trkpt>
      <trkpt lat="46.56732" lon="0.6524">
        <ele>71</ele>
        <time>2024-08-24T14:28:30Z</time>
      </trkpt>
      <trkpt lat="46.56728" lon="0.65231">
        <ele>70</ele>
        <time>2024-08-24T14:28:32Z</time>
      </trkpt>
      <trkpt lat="46.56726" lon="0.65228">
        <ele>69.6</ele>
        <time>2024-08-24T14:28:33Z</time>
      </trkpt>
      <trkpt lat="46.56715" lon="0.65202">
        <ele>68.4</ele>
        <time>2024-08-24T14:28:38Z</time>
      </trkpt>
      <trkpt lat="46.56712" lon="0.65197">
        <ele>68</ele>
        <time>2024-08-24T14:28:39Z</time>
      </trkpt>
      <trkpt lat="46.56702" lon="0.65171">
        <ele>67</ele>
        <time>2024-08-24T14:28:43Z</time>
      </trkpt>
      <trkpt lat="46.56696" lon="0.65156">
        <ele>66.2</ele>
        <time>2024-08-24T14:28:45Z</time>
      </trkpt>
      <trkpt lat="46.56691" lon="0.65139">
        <ele>65.8</ele>
        <time>2024-08-24T14:28:47Z</time>
      </trkpt>
      <trkpt lat="46.56683" lon="0.65105">
        <ele>63.8</ele>
        <time>2024-08-24T14:28:51Z</time>
      </trkpt>
      <trkpt lat="46.56679" lon="0.65069">
        <ele>62.6</ele>
        <time>2024-08-24T14:28:56Z</time>
      </trkpt>
      <trkpt lat="46.5668" lon="0.65053">
        <ele>61</ele>
        <time>2024-08-24T14:28:59Z</time>
      </trkpt>
      <trkpt lat="46.56682" lon="0.65046">
        <ele>60.2</ele>
        <time>2024-08-24T14:29:01Z</time>
      </trkpt>
      <trkpt lat="46.56682" lon="0.65042">
        <ele>59.8</ele>
        <time>2024-08-24T14:29:02Z</time>
      </trkpt>
      <trkpt lat="46.56683" lon="0.65024">
        <ele>58.6</ele>
        <time>2024-08-24T14:29:06Z</time>
      </trkpt>
      <trkpt lat="46.56685" lon="0.65019">
        <ele>58.4</ele>
        <time>2024-08-24T14:29:07Z</time>
      </trkpt>
      <trkpt lat="46.56691" lon="0.65007">
        <ele>57.8</ele>
        <time>2024-08-24T14:29:09Z</time>
      </trkpt>
      <trkpt lat="46.56696" lon="0.65">
        <ele>57.6</ele>
        <time>2024-08-24T14:29:10Z</time>
      </trkpt>
      <trkpt lat="46.567" lon="0.64994">
        <ele>56.4</ele>
        <time>2024-08-24T14:29:11Z</time>
      </trkpt>
      <trkpt lat="46.5671" lon="0.64983">
        <ele>55.2</ele>
        <time>2024-08-24T14:29:13Z</time>
      </trkpt>
      <trkpt lat="46.56714" lon="0.64978">
        <ele>54.6</ele>
        <time>2024-08-24T14:29:14Z</time>
      </trkpt>
      <trkpt lat="46.56717" lon="0.64975">
        <ele>54.4</ele>
        <time>2024-08-24T14:29:15Z</time>
      </trkpt>
      <trkpt lat="46.56727" lon="0.64973">
        <ele>54</ele>
        <time>2024-08-24T14:29:18Z</time>
      </trkpt>
      <trkpt lat="46.56742" lon="0.64978">
        <ele>54.4</ele>
        <time>2024-08-24T14:29:23Z</time>
      </trkpt>
      <trkpt lat="46.56745" lon="0.64975">
        <ele>54.6</ele>
        <time>2024-08-24T14:29:24Z</time>
      </trkpt>
      <trkpt lat="46.5675" lon="0.64965">
        <ele>54.6</ele>
        <time>2024-08-24T14:29:26Z</time>
      </trkpt>
      <trkpt lat="46.5676" lon="0.64943">
        <ele>54.4</ele>
        <time>2024-08-24T14:29:30Z</time>
      </trkpt>
      <trkpt lat="46.56764" lon="0.64935">
        <ele>54</ele>
        <time>2024-08-24T14:29:32Z</time>
      </trkpt>
      <trkpt lat="46.56772" lon="0.64926">
        <ele>53.4</ele>
        <time>2024-08-24T14:29:37Z</time>
      </trkpt>
      <trkpt lat="46.56783" lon="0.6492">
        <ele>53</ele>
        <time>2024-08-24T14:29:43Z</time>
      </trkpt>
      <trkpt lat="46.56786" lon="0.6492">
        <ele>53</ele>
        <time>2024-08-24T14:29:44Z</time>
      </trkpt>
      <trkpt lat="46.56805" lon="0.64918">
        <ele>53.2</ele>
        <time>2024-08-24T14:29:50Z</time>
      </trkpt>
      <trkpt lat="46.5682" lon="0.64918">
        <ele>53.2</ele>
        <time>2024-08-24T14:29:58Z</time>
      </trkpt>
      <trkpt lat="46.56827" lon="0.64923">
        <ele>52.8</ele>
        <time>2024-08-24T14:30:03Z</time>
      </trkpt>
      <trkpt lat="46.56846" lon="0.64938">
        <ele>54.4</ele>
        <time>2024-08-24T14:30:10Z</time>
      </trkpt>
      <trkpt lat="46.56853" lon="0.6494">
        <ele>55.2</ele>
        <time>2024-08-24T14:30:13Z</time>
      </trkpt>
      <trkpt lat="46.56855" lon="0.64938">
        <ele>55.4</ele>
        <time>2024-08-24T14:30:14Z</time>
      </trkpt>
      <trkpt lat="46.56858" lon="0.64933">
        <ele>56.4</ele>
        <time>2024-08-24T14:30:16Z</time>
      </trkpt>
      <trkpt lat="46.56859" lon="0.64931">
        <ele>57.8</ele>
        <time>2024-08-24T14:30:18Z</time>
      </trkpt>
      <trkpt lat="46.56859" lon="0.64929">
        <ele>58.2</ele>
        <time>2024-08-24T14:30:19Z</time>
      </trkpt>
      <trkpt lat="46.56859" lon="0.64926">
        <ele>59</ele>
        <time>2024-08-24T14:30:21Z</time>
      </trkpt>
      <trkpt lat="46.56859" lon="0.64923">
        <ele>59.4</ele>
        <time>2024-08-24T14:30:22Z</time>
      </trkpt>
      <trkpt lat="46.56861" lon="0.64917">
        <ele>59.6</ele>
        <time>2024-08-24T14:30:25Z</time>
      </trkpt>
      <trkpt lat="46.56862" lon="0.64912">
        <ele>60</ele>
        <time>2024-08-24T14:30:28Z</time>
      </trkpt>
      <trkpt lat="46.56863" lon="0.6491">
        <ele>60.2</ele>
        <time>2024-08-24T14:30:29Z</time>
      </trkpt>
      <trkpt lat="46.56864" lon="0.64908">
        <ele>60.2</ele>
        <time>2024-08-24T14:30:30Z</time>
      </trkpt>
      <trkpt lat="46.56867" lon="0.64907">
        <ele>60.2</ele>
        <time>2024-08-24T14:30:32Z</time>
      </trkpt>
      <trkpt lat="46.56871" lon="0.64905">
        <ele>60.6</ele>
        <time>2024-08-24T14:30:35Z</time>
      </trkpt>
      <trkpt lat="46.56879" lon="0.64899">
        <ele>61.2</ele>
        <time>2024-08-24T14:30:41Z</time>
      </trkpt>
      <trkpt lat="46.56882" lon="0.64898">
        <ele>61.6</ele>
        <time>2024-08-24T14:30:43Z</time>
      </trkpt>
      <trkpt lat="46.56885" lon="0.64895">
        <ele>62.4</ele>
        <time>2024-08-24T14:30:46Z</time>
      </trkpt>
      <trkpt lat="46.56891" lon="0.64886">
        <ele>63.4</ele>
        <time>2024-08-24T14:30:51Z</time>
      </trkpt>
      <trkpt lat="46.56898" lon="0.64878">
        <ele>64.6</ele>
        <time>2024-08-24T14:30:58Z</time>
      </trkpt>
      <trkpt lat="46.56905" lon="0.64874">
        <ele>65.6</ele>
        <time>2024-08-24T14:31:04Z</time>
      </trkpt>
      <trkpt lat="46.56906" lon="0.64873">
        <ele>65.8</ele>
        <time>2024-08-24T14:31:05Z</time>
      </trkpt>
      <trkpt lat="46.56909" lon="0.64871">
        <ele>66.8</ele>
        <time>2024-08-24T14:31:07Z</time>
      </trkpt>
      <trkpt lat="46.56913" lon="0.64869">
        <ele>67.8</ele>
        <time>2024-08-24T14:31:10Z</time>
      </trkpt>
      <trkpt lat="46.56915" lon="0.64865">
        <ele>68.4</ele>
        <time>2024-08-24T14:31:12Z</time>
      </trkpt>
      <trkpt lat="46.56918" lon="0.64863">
        <ele>69.2</ele>
        <time>2024-08-24T14:31:15Z</time>
      </trkpt>
      <trkpt lat="46.56923" lon="0.64859">
        <ele>70.4</ele>
        <time>2024-08-24T14:31:19Z</time>
      </trkpt>
      <trkpt lat="46.56932" lon="0.64858">
        <ele>71.2</ele>
        <time>2024-08-24T14:31:26Z</time>
      </trkpt>
      <trkpt lat="46.56933" lon="0.64856">
        <ele>71.4</ele>
        <time>2024-08-24T14:31:27Z</time>
      </trkpt>
      <trkpt lat="46.56937" lon="0.64851">
        <ele>72.2</ele>
        <time>2024-08-24T14:31:32Z</time>
      </trkpt>
      <trkpt lat="46.56938" lon="0.64854">
        <ele>72.4</ele>
        <time>2024-08-24T14:31:34Z</time>
      </trkpt>
      <trkpt lat="46.56938" lon="0.64859">
        <ele>72.8</ele>
        <time>2024-08-24T14:31:37Z</time>
      </trkpt>
      <trkpt lat="46.56938" lon="0.64863">
        <ele>73.8</ele>
        <time>2024-08-24T14:31:39Z</time>
      </trkpt>
      <trkpt lat="46.56938" lon="0.64867">
        <ele>75</ele>
        <time>2024-08-24T14:31:41Z</time>
      </trkpt>
      <trkpt lat="46.5694" lon="0.64872">
        <ele>75.4</ele>
        <time>2024-08-24T14:31:44Z</time>
      </trkpt>
      <trkpt lat="46.5694" lon="0.64872">
        <ele>76.2</ele>
        <time>2024-08-24T14:31:49Z</time>
      </trkpt>
      <trkpt lat="46.56944" lon="0.64884">
        <ele>77.2</ele>
        <time>2024-08-24T14:31:51Z</time>
      </trkpt>
      <trkpt lat="46.56944" lon="0.64885">
        <ele>77.6</ele>
        <time>2024-08-24T14:31:52Z</time>
      </trkpt>
      <trkpt lat="46.56947" lon="0.64889">
        <ele>78.4</ele>
        <time>2024-08-24T14:31:55Z</time>
      </trkpt>
      <trkpt lat="46.5695" lon="0.64896">
        <ele>79.4</ele>
        <time>2024-08-24T14:31:59Z</time>
      </trkpt>
      <trkpt lat="46.5695" lon="0.64897">
        <ele>79.6</ele>
        <time>2024-08-24T14:32:00Z</time>
      </trkpt>
      <trkpt lat="46.56951" lon="0.64901">
        <ele>80.6</ele>
        <time>2024-08-24T14:32:02Z</time>
      </trkpt>
      <trkpt lat="46.5695" lon="0.64912">
        <ele>81.2</ele>
        <time>2024-08-24T14:32:07Z</time>
      </trkpt>
      <trkpt lat="46.56952" lon="0.6492">
        <ele>81.6</ele>
        <time>2024-08-24T14:32:13Z</time>
      </trkpt>
      <trkpt lat="46.56954" lon="0.64916">
        <ele>82.6</ele>
        <time>2024-08-24T14:32:15Z</time>
      </trkpt>
      <trkpt lat="46.56955" lon="0.64914">
        <ele>82.8</ele>
        <time>2024-08-24T14:32:16Z</time>
      </trkpt>
      <trkpt lat="46.56956" lon="0.64908">
        <ele>83.2</ele>
        <time>2024-08-24T14:32:18Z</time>
      </trkpt>
      <trkpt lat="46.56958" lon="0.64896">
        <ele>83.8</ele>
        <time>2024-08-24T14:32:23Z</time>
      </trkpt>
      <trkpt lat="46.56959" lon="0.64894">
        <ele>83.8</ele>
        <time>2024-08-24T14:32:24Z</time>
      </trkpt>
      <trkpt lat="46.5696" lon="0.64892">
        <ele>84</ele>
        <time>2024-08-24T14:32:25Z</time>
      </trkpt>
      <trkpt lat="46.56966" lon="0.64886">
        <ele>84.2</ele>
        <time>2024-08-24T14:32:29Z</time>
      </trkpt>
      <trkpt lat="46.56973" lon="0.64887">
        <ele>83.8</ele>
        <time>2024-08-24T14:32:34Z</time>
      </trkpt>
      <trkpt lat="46.56974" lon="0.64887">
        <ele>82.8</ele>
        <time>2024-08-24T14:32:36Z</time>
      </trkpt>
      <trkpt lat="46.56976" lon="0.6489">
        <ele>82.4</ele>
        <time>2024-08-24T14:32:40Z</time>
      </trkpt>
      <trkpt lat="46.56976" lon="0.64891">
        <ele>84</ele>
        <time>2024-08-24T14:32:43Z</time>
      </trkpt>
      <trkpt lat="46.56975" lon="0.64893">
        <ele>85.6</ele>
        <time>2024-08-24T14:32:45Z</time>
      </trkpt>
      <trkpt lat="46.56978" lon="0.64896">
        <ele>86.4</ele>
        <time>2024-08-24T14:32:52Z</time>
      </trkpt>
      <trkpt lat="46.56979" lon="0.64897">
        <ele>86.6</ele>
        <time>2024-08-24T14:32:55Z</time>
      </trkpt>
      <trkpt lat="46.56982" lon="0.64901">
        <ele>86.6</ele>
        <time>2024-08-24T14:33:06Z</time>
      </trkpt>
      <trkpt lat="46.5698" lon="0.64906">
        <ele>86</ele>
        <time>2024-08-24T14:33:20Z</time>
      </trkpt>
      <trkpt lat="46.56979" lon="0.64906">
        <ele>86.4</ele>
        <time>2024-08-24T14:33:32Z</time>
      </trkpt>
      <trkpt lat="46.56979" lon="0.64907">
        <ele>86.4</ele>
        <time>2024-08-24T14:33:49Z</time>
      </trkpt>
      <trkpt lat="46.56979" lon="0.64906">
        <ele>85.6</ele>
        <time>2024-08-24T14:34:49Z</time>
      </trkpt>
      <trkpt lat="46.56979" lon="0.64906">
        <ele>85.6</ele>
        <time>2024-08-24T14:34:51Z</time>
      </trkpt>
      <trkpt lat="46.56979" lon="0.64906">
        <ele>85.6</ele>
        <time>2024-08-24T14:36:07Z</time>
      </trkpt>
      <trkpt lat="46.56979" lon="0.64905">
        <ele>85.4</ele>
        <time>2024-08-24T14:36:51Z</time>
      </trkpt>
      <trkpt lat="46.56979" lon="0.64905">
        <ele>85.4</ele>
        <time>2024-08-24T14:36:55Z</time>
      </trkpt>
      <trkpt lat="46.56979" lon="0.64906">
        <ele>85.4</ele>
        <time>2024-08-24T14:37:57Z</time>
      </trkpt>
      <trkpt lat="46.56978" lon="0.64906">
        <ele>85.4</ele>
        <time>2024-08-24T14:40:13Z</time>
      </trkpt>
      <trkpt lat="46.56978" lon="0.64906">
        <ele>85.4</ele>
        <time>2024-08-24T14:41:26Z</time>
      </trkpt>
      <trkpt lat="46.56978" lon="0.64906">
        <ele>85.4</ele>
        <time>2024-08-24T14:42:07Z</time>
      </trkpt>
      <trkpt lat="46.56978" lon="0.64906">
        <ele>85.4</ele>
        <time>2024-08-24T14:42:49Z</time>
      </trkpt>
      <trkpt lat="46.56978" lon="0.64906">
        <ele>85.4</ele>
        <time>2024-08-24T14:44:12Z</time>
      </trkpt>
      <trkpt lat="46.56978" lon="0.64904">
        <ele>85.4</ele>
        <time>2024-08-24T14:44:52Z</time>
      </trkpt>
      <trkpt lat="46.56988" lon="0.64894">
        <ele>85.4</ele>
        <time>2024-08-24T14:45:02Z</time>
      </trkpt>
      <trkpt lat="46.56996" lon="0.6489">
        <ele>85.4</ele>
        <time>2024-08-24T14:45:07Z</time>
      </trkpt>
      <trkpt lat="46.57009" lon="0.64887">
        <ele>85.6</ele>
        <time>2024-08-24T14:45:14Z</time>
      </trkpt>
      <trkpt lat="46.57018" lon="0.64886">
        <ele>86.6</ele>
        <time>2024-08-24T14:45:20Z</time>
      </trkpt>
      <trkpt lat="46.57021" lon="0.64885">
        <ele>87.2</ele>
        <time>2024-08-24T14:45:22Z</time>
      </trkpt>
      <trkpt lat="46.57027" lon="0.64885">
        <ele>87.8</ele>
        <time>2024-08-24T14:45:25Z</time>
      </trkpt>
      <trkpt lat="46.57033" lon="0.64886">
        <ele>88</ele>
        <time>2024-08-24T14:45:27Z</time>
      </trkpt>
      <trkpt lat="46.57053" lon="0.64892">
        <ele>88.2</ele>
        <time>2024-08-24T14:45:36Z</time>
      </trkpt>
      <trkpt lat="46.5707" lon="0.64897">
        <ele>87.6</ele>
        <time>2024-08-24T14:45:42Z</time>
      </trkpt>
      <trkpt lat="46.57087" lon="0.649">
        <ele>86.8</ele>
        <time>2024-08-24T14:45:46Z</time>
      </trkpt>
      <trkpt lat="46.57095" lon="0.649">
        <ele>87</ele>
        <time>2024-08-24T14:45:48Z</time>
      </trkpt>
      <trkpt lat="46.57101" lon="0.6489">
        <ele>87</ele>
        <time>2024-08-24T14:45:51Z</time>
      </trkpt>
      <trkpt lat="46.57106" lon="0.64862">
        <ele>88.6</ele>
        <time>2024-08-24T14:45:57Z</time>
      </trkpt>
      <trkpt lat="46.57106" lon="0.64856">
        <ele>89.2</ele>
        <time>2024-08-24T14:45:58Z</time>
      </trkpt>
      <trkpt lat="46.57105" lon="0.6484">
        <ele>90.6</ele>
        <time>2024-08-24T14:46:01Z</time>
      </trkpt>
      <trkpt lat="46.57104" lon="0.64823">
        <ele>91.4</ele>
        <time>2024-08-24T14:46:04Z</time>
      </trkpt>
      <trkpt lat="46.57103" lon="0.64817">
        <ele>91.8</ele>
        <time>2024-08-24T14:46:05Z</time>
      </trkpt>
      <trkpt lat="46.57103" lon="0.64805">
        <ele>92.8</ele>
        <time>2024-08-24T14:46:07Z</time>
      </trkpt>
      <trkpt lat="46.57104" lon="0.64795">
        <ele>94</ele>
        <time>2024-08-24T14:46:09Z</time>
      </trkpt>
      <trkpt lat="46.57105" lon="0.6479">
        <ele>94.2</ele>
        <time>2024-08-24T14:46:10Z</time>
      </trkpt>
      <trkpt lat="46.57107" lon="0.64772">
        <ele>94.8</ele>
        <time>2024-08-24T14:46:15Z</time>
      </trkpt>
      <trkpt lat="46.57108" lon="0.64767">
        <ele>95</ele>
        <time>2024-08-24T14:46:18Z</time>
      </trkpt>
      <trkpt lat="46.57107" lon="0.64765">
        <ele>95</ele>
        <time>2024-08-24T14:46:20Z</time>
      </trkpt>
      <trkpt lat="46.57105" lon="0.64763">
        <ele>95</ele>
        <time>2024-08-24T14:46:22Z</time>
      </trkpt>
      <trkpt lat="46.57104" lon="0.64765">
        <ele>95</ele>
        <time>2024-08-24T14:46:27Z</time>
      </trkpt>
      <trkpt lat="46.57105" lon="0.64768">
        <ele>95</ele>
        <time>2024-08-24T14:46:30Z</time>
      </trkpt>
      <trkpt lat="46.57106" lon="0.64768">
        <ele>94.6</ele>
        <time>2024-08-24T14:46:34Z</time>
      </trkpt>
      <trkpt lat="46.57106" lon="0.6477">
        <ele>94.6</ele>
        <time>2024-08-24T14:46:37Z</time>
      </trkpt>
      <trkpt lat="46.57106" lon="0.64773">
        <ele>94.6</ele>
        <time>2024-08-24T14:46:40Z</time>
      </trkpt>
      <trkpt lat="46.57107" lon="0.64773">
        <ele>94.6</ele>
        <time>2024-08-24T14:46:42Z</time>
      </trkpt>
      <trkpt lat="46.57108" lon="0.64771">
        <ele>94.6</ele>
        <time>2024-08-24T14:46:44Z</time>
      </trkpt>
      <trkpt lat="46.57105" lon="0.6477">
        <ele>94.4</ele>
        <time>2024-08-24T14:46:47Z</time>
      </trkpt>
      <trkpt lat="46.57103" lon="0.64769">
        <ele>94.4</ele>
        <time>2024-08-24T14:46:49Z</time>
      </trkpt>
      <trkpt lat="46.57102" lon="0.64769">
        <ele>94.2</ele>
        <time>2024-08-24T14:46:51Z</time>
      </trkpt>
      <trkpt lat="46.57101" lon="0.64769">
        <ele>94.2</ele>
        <time>2024-08-24T14:46:53Z</time>
      </trkpt>
      <trkpt lat="46.57099" lon="0.6477">
        <ele>94</ele>
        <time>2024-08-24T14:46:55Z</time>
      </trkpt>
      <trkpt lat="46.57098" lon="0.6477">
        <ele>93.6</ele>
        <time>2024-08-24T14:46:56Z</time>
      </trkpt>
      <trkpt lat="46.57093" lon="0.64768">
        <ele>92.8</ele>
        <time>2024-08-24T14:47:00Z</time>
      </trkpt>
      <trkpt lat="46.57078" lon="0.64771">
        <ele>92</ele>
        <time>2024-08-24T14:47:06Z</time>
      </trkpt>
      <trkpt lat="46.5707" lon="0.64775">
        <ele>91.8</ele>
        <time>2024-08-24T14:47:08Z</time>
      </trkpt>
      <trkpt lat="46.57066" lon="0.64777">
        <ele>91.2</ele>
        <time>2024-08-24T14:47:09Z</time>
      </trkpt>
      <trkpt lat="46.57059" lon="0.64779">
        <ele>89.8</ele>
        <time>2024-08-24T14:47:11Z</time>
      </trkpt>
      <trkpt lat="46.57048" lon="0.64785">
        <ele>88.6</ele>
        <time>2024-08-24T14:47:14Z</time>
      </trkpt>
      <trkpt lat="46.57036" lon="0.64793">
        <ele>87.6</ele>
        <time>2024-08-24T14:47:17Z</time>
      </trkpt>
      <trkpt lat="46.57031" lon="0.64796">
        <ele>86.2</ele>
        <time>2024-08-24T14:47:18Z</time>
      </trkpt>
      <trkpt lat="46.57026" lon="0.64799">
        <ele>85</ele>
        <time>2024-08-24T14:47:19Z</time>
      </trkpt>
      <trkpt lat="46.57016" lon="0.64807">
        <ele>83.6</ele>
        <time>2024-08-24T14:47:21Z</time>
      </trkpt>
      <trkpt lat="46.57005" lon="0.64815">
        <ele>82.6</ele>
        <time>2024-08-24T14:47:23Z</time>
      </trkpt>
      <trkpt lat="46.56983" lon="0.64836">
        <ele>81.4</ele>
        <time>2024-08-24T14:47:27Z</time>
      </trkpt>
      <trkpt lat="46.56978" lon="0.64841">
        <ele>80.8</ele>
        <time>2024-08-24T14:47:28Z</time>
      </trkpt>
      <trkpt lat="46.56973" lon="0.64843">
        <ele>80.4</ele>
        <time>2024-08-24T14:47:29Z</time>
      </trkpt>
      <trkpt lat="46.56968" lon="0.64845">
        <ele>80.2</ele>
        <time>2024-08-24T14:47:30Z</time>
      </trkpt>
      <trkpt lat="46.56964" lon="0.64846">
        <ele>79.6</ele>
        <time>2024-08-24T14:47:31Z</time>
      </trkpt>
      <trkpt lat="46.5696" lon="0.64847">
        <ele>79.2</ele>
        <time>2024-08-24T14:47:32Z</time>
      </trkpt>
      <trkpt lat="46.56957" lon="0.64848">
        <ele>79</ele>
        <time>2024-08-24T14:47:33Z</time>
      </trkpt>
      <trkpt lat="46.56953" lon="0.64852">
        <ele>78.8</ele>
        <time>2024-08-24T14:47:35Z</time>
      </trkpt>
      <trkpt lat="46.56948" lon="0.64864">
        <ele>79.4</ele>
        <time>2024-08-24T14:47:41Z</time>
      </trkpt>
      <trkpt lat="46.56952" lon="0.64877">
        <ele>79.8</ele>
        <time>2024-08-24T14:47:46Z</time>
      </trkpt>
      <trkpt lat="46.56957" lon="0.64882">
        <ele>80.4</ele>
        <time>2024-08-24T14:47:49Z</time>
      </trkpt>
      <trkpt lat="46.56959" lon="0.64883">
        <ele>80.6</ele>
        <time>2024-08-24T14:47:50Z</time>
      </trkpt>
      <trkpt lat="46.56965" lon="0.64886">
        <ele>81.4</ele>
        <time>2024-08-24T14:47:53Z</time>
      </trkpt>
      <trkpt lat="46.56967" lon="0.64886">
        <ele>81.4</ele>
        <time>2024-08-24T14:47:54Z</time>
      </trkpt>
      <trkpt lat="46.56978" lon="0.64885">
        <ele>80.4</ele>
        <time>2024-08-24T14:47:59Z</time>
      </trkpt>
      <trkpt lat="46.56979" lon="0.64884">
        <ele>80.4</ele>
        <time>2024-08-24T14:48:00Z</time>
      </trkpt>
      <trkpt lat="46.56986" lon="0.64882">
        <ele>81.4</ele>
        <time>2024-08-24T14:48:04Z</time>
      </trkpt>
      <trkpt lat="46.56993" lon="0.6488">
        <ele>83</ele>
        <time>2024-08-24T14:48:07Z</time>
      </trkpt>
      <trkpt lat="46.56997" lon="0.6488">
        <ele>84</ele>
        <time>2024-08-24T14:48:09Z</time>
      </trkpt>
      <trkpt lat="46.57003" lon="0.6488">
        <ele>84.4</ele>
        <time>2024-08-24T14:48:11Z</time>
      </trkpt>
      <trkpt lat="46.57012" lon="0.6488">
        <ele>85</ele>
        <time>2024-08-24T14:48:14Z</time>
      </trkpt>
      <trkpt lat="46.57024" lon="0.64877">
        <ele>86.2</ele>
        <time>2024-08-24T14:48:18Z</time>
      </trkpt>
      <trkpt lat="46.57028" lon="0.64878">
        <ele>86.8</ele>
        <time>2024-08-24T14:48:20Z</time>
      </trkpt>
      <trkpt lat="46.5703" lon="0.6488">
        <ele>87</ele>
        <time>2024-08-24T14:48:21Z</time>
      </trkpt>
      <trkpt lat="46.57042" lon="0.64884">
        <ele>87.2</ele>
        <time>2024-08-24T14:48:25Z</time>
      </trkpt>
      <trkpt lat="46.57047" lon="0.64887">
        <ele>87.4</ele>
        <time>2024-08-24T14:48:27Z</time>
      </trkpt>
      <trkpt lat="46.57068" lon="0.64893">
        <ele>87.2</ele>
        <time>2024-08-24T14:48:33Z</time>
      </trkpt>
      <trkpt lat="46.57081" lon="0.64897">
        <ele>86.2</ele>
        <time>2024-08-24T14:48:36Z</time>
      </trkpt>
      <trkpt lat="46.57086" lon="0.64897">
        <ele>86</ele>
        <time>2024-08-24T14:48:37Z</time>
      </trkpt>
      <trkpt lat="46.57094" lon="0.64897">
        <ele>85.6</ele>
        <time>2024-08-24T14:48:39Z</time>
      </trkpt>
      <trkpt lat="46.57099" lon="0.64892">
        <ele>85.6</ele>
        <time>2024-08-24T14:48:41Z</time>
      </trkpt>
      <trkpt lat="46.57101" lon="0.64888">
        <ele>85.8</ele>
        <time>2024-08-24T14:48:42Z</time>
      </trkpt>
      <trkpt lat="46.57106" lon="0.64868">
        <ele>87.2</ele>
        <time>2024-08-24T14:48:48Z</time>
      </trkpt>
      <trkpt lat="46.57107" lon="0.64865">
        <ele>87.8</ele>
        <time>2024-08-24T14:48:49Z</time>
      </trkpt>
      <trkpt lat="46.57108" lon="0.64853">
        <ele>89</ele>
        <time>2024-08-24T14:48:53Z</time>
      </trkpt>
      <trkpt lat="46.57108" lon="0.64846">
        <ele>89.2</ele>
        <time>2024-08-24T14:48:55Z</time>
      </trkpt>
      <trkpt lat="46.57108" lon="0.64835">
        <ele>90</ele>
        <time>2024-08-24T14:48:58Z</time>
      </trkpt>
      <trkpt lat="46.57106" lon="0.64819">
        <ele>91.4</ele>
        <time>2024-08-24T14:49:03Z</time>
      </trkpt>
      <trkpt lat="46.57106" lon="0.64816">
        <ele>91.8</ele>
        <time>2024-08-24T14:49:04Z</time>
      </trkpt>
      <trkpt lat="46.57106" lon="0.64798">
        <ele>92.4</ele>
        <time>2024-08-24T14:49:10Z</time>
      </trkpt>
      <trkpt lat="46.57107" lon="0.64793">
        <ele>92.4</ele>
        <time>2024-08-24T14:49:12Z</time>
      </trkpt>
      <trkpt lat="46.57107" lon="0.64782">
        <ele>93.6</ele>
        <time>2024-08-24T14:49:16Z</time>
      </trkpt>
      <trkpt lat="46.57111" lon="0.64773">
        <ele>93.8</ele>
        <time>2024-08-24T14:49:20Z</time>
      </trkpt>
      <trkpt lat="46.57111" lon="0.64772">
        <ele>93.8</ele>
        <time>2024-08-24T14:49:21Z</time>
      </trkpt>
      <trkpt lat="46.57109" lon="0.64764">
        <ele>93.4</ele>
        <time>2024-08-24T14:49:28Z</time>
      </trkpt>
      <trkpt lat="46.57108" lon="0.64764">
        <ele>93.4</ele>
        <time>2024-08-24T14:49:29Z</time>
      </trkpt>
      <trkpt lat="46.57098" lon="0.64765">
        <ele>93</ele>
        <time>2024-08-24T14:49:36Z</time>
      </trkpt>
      <trkpt lat="46.57097" lon="0.6476">
        <ele>92.2</ele>
        <time>2024-08-24T14:49:38Z</time>
      </trkpt>
      <trkpt lat="46.57096" lon="0.64758">
        <ele>91.8</ele>
        <time>2024-08-24T14:49:39Z</time>
      </trkpt>
      <trkpt lat="46.57096" lon="0.64746">
        <ele>91.2</ele>
        <time>2024-08-24T14:49:42Z</time>
      </trkpt>
      <trkpt lat="46.57097" lon="0.64727">
        <ele>90</ele>
        <time>2024-08-24T14:49:45Z</time>
      </trkpt>
      <trkpt lat="46.57099" lon="0.6472">
        <ele>88.6</ele>
        <time>2024-08-24T14:49:46Z</time>
      </trkpt>
      <trkpt lat="46.57102" lon="0.64706">
        <ele>86.8</ele>
        <time>2024-08-24T14:49:48Z</time>
      </trkpt>
      <trkpt lat="46.57106" lon="0.64692">
        <ele>85.4</ele>
        <time>2024-08-24T14:49:50Z</time>
      </trkpt>
      <trkpt lat="46.57111" lon="0.64677">
        <ele>84.4</ele>
        <time>2024-08-24T14:49:52Z</time>
      </trkpt>
      <trkpt lat="46.57116" lon="0.64659">
        <ele>82.6</ele>
        <time>2024-08-24T14:49:54Z</time>
      </trkpt>
      <trkpt lat="46.57121" lon="0.64639">
        <ele>80.2</ele>
        <time>2024-08-24T14:49:56Z</time>
      </trkpt>
      <trkpt lat="46.57124" lon="0.64628">
        <ele>79</ele>
        <time>2024-08-24T14:49:57Z</time>
      </trkpt>
      <trkpt lat="46.5713" lon="0.64607">
        <ele>78</ele>
        <time>2024-08-24T14:49:59Z</time>
      </trkpt>
      <trkpt lat="46.57135" lon="0.6459">
        <ele>76</ele>
        <time>2024-08-24T14:50:01Z</time>
      </trkpt>
      <trkpt lat="46.57138" lon="0.64583">
        <ele>74.8</ele>
        <time>2024-08-24T14:50:02Z</time>
      </trkpt>
      <trkpt lat="46.5714" lon="0.64576">
        <ele>72.4</ele>
        <time>2024-08-24T14:50:03Z</time>
      </trkpt>
      <trkpt lat="46.57142" lon="0.6457">
        <ele>71.2</ele>
        <time>2024-08-24T14:50:04Z</time>
      </trkpt>
      <trkpt lat="46.57143" lon="0.64566">
        <ele>69.6</ele>
        <time>2024-08-24T14:50:05Z</time>
      </trkpt>
      <trkpt lat="46.57144" lon="0.64561">
        <ele>68.4</ele>
        <time>2024-08-24T14:50:06Z</time>
      </trkpt>
      <trkpt lat="46.57144" lon="0.64557">
        <ele>67.2</ele>
        <time>2024-08-24T14:50:07Z</time>
      </trkpt>
      <trkpt lat="46.57146" lon="0.64554">
        <ele>65.8</ele>
        <time>2024-08-24T14:50:08Z</time>
      </trkpt>
      <trkpt lat="46.57148" lon="0.64547">
        <ele>64.6</ele>
        <time>2024-08-24T14:50:10Z</time>
      </trkpt>
      <trkpt lat="46.57154" lon="0.64537">
        <ele>62.4</ele>
        <time>2024-08-24T14:50:13Z</time>
      </trkpt>
      <trkpt lat="46.57156" lon="0.64533">
        <ele>61.4</ele>
        <time>2024-08-24T14:50:14Z</time>
      </trkpt>
      <trkpt lat="46.57158" lon="0.6453">
        <ele>60</ele>
        <time>2024-08-24T14:50:15Z</time>
      </trkpt>
      <trkpt lat="46.5716" lon="0.64526">
        <ele>58.8</ele>
        <time>2024-08-24T14:50:16Z</time>
      </trkpt>
      <trkpt lat="46.57162" lon="0.64521">
        <ele>57.4</ele>
        <time>2024-08-24T14:50:18Z</time>
      </trkpt>
      <trkpt lat="46.57162" lon="0.64519">
        <ele>56.6</ele>
        <time>2024-08-24T14:50:19Z</time>
      </trkpt>
      <trkpt lat="46.57162" lon="0.64517">
        <ele>56.2</ele>
        <time>2024-08-24T14:50:20Z</time>
      </trkpt>
      <trkpt lat="46.57162" lon="0.64515">
        <ele>55.6</ele>
        <time>2024-08-24T14:50:22Z</time>
      </trkpt>
      <trkpt lat="46.57165" lon="0.6451">
        <ele>55.4</ele>
        <time>2024-08-24T14:50:24Z</time>
      </trkpt>
      <trkpt lat="46.57172" lon="0.64491">
        <ele>55.2</ele>
        <time>2024-08-24T14:50:28Z</time>
      </trkpt>
      <trkpt lat="46.57179" lon="0.64473">
        <ele>54.2</ele>
        <time>2024-08-24T14:50:32Z</time>
      </trkpt>
      <trkpt lat="46.57183" lon="0.64465">
        <ele>53.4</ele>
        <time>2024-08-24T14:50:34Z</time>
      </trkpt>
      <trkpt lat="46.57186" lon="0.64461">
        <ele>53</ele>
        <time>2024-08-24T14:50:35Z</time>
      </trkpt>
      <trkpt lat="46.57194" lon="0.64448">
        <ele>51.8</ele>
        <time>2024-08-24T14:50:38Z</time>
      </trkpt>
      <trkpt lat="46.57199" lon="0.6444">
        <ele>51.2</ele>
        <time>2024-08-24T14:50:40Z</time>
      </trkpt>
      <trkpt lat="46.57204" lon="0.64436">
        <ele>50.8</ele>
        <time>2024-08-24T14:50:42Z</time>
      </trkpt>
      <trkpt lat="46.57205" lon="0.64435">
        <ele>50.4</ele>
        <time>2024-08-24T14:50:44Z</time>
      </trkpt>
      <trkpt lat="46.57206" lon="0.64432">
        <ele>50</ele>
        <time>2024-08-24T14:50:47Z</time>
      </trkpt>
      <trkpt lat="46.57206" lon="0.64427">
        <ele>49.8</ele>
        <time>2024-08-24T14:50:49Z</time>
      </trkpt>
      <trkpt lat="46.57204" lon="0.6442">
        <ele>49.8</ele>
        <time>2024-08-24T14:50:50Z</time>
      </trkpt>
      <trkpt lat="46.57201" lon="0.64417">
        <ele>49.8</ele>
        <time>2024-08-24T14:50:51Z</time>
      </trkpt>
      <trkpt lat="46.57198" lon="0.64411">
        <ele>49.8</ele>
        <time>2024-08-24T14:50:52Z</time>
      </trkpt>
      <trkpt lat="46.57178" lon="0.64385">
        <ele>48.6</ele>
        <time>2024-08-24T14:50:56Z</time>
      </trkpt>
      <trkpt lat="46.57154" lon="0.64357">
        <ele>47.6</ele>
        <time>2024-08-24T14:51:00Z</time>
      </trkpt>
      <trkpt lat="46.57141" lon="0.64343">
        <ele>47.2</ele>
        <time>2024-08-24T14:51:02Z</time>
      </trkpt>
      <trkpt lat="46.5711" lon="0.64314">
        <ele>46.6</ele>
        <time>2024-08-24T14:51:07Z</time>
      </trkpt>
      <trkpt lat="46.57098" lon="0.64305">
        <ele>46.4</ele>
        <time>2024-08-24T14:51:09Z</time>
      </trkpt>
      <trkpt lat="46.57087" lon="0.64299">
        <ele>46.2</ele>
        <time>2024-08-24T14:51:11Z</time>
      </trkpt>
      <trkpt lat="46.57076" lon="0.64296">
        <ele>46.2</ele>
        <time>2024-08-24T14:51:13Z</time>
      </trkpt>
      <trkpt lat="46.57056" lon="0.64293">
        <ele>46.2</ele>
        <time>2024-08-24T14:51:18Z</time>
      </trkpt>
      <trkpt lat="46.57033" lon="0.64297">
        <ele>46</ele>
        <time>2024-08-24T14:51:24Z</time>
      </trkpt>
      <trkpt lat="46.57005" lon="0.64305">
        <ele>46.2</ele>
        <time>2024-08-24T14:51:30Z</time>
      </trkpt>
      <trkpt lat="46.56992" lon="0.64306">
        <ele>46.6</ele>
        <time>2024-08-24T14:51:33Z</time>
      </trkpt>
      <trkpt lat="46.56987" lon="0.643">
        <ele>46.6</ele>
        <time>2024-08-24T14:51:35Z</time>
      </trkpt>
      <trkpt lat="46.56981" lon="0.64285">
        <ele>46.6</ele>
        <time>2024-08-24T14:51:38Z</time>
      </trkpt>
      <trkpt lat="46.56979" lon="0.64272">
        <ele>46.8</ele>
        <time>2024-08-24T14:51:40Z</time>
      </trkpt>
      <trkpt lat="46.56971" lon="0.6423">
        <ele>47.6</ele>
        <time>2024-08-24T14:51:47Z</time>
      </trkpt>
      <trkpt lat="46.56971" lon="0.64224">
        <ele>47.8</ele>
        <time>2024-08-24T14:51:48Z</time>
      </trkpt>
      <trkpt lat="46.5697" lon="0.64211">
        <ele>49</ele>
        <time>2024-08-24T14:51:50Z</time>
      </trkpt>
      <trkpt lat="46.56964" lon="0.64186">
        <ele>50</ele>
        <time>2024-08-24T14:51:54Z</time>
      </trkpt>
      <trkpt lat="46.56962" lon="0.64179">
        <ele>50</ele>
        <time>2024-08-24T14:51:55Z</time>
      </trkpt>
      <trkpt lat="46.56956" lon="0.64139">
        <ele>49</ele>
        <time>2024-08-24T14:52:01Z</time>
      </trkpt>
      <trkpt lat="46.56955" lon="0.64132">
        <ele>48.8</ele>
        <time>2024-08-24T14:52:02Z</time>
      </trkpt>
      <trkpt lat="46.56946" lon="0.64071">
        <ele>50</ele>
        <time>2024-08-24T14:52:11Z</time>
      </trkpt>
      <trkpt lat="46.56942" lon="0.64025">
        <ele>48.8</ele>
        <time>2024-08-24T14:52:18Z</time>
      </trkpt>
      <trkpt lat="46.56945" lon="0.64012">
        <ele>48.4</ele>
        <time>2024-08-24T14:52:20Z</time>
      </trkpt>
      <trkpt lat="46.56948" lon="0.64005">
        <ele>47.8</ele>
        <time>2024-08-24T14:52:21Z</time>
      </trkpt>
      <trkpt lat="46.56951" lon="0.63998">
        <ele>47.4</ele>
        <time>2024-08-24T14:52:22Z</time>
      </trkpt>
      <trkpt lat="46.56964" lon="0.63981">
        <ele>46.8</ele>
        <time>2024-08-24T14:52:25Z</time>
      </trkpt>
      <trkpt lat="46.56973" lon="0.63971">
        <ele>45.8</ele>
        <time>2024-08-24T14:52:27Z</time>
      </trkpt>
      <trkpt lat="46.56978" lon="0.63966">
        <ele>45.4</ele>
        <time>2024-08-24T14:52:28Z</time>
      </trkpt>
      <trkpt lat="46.57001" lon="0.63949">
        <ele>44.8</ele>
        <time>2024-08-24T14:52:32Z</time>
      </trkpt>
      <trkpt lat="46.57043" lon="0.63916">
        <ele>45.2</ele>
        <time>2024-08-24T14:52:40Z</time>
      </trkpt>
      <trkpt lat="46.57047" lon="0.63909">
        <ele>45.4</ele>
        <time>2024-08-24T14:52:41Z</time>
      </trkpt>
      <trkpt lat="46.57058" lon="0.63888">
        <ele>45.6</ele>
        <time>2024-08-24T14:52:44Z</time>
      </trkpt>
      <trkpt lat="46.57061" lon="0.6388">
        <ele>45.8</ele>
        <time>2024-08-24T14:52:45Z</time>
      </trkpt>
      <trkpt lat="46.57075" lon="0.63851">
        <ele>46.2</ele>
        <time>2024-08-24T14:52:49Z</time>
      </trkpt>
      <trkpt lat="46.57079" lon="0.63845">
        <ele>46.4</ele>
        <time>2024-08-24T14:52:50Z</time>
      </trkpt>
      <trkpt lat="46.57083" lon="0.63838">
        <ele>46.6</ele>
        <time>2024-08-24T14:52:51Z</time>
      </trkpt>
      <trkpt lat="46.57101" lon="0.63801">
        <ele>46.4</ele>
        <time>2024-08-24T14:52:57Z</time>
      </trkpt>
      <trkpt lat="46.57101" lon="0.63789">
        <ele>46.6</ele>
        <time>2024-08-24T14:52:59Z</time>
      </trkpt>
      <trkpt lat="46.571" lon="0.63783">
        <ele>46.8</ele>
        <time>2024-08-24T14:53:00Z</time>
      </trkpt>
      <trkpt lat="46.57098" lon="0.63778">
        <ele>47</ele>
        <time>2024-08-24T14:53:01Z</time>
      </trkpt>
      <trkpt lat="46.57094" lon="0.63767">
        <ele>47.6</ele>
        <time>2024-08-24T14:53:03Z</time>
      </trkpt>
      <trkpt lat="46.57087" lon="0.63752">
        <ele>48.2</ele>
        <time>2024-08-24T14:53:06Z</time>
      </trkpt>
      <trkpt lat="46.57083" lon="0.63742">
        <ele>48.6</ele>
        <time>2024-08-24T14:53:08Z</time>
      </trkpt>
      <trkpt lat="46.57076" lon="0.63726">
        <ele>49.8</ele>
        <time>2024-08-24T14:53:12Z</time>
      </trkpt>
      <trkpt lat="46.57072" lon="0.63718">
        <ele>50.2</ele>
        <time>2024-08-24T14:53:14Z</time>
      </trkpt>
      <trkpt lat="46.57069" lon="0.6371">
        <ele>51</ele>
        <time>2024-08-24T14:53:16Z</time>
      </trkpt>
      <trkpt lat="46.57061" lon="0.63692">
        <ele>52</ele>
        <time>2024-08-24T14:53:21Z</time>
      </trkpt>
      <trkpt lat="46.57057" lon="0.63681">
        <ele>52.4</ele>
        <time>2024-08-24T14:53:24Z</time>
      </trkpt>
      <trkpt lat="46.57057" lon="0.63669">
        <ele>53.2</ele>
        <time>2024-08-24T14:53:27Z</time>
      </trkpt>
      <trkpt lat="46.5706" lon="0.63661">
        <ele>53.4</ele>
        <time>2024-08-24T14:53:29Z</time>
      </trkpt>
      <trkpt lat="46.57072" lon="0.63634">
        <ele>54.2</ele>
        <time>2024-08-24T14:53:35Z</time>
      </trkpt>
      <trkpt lat="46.57074" lon="0.63629">
        <ele>54.4</ele>
        <time>2024-08-24T14:53:36Z</time>
      </trkpt>
      <trkpt lat="46.57086" lon="0.63599">
        <ele>55.2</ele>
        <time>2024-08-24T14:53:42Z</time>
      </trkpt>
      <trkpt lat="46.57086" lon="0.63589">
        <ele>55.2</ele>
        <time>2024-08-24T14:53:44Z</time>
      </trkpt>
      <trkpt lat="46.57082" lon="0.63579">
        <ele>55.2</ele>
        <time>2024-08-24T14:53:46Z</time>
      </trkpt>
      <trkpt lat="46.57067" lon="0.63549">
        <ele>55.6</ele>
        <time>2024-08-24T14:53:52Z</time>
      </trkpt>
      <trkpt lat="46.57065" lon="0.63544">
        <ele>56</ele>
        <time>2024-08-24T14:53:53Z</time>
      </trkpt>
      <trkpt lat="46.57059" lon="0.63534">
        <ele>56.4</ele>
        <time>2024-08-24T14:53:55Z</time>
      </trkpt>
      <trkpt lat="46.57057" lon="0.63523">
        <ele>56.8</ele>
        <time>2024-08-24T14:53:57Z</time>
      </trkpt>
      <trkpt lat="46.57057" lon="0.63518">
        <ele>56.8</ele>
        <time>2024-08-24T14:53:58Z</time>
      </trkpt>
      <trkpt lat="46.57058" lon="0.63512">
        <ele>56.8</ele>
        <time>2024-08-24T14:53:59Z</time>
      </trkpt>
      <trkpt lat="46.57064" lon="0.63491">
        <ele>56.8</ele>
        <time>2024-08-24T14:54:03Z</time>
      </trkpt>
      <trkpt lat="46.57067" lon="0.63486">
        <ele>56.8</ele>
        <time>2024-08-24T14:54:04Z</time>
      </trkpt>
      <trkpt lat="46.57071" lon="0.63475">
        <ele>57</ele>
        <time>2024-08-24T14:54:06Z</time>
      </trkpt>
      <trkpt lat="46.57073" lon="0.63464">
        <ele>56.8</ele>
        <time>2024-08-24T14:54:08Z</time>
      </trkpt>
      <trkpt lat="46.57075" lon="0.63451">
        <ele>56.6</ele>
        <time>2024-08-24T14:54:10Z</time>
      </trkpt>
      <trkpt lat="46.57081" lon="0.63427">
        <ele>57.8</ele>
        <time>2024-08-24T14:54:14Z</time>
      </trkpt>
      <trkpt lat="46.57094" lon="0.6338">
        <ele>57.6</ele>
        <time>2024-08-24T14:54:22Z</time>
      </trkpt>
      <trkpt lat="46.57106" lon="0.63348">
        <ele>57</ele>
        <time>2024-08-24T14:54:28Z</time>
      </trkpt>
      <trkpt lat="46.57114" lon="0.63326">
        <ele>56.8</ele>
        <time>2024-08-24T14:54:32Z</time>
      </trkpt>
      <trkpt lat="46.57116" lon="0.63321">
        <ele>56.8</ele>
        <time>2024-08-24T14:54:33Z</time>
      </trkpt>
      <trkpt lat="46.57118" lon="0.63315">
        <ele>57</ele>
        <time>2024-08-24T14:54:34Z</time>
      </trkpt>
      <trkpt lat="46.57133" lon="0.63272">
        <ele>57.2</ele>
        <time>2024-08-24T14:54:41Z</time>
      </trkpt>
      <trkpt lat="46.57154" lon="0.63228">
        <ele>56.8</ele>
        <time>2024-08-24T14:54:48Z</time>
      </trkpt>
      <trkpt lat="46.57163" lon="0.63208">
        <ele>56.4</ele>
        <time>2024-08-24T14:54:51Z</time>
      </trkpt>
      <trkpt lat="46.57169" lon="0.63188">
        <ele>56.6</ele>
        <time>2024-08-24T14:54:54Z</time>
      </trkpt>
      <trkpt lat="46.57179" lon="0.63174">
        <ele>56.6</ele>
        <time>2024-08-24T14:54:57Z</time>
      </trkpt>
      <trkpt lat="46.57182" lon="0.63169">
        <ele>56.8</ele>
        <time>2024-08-24T14:54:58Z</time>
      </trkpt>
      <trkpt lat="46.57189" lon="0.6316">
        <ele>56.8</ele>
        <time>2024-08-24T14:55:00Z</time>
      </trkpt>
      <trkpt lat="46.57199" lon="0.63148">
        <ele>56.6</ele>
        <time>2024-08-24T14:55:03Z</time>
      </trkpt>
      <trkpt lat="46.57202" lon="0.63142">
        <ele>56.6</ele>
        <time>2024-08-24T14:55:04Z</time>
      </trkpt>
      <trkpt lat="46.57223" lon="0.63115">
        <ele>56.2</ele>
        <time>2024-08-24T14:55:09Z</time>
      </trkpt>
      <trkpt lat="46.57226" lon="0.63109">
        <ele>56.2</ele>
        <time>2024-08-24T14:55:10Z</time>
      </trkpt>
      <trkpt lat="46.57238" lon="0.6309">
        <ele>56</ele>
        <time>2024-08-24T14:55:13Z</time>
      </trkpt>
      <trkpt lat="46.57248" lon="0.63073">
        <ele>56</ele>
        <time>2024-08-24T14:55:16Z</time>
      </trkpt>
      <trkpt lat="46.57274" lon="0.63027">
        <ele>56.4</ele>
        <time>2024-08-24T14:55:24Z</time>
      </trkpt>
      <trkpt lat="46.57276" lon="0.63022">
        <ele>56.6</ele>
        <time>2024-08-24T14:55:25Z</time>
      </trkpt>
      <trkpt lat="46.57288" lon="0.62993">
        <ele>56.4</ele>
        <time>2024-08-24T14:55:30Z</time>
      </trkpt>
      <trkpt lat="46.5729" lon="0.62987">
        <ele>56.4</ele>
        <time>2024-08-24T14:55:31Z</time>
      </trkpt>
      <trkpt lat="46.57293" lon="0.62981">
        <ele>56.4</ele>
        <time>2024-08-24T14:55:32Z</time>
      </trkpt>
      <trkpt lat="46.57302" lon="0.62962">
        <ele>56.2</ele>
        <time>2024-08-24T14:55:35Z</time>
      </trkpt>
      <trkpt lat="46.57316" lon="0.62922">
        <ele>56.4</ele>
        <time>2024-08-24T14:55:41Z</time>
      </trkpt>
      <trkpt lat="46.57334" lon="0.6288">
        <ele>56.6</ele>
        <time>2024-08-24T14:55:48Z</time>
      </trkpt>
      <trkpt lat="46.57347" lon="0.6285">
        <ele>56.8</ele>
        <time>2024-08-24T14:55:53Z</time>
      </trkpt>
      <trkpt lat="46.57352" lon="0.62838">
        <ele>56.8</ele>
        <time>2024-08-24T14:55:55Z</time>
      </trkpt>
      <trkpt lat="46.57369" lon="0.62797">
        <ele>57.8</ele>
        <time>2024-08-24T14:56:02Z</time>
      </trkpt>
      <trkpt lat="46.57371" lon="0.62791">
        <ele>58</ele>
        <time>2024-08-24T14:56:03Z</time>
      </trkpt>
      <trkpt lat="46.57386" lon="0.62755">
        <ele>58.6</ele>
        <time>2024-08-24T14:56:09Z</time>
      </trkpt>
      <trkpt lat="46.57394" lon="0.62731">
        <ele>59</ele>
        <time>2024-08-24T14:56:13Z</time>
      </trkpt>
      <trkpt lat="46.57404" lon="0.62701">
        <ele>59.8</ele>
        <time>2024-08-24T14:56:18Z</time>
      </trkpt>
      <trkpt lat="46.5742" lon="0.62663">
        <ele>59.6</ele>
        <time>2024-08-24T14:56:25Z</time>
      </trkpt>
      <trkpt lat="46.57422" lon="0.62649">
        <ele>59.6</ele>
        <time>2024-08-24T14:56:29Z</time>
      </trkpt>
      <trkpt lat="46.57419" lon="0.62652">
        <ele>59.6</ele>
        <time>2024-08-24T14:56:32Z</time>
      </trkpt>
      <trkpt lat="46.57415" lon="0.62669">
        <ele>58.8</ele>
        <time>2024-08-24T14:56:37Z</time>
      </trkpt>
      <trkpt lat="46.57413" lon="0.62674">
        <ele>58.8</ele>
        <time>2024-08-24T14:56:38Z</time>
      </trkpt>
      <trkpt lat="46.57399" lon="0.62705">
        <ele>58</ele>
        <time>2024-08-24T14:56:44Z</time>
      </trkpt>
      <trkpt lat="46.57397" lon="0.6271">
        <ele>57.4</ele>
        <time>2024-08-24T14:56:45Z</time>
      </trkpt>
      <trkpt lat="46.57388" lon="0.62727">
        <ele>57</ele>
        <time>2024-08-24T14:56:48Z</time>
      </trkpt>
      <trkpt lat="46.57376" lon="0.62751">
        <ele>56.4</ele>
        <time>2024-08-24T14:56:51Z</time>
      </trkpt>
      <trkpt lat="46.57367" lon="0.6277">
        <ele>56.2</ele>
        <time>2024-08-24T14:56:53Z</time>
      </trkpt>
      <trkpt lat="46.57361" lon="0.62794">
        <ele>56</ele>
        <time>2024-08-24T14:56:55Z</time>
      </trkpt>
      <trkpt lat="46.57362" lon="0.62804">
        <ele>55.2</ele>
        <time>2024-08-24T14:56:56Z</time>
      </trkpt>
      <trkpt lat="46.57365" lon="0.62811">
        <ele>54.4</ele>
        <time>2024-08-24T14:56:57Z</time>
      </trkpt>
      <trkpt lat="46.57368" lon="0.62818">
        <ele>53.6</ele>
        <time>2024-08-24T14:56:58Z</time>
      </trkpt>
      <trkpt lat="46.5737" lon="0.62824">
        <ele>52.8</ele>
        <time>2024-08-24T14:56:59Z</time>
      </trkpt>
      <trkpt lat="46.57374" lon="0.62827">
        <ele>52.2</ele>
        <time>2024-08-24T14:57:00Z</time>
      </trkpt>
      <trkpt lat="46.57379" lon="0.62827">
        <ele>51.6</ele>
        <time>2024-08-24T14:57:01Z</time>
      </trkpt>
      <trkpt lat="46.57386" lon="0.62821">
        <ele>51</ele>
        <time>2024-08-24T14:57:03Z</time>
      </trkpt>
      <trkpt lat="46.57387" lon="0.62817">
        <ele>50.8</ele>
        <time>2024-08-24T14:57:04Z</time>
      </trkpt>
      <trkpt lat="46.57388" lon="0.62813">
        <ele>50.8</ele>
        <time>2024-08-24T14:57:05Z</time>
      </trkpt>
      <trkpt lat="46.57395" lon="0.62794">
        <ele>51</ele>
        <time>2024-08-24T14:57:09Z</time>
      </trkpt>
      <trkpt lat="46.57399" lon="0.62789">
        <ele>51.2</ele>
        <time>2024-08-24T14:57:10Z</time>
      </trkpt>
      <trkpt lat="46.57404" lon="0.62774">
        <ele>52</ele>
        <time>2024-08-24T14:57:12Z</time>
      </trkpt>
      <trkpt lat="46.57407" lon="0.62766">
        <ele>52.4</ele>
        <time>2024-08-24T14:57:13Z</time>
      </trkpt>
      <trkpt lat="46.57421" lon="0.62725">
        <ele>53</ele>
        <time>2024-08-24T14:57:18Z</time>
      </trkpt>
      <trkpt lat="46.57432" lon="0.62694">
        <ele>53.4</ele>
        <time>2024-08-24T14:57:22Z</time>
      </trkpt>
      <trkpt lat="46.57444" lon="0.62664">
        <ele>53.6</ele>
        <time>2024-08-24T14:57:26Z</time>
      </trkpt>
      <trkpt lat="46.57468" lon="0.62608">
        <ele>53.2</ele>
        <time>2024-08-24T14:57:34Z</time>
      </trkpt>
      <trkpt lat="46.57486" lon="0.62564">
        <ele>53.4</ele>
        <time>2024-08-24T14:57:41Z</time>
      </trkpt>
      <trkpt lat="46.57488" lon="0.62558">
        <ele>53.4</ele>
        <time>2024-08-24T14:57:42Z</time>
      </trkpt>
      <trkpt lat="46.57502" lon="0.62523">
        <ele>54</ele>
        <time>2024-08-24T14:57:48Z</time>
      </trkpt>
      <trkpt lat="46.57523" lon="0.6248">
        <ele>54.2</ele>
        <time>2024-08-24T14:57:55Z</time>
      </trkpt>
      <trkpt lat="46.57544" lon="0.62442">
        <ele>54</ele>
        <time>2024-08-24T14:58:02Z</time>
      </trkpt>
      <trkpt lat="46.57568" lon="0.62398">
        <ele>53.2</ele>
        <time>2024-08-24T14:58:09Z</time>
      </trkpt>
      <trkpt lat="46.57588" lon="0.62362">
        <ele>52.6</ele>
        <time>2024-08-24T14:58:15Z</time>
      </trkpt>
      <trkpt lat="46.57615" lon="0.6232">
        <ele>52.6</ele>
        <time>2024-08-24T14:58:22Z</time>
      </trkpt>
      <trkpt lat="46.5762" lon="0.62314">
        <ele>52.6</ele>
        <time>2024-08-24T14:58:23Z</time>
      </trkpt>
      <trkpt lat="46.57623" lon="0.62307">
        <ele>52</ele>
        <time>2024-08-24T14:58:24Z</time>
      </trkpt>
      <trkpt lat="46.57644" lon="0.62274">
        <ele>51.4</ele>
        <time>2024-08-24T14:58:29Z</time>
      </trkpt>
      <trkpt lat="46.57676" lon="0.62223">
        <ele>51.6</ele>
        <time>2024-08-24T14:58:37Z</time>
      </trkpt>
      <trkpt lat="46.57706" lon="0.62173">
        <ele>51.4</ele>
        <time>2024-08-24T14:58:45Z</time>
      </trkpt>
      <trkpt lat="46.57735" lon="0.62121">
        <ele>51.8</ele>
        <time>2024-08-24T14:58:53Z</time>
      </trkpt>
      <trkpt lat="46.5775" lon="0.62098">
        <ele>52</ele>
        <time>2024-08-24T14:58:57Z</time>
      </trkpt>
      <trkpt lat="46.5776" lon="0.62095">
        <ele>51.6</ele>
        <time>2024-08-24T14:58:59Z</time>
      </trkpt>
      <trkpt lat="46.57781" lon="0.62107">
        <ele>51.6</ele>
        <time>2024-08-24T14:59:03Z</time>
      </trkpt>
      <trkpt lat="46.57793" lon="0.62115">
        <ele>51.2</ele>
        <time>2024-08-24T14:59:05Z</time>
      </trkpt>
      <trkpt lat="46.57798" lon="0.6212">
        <ele>51</ele>
        <time>2024-08-24T14:59:06Z</time>
      </trkpt>
      <trkpt lat="46.57803" lon="0.62125">
        <ele>50.8</ele>
        <time>2024-08-24T14:59:07Z</time>
      </trkpt>
      <trkpt lat="46.57807" lon="0.62131">
        <ele>50.8</ele>
        <time>2024-08-24T14:59:08Z</time>
      </trkpt>
      <trkpt lat="46.57811" lon="0.62134">
        <ele>50.8</ele>
        <time>2024-08-24T14:59:09Z</time>
      </trkpt>
      <trkpt lat="46.57819" lon="0.62137">
        <ele>50.8</ele>
        <time>2024-08-24T14:59:11Z</time>
      </trkpt>
      <trkpt lat="46.57828" lon="0.62133">
        <ele>49.6</ele>
        <time>2024-08-24T14:59:13Z</time>
      </trkpt>
      <trkpt lat="46.57833" lon="0.62129">
        <ele>49</ele>
        <time>2024-08-24T14:59:14Z</time>
      </trkpt>
      <trkpt lat="46.57846" lon="0.62113">
        <ele>48.6</ele>
        <time>2024-08-24T14:59:17Z</time>
      </trkpt>
      <trkpt lat="46.5786" lon="0.62097">
        <ele>49</ele>
        <time>2024-08-24T14:59:20Z</time>
      </trkpt>
      <trkpt lat="46.57884" lon="0.62068">
        <ele>47.8</ele>
        <time>2024-08-24T14:59:25Z</time>
      </trkpt>
      <trkpt lat="46.5789" lon="0.62061">
        <ele>47.2</ele>
        <time>2024-08-24T14:59:26Z</time>
      </trkpt>
      <trkpt lat="46.57895" lon="0.62055">
        <ele>47</ele>
        <time>2024-08-24T14:59:27Z</time>
      </trkpt>
      <trkpt lat="46.57908" lon="0.62033">
        <ele>46.4</ele>
        <time>2024-08-24T14:59:30Z</time>
      </trkpt>
      <trkpt lat="46.57911" lon="0.62025">
        <ele>46.2</ele>
        <time>2024-08-24T14:59:31Z</time>
      </trkpt>
      <trkpt lat="46.57935" lon="0.61976">
        <ele>45.4</ele>
        <time>2024-08-24T14:59:38Z</time>
      </trkpt>
      <trkpt lat="46.57941" lon="0.61964">
        <ele>45</ele>
        <time>2024-08-24T14:59:40Z</time>
      </trkpt>
      <trkpt lat="46.57948" lon="0.61955">
        <ele>44.6</ele>
        <time>2024-08-24T14:59:42Z</time>
      </trkpt>
      <trkpt lat="46.5795" lon="0.61951">
        <ele>44.6</ele>
        <time>2024-08-24T14:59:43Z</time>
      </trkpt>
      <trkpt lat="46.57952" lon="0.61947">
        <ele>44.4</ele>
        <time>2024-08-24T14:59:44Z</time>
      </trkpt>
      <trkpt lat="46.57955" lon="0.6194">
        <ele>44.2</ele>
        <time>2024-08-24T14:59:46Z</time>
      </trkpt>
      <trkpt lat="46.57957" lon="0.61934">
        <ele>44.4</ele>
        <time>2024-08-24T14:59:48Z</time>
      </trkpt>
      <trkpt lat="46.57961" lon="0.61923">
        <ele>44.2</ele>
        <time>2024-08-24T14:59:51Z</time>
      </trkpt>
      <trkpt lat="46.57967" lon="0.61916">
        <ele>43.8</ele>
        <time>2024-08-24T14:59:53Z</time>
      </trkpt>
      <trkpt lat="46.57972" lon="0.61909">
        <ele>43.6</ele>
        <time>2024-08-24T14:59:55Z</time>
      </trkpt>
      <trkpt lat="46.57982" lon="0.61888">
        <ele>43.8</ele>
        <time>2024-08-24T15:00:00Z</time>
      </trkpt>
      <trkpt lat="46.57987" lon="0.61874">
        <ele>44</ele>
        <time>2024-08-24T15:00:03Z</time>
      </trkpt>
      <trkpt lat="46.57991" lon="0.6186">
        <ele>44.2</ele>
        <time>2024-08-24T15:00:06Z</time>
      </trkpt>
      <trkpt lat="46.57995" lon="0.61853">
        <ele>45</ele>
        <time>2024-08-24T15:00:08Z</time>
      </trkpt>
      <trkpt lat="46.58" lon="0.61847">
        <ele>46.4</ele>
        <time>2024-08-24T15:00:11Z</time>
      </trkpt>
      <trkpt lat="46.58002" lon="0.61843">
        <ele>47.6</ele>
        <time>2024-08-24T15:00:13Z</time>
      </trkpt>
      <trkpt lat="46.58005" lon="0.61837">
        <ele>48.8</ele>
        <time>2024-08-24T15:00:16Z</time>
      </trkpt>
      <trkpt lat="46.58006" lon="0.61833">
        <ele>49.6</ele>
        <time>2024-08-24T15:00:18Z</time>
      </trkpt>
      <trkpt lat="46.58006" lon="0.61831">
        <ele>50</ele>
        <time>2024-08-24T15:00:19Z</time>
      </trkpt>
      <trkpt lat="46.58009" lon="0.61825">
        <ele>51.2</ele>
        <time>2024-08-24T15:00:22Z</time>
      </trkpt>
      <trkpt lat="46.58012" lon="0.61822">
        <ele>52.2</ele>
        <time>2024-08-24T15:00:25Z</time>
      </trkpt>
      <trkpt lat="46.58012" lon="0.61821">
        <ele>52.6</ele>
        <time>2024-08-24T15:00:26Z</time>
      </trkpt>
      <trkpt lat="46.58014" lon="0.61816">
        <ele>53.6</ele>
        <time>2024-08-24T15:00:29Z</time>
      </trkpt>
      <trkpt lat="46.58015" lon="0.6181">
        <ele>54.6</ele>
        <time>2024-08-24T15:00:33Z</time>
      </trkpt>
      <trkpt lat="46.58015" lon="0.61808">
        <ele>54.8</ele>
        <time>2024-08-24T15:00:34Z</time>
      </trkpt>
      <trkpt lat="46.58016" lon="0.61804">
        <ele>55.6</ele>
        <time>2024-08-24T15:00:37Z</time>
      </trkpt>
      <trkpt lat="46.58017" lon="0.61803">
        <ele>55.8</ele>
        <time>2024-08-24T15:00:38Z</time>
      </trkpt>
      <trkpt lat="46.58018" lon="0.61801">
        <ele>56.4</ele>
        <time>2024-08-24T15:00:40Z</time>
      </trkpt>
      <trkpt lat="46.58019" lon="0.61798">
        <ele>56.8</ele>
        <time>2024-08-24T15:00:42Z</time>
      </trkpt>
      <trkpt lat="46.58026" lon="0.61786">
        <ele>57.6</ele>
        <time>2024-08-24T15:00:49Z</time>
      </trkpt>
      <trkpt lat="46.58028" lon="0.61782">
        <ele>58</ele>
        <time>2024-08-24T15:00:51Z</time>
      </trkpt>
      <trkpt lat="46.58031" lon="0.61775">
        <ele>59</ele>
        <time>2024-08-24T15:00:55Z</time>
      </trkpt>
      <trkpt lat="46.58033" lon="0.6177">
        <ele>59.6</ele>
        <time>2024-08-24T15:00:58Z</time>
      </trkpt>
      <trkpt lat="46.58042" lon="0.61759">
        <ele>59.8</ele>
        <time>2024-08-24T15:01:05Z</time>
      </trkpt>
      <trkpt lat="46.58044" lon="0.61755">
        <ele>60</ele>
        <time>2024-08-24T15:01:07Z</time>
      </trkpt>
      <trkpt lat="46.58048" lon="0.61748">
        <ele>61.4</ele>
        <time>2024-08-24T15:01:11Z</time>
      </trkpt>
      <trkpt lat="46.5805" lon="0.61742">
        <ele>61.8</ele>
        <time>2024-08-24T15:01:14Z</time>
      </trkpt>
      <trkpt lat="46.58058" lon="0.61727">
        <ele>62</ele>
        <time>2024-08-24T15:01:22Z</time>
      </trkpt>
      <trkpt lat="46.58061" lon="0.61726">
        <ele>62.2</ele>
        <time>2024-08-24T15:01:30Z</time>
      </trkpt>
      <trkpt lat="46.58062" lon="0.61724">
        <ele>62.4</ele>
        <time>2024-08-24T15:01:41Z</time>
      </trkpt>
      <trkpt lat="46.58062" lon="0.61723">
        <ele>62</ele>
        <time>2024-08-24T15:01:51Z</time>
      </trkpt>
      <trkpt lat="46.58066" lon="0.61717">
        <ele>62.2</ele>
        <time>2024-08-24T15:01:59Z</time>
      </trkpt>
      <trkpt lat="46.58067" lon="0.61715">
        <ele>62.2</ele>
        <time>2024-08-24T15:02:00Z</time>
      </trkpt>
      <trkpt lat="46.58077" lon="0.61703">
        <ele>61.6</ele>
        <time>2024-08-24T15:02:05Z</time>
      </trkpt>
      <trkpt lat="46.5808" lon="0.617">
        <ele>61.6</ele>
        <time>2024-08-24T15:02:06Z</time>
      </trkpt>
      <trkpt lat="46.58093" lon="0.61685">
        <ele>62.2</ele>
        <time>2024-08-24T15:02:11Z</time>
      </trkpt>
      <trkpt lat="46.58099" lon="0.61681">
        <ele>62.4</ele>
        <time>2024-08-24T15:02:13Z</time>
      </trkpt>
      <trkpt lat="46.58111" lon="0.61669">
        <ele>63</ele>
        <time>2024-08-24T15:02:17Z</time>
      </trkpt>
      <trkpt lat="46.58115" lon="0.61664">
        <ele>63.4</ele>
        <time>2024-08-24T15:02:19Z</time>
      </trkpt>
      <trkpt lat="46.58117" lon="0.61657">
        <ele>64.2</ele>
        <time>2024-08-24T15:02:22Z</time>
      </trkpt>
      <trkpt lat="46.58119" lon="0.61651">
        <ele>64.6</ele>
        <time>2024-08-24T15:02:25Z</time>
      </trkpt>
      <trkpt lat="46.58118" lon="0.61646">
        <ele>65.4</ele>
        <time>2024-08-24T15:02:28Z</time>
      </trkpt>
      <trkpt lat="46.58118" lon="0.61645">
        <ele>65.6</ele>
        <time>2024-08-24T15:02:29Z</time>
      </trkpt>
      <trkpt lat="46.58118" lon="0.6164">
        <ele>67</ele>
        <time>2024-08-24T15:02:32Z</time>
      </trkpt>
      <trkpt lat="46.58118" lon="0.61634">
        <ele>68.2</ele>
        <time>2024-08-24T15:02:36Z</time>
      </trkpt>
      <trkpt lat="46.58117" lon="0.61631">
        <ele>69</ele>
        <time>2024-08-24T15:02:38Z</time>
      </trkpt>
      <trkpt lat="46.58117" lon="0.61628">
        <ele>69.4</ele>
        <time>2024-08-24T15:02:40Z</time>
      </trkpt>
      <trkpt lat="46.58115" lon="0.61618">
        <ele>70.4</ele>
        <time>2024-08-24T15:02:45Z</time>
      </trkpt>
      <trkpt lat="46.58113" lon="0.61611">
        <ele>71.6</ele>
        <time>2024-08-24T15:02:49Z</time>
      </trkpt>
      <trkpt lat="46.58111" lon="0.61606">
        <ele>72.6</ele>
        <time>2024-08-24T15:02:52Z</time>
      </trkpt>
      <trkpt lat="46.58108" lon="0.61598">
        <ele>73.2</ele>
        <time>2024-08-24T15:02:55Z</time>
      </trkpt>
      <trkpt lat="46.58106" lon="0.61592">
        <ele>73.8</ele>
        <time>2024-08-24T15:02:57Z</time>
      </trkpt>
      <trkpt lat="46.58101" lon="0.61578">
        <ele>74.4</ele>
        <time>2024-08-24T15:03:02Z</time>
      </trkpt>
      <trkpt lat="46.58099" lon="0.61574">
        <ele>74.8</ele>
        <time>2024-08-24T15:03:04Z</time>
      </trkpt>
      <trkpt lat="46.58095" lon="0.61564">
        <ele>76</ele>
        <time>2024-08-24T15:03:08Z</time>
      </trkpt>
      <trkpt lat="46.58093" lon="0.61557">
        <ele>76.4</ele>
        <time>2024-08-24T15:03:11Z</time>
      </trkpt>
      <trkpt lat="46.58089" lon="0.61548">
        <ele>77.2</ele>
        <time>2024-08-24T15:03:15Z</time>
      </trkpt>
      <trkpt lat="46.58086" lon="0.6154">
        <ele>77.8</ele>
        <time>2024-08-24T15:03:18Z</time>
      </trkpt>
      <trkpt lat="46.58083" lon="0.61533">
        <ele>78.2</ele>
        <time>2024-08-24T15:03:21Z</time>
      </trkpt>
      <trkpt lat="46.58074" lon="0.61513">
        <ele>79.4</ele>
        <time>2024-08-24T15:03:29Z</time>
      </trkpt>
      <trkpt lat="46.58071" lon="0.61505">
        <ele>80.4</ele>
        <time>2024-08-24T15:03:32Z</time>
      </trkpt>
      <trkpt lat="46.58068" lon="0.61491">
        <ele>80.6</ele>
        <time>2024-08-24T15:03:37Z</time>
      </trkpt>
      <trkpt lat="46.58068" lon="0.61488">
        <ele>80.6</ele>
        <time>2024-08-24T15:03:38Z</time>
      </trkpt>
      <trkpt lat="46.58071" lon="0.61484">
        <ele>80.4</ele>
        <time>2024-08-24T15:03:40Z</time>
      </trkpt>
      <trkpt lat="46.58073" lon="0.61484">
        <ele>80.4</ele>
        <time>2024-08-24T15:03:41Z</time>
      </trkpt>
      <trkpt lat="46.58087" lon="0.61491">
        <ele>79.6</ele>
        <time>2024-08-24T15:03:45Z</time>
      </trkpt>
      <trkpt lat="46.58096" lon="0.61497">
        <ele>79.2</ele>
        <time>2024-08-24T15:03:47Z</time>
      </trkpt>
      <trkpt lat="46.58117" lon="0.61505">
        <ele>78.2</ele>
        <time>2024-08-24T15:03:51Z</time>
      </trkpt>
      <trkpt lat="46.58128" lon="0.61508">
        <ele>77</ele>
        <time>2024-08-24T15:03:53Z</time>
      </trkpt>
      <trkpt lat="46.58148" lon="0.61511">
        <ele>75.2</ele>
        <time>2024-08-24T15:03:56Z</time>
      </trkpt>
      <trkpt lat="46.58155" lon="0.61512">
        <ele>74.4</ele>
        <time>2024-08-24T15:03:57Z</time>
      </trkpt>
      <trkpt lat="46.58161" lon="0.61511">
        <ele>73.8</ele>
        <time>2024-08-24T15:03:58Z</time>
      </trkpt>
      <trkpt lat="46.58174" lon="0.61507">
        <ele>73</ele>
        <time>2024-08-24T15:04:00Z</time>
      </trkpt>
      <trkpt lat="46.58182" lon="0.61504">
        <ele>72.6</ele>
        <time>2024-08-24T15:04:01Z</time>
      </trkpt>
      <trkpt lat="46.58205" lon="0.61491">
        <ele>71.4</ele>
        <time>2024-08-24T15:04:04Z</time>
      </trkpt>
      <trkpt lat="46.58214" lon="0.61488">
        <ele>70.8</ele>
        <time>2024-08-24T15:04:05Z</time>
      </trkpt>
      <trkpt lat="46.58225" lon="0.61482">
        <ele>70.2</ele>
        <time>2024-08-24T15:04:07Z</time>
      </trkpt>
      <trkpt lat="46.5823" lon="0.61479">
        <ele>70.2</ele>
        <time>2024-08-24T15:04:08Z</time>
      </trkpt>
      <trkpt lat="46.58243" lon="0.6147">
        <ele>71.4</ele>
        <time>2024-08-24T15:04:12Z</time>
      </trkpt>
      <trkpt lat="46.58246" lon="0.61467">
        <ele>71.8</ele>
        <time>2024-08-24T15:04:13Z</time>
      </trkpt>
      <trkpt lat="46.58249" lon="0.61466">
        <ele>72.2</ele>
        <time>2024-08-24T15:04:14Z</time>
      </trkpt>
      <trkpt lat="46.58255" lon="0.6146">
        <ele>72.6</ele>
        <time>2024-08-24T15:04:16Z</time>
      </trkpt>
      <trkpt lat="46.58261" lon="0.61453">
        <ele>73.2</ele>
        <time>2024-08-24T15:04:18Z</time>
      </trkpt>
      <trkpt lat="46.58271" lon="0.61444">
        <ele>73.8</ele>
        <time>2024-08-24T15:04:21Z</time>
      </trkpt>
      <trkpt lat="46.58287" lon="0.61429">
        <ele>74.4</ele>
        <time>2024-08-24T15:04:26Z</time>
      </trkpt>
      <trkpt lat="46.58289" lon="0.61426">
        <ele>74.6</ele>
        <time>2024-08-24T15:04:27Z</time>
      </trkpt>
      <trkpt lat="46.58294" lon="0.61419">
        <ele>75</ele>
        <time>2024-08-24T15:04:29Z</time>
      </trkpt>
      <trkpt lat="46.58298" lon="0.61413">
        <ele>75.2</ele>
        <time>2024-08-24T15:04:31Z</time>
      </trkpt>
      <trkpt lat="46.58311" lon="0.61397">
        <ele>75.6</ele>
        <time>2024-08-24T15:04:36Z</time>
      </trkpt>
      <trkpt lat="46.58314" lon="0.61392">
        <ele>75.8</ele>
        <time>2024-08-24T15:04:37Z</time>
      </trkpt>
      <trkpt lat="46.58319" lon="0.61383">
        <ele>76</ele>
        <time>2024-08-24T15:04:39Z</time>
      </trkpt>
      <trkpt lat="46.58322" lon="0.61379">
        <ele>76</ele>
        <time>2024-08-24T15:04:40Z</time>
      </trkpt>
      <trkpt lat="46.58333" lon="0.61366">
        <ele>76.4</ele>
        <time>2024-08-24T15:04:43Z</time>
      </trkpt>
      <trkpt lat="46.58345" lon="0.6135">
        <ele>76.8</ele>
        <time>2024-08-24T15:04:47Z</time>
      </trkpt>
      <trkpt lat="46.58348" lon="0.61345">
        <ele>77.2</ele>
        <time>2024-08-24T15:04:48Z</time>
      </trkpt>
      <trkpt lat="46.58353" lon="0.61337">
        <ele>77</ele>
        <time>2024-08-24T15:04:50Z</time>
      </trkpt>
      <trkpt lat="46.58366" lon="0.61316">
        <ele>77.4</ele>
        <time>2024-08-24T15:04:56Z</time>
      </trkpt>
      <trkpt lat="46.58368" lon="0.61307">
        <ele>78.2</ele>
        <time>2024-08-24T15:04:58Z</time>
      </trkpt>
      <trkpt lat="46.58374" lon="0.61297">
        <ele>79</ele>
        <time>2024-08-24T15:05:01Z</time>
      </trkpt>
      <trkpt lat="46.58376" lon="0.61294">
        <ele>79.2</ele>
        <time>2024-08-24T15:05:02Z</time>
      </trkpt>
      <trkpt lat="46.5839" lon="0.61271">
        <ele>79.8</ele>
        <time>2024-08-24T15:05:09Z</time>
      </trkpt>
      <trkpt lat="46.58396" lon="0.61265">
        <ele>80.4</ele>
        <time>2024-08-24T15:05:11Z</time>
      </trkpt>
      <trkpt lat="46.5841" lon="0.61245">
        <ele>80.8</ele>
        <time>2024-08-24T15:05:16Z</time>
      </trkpt>
      <trkpt lat="46.58423" lon="0.61225">
        <ele>81.4</ele>
        <time>2024-08-24T15:05:21Z</time>
      </trkpt>
      <trkpt lat="46.58425" lon="0.61221">
        <ele>81.4</ele>
        <time>2024-08-24T15:05:22Z</time>
      </trkpt>
      <trkpt lat="46.5844" lon="0.61198">
        <ele>81.8</ele>
        <time>2024-08-24T15:05:28Z</time>
      </trkpt>
      <trkpt lat="46.5845" lon="0.61184">
        <ele>82.4</ele>
        <time>2024-08-24T15:05:32Z</time>
      </trkpt>
      <trkpt lat="46.58455" lon="0.61178">
        <ele>82.6</ele>
        <time>2024-08-24T15:05:34Z</time>
      </trkpt>
      <trkpt lat="46.58459" lon="0.61173">
        <ele>83.4</ele>
        <time>2024-08-24T15:05:37Z</time>
      </trkpt>
      <trkpt lat="46.58463" lon="0.61168">
        <ele>84.2</ele>
        <time>2024-08-24T15:05:39Z</time>
      </trkpt>
      <trkpt lat="46.58465" lon="0.61166">
        <ele>84.6</ele>
        <time>2024-08-24T15:05:40Z</time>
      </trkpt>
      <trkpt lat="46.58476" lon="0.61152">
        <ele>85.2</ele>
        <time>2024-08-24T15:05:45Z</time>
      </trkpt>
      <trkpt lat="46.58485" lon="0.61135">
        <ele>85.8</ele>
        <time>2024-08-24T15:05:49Z</time>
      </trkpt>
      <trkpt lat="46.58491" lon="0.61128">
        <ele>85.8</ele>
        <time>2024-08-24T15:05:51Z</time>
      </trkpt>
      <trkpt lat="46.58503" lon="0.61108">
        <ele>86.4</ele>
        <time>2024-08-24T15:05:57Z</time>
      </trkpt>
      <trkpt lat="46.58508" lon="0.61101">
        <ele>86.8</ele>
        <time>2024-08-24T15:05:59Z</time>
      </trkpt>
      <trkpt lat="46.5852" lon="0.61085">
        <ele>86.8</ele>
        <time>2024-08-24T15:06:03Z</time>
      </trkpt>
      <trkpt lat="46.58539" lon="0.6107">
        <ele>86.4</ele>
        <time>2024-08-24T15:06:08Z</time>
      </trkpt>
      <trkpt lat="46.5856" lon="0.6104">
        <ele>86</ele>
        <time>2024-08-24T15:06:14Z</time>
      </trkpt>
      <trkpt lat="46.5857" lon="0.61027">
        <ele>85.8</ele>
        <time>2024-08-24T15:06:18Z</time>
      </trkpt>
      <trkpt lat="46.58573" lon="0.61023">
        <ele>85.6</ele>
        <time>2024-08-24T15:06:19Z</time>
      </trkpt>
      <trkpt lat="46.58588" lon="0.61001">
        <ele>84.8</ele>
        <time>2024-08-24T15:06:25Z</time>
      </trkpt>
      <trkpt lat="46.58594" lon="0.60991">
        <ele>84.8</ele>
        <time>2024-08-24T15:06:27Z</time>
      </trkpt>
      <trkpt lat="46.58601" lon="0.6098">
        <ele>85.4</ele>
        <time>2024-08-24T15:06:30Z</time>
      </trkpt>
      <trkpt lat="46.58613" lon="0.60966">
        <ele>85.6</ele>
        <time>2024-08-24T15:06:35Z</time>
      </trkpt>
      <trkpt lat="46.58621" lon="0.60959">
        <ele>85.6</ele>
        <time>2024-08-24T15:06:37Z</time>
      </trkpt>
      <trkpt lat="46.58632" lon="0.60944">
        <ele>85.6</ele>
        <time>2024-08-24T15:06:41Z</time>
      </trkpt>
      <trkpt lat="46.58634" lon="0.6094">
        <ele>85.6</ele>
        <time>2024-08-24T15:06:42Z</time>
      </trkpt>
      <trkpt lat="46.58641" lon="0.60936">
        <ele>85.6</ele>
        <time>2024-08-24T15:06:44Z</time>
      </trkpt>
      <trkpt lat="46.58645" lon="0.60934">
        <ele>85.6</ele>
        <time>2024-08-24T15:06:45Z</time>
      </trkpt>
      <trkpt lat="46.58648" lon="0.6093">
        <ele>85.4</ele>
        <time>2024-08-24T15:06:46Z</time>
      </trkpt>
      <trkpt lat="46.58661" lon="0.60914">
        <ele>84.8</ele>
        <time>2024-08-24T15:06:50Z</time>
      </trkpt>
      <trkpt lat="46.58667" lon="0.60904">
        <ele>84.8</ele>
        <time>2024-08-24T15:06:52Z</time>
      </trkpt>
      <trkpt lat="46.58673" lon="0.60891">
        <ele>85</ele>
        <time>2024-08-24T15:06:55Z</time>
      </trkpt>
      <trkpt lat="46.58684" lon="0.60876">
        <ele>85.2</ele>
        <time>2024-08-24T15:06:59Z</time>
      </trkpt>
      <trkpt lat="46.58692" lon="0.60872">
        <ele>85</ele>
        <time>2024-08-24T15:07:01Z</time>
      </trkpt>
      <trkpt lat="46.58701" lon="0.60869">
        <ele>84.6</ele>
        <time>2024-08-24T15:07:03Z</time>
      </trkpt>
      <trkpt lat="46.58705" lon="0.60864">
        <ele>84</ele>
        <time>2024-08-24T15:07:04Z</time>
      </trkpt>
      <trkpt lat="46.5871" lon="0.60858">
        <ele>83.6</ele>
        <time>2024-08-24T15:07:05Z</time>
      </trkpt>
      <trkpt lat="46.58713" lon="0.60852">
        <ele>83</ele>
        <time>2024-08-24T15:07:06Z</time>
      </trkpt>
      <trkpt lat="46.58721" lon="0.60841">
        <ele>82.6</ele>
        <time>2024-08-24T15:07:08Z</time>
      </trkpt>
      <trkpt lat="46.58725" lon="0.60835">
        <ele>82.8</ele>
        <time>2024-08-24T15:07:09Z</time>
      </trkpt>
      <trkpt lat="46.58729" lon="0.60826">
        <ele>82.6</ele>
        <time>2024-08-24T15:07:11Z</time>
      </trkpt>
      <trkpt lat="46.58731" lon="0.60823">
        <ele>83.2</ele>
        <time>2024-08-24T15:07:12Z</time>
      </trkpt>
      <trkpt lat="46.58737" lon="0.60815">
        <ele>84</ele>
        <time>2024-08-24T15:07:15Z</time>
      </trkpt>
      <trkpt lat="46.58743" lon="0.60811">
        <ele>84.2</ele>
        <time>2024-08-24T15:07:18Z</time>
      </trkpt>
      <trkpt lat="46.58745" lon="0.60809">
        <ele>84.2</ele>
        <time>2024-08-24T15:07:19Z</time>
      </trkpt>
      <trkpt lat="46.58754" lon="0.60799">
        <ele>84</ele>
        <time>2024-08-24T15:07:23Z</time>
      </trkpt>
      <trkpt lat="46.58763" lon="0.60789">
        <ele>84.2</ele>
        <time>2024-08-24T15:07:26Z</time>
      </trkpt>
      <trkpt lat="46.5877" lon="0.60779">
        <ele>84</ele>
        <time>2024-08-24T15:07:28Z</time>
      </trkpt>
      <trkpt lat="46.58777" lon="0.6077">
        <ele>84.4</ele>
        <time>2024-08-24T15:07:30Z</time>
      </trkpt>
      <trkpt lat="46.58782" lon="0.60764">
        <ele>84.6</ele>
        <time>2024-08-24T15:07:32Z</time>
      </trkpt>
      <trkpt lat="46.58786" lon="0.60761">
        <ele>84.8</ele>
        <time>2024-08-24T15:07:33Z</time>
      </trkpt>
      <trkpt lat="46.58805" lon="0.60744">
        <ele>85</ele>
        <time>2024-08-24T15:07:38Z</time>
      </trkpt>
      <trkpt lat="46.58809" lon="0.60739">
        <ele>85</ele>
        <time>2024-08-24T15:07:39Z</time>
      </trkpt>
      <trkpt lat="46.5882" lon="0.60724">
        <ele>85</ele>
        <time>2024-08-24T15:07:42Z</time>
      </trkpt>
      <trkpt lat="46.58831" lon="0.60713">
        <ele>85</ele>
        <time>2024-08-24T15:07:45Z</time>
      </trkpt>
      <trkpt lat="46.58845" lon="0.60699">
        <ele>85.2</ele>
        <time>2024-08-24T15:07:48Z</time>
      </trkpt>
      <trkpt lat="46.58854" lon="0.60689">
        <ele>85</ele>
        <time>2024-08-24T15:07:50Z</time>
      </trkpt>
      <trkpt lat="46.58859" lon="0.60685">
        <ele>84.8</ele>
        <time>2024-08-24T15:07:51Z</time>
      </trkpt>
      <trkpt lat="46.58875" lon="0.60669">
        <ele>84.4</ele>
        <time>2024-08-24T15:07:54Z</time>
      </trkpt>
      <trkpt lat="46.58886" lon="0.60657">
        <ele>84.2</ele>
        <time>2024-08-24T15:07:56Z</time>
      </trkpt>
      <trkpt lat="46.58901" lon="0.60639">
        <ele>83.6</ele>
        <time>2024-08-24T15:07:59Z</time>
      </trkpt>
      <trkpt lat="46.58914" lon="0.60624">
        <ele>83.2</ele>
        <time>2024-08-24T15:08:02Z</time>
      </trkpt>
      <trkpt lat="46.58939" lon="0.60601">
        <ele>82.8</ele>
        <time>2024-08-24T15:08:08Z</time>
      </trkpt>
      <trkpt lat="46.58942" lon="0.60597">
        <ele>82.6</ele>
        <time>2024-08-24T15:08:10Z</time>
      </trkpt>
      <trkpt lat="46.58946" lon="0.60593">
        <ele>82.4</ele>
        <time>2024-08-24T15:08:13Z</time>
      </trkpt>
      <trkpt lat="46.58949" lon="0.60587">
        <ele>82.2</ele>
        <time>2024-08-24T15:08:16Z</time>
      </trkpt>
      <trkpt lat="46.58947" lon="0.60581">
        <ele>82.6</ele>
        <time>2024-08-24T15:08:19Z</time>
      </trkpt>
      <trkpt lat="46.58936" lon="0.60578">
        <ele>83.2</ele>
        <time>2024-08-24T15:08:24Z</time>
      </trkpt>
      <trkpt lat="46.58934" lon="0.60576">
        <ele>83.2</ele>
        <time>2024-08-24T15:08:25Z</time>
      </trkpt>
      <trkpt lat="46.58928" lon="0.60575">
        <ele>83.4</ele>
        <time>2024-08-24T15:08:27Z</time>
      </trkpt>
      <trkpt lat="46.58926" lon="0.60575">
        <ele>83.4</ele>
        <time>2024-08-24T15:08:28Z</time>
      </trkpt>
      <trkpt lat="46.58924" lon="0.60574">
        <ele>83.6</ele>
        <time>2024-08-24T15:08:29Z</time>
      </trkpt>
      <trkpt lat="46.58918" lon="0.60568">
        <ele>83.6</ele>
        <time>2024-08-24T15:08:31Z</time>
      </trkpt>
      <trkpt lat="46.58917" lon="0.60565">
        <ele>83.6</ele>
        <time>2024-08-24T15:08:32Z</time>
      </trkpt>
      <trkpt lat="46.58917" lon="0.60562">
        <ele>83.6</ele>
        <time>2024-08-24T15:08:33Z</time>
      </trkpt>
      <trkpt lat="46.58919" lon="0.60555">
        <ele>83.6</ele>
        <time>2024-08-24T15:08:35Z</time>
      </trkpt>
      <trkpt lat="46.58922" lon="0.60551">
        <ele>83.6</ele>
        <time>2024-08-24T15:08:36Z</time>
      </trkpt>
      <trkpt lat="46.58923" lon="0.60546">
        <ele>83.4</ele>
        <time>2024-08-24T15:08:37Z</time>
      </trkpt>
      <trkpt lat="46.58924" lon="0.60537">
        <ele>83</ele>
        <time>2024-08-24T15:08:39Z</time>
      </trkpt>
      <trkpt lat="46.58921" lon="0.60529">
        <ele>82.2</ele>
        <time>2024-08-24T15:08:41Z</time>
      </trkpt>
      <trkpt lat="46.58917" lon="0.60522">
        <ele>81.8</ele>
        <time>2024-08-24T15:08:43Z</time>
      </trkpt>
      <trkpt lat="46.5891" lon="0.60512">
        <ele>81.6</ele>
        <time>2024-08-24T15:08:45Z</time>
      </trkpt>
      <trkpt lat="46.58904" lon="0.60503">
        <ele>81.4</ele>
        <time>2024-08-24T15:08:47Z</time>
      </trkpt>
      <trkpt lat="46.58894" lon="0.60495">
        <ele>81.2</ele>
        <time>2024-08-24T15:08:49Z</time>
      </trkpt>
      <trkpt lat="46.58881" lon="0.60485">
        <ele>81.2</ele>
        <time>2024-08-24T15:08:51Z</time>
      </trkpt>
      <trkpt lat="46.58875" lon="0.60481">
        <ele>81.2</ele>
        <time>2024-08-24T15:08:52Z</time>
      </trkpt>
      <trkpt lat="46.58858" lon="0.60473">
        <ele>80.6</ele>
        <time>2024-08-24T15:08:55Z</time>
      </trkpt>
      <trkpt lat="46.58852" lon="0.60472">
        <ele>80.6</ele>
        <time>2024-08-24T15:08:56Z</time>
      </trkpt>
      <trkpt lat="46.58841" lon="0.60472">
        <ele>80.6</ele>
        <time>2024-08-24T15:08:58Z</time>
      </trkpt>
      <trkpt lat="46.58835" lon="0.60474">
        <ele>80.6</ele>
        <time>2024-08-24T15:08:59Z</time>
      </trkpt>
      <trkpt lat="46.58802" lon="0.6048">
        <ele>82</ele>
        <time>2024-08-24T15:09:07Z</time>
      </trkpt>
      <trkpt lat="46.58778" lon="0.60487">
        <ele>82.6</ele>
        <time>2024-08-24T15:09:12Z</time>
      </trkpt>
      <trkpt lat="46.58773" lon="0.60488">
        <ele>82.6</ele>
        <time>2024-08-24T15:09:13Z</time>
      </trkpt>
      <trkpt lat="46.58765" lon="0.60489">
        <ele>82.8</ele>
        <time>2024-08-24T15:09:15Z</time>
      </trkpt>
      <trkpt lat="46.58747" lon="0.60488">
        <ele>82.8</ele>
        <time>2024-08-24T15:09:18Z</time>
      </trkpt>
      <trkpt lat="46.58733" lon="0.6049">
        <ele>82.6</ele>
        <time>2024-08-24T15:09:20Z</time>
      </trkpt>
      <trkpt lat="46.58719" lon="0.60496">
        <ele>82</ele>
        <time>2024-08-24T15:09:22Z</time>
      </trkpt>
      <trkpt lat="46.58702" lon="0.60504">
        <ele>81.6</ele>
        <time>2024-08-24T15:09:25Z</time>
      </trkpt>
      <trkpt lat="46.58699" lon="0.60505">
        <ele>81.6</ele>
        <time>2024-08-24T15:09:26Z</time>
      </trkpt>
      <trkpt lat="46.58696" lon="0.60505">
        <ele>81.4</ele>
        <time>2024-08-24T15:09:27Z</time>
      </trkpt>
      <trkpt lat="46.58678" lon="0.60508">
        <ele>80.6</ele>
        <time>2024-08-24T15:09:30Z</time>
      </trkpt>
      <trkpt lat="46.58673" lon="0.60509">
        <ele>80.4</ele>
        <time>2024-08-24T15:09:31Z</time>
      </trkpt>
      <trkpt lat="46.58669" lon="0.6051">
        <ele>80.4</ele>
        <time>2024-08-24T15:09:32Z</time>
      </trkpt>
      <trkpt lat="46.58654" lon="0.60513">
        <ele>80.6</ele>
        <time>2024-08-24T15:09:37Z</time>
      </trkpt>
      <trkpt lat="46.58649" lon="0.60513">
        <ele>80.8</ele>
        <time>2024-08-24T15:09:42Z</time>
      </trkpt>
      <trkpt lat="46.5865" lon="0.60506">
        <ele>80.4</ele>
        <time>2024-08-24T15:09:48Z</time>
      </trkpt>
      <trkpt lat="46.58653" lon="0.605">
        <ele>79.2</ele>
        <time>2024-08-24T15:09:51Z</time>
      </trkpt>
      <trkpt lat="46.58658" lon="0.60497">
        <ele>78.2</ele>
        <time>2024-08-24T15:09:53Z</time>
      </trkpt>
      <trkpt lat="46.58661" lon="0.60495">
        <ele>77.6</ele>
        <time>2024-08-24T15:09:54Z</time>
      </trkpt>
      <trkpt lat="46.58669" lon="0.60489">
        <ele>76.4</ele>
        <time>2024-08-24T15:09:57Z</time>
      </trkpt>
      <trkpt lat="46.58674" lon="0.60485">
        <ele>75.8</ele>
        <time>2024-08-24T15:09:59Z</time>
      </trkpt>
      <trkpt lat="46.58676" lon="0.60483">
        <ele>75.6</ele>
        <time>2024-08-24T15:10:00Z</time>
      </trkpt>
      <trkpt lat="46.58679" lon="0.60481">
        <ele>74.8</ele>
        <time>2024-08-24T15:10:01Z</time>
      </trkpt>
      <trkpt lat="46.58679" lon="0.60481">
        <ele>74.6</ele>
        <time>2024-08-24T15:10:03Z</time>
      </trkpt>
      <trkpt lat="46.58685" lon="0.60473">
        <ele>74</ele>
        <time>2024-08-24T15:10:05Z</time>
      </trkpt>
      <trkpt lat="46.58687" lon="0.60471">
        <ele>73.8</ele>
        <time>2024-08-24T15:10:06Z</time>
      </trkpt>
      <trkpt lat="46.58695" lon="0.6046">
        <ele>72.4</ele>
        <time>2024-08-24T15:10:11Z</time>
      </trkpt>
      <trkpt lat="46.58697" lon="0.60457">
        <ele>72</ele>
        <time>2024-08-24T15:10:12Z</time>
      </trkpt>
      <trkpt lat="46.58706" lon="0.60445">
        <ele>71.4</ele>
        <time>2024-08-24T15:10:16Z</time>
      </trkpt>
      <trkpt lat="46.58708" lon="0.60442">
        <ele>70.8</ele>
        <time>2024-08-24T15:10:17Z</time>
      </trkpt>
      <trkpt lat="46.5871" lon="0.60435">
        <ele>70</ele>
        <time>2024-08-24T15:10:19Z</time>
      </trkpt>
      <trkpt lat="46.58713" lon="0.6043">
        <ele>69.6</ele>
        <time>2024-08-24T15:10:21Z</time>
      </trkpt>
      <trkpt lat="46.58724" lon="0.60416">
        <ele>69.4</ele>
        <time>2024-08-24T15:10:26Z</time>
      </trkpt>
      <trkpt lat="46.5874" lon="0.60399">
        <ele>69.2</ele>
        <time>2024-08-24T15:10:32Z</time>
      </trkpt>
      <trkpt lat="46.58743" lon="0.60396">
        <ele>69</ele>
        <time>2024-08-24T15:10:33Z</time>
      </trkpt>
      <trkpt lat="46.58754" lon="0.60386">
        <ele>68.8</ele>
        <time>2024-08-24T15:10:37Z</time>
      </trkpt>
      <trkpt lat="46.5876" lon="0.60379">
        <ele>67.6</ele>
        <time>2024-08-24T15:10:40Z</time>
      </trkpt>
      <trkpt lat="46.58766" lon="0.60376">
        <ele>67.4</ele>
        <time>2024-08-24T15:10:42Z</time>
      </trkpt>
      <trkpt lat="46.58775" lon="0.60372">
        <ele>66.4</ele>
        <time>2024-08-24T15:10:45Z</time>
      </trkpt>
      <trkpt lat="46.58785" lon="0.60369">
        <ele>65.8</ele>
        <time>2024-08-24T15:10:48Z</time>
      </trkpt>
      <trkpt lat="46.58799" lon="0.60361">
        <ele>65.2</ele>
        <time>2024-08-24T15:10:53Z</time>
      </trkpt>
      <trkpt lat="46.5881" lon="0.60358">
        <ele>64.8</ele>
        <time>2024-08-24T15:10:58Z</time>
      </trkpt>
      <trkpt lat="46.58821" lon="0.60358">
        <ele>65.2</ele>
        <time>2024-08-24T15:11:07Z</time>
      </trkpt>
      <trkpt lat="46.58826" lon="0.60359">
        <ele>66.4</ele>
        <time>2024-08-24T15:11:13Z</time>
      </trkpt>
      <trkpt lat="46.58828" lon="0.60359">
        <ele>66.6</ele>
        <time>2024-08-24T15:11:15Z</time>
      </trkpt>
      <trkpt lat="46.58831" lon="0.60362">
        <ele>66.8</ele>
        <time>2024-08-24T15:11:21Z</time>
      </trkpt>
      <trkpt lat="46.58832" lon="0.60362">
        <ele>66.8</ele>
        <time>2024-08-24T15:11:22Z</time>
      </trkpt>
      <trkpt lat="46.58836" lon="0.60359">
        <ele>66.8</ele>
        <time>2024-08-24T15:11:24Z</time>
      </trkpt>
      <trkpt lat="46.58841" lon="0.60355">
        <ele>66.6</ele>
        <time>2024-08-24T15:11:26Z</time>
      </trkpt>
      <trkpt lat="46.58844" lon="0.60354">
        <ele>66.2</ele>
        <time>2024-08-24T15:11:27Z</time>
      </trkpt>
      <trkpt lat="46.5885" lon="0.60353">
        <ele>65</ele>
        <time>2024-08-24T15:11:29Z</time>
      </trkpt>
      <trkpt lat="46.58857" lon="0.60351">
        <ele>64.2</ele>
        <time>2024-08-24T15:11:32Z</time>
      </trkpt>
      <trkpt lat="46.58859" lon="0.60349">
        <ele>63.8</ele>
        <time>2024-08-24T15:11:33Z</time>
      </trkpt>
      <trkpt lat="46.58861" lon="0.60347">
        <ele>62.4</ele>
        <time>2024-08-24T15:11:35Z</time>
      </trkpt>
      <trkpt lat="46.58865" lon="0.60346">
        <ele>62.2</ele>
        <time>2024-08-24T15:11:36Z</time>
      </trkpt>
      <trkpt lat="46.5887" lon="0.60345">
        <ele>62</ele>
        <time>2024-08-24T15:11:37Z</time>
      </trkpt>
      <trkpt lat="46.58877" lon="0.60344">
        <ele>60.8</ele>
        <time>2024-08-24T15:11:39Z</time>
      </trkpt>
      <trkpt lat="46.58884" lon="0.60346">
        <ele>59.4</ele>
        <time>2024-08-24T15:11:41Z</time>
      </trkpt>
      <trkpt lat="46.58887" lon="0.60347">
        <ele>58.8</ele>
        <time>2024-08-24T15:11:42Z</time>
      </trkpt>
      <trkpt lat="46.5889" lon="0.60348">
        <ele>58.6</ele>
        <time>2024-08-24T15:11:43Z</time>
      </trkpt>
      <trkpt lat="46.58893" lon="0.60348">
        <ele>58</ele>
        <time>2024-08-24T15:11:44Z</time>
      </trkpt>
      <trkpt lat="46.58896" lon="0.60348">
        <ele>57.6</ele>
        <time>2024-08-24T15:11:45Z</time>
      </trkpt>
      <trkpt lat="46.58903" lon="0.60349">
        <ele>57.2</ele>
        <time>2024-08-24T15:11:47Z</time>
      </trkpt>
      <trkpt lat="46.5891" lon="0.60348">
        <ele>57.2</ele>
        <time>2024-08-24T15:11:50Z</time>
      </trkpt>
      <trkpt lat="46.58911" lon="0.60347">
        <ele>57.2</ele>
        <time>2024-08-24T15:11:52Z</time>
      </trkpt>
      <trkpt lat="46.58922" lon="0.60348">
        <ele>58.4</ele>
        <time>2024-08-24T15:12:00Z</time>
      </trkpt>
      <trkpt lat="46.58931" lon="0.60346">
        <ele>56.6</ele>
        <time>2024-08-24T15:12:03Z</time>
      </trkpt>
      <trkpt lat="46.58934" lon="0.60347">
        <ele>56.2</ele>
        <time>2024-08-24T15:12:04Z</time>
      </trkpt>
      <trkpt lat="46.58941" lon="0.60349">
        <ele>55.6</ele>
        <time>2024-08-24T15:12:06Z</time>
      </trkpt>
      <trkpt lat="46.58946" lon="0.6035">
        <ele>55</ele>
        <time>2024-08-24T15:12:07Z</time>
      </trkpt>
      <trkpt lat="46.58952" lon="0.60353">
        <ele>54.6</ele>
        <time>2024-08-24T15:12:09Z</time>
      </trkpt>
      <trkpt lat="46.58958" lon="0.60353">
        <ele>54.6</ele>
        <time>2024-08-24T15:12:13Z</time>
      </trkpt>
      <trkpt lat="46.58959" lon="0.60352">
        <ele>55.2</ele>
        <time>2024-08-24T15:12:14Z</time>
      </trkpt>
      <trkpt lat="46.58962" lon="0.6035">
        <ele>56.2</ele>
        <time>2024-08-24T15:12:16Z</time>
      </trkpt>
      <trkpt lat="46.58965" lon="0.60346">
        <ele>57.2</ele>
        <time>2024-08-24T15:12:20Z</time>
      </trkpt>
      <trkpt lat="46.58963" lon="0.60346">
        <ele>57.8</ele>
        <time>2024-08-24T15:12:22Z</time>
      </trkpt>
      <trkpt lat="46.58962" lon="0.60343">
        <ele>58.4</ele>
        <time>2024-08-24T15:12:25Z</time>
      </trkpt>
      <trkpt lat="46.58963" lon="0.6034">
        <ele>58.8</ele>
        <time>2024-08-24T15:12:27Z</time>
      </trkpt>
      <trkpt lat="46.58964" lon="0.60334">
        <ele>59.2</ele>
        <time>2024-08-24T15:12:30Z</time>
      </trkpt>
      <trkpt lat="46.58963" lon="0.60329">
        <ele>59.4</ele>
        <time>2024-08-24T15:12:32Z</time>
      </trkpt>
      <trkpt lat="46.58964" lon="0.60323">
        <ele>60.2</ele>
        <time>2024-08-24T15:12:35Z</time>
      </trkpt>
      <trkpt lat="46.58967" lon="0.60318">
        <ele>60.6</ele>
        <time>2024-08-24T15:12:37Z</time>
      </trkpt>
      <trkpt lat="46.58971" lon="0.60302">
        <ele>60.6</ele>
        <time>2024-08-24T15:12:42Z</time>
      </trkpt>
      <trkpt lat="46.58973" lon="0.60294">
        <ele>60.4</ele>
        <time>2024-08-24T15:12:44Z</time>
      </trkpt>
      <trkpt lat="46.58973" lon="0.6029">
        <ele>60.2</ele>
        <time>2024-08-24T15:12:45Z</time>
      </trkpt>
      <trkpt lat="46.58966" lon="0.6028">
        <ele>59.8</ele>
        <time>2024-08-24T15:12:49Z</time>
      </trkpt>
      <trkpt lat="46.58964" lon="0.60279">
        <ele>59.8</ele>
        <time>2024-08-24T15:12:50Z</time>
      </trkpt>
      <trkpt lat="46.58956" lon="0.60283">
        <ele>61</ele>
        <time>2024-08-24T15:12:56Z</time>
      </trkpt>
      <trkpt lat="46.5895" lon="0.60282">
        <ele>61.6</ele>
        <time>2024-08-24T15:13:00Z</time>
      </trkpt>
      <trkpt lat="46.58948" lon="0.60282">
        <ele>62.2</ele>
        <time>2024-08-24T15:13:02Z</time>
      </trkpt>
      <trkpt lat="46.58945" lon="0.60281">
        <ele>62.8</ele>
        <time>2024-08-24T15:13:04Z</time>
      </trkpt>
      <trkpt lat="46.58936" lon="0.6028">
        <ele>63.6</ele>
        <time>2024-08-24T15:13:10Z</time>
      </trkpt>
      <trkpt lat="46.58935" lon="0.60279">
        <ele>63.8</ele>
        <time>2024-08-24T15:13:11Z</time>
      </trkpt>
      <trkpt lat="46.58932" lon="0.6028">
        <ele>64.2</ele>
        <time>2024-08-24T15:13:13Z</time>
      </trkpt>
      <trkpt lat="46.58931" lon="0.60284">
        <ele>64.8</ele>
        <time>2024-08-24T15:13:16Z</time>
      </trkpt>
      <trkpt lat="46.58931" lon="0.60285">
        <ele>64.8</ele>
        <time>2024-08-24T15:13:17Z</time>
      </trkpt>
      <trkpt lat="46.58928" lon="0.60286">
        <ele>65</ele>
        <time>2024-08-24T15:13:19Z</time>
      </trkpt>
      <trkpt lat="46.58926" lon="0.60286">
        <ele>65.4</ele>
        <time>2024-08-24T15:13:21Z</time>
      </trkpt>
      <trkpt lat="46.58919" lon="0.60287">
        <ele>66</ele>
        <time>2024-08-24T15:13:27Z</time>
      </trkpt>
      <trkpt lat="46.58918" lon="0.60286">
        <ele>66</ele>
        <time>2024-08-24T15:13:28Z</time>
      </trkpt>
      <trkpt lat="46.5891" lon="0.60285">
        <ele>67.2</ele>
        <time>2024-08-24T15:13:33Z</time>
      </trkpt>
      <trkpt lat="46.58906" lon="0.60283">
        <ele>68.2</ele>
        <time>2024-08-24T15:13:36Z</time>
      </trkpt>
      <trkpt lat="46.58896" lon="0.60276">
        <ele>69</ele>
        <time>2024-08-24T15:13:42Z</time>
      </trkpt>
      <trkpt lat="46.58892" lon="0.60275">
        <ele>69.2</ele>
        <time>2024-08-24T15:13:44Z</time>
      </trkpt>
      <trkpt lat="46.58883" lon="0.60271">
        <ele>70</ele>
        <time>2024-08-24T15:13:49Z</time>
      </trkpt>
      <trkpt lat="46.58881" lon="0.6027">
        <ele>70.2</ele>
        <time>2024-08-24T15:13:50Z</time>
      </trkpt>
      <trkpt lat="46.58875" lon="0.60269">
        <ele>70.8</ele>
        <time>2024-08-24T15:13:55Z</time>
      </trkpt>
      <trkpt lat="46.58873" lon="0.6027">
        <ele>71.2</ele>
        <time>2024-08-24T15:13:56Z</time>
      </trkpt>
      <trkpt lat="46.58872" lon="0.60272">
        <ele>71.2</ele>
        <time>2024-08-24T15:13:58Z</time>
      </trkpt>
      <trkpt lat="46.58867" lon="0.60273">
        <ele>71.6</ele>
        <time>2024-08-24T15:14:02Z</time>
      </trkpt>
      <trkpt lat="46.58865" lon="0.60274">
        <ele>71.8</ele>
        <time>2024-08-24T15:14:03Z</time>
      </trkpt>
      <trkpt lat="46.58862" lon="0.60277">
        <ele>72.2</ele>
        <time>2024-08-24T15:14:07Z</time>
      </trkpt>
      <trkpt lat="46.58862" lon="0.60279">
        <ele>72.6</ele>
        <time>2024-08-24T15:14:08Z</time>
      </trkpt>
      <trkpt lat="46.5886" lon="0.6028">
        <ele>73</ele>
        <time>2024-08-24T15:14:09Z</time>
      </trkpt>
      <trkpt lat="46.58857" lon="0.60281">
        <ele>73.2</ele>
        <time>2024-08-24T15:14:11Z</time>
      </trkpt>
      <trkpt lat="46.58851" lon="0.60279">
        <ele>73.6</ele>
        <time>2024-08-24T15:14:14Z</time>
      </trkpt>
      <trkpt lat="46.5885" lon="0.60278">
        <ele>73.8</ele>
        <time>2024-08-24T15:14:15Z</time>
      </trkpt>
      <trkpt lat="46.5884" lon="0.60267">
        <ele>73.8</ele>
        <time>2024-08-24T15:14:20Z</time>
      </trkpt>
      <trkpt lat="46.58834" lon="0.60259">
        <ele>73.6</ele>
        <time>2024-08-24T15:14:23Z</time>
      </trkpt>
      <trkpt lat="46.58829" lon="0.60251">
        <ele>73.2</ele>
        <time>2024-08-24T15:14:26Z</time>
      </trkpt>
      <trkpt lat="46.58824" lon="0.60244">
        <ele>72.8</ele>
        <time>2024-08-24T15:14:29Z</time>
      </trkpt>
      <trkpt lat="46.58821" lon="0.60242">
        <ele>72.6</ele>
        <time>2024-08-24T15:14:30Z</time>
      </trkpt>
      <trkpt lat="46.58819" lon="0.60239">
        <ele>72.4</ele>
        <time>2024-08-24T15:14:31Z</time>
      </trkpt>
      <trkpt lat="46.58815" lon="0.60233">
        <ele>71.8</ele>
        <time>2024-08-24T15:14:33Z</time>
      </trkpt>
      <trkpt lat="46.58812" lon="0.60229">
        <ele>70.6</ele>
        <time>2024-08-24T15:14:34Z</time>
      </trkpt>
      <trkpt lat="46.58809" lon="0.60226">
        <ele>70.2</ele>
        <time>2024-08-24T15:14:35Z</time>
      </trkpt>
      <trkpt lat="46.58804" lon="0.60219">
        <ele>69.4</ele>
        <time>2024-08-24T15:14:37Z</time>
      </trkpt>
      <trkpt lat="46.58801" lon="0.60216">
        <ele>69</ele>
        <time>2024-08-24T15:14:38Z</time>
      </trkpt>
      <trkpt lat="46.58795" lon="0.6021">
        <ele>68</ele>
        <time>2024-08-24T15:14:40Z</time>
      </trkpt>
      <trkpt lat="46.58788" lon="0.60205">
        <ele>66.6</ele>
        <time>2024-08-24T15:14:42Z</time>
      </trkpt>
      <trkpt lat="46.58784" lon="0.60198">
        <ele>65.8</ele>
        <time>2024-08-24T15:14:44Z</time>
      </trkpt>
      <trkpt lat="46.58782" lon="0.60194">
        <ele>65.4</ele>
        <time>2024-08-24T15:14:45Z</time>
      </trkpt>
      <trkpt lat="46.5878" lon="0.6019">
        <ele>64.6</ele>
        <time>2024-08-24T15:14:46Z</time>
      </trkpt>
      <trkpt lat="46.58778" lon="0.60187">
        <ele>64</ele>
        <time>2024-08-24T15:14:47Z</time>
      </trkpt>
      <trkpt lat="46.58776" lon="0.60179">
        <ele>63</ele>
        <time>2024-08-24T15:14:49Z</time>
      </trkpt>
      <trkpt lat="46.58776" lon="0.60172">
        <ele>61.2</ele>
        <time>2024-08-24T15:14:51Z</time>
      </trkpt>
      <trkpt lat="46.58777" lon="0.60165">
        <ele>59.4</ele>
        <time>2024-08-24T15:14:53Z</time>
      </trkpt>
      <trkpt lat="46.58776" lon="0.60161">
        <ele>58.6</ele>
        <time>2024-08-24T15:14:54Z</time>
      </trkpt>
      <trkpt lat="46.58776" lon="0.60157">
        <ele>58</ele>
        <time>2024-08-24T15:14:55Z</time>
      </trkpt>
      <trkpt lat="46.58775" lon="0.60146">
        <ele>57</ele>
        <time>2024-08-24T15:14:57Z</time>
      </trkpt>
      <trkpt lat="46.58781" lon="0.60129">
        <ele>55.6</ele>
        <time>2024-08-24T15:15:00Z</time>
      </trkpt>
      <trkpt lat="46.58782" lon="0.60124">
        <ele>54.4</ele>
        <time>2024-08-24T15:15:01Z</time>
      </trkpt>
      <trkpt lat="46.58784" lon="0.60119">
        <ele>53.6</ele>
        <time>2024-08-24T15:15:02Z</time>
      </trkpt>
      <trkpt lat="46.58785" lon="0.60113">
        <ele>52.8</ele>
        <time>2024-08-24T15:15:03Z</time>
      </trkpt>
      <trkpt lat="46.58784" lon="0.60102">
        <ele>51.8</ele>
        <time>2024-08-24T15:15:05Z</time>
      </trkpt>
      <trkpt lat="46.58781" lon="0.60097">
        <ele>51.6</ele>
        <time>2024-08-24T15:15:06Z</time>
      </trkpt>
      <trkpt lat="46.58779" lon="0.60092">
        <ele>51.6</ele>
        <time>2024-08-24T15:15:07Z</time>
      </trkpt>
      <trkpt lat="46.58767" lon="0.60074">
        <ele>51.4</ele>
        <time>2024-08-24T15:15:11Z</time>
      </trkpt>
      <trkpt lat="46.58758" lon="0.60062">
        <ele>51.4</ele>
        <time>2024-08-24T15:15:14Z</time>
      </trkpt>
      <trkpt lat="46.58749" lon="0.60049">
        <ele>51.8</ele>
        <time>2024-08-24T15:15:17Z</time>
      </trkpt>
      <trkpt lat="46.58736" lon="0.60034">
        <ele>51.8</ele>
        <time>2024-08-24T15:15:23Z</time>
      </trkpt>
      <trkpt lat="46.58734" lon="0.60032">
        <ele>51.8</ele>
        <time>2024-08-24T15:15:25Z</time>
      </trkpt>
      <trkpt lat="46.58733" lon="0.60031">
        <ele>51.8</ele>
        <time>2024-08-24T15:15:27Z</time>
      </trkpt>
      <trkpt lat="46.58733" lon="0.60029">
        <ele>51.6</ele>
        <time>2024-08-24T15:15:28Z</time>
      </trkpt>
      <trkpt lat="46.58731" lon="0.60028">
        <ele>51.6</ele>
        <time>2024-08-24T15:15:34Z</time>
      </trkpt>
      <trkpt lat="46.58731" lon="0.60028">
        <ele>51.4</ele>
        <time>2024-08-24T15:15:37Z</time>
      </trkpt>
      <trkpt lat="46.5873" lon="0.60024">
        <ele>51.8</ele>
        <time>2024-08-24T15:15:48Z</time>
      </trkpt>
      <trkpt lat="46.58727" lon="0.60017">
        <ele>51.8</ele>
        <time>2024-08-24T15:15:53Z</time>
      </trkpt>
      <trkpt lat="46.58725" lon="0.60011">
        <ele>52</ele>
        <time>2024-08-24T15:15:56Z</time>
      </trkpt>
      <trkpt lat="46.58713" lon="0.59991">
        <ele>52</ele>
        <time>2024-08-24T15:16:03Z</time>
      </trkpt>
      <trkpt lat="46.58699" lon="0.59978">
        <ele>52</ele>
        <time>2024-08-24T15:16:07Z</time>
      </trkpt>
      <trkpt lat="46.58682" lon="0.59971">
        <ele>52.8</ele>
        <time>2024-08-24T15:16:11Z</time>
      </trkpt>
      <trkpt lat="46.58671" lon="0.59963">
        <ele>53.2</ele>
        <time>2024-08-24T15:16:14Z</time>
      </trkpt>
      <trkpt lat="46.58651" lon="0.59944">
        <ele>53.8</ele>
        <time>2024-08-24T15:16:20Z</time>
      </trkpt>
      <trkpt lat="46.58648" lon="0.59941">
        <ele>54</ele>
        <time>2024-08-24T15:16:21Z</time>
      </trkpt>
      <trkpt lat="46.58638" lon="0.59932">
        <ele>53.8</ele>
        <time>2024-08-24T15:16:24Z</time>
      </trkpt>
      <trkpt lat="46.58628" lon="0.59923">
        <ele>53.6</ele>
        <time>2024-08-24T15:16:27Z</time>
      </trkpt>
      <trkpt lat="46.58609" lon="0.59904">
        <ele>54.8</ele>
        <time>2024-08-24T15:16:33Z</time>
      </trkpt>
      <trkpt lat="46.58605" lon="0.59902">
        <ele>55</ele>
        <time>2024-08-24T15:16:34Z</time>
      </trkpt>
      <trkpt lat="46.58598" lon="0.59894">
        <ele>55.4</ele>
        <time>2024-08-24T15:16:38Z</time>
      </trkpt>
      <trkpt lat="46.58597" lon="0.59892">
        <ele>55.6</ele>
        <time>2024-08-24T15:16:39Z</time>
      </trkpt>
      <trkpt lat="46.58591" lon="0.59877">
        <ele>56</ele>
        <time>2024-08-24T15:16:44Z</time>
      </trkpt>
      <trkpt lat="46.58587" lon="0.59869">
        <ele>56.2</ele>
        <time>2024-08-24T15:16:46Z</time>
      </trkpt>
      <trkpt lat="46.58574" lon="0.59839">
        <ele>57.2</ele>
        <time>2024-08-24T15:16:54Z</time>
      </trkpt>
      <trkpt lat="46.58577" lon="0.5982">
        <ele>57.2</ele>
        <time>2024-08-24T15:16:59Z</time>
      </trkpt>
      <trkpt lat="46.58584" lon="0.59789">
        <ele>57</ele>
        <time>2024-08-24T15:17:04Z</time>
      </trkpt>
      <trkpt lat="46.58584" lon="0.59782">
        <ele>56.6</ele>
        <time>2024-08-24T15:17:05Z</time>
      </trkpt>
      <trkpt lat="46.58586" lon="0.5976">
        <ele>56.4</ele>
        <time>2024-08-24T15:17:08Z</time>
      </trkpt>
      <trkpt lat="46.58586" lon="0.59752">
        <ele>56.4</ele>
        <time>2024-08-24T15:17:09Z</time>
      </trkpt>
      <trkpt lat="46.58584" lon="0.59745">
        <ele>56.4</ele>
        <time>2024-08-24T15:17:10Z</time>
      </trkpt>
      <trkpt lat="46.58574" lon="0.59722">
        <ele>56.8</ele>
        <time>2024-08-24T15:17:13Z</time>
      </trkpt>
      <trkpt lat="46.58552" lon="0.59678">
        <ele>57.2</ele>
        <time>2024-08-24T15:17:20Z</time>
      </trkpt>
      <trkpt lat="46.58549" lon="0.59673">
        <ele>57.4</ele>
        <time>2024-08-24T15:17:21Z</time>
      </trkpt>
      <trkpt lat="46.58533" lon="0.59642">
        <ele>57.8</ele>
        <time>2024-08-24T15:17:26Z</time>
      </trkpt>
      <trkpt lat="46.58513" lon="0.596">
        <ele>56.8</ele>
        <time>2024-08-24T15:17:34Z</time>
      </trkpt>
      <trkpt lat="46.58508" lon="0.59588">
        <ele>56.8</ele>
        <time>2024-08-24T15:17:36Z</time>
      </trkpt>
      <trkpt lat="46.58501" lon="0.59565">
        <ele>57.4</ele>
        <time>2024-08-24T15:17:40Z</time>
      </trkpt>
      <trkpt lat="46.58494" lon="0.59537">
        <ele>57.6</ele>
        <time>2024-08-24T15:17:46Z</time>
      </trkpt>
      <trkpt lat="46.58489" lon="0.59517">
        <ele>58.2</ele>
        <time>2024-08-24T15:17:51Z</time>
      </trkpt>
      <trkpt lat="46.58487" lon="0.59509">
        <ele>58.6</ele>
        <time>2024-08-24T15:17:53Z</time>
      </trkpt>
      <trkpt lat="46.58484" lon="0.59491">
        <ele>59.4</ele>
        <time>2024-08-24T15:17:59Z</time>
      </trkpt>
      <trkpt lat="46.58486" lon="0.59487">
        <ele>59.8</ele>
        <time>2024-08-24T15:18:01Z</time>
      </trkpt>
      <trkpt lat="46.5849" lon="0.59482">
        <ele>60</ele>
        <time>2024-08-24T15:18:04Z</time>
      </trkpt>
      <trkpt lat="46.58494" lon="0.59478">
        <ele>60.6</ele>
        <time>2024-08-24T15:18:07Z</time>
      </trkpt>
      <trkpt lat="46.58501" lon="0.59473">
        <ele>61</ele>
        <time>2024-08-24T15:18:11Z</time>
      </trkpt>
      <trkpt lat="46.58507" lon="0.59469">
        <ele>61.6</ele>
        <time>2024-08-24T15:18:15Z</time>
      </trkpt>
      <trkpt lat="46.58511" lon="0.59465">
        <ele>62.4</ele>
        <time>2024-08-24T15:18:18Z</time>
      </trkpt>
      <trkpt lat="46.58512" lon="0.59464">
        <ele>62.8</ele>
        <time>2024-08-24T15:18:19Z</time>
      </trkpt>
      <trkpt lat="46.58517" lon="0.59456">
        <ele>64</ele>
        <time>2024-08-24T15:18:24Z</time>
      </trkpt>
      <trkpt lat="46.5852" lon="0.59453">
        <ele>64.2</ele>
        <time>2024-08-24T15:18:26Z</time>
      </trkpt>
      <trkpt lat="46.5853" lon="0.59437">
        <ele>64.8</ele>
        <time>2024-08-24T15:18:34Z</time>
      </trkpt>
      <trkpt lat="46.58532" lon="0.59434">
        <ele>65</ele>
        <time>2024-08-24T15:18:35Z</time>
      </trkpt>
      <trkpt lat="46.58536" lon="0.59423">
        <ele>66.2</ele>
        <time>2024-08-24T15:18:40Z</time>
      </trkpt>
      <trkpt lat="46.58538" lon="0.59419">
        <ele>67</ele>
        <time>2024-08-24T15:18:42Z</time>
      </trkpt>
      <trkpt lat="46.5854" lon="0.5941">
        <ele>67.4</ele>
        <time>2024-08-24T15:18:46Z</time>
      </trkpt>
      <trkpt lat="46.58545" lon="0.59397">
        <ele>68.2</ele>
        <time>2024-08-24T15:18:51Z</time>
      </trkpt>
      <trkpt lat="46.58547" lon="0.59394">
        <ele>68.4</ele>
        <time>2024-08-24T15:18:52Z</time>
      </trkpt>
      <trkpt lat="46.58555" lon="0.5938">
        <ele>68.6</ele>
        <time>2024-08-24T15:18:58Z</time>
      </trkpt>
      <trkpt lat="46.58563" lon="0.59358">
        <ele>69.4</ele>
        <time>2024-08-24T15:19:06Z</time>
      </trkpt>
      <trkpt lat="46.58565" lon="0.59356">
        <ele>69.4</ele>
        <time>2024-08-24T15:19:07Z</time>
      </trkpt>
      <trkpt lat="46.58575" lon="0.59341">
        <ele>70.2</ele>
        <time>2024-08-24T15:19:14Z</time>
      </trkpt>
      <trkpt lat="46.58578" lon="0.59336">
        <ele>70.6</ele>
        <time>2024-08-24T15:19:16Z</time>
      </trkpt>
      <trkpt lat="46.58588" lon="0.59326">
        <ele>71</ele>
        <time>2024-08-24T15:19:21Z</time>
      </trkpt>
      <trkpt lat="46.58601" lon="0.59313">
        <ele>71.4</ele>
        <time>2024-08-24T15:19:28Z</time>
      </trkpt>
      <trkpt lat="46.58608" lon="0.59305">
        <ele>71.6</ele>
        <time>2024-08-24T15:19:32Z</time>
      </trkpt>
      <trkpt lat="46.58614" lon="0.593">
        <ele>72.2</ele>
        <time>2024-08-24T15:19:36Z</time>
      </trkpt>
      <trkpt lat="46.58627" lon="0.59283">
        <ele>72.6</ele>
        <time>2024-08-24T15:19:43Z</time>
      </trkpt>
      <trkpt lat="46.58642" lon="0.59264">
        <ele>73.4</ele>
        <time>2024-08-24T15:19:50Z</time>
      </trkpt>
      <trkpt lat="46.58644" lon="0.59259">
        <ele>74</ele>
        <time>2024-08-24T15:19:52Z</time>
      </trkpt>
      <trkpt lat="46.58646" lon="0.59257">
        <ele>75.2</ele>
        <time>2024-08-24T15:19:53Z</time>
      </trkpt>
      <trkpt lat="46.5865" lon="0.59246">
        <ele>76.4</ele>
        <time>2024-08-24T15:19:57Z</time>
      </trkpt>
      <trkpt lat="46.58654" lon="0.59241">
        <ele>76.6</ele>
        <time>2024-08-24T15:19:59Z</time>
      </trkpt>
      <trkpt lat="46.58664" lon="0.59216">
        <ele>75.8</ele>
        <time>2024-08-24T15:20:07Z</time>
      </trkpt>
      <trkpt lat="46.58671" lon="0.59197">
        <ele>76.4</ele>
        <time>2024-08-24T15:20:15Z</time>
      </trkpt>
      <trkpt lat="46.58673" lon="0.59178">
        <ele>77.2</ele>
        <time>2024-08-24T15:20:21Z</time>
      </trkpt>
      <trkpt lat="46.58674" lon="0.59175">
        <ele>77.6</ele>
        <time>2024-08-24T15:20:22Z</time>
      </trkpt>
      <trkpt lat="46.58677" lon="0.59159">
        <ele>78.6</ele>
        <time>2024-08-24T15:20:28Z</time>
      </trkpt>
      <trkpt lat="46.58681" lon="0.59134">
        <ele>79.8</ele>
        <time>2024-08-24T15:20:37Z</time>
      </trkpt>
      <trkpt lat="46.58681" lon="0.59106">
        <ele>80.4</ele>
        <time>2024-08-24T15:20:45Z</time>
      </trkpt>
      <trkpt lat="46.58673" lon="0.59073">
        <ele>81</ele>
        <time>2024-08-24T15:20:52Z</time>
      </trkpt>
      <trkpt lat="46.58672" lon="0.59069">
        <ele>81.2</ele>
        <time>2024-08-24T15:20:53Z</time>
      </trkpt>
      <trkpt lat="46.58663" lon="0.59035">
        <ele>79.8</ele>
        <time>2024-08-24T15:21:00Z</time>
      </trkpt>
      <trkpt lat="46.58662" lon="0.5903">
        <ele>79.6</ele>
        <time>2024-08-24T15:21:01Z</time>
      </trkpt>
      <trkpt lat="46.58657" lon="0.58991">
        <ele>80.4</ele>
        <time>2024-08-24T15:21:09Z</time>
      </trkpt>
      <trkpt lat="46.58657" lon="0.58982">
        <ele>80.4</ele>
        <time>2024-08-24T15:21:11Z</time>
      </trkpt>
      <trkpt lat="46.58655" lon="0.58954">
        <ele>80.8</ele>
        <time>2024-08-24T15:21:17Z</time>
      </trkpt>
      <trkpt lat="46.58655" lon="0.58949">
        <ele>80.6</ele>
        <time>2024-08-24T15:21:18Z</time>
      </trkpt>
      <trkpt lat="46.58654" lon="0.58913">
        <ele>81.8</ele>
        <time>2024-08-24T15:21:27Z</time>
      </trkpt>
      <trkpt lat="46.58652" lon="0.58874">
        <ele>83</ele>
        <time>2024-08-24T15:21:37Z</time>
      </trkpt>
      <trkpt lat="46.5865" lon="0.58843">
        <ele>83.8</ele>
        <time>2024-08-24T15:21:45Z</time>
      </trkpt>
      <trkpt lat="46.5865" lon="0.58839">
        <ele>84</ele>
        <time>2024-08-24T15:21:46Z</time>
      </trkpt>
      <trkpt lat="46.58648" lon="0.58815">
        <ele>85</ele>
        <time>2024-08-24T15:21:53Z</time>
      </trkpt>
      <trkpt lat="46.58646" lon="0.58781">
        <ele>84.8</ele>
        <time>2024-08-24T15:22:02Z</time>
      </trkpt>
      <trkpt lat="46.58645" lon="0.58777">
        <ele>85.2</ele>
        <time>2024-08-24T15:22:03Z</time>
      </trkpt>
      <trkpt lat="46.58645" lon="0.58759">
        <ele>85.4</ele>
        <time>2024-08-24T15:22:08Z</time>
      </trkpt>
      <trkpt lat="46.58644" lon="0.58751">
        <ele>85.2</ele>
        <time>2024-08-24T15:22:10Z</time>
      </trkpt>
      <trkpt lat="46.58643" lon="0.58721">
        <ele>85.4</ele>
        <time>2024-08-24T15:22:18Z</time>
      </trkpt>
      <trkpt lat="46.58641" lon="0.58706">
        <ele>86.4</ele>
        <time>2024-08-24T15:22:22Z</time>
      </trkpt>
      <trkpt lat="46.58641" lon="0.58685">
        <ele>86.6</ele>
        <time>2024-08-24T15:22:27Z</time>
      </trkpt>
      <trkpt lat="46.58639" lon="0.58661">
        <ele>87.6</ele>
        <time>2024-08-24T15:22:33Z</time>
      </trkpt>
      <trkpt lat="46.58639" lon="0.5865">
        <ele>88</ele>
        <time>2024-08-24T15:22:36Z</time>
      </trkpt>
      <trkpt lat="46.58638" lon="0.58636">
        <ele>88.6</ele>
        <time>2024-08-24T15:22:40Z</time>
      </trkpt>
      <trkpt lat="46.58637" lon="0.58621">
        <ele>88</ele>
        <time>2024-08-24T15:22:44Z</time>
      </trkpt>
      <trkpt lat="46.58636" lon="0.5861">
        <ele>87.6</ele>
        <time>2024-08-24T15:22:47Z</time>
      </trkpt>
      <trkpt lat="46.58634" lon="0.58594">
        <ele>87.4</ele>
        <time>2024-08-24T15:22:51Z</time>
      </trkpt>
      <trkpt lat="46.58633" lon="0.58564">
        <ele>87.4</ele>
        <time>2024-08-24T15:22:59Z</time>
      </trkpt>
      <trkpt lat="46.58632" lon="0.58542">
        <ele>88</ele>
        <time>2024-08-24T15:23:06Z</time>
      </trkpt>
      <trkpt lat="46.58631" lon="0.58526">
        <ele>88</ele>
        <time>2024-08-24T15:23:11Z</time>
      </trkpt>
      <trkpt lat="46.58629" lon="0.58507">
        <ele>88.2</ele>
        <time>2024-08-24T15:23:17Z</time>
      </trkpt>
      <trkpt lat="46.58629" lon="0.58486">
        <ele>88.6</ele>
        <time>2024-08-24T15:23:23Z</time>
      </trkpt>
      <trkpt lat="46.58628" lon="0.58479">
        <ele>89</ele>
        <time>2024-08-24T15:23:25Z</time>
      </trkpt>
      <trkpt lat="46.58631" lon="0.5845">
        <ele>88.8</ele>
        <time>2024-08-24T15:23:33Z</time>
      </trkpt>
      <trkpt lat="46.58632" lon="0.58448">
        <ele>88.8</ele>
        <time>2024-08-24T15:23:34Z</time>
      </trkpt>
      <trkpt lat="46.58637" lon="0.58448">
        <ele>88.6</ele>
        <time>2024-08-24T15:23:36Z</time>
      </trkpt>
      <trkpt lat="46.58653" lon="0.58451">
        <ele>88.6</ele>
        <time>2024-08-24T15:23:42Z</time>
      </trkpt>
      <trkpt lat="46.58656" lon="0.58455">
        <ele>88.6</ele>
        <time>2024-08-24T15:23:44Z</time>
      </trkpt>
      <trkpt lat="46.58658" lon="0.58459">
        <ele>88.8</ele>
        <time>2024-08-24T15:23:46Z</time>
      </trkpt>
      <trkpt lat="46.58666" lon="0.58472">
        <ele>89</ele>
        <time>2024-08-24T15:23:52Z</time>
      </trkpt>
      <trkpt lat="46.58678" lon="0.58489">
        <ele>89</ele>
        <time>2024-08-24T15:23:58Z</time>
      </trkpt>
      <trkpt lat="46.58697" lon="0.58511">
        <ele>89.4</ele>
        <time>2024-08-24T15:24:05Z</time>
      </trkpt>
      <trkpt lat="46.58716" lon="0.58535">
        <ele>89.4</ele>
        <time>2024-08-24T15:24:11Z</time>
      </trkpt>
      <trkpt lat="46.58748" lon="0.58575">
        <ele>89</ele>
        <time>2024-08-24T15:24:20Z</time>
      </trkpt>
      <trkpt lat="46.58772" lon="0.58607">
        <ele>87.8</ele>
        <time>2024-08-24T15:24:27Z</time>
      </trkpt>
      <trkpt lat="46.58784" lon="0.58623">
        <ele>87.6</ele>
        <time>2024-08-24T15:24:30Z</time>
      </trkpt>
      <trkpt lat="46.58809" lon="0.58651">
        <ele>87.6</ele>
        <time>2024-08-24T15:24:36Z</time>
      </trkpt>
      <trkpt lat="46.58818" lon="0.58658">
        <ele>87.4</ele>
        <time>2024-08-24T15:24:38Z</time>
      </trkpt>
      <trkpt lat="46.58833" lon="0.58665">
        <ele>87.6</ele>
        <time>2024-08-24T15:24:41Z</time>
      </trkpt>
      <trkpt lat="46.5887" lon="0.5867">
        <ele>87.2</ele>
        <time>2024-08-24T15:24:48Z</time>
      </trkpt>
      <trkpt lat="46.58894" lon="0.5867">
        <ele>87.8</ele>
        <time>2024-08-24T15:24:53Z</time>
      </trkpt>
      <trkpt lat="46.58899" lon="0.5867">
        <ele>87.8</ele>
        <time>2024-08-24T15:24:54Z</time>
      </trkpt>
      <trkpt lat="46.58928" lon="0.5867">
        <ele>87.6</ele>
        <time>2024-08-24T15:25:00Z</time>
      </trkpt>
      <trkpt lat="46.58966" lon="0.58668">
        <ele>86.8</ele>
        <time>2024-08-24T15:25:07Z</time>
      </trkpt>
      <trkpt lat="46.59022" lon="0.58667">
        <ele>87.2</ele>
        <time>2024-08-24T15:25:17Z</time>
      </trkpt>
      <trkpt lat="46.59027" lon="0.58666">
        <ele>87.2</ele>
        <time>2024-08-24T15:25:18Z</time>
      </trkpt>
      <trkpt lat="46.59048" lon="0.58666">
        <ele>86.6</ele>
        <time>2024-08-24T15:25:22Z</time>
      </trkpt>
      <trkpt lat="46.59062" lon="0.58666">
        <ele>86.2</ele>
        <time>2024-08-24T15:25:25Z</time>
      </trkpt>
      <trkpt lat="46.5907" lon="0.58666">
        <ele>86.2</ele>
        <time>2024-08-24T15:25:27Z</time>
      </trkpt>
      <trkpt lat="46.59077" lon="0.58663">
        <ele>86.2</ele>
        <time>2024-08-24T15:25:29Z</time>
      </trkpt>
      <trkpt lat="46.59081" lon="0.5865">
        <ele>87</ele>
        <time>2024-08-24T15:25:32Z</time>
      </trkpt>
      <trkpt lat="46.59076" lon="0.58631">
        <ele>87.6</ele>
        <time>2024-08-24T15:25:37Z</time>
      </trkpt>
      <trkpt lat="46.59063" lon="0.58593">
        <ele>87</ele>
        <time>2024-08-24T15:25:44Z</time>
      </trkpt>
      <trkpt lat="46.59063" lon="0.5858">
        <ele>87.2</ele>
        <time>2024-08-24T15:25:46Z</time>
      </trkpt>
      <trkpt lat="46.59067" lon="0.58569">
        <ele>87.2</ele>
        <time>2024-08-24T15:25:48Z</time>
      </trkpt>
      <trkpt lat="46.59077" lon="0.58556">
        <ele>87.8</ele>
        <time>2024-08-24T15:25:51Z</time>
      </trkpt>
      <trkpt lat="46.59081" lon="0.58552">
        <ele>87.6</ele>
        <time>2024-08-24T15:25:52Z</time>
      </trkpt>
      <trkpt lat="46.59085" lon="0.58548">
        <ele>87.4</ele>
        <time>2024-08-24T15:25:53Z</time>
      </trkpt>
      <trkpt lat="46.59098" lon="0.58535">
        <ele>86.6</ele>
        <time>2024-08-24T15:25:57Z</time>
      </trkpt>
      <trkpt lat="46.5911" lon="0.58527">
        <ele>85.6</ele>
        <time>2024-08-24T15:26:00Z</time>
      </trkpt>
      <trkpt lat="46.59115" lon="0.58524">
        <ele>85.6</ele>
        <time>2024-08-24T15:26:01Z</time>
      </trkpt>
      <trkpt lat="46.59141" lon="0.58504">
        <ele>85.4</ele>
        <time>2024-08-24T15:26:07Z</time>
      </trkpt>
      <trkpt lat="46.59151" lon="0.58497">
        <ele>84.6</ele>
        <time>2024-08-24T15:26:09Z</time>
      </trkpt>
      <trkpt lat="46.59156" lon="0.58495">
        <ele>84.4</ele>
        <time>2024-08-24T15:26:10Z</time>
      </trkpt>
      <trkpt lat="46.59172" lon="0.58486">
        <ele>83.8</ele>
        <time>2024-08-24T15:26:13Z</time>
      </trkpt>
      <trkpt lat="46.59191" lon="0.58472">
        <ele>84.2</ele>
        <time>2024-08-24T15:26:17Z</time>
      </trkpt>
      <trkpt lat="46.59206" lon="0.58464">
        <ele>84.4</ele>
        <time>2024-08-24T15:26:20Z</time>
      </trkpt>
      <trkpt lat="46.59233" lon="0.58454">
        <ele>84.4</ele>
        <time>2024-08-24T15:26:25Z</time>
      </trkpt>
      <trkpt lat="46.59238" lon="0.58454">
        <ele>84.2</ele>
        <time>2024-08-24T15:26:26Z</time>
      </trkpt>
      <trkpt lat="46.59284" lon="0.58446">
        <ele>83.6</ele>
        <time>2024-08-24T15:26:35Z</time>
      </trkpt>
      <trkpt lat="46.59295" lon="0.5844">
        <ele>83.6</ele>
        <time>2024-08-24T15:26:37Z</time>
      </trkpt>
      <trkpt lat="46.59309" lon="0.58428">
        <ele>83.6</ele>
        <time>2024-08-24T15:26:40Z</time>
      </trkpt>
      <trkpt lat="46.59342" lon="0.58404">
        <ele>83.8</ele>
        <time>2024-08-24T15:26:47Z</time>
      </trkpt>
      <trkpt lat="46.59378" lon="0.58381">
        <ele>84</ele>
        <time>2024-08-24T15:26:54Z</time>
      </trkpt>
      <trkpt lat="46.59406" lon="0.58366">
        <ele>83.4</ele>
        <time>2024-08-24T15:26:59Z</time>
      </trkpt>
      <trkpt lat="46.59429" lon="0.58353">
        <ele>82.2</ele>
        <time>2024-08-24T15:27:03Z</time>
      </trkpt>
      <trkpt lat="46.59441" lon="0.58336">
        <ele>81.2</ele>
        <time>2024-08-24T15:27:06Z</time>
      </trkpt>
      <trkpt lat="46.59443" lon="0.58328">
        <ele>81</ele>
        <time>2024-08-24T15:27:07Z</time>
      </trkpt>
      <trkpt lat="46.59445" lon="0.5832">
        <ele>81</ele>
        <time>2024-08-24T15:27:08Z</time>
      </trkpt>
      <trkpt lat="46.59446" lon="0.58302">
        <ele>80.6</ele>
        <time>2024-08-24T15:27:10Z</time>
      </trkpt>
      <trkpt lat="46.59447" lon="0.58284">
        <ele>80.4</ele>
        <time>2024-08-24T15:27:12Z</time>
      </trkpt>
      <trkpt lat="46.59448" lon="0.58256">
        <ele>79.8</ele>
        <time>2024-08-24T15:27:15Z</time>
      </trkpt>
      <trkpt lat="46.59449" lon="0.58216">
        <ele>78.8</ele>
        <time>2024-08-24T15:27:19Z</time>
      </trkpt>
      <trkpt lat="46.5945" lon="0.58185">
        <ele>78.6</ele>
        <time>2024-08-24T15:27:22Z</time>
      </trkpt>
      <trkpt lat="46.59455" lon="0.58166">
        <ele>77.6</ele>
        <time>2024-08-24T15:27:24Z</time>
      </trkpt>
      <trkpt lat="46.59463" lon="0.58148">
        <ele>76.2</ele>
        <time>2024-08-24T15:27:26Z</time>
      </trkpt>
      <trkpt lat="46.59474" lon="0.58132">
        <ele>75.4</ele>
        <time>2024-08-24T15:27:28Z</time>
      </trkpt>
      <trkpt lat="46.59479" lon="0.58124">
        <ele>75</ele>
        <time>2024-08-24T15:27:29Z</time>
      </trkpt>
      <trkpt lat="46.59495" lon="0.581">
        <ele>73.6</ele>
        <time>2024-08-24T15:27:32Z</time>
      </trkpt>
      <trkpt lat="46.59504" lon="0.58086">
        <ele>72.8</ele>
        <time>2024-08-24T15:27:34Z</time>
      </trkpt>
      <trkpt lat="46.59506" lon="0.58083">
        <ele>72.4</ele>
        <time>2024-08-24T15:27:35Z</time>
      </trkpt>
      <trkpt lat="46.59506" lon="0.58077">
        <ele>72.2</ele>
        <time>2024-08-24T15:27:37Z</time>
      </trkpt>
      <trkpt lat="46.59506" lon="0.58059">
        <ele>72</ele>
        <time>2024-08-24T15:27:43Z</time>
      </trkpt>
      <trkpt lat="46.59514" lon="0.58038">
        <ele>73</ele>
        <time>2024-08-24T15:27:48Z</time>
      </trkpt>
      <trkpt lat="46.59516" lon="0.58037">
        <ele>73.2</ele>
        <time>2024-08-24T15:27:49Z</time>
      </trkpt>
      <trkpt lat="46.59522" lon="0.58037">
        <ele>73.4</ele>
        <time>2024-08-24T15:27:51Z</time>
      </trkpt>
      <trkpt lat="46.59536" lon="0.58045">
        <ele>74</ele>
        <time>2024-08-24T15:27:57Z</time>
      </trkpt>
      <trkpt lat="46.59542" lon="0.58047">
        <ele>74</ele>
        <time>2024-08-24T15:27:59Z</time>
      </trkpt>
      <trkpt lat="46.59552" lon="0.58046">
        <ele>74</ele>
        <time>2024-08-24T15:28:02Z</time>
      </trkpt>
      <trkpt lat="46.5956" lon="0.58043">
        <ele>74</ele>
        <time>2024-08-24T15:28:04Z</time>
      </trkpt>
      <trkpt lat="46.5957" lon="0.58037">
        <ele>74.4</ele>
        <time>2024-08-24T15:28:07Z</time>
      </trkpt>
      <trkpt lat="46.59579" lon="0.58032">
        <ele>74.4</ele>
        <time>2024-08-24T15:28:10Z</time>
      </trkpt>
      <trkpt lat="46.59587" lon="0.5803">
        <ele>74.4</ele>
        <time>2024-08-24T15:28:12Z</time>
      </trkpt>
      <trkpt lat="46.59591" lon="0.58029">
        <ele>74.4</ele>
        <time>2024-08-24T15:28:13Z</time>
      </trkpt>
      <trkpt lat="46.59595" lon="0.58028">
        <ele>74.6</ele>
        <time>2024-08-24T15:28:14Z</time>
      </trkpt>
      <trkpt lat="46.59598" lon="0.58026">
        <ele>74.8</ele>
        <time>2024-08-24T15:28:15Z</time>
      </trkpt>
      <trkpt lat="46.59619" lon="0.58017">
        <ele>73.8</ele>
        <time>2024-08-24T15:28:20Z</time>
      </trkpt>
      <trkpt lat="46.59624" lon="0.58015">
        <ele>73.8</ele>
        <time>2024-08-24T15:28:21Z</time>
      </trkpt>
      <trkpt lat="46.59633" lon="0.58014">
        <ele>73</ele>
        <time>2024-08-24T15:28:23Z</time>
      </trkpt>
      <trkpt lat="46.59644" lon="0.58014">
        <ele>72</ele>
        <time>2024-08-24T15:28:25Z</time>
      </trkpt>
      <trkpt lat="46.59652" lon="0.58013">
        <ele>71.8</ele>
        <time>2024-08-24T15:28:26Z</time>
      </trkpt>
      <trkpt lat="46.5966" lon="0.58011">
        <ele>71.6</ele>
        <time>2024-08-24T15:28:27Z</time>
      </trkpt>
      <trkpt lat="46.59677" lon="0.58007">
        <ele>71</ele>
        <time>2024-08-24T15:28:29Z</time>
      </trkpt>
      <trkpt lat="46.59686" lon="0.58005">
        <ele>69.8</ele>
        <time>2024-08-24T15:28:30Z</time>
      </trkpt>
      <trkpt lat="46.59705" lon="0.57999">
        <ele>68.6</ele>
        <time>2024-08-24T15:28:32Z</time>
      </trkpt>
      <trkpt lat="46.59722" lon="0.57994">
        <ele>67.8</ele>
        <time>2024-08-24T15:28:34Z</time>
      </trkpt>
      <trkpt lat="46.5973" lon="0.57991">
        <ele>67</ele>
        <time>2024-08-24T15:28:35Z</time>
      </trkpt>
      <trkpt lat="46.59737" lon="0.5799">
        <ele>66.6</ele>
        <time>2024-08-24T15:28:36Z</time>
      </trkpt>
      <trkpt lat="46.59744" lon="0.5799">
        <ele>65.6</ele>
        <time>2024-08-24T15:28:37Z</time>
      </trkpt>
      <trkpt lat="46.59751" lon="0.57992">
        <ele>65</ele>
        <time>2024-08-24T15:28:38Z</time>
      </trkpt>
      <trkpt lat="46.59759" lon="0.57993">
        <ele>64.2</ele>
        <time>2024-08-24T15:28:39Z</time>
      </trkpt>
      <trkpt lat="46.59776" lon="0.57999">
        <ele>63</ele>
        <time>2024-08-24T15:28:41Z</time>
      </trkpt>
      <trkpt lat="46.59794" lon="0.58004">
        <ele>62.4</ele>
        <time>2024-08-24T15:28:43Z</time>
      </trkpt>
      <trkpt lat="46.59799" lon="0.58007">
        <ele>62.4</ele>
        <time>2024-08-24T15:28:44Z</time>
      </trkpt>
      <trkpt lat="46.59813" lon="0.58017">
        <ele>63.2</ele>
        <time>2024-08-24T15:28:47Z</time>
      </trkpt>
      <trkpt lat="46.59816" lon="0.58019">
        <ele>63.4</ele>
        <time>2024-08-24T15:28:48Z</time>
      </trkpt>
      <trkpt lat="46.59816" lon="0.58019">
        <ele>64</ele>
        <time>2024-08-24T15:28:49Z</time>
      </trkpt>
      <trkpt lat="46.59828" lon="0.58027">
        <ele>65.2</ele>
        <time>2024-08-24T15:28:52Z</time>
      </trkpt>
      <trkpt lat="46.59833" lon="0.58033">
        <ele>65.6</ele>
        <time>2024-08-24T15:28:54Z</time>
      </trkpt>
      <trkpt lat="46.59847" lon="0.58039">
        <ele>66.2</ele>
        <time>2024-08-24T15:28:58Z</time>
      </trkpt>
      <trkpt lat="46.59851" lon="0.58042">
        <ele>66.6</ele>
        <time>2024-08-24T15:29:00Z</time>
      </trkpt>
      <trkpt lat="46.5986" lon="0.58049">
        <ele>67.4</ele>
        <time>2024-08-24T15:29:04Z</time>
      </trkpt>
      <trkpt lat="46.59868" lon="0.58055">
        <ele>67.4</ele>
        <time>2024-08-24T15:29:07Z</time>
      </trkpt>
      <trkpt lat="46.59879" lon="0.58066">
        <ele>68.4</ele>
        <time>2024-08-24T15:29:11Z</time>
      </trkpt>
      <trkpt lat="46.59888" lon="0.58074">
        <ele>69</ele>
        <time>2024-08-24T15:29:14Z</time>
      </trkpt>
      <trkpt lat="46.59902" lon="0.58088">
        <ele>69.8</ele>
        <time>2024-08-24T15:29:21Z</time>
      </trkpt>
      <trkpt lat="46.59905" lon="0.58091">
        <ele>69.8</ele>
        <time>2024-08-24T15:29:22Z</time>
      </trkpt>
      <trkpt lat="46.59917" lon="0.58109">
        <ele>70.2</ele>
        <time>2024-08-24T15:29:28Z</time>
      </trkpt>
      <trkpt lat="46.59936" lon="0.58129">
        <ele>70.6</ele>
        <time>2024-08-24T15:29:35Z</time>
      </trkpt>
      <trkpt lat="46.59939" lon="0.58133">
        <ele>70.8</ele>
        <time>2024-08-24T15:29:36Z</time>
      </trkpt>
      <trkpt lat="46.59949" lon="0.5815">
        <ele>71</ele>
        <time>2024-08-24T15:29:40Z</time>
      </trkpt>
      <trkpt lat="46.59953" lon="0.58161">
        <ele>70.8</ele>
        <time>2024-08-24T15:29:42Z</time>
      </trkpt>
      <trkpt lat="46.5996" lon="0.58182">
        <ele>70.4</ele>
        <time>2024-08-24T15:29:45Z</time>
      </trkpt>
      <trkpt lat="46.59963" lon="0.58189">
        <ele>70.4</ele>
        <time>2024-08-24T15:29:46Z</time>
      </trkpt>
      <trkpt lat="46.59971" lon="0.58199">
        <ele>70.2</ele>
        <time>2024-08-24T15:29:48Z</time>
      </trkpt>
      <trkpt lat="46.59975" lon="0.58202">
        <ele>70.2</ele>
        <time>2024-08-24T15:29:49Z</time>
      </trkpt>
      <trkpt lat="46.59996" lon="0.58218">
        <ele>71</ele>
        <time>2024-08-24T15:29:55Z</time>
      </trkpt>
      <trkpt lat="46.60008" lon="0.58226">
        <ele>71.8</ele>
        <time>2024-08-24T15:29:59Z</time>
      </trkpt>
      <trkpt lat="46.60018" lon="0.58231">
        <ele>72.4</ele>
        <time>2024-08-24T15:30:02Z</time>
      </trkpt>
      <trkpt lat="46.60033" lon="0.5824">
        <ele>72.8</ele>
        <time>2024-08-24T15:30:07Z</time>
      </trkpt>
      <trkpt lat="46.60044" lon="0.58245">
        <ele>73.2</ele>
        <time>2024-08-24T15:30:10Z</time>
      </trkpt>
      <trkpt lat="46.60069" lon="0.58253">
        <ele>74</ele>
        <time>2024-08-24T15:30:16Z</time>
      </trkpt>
      <trkpt lat="46.60078" lon="0.58256">
        <ele>75</ele>
        <time>2024-08-24T15:30:18Z</time>
      </trkpt>
      <trkpt lat="46.60114" lon="0.58264">
        <ele>74.6</ele>
        <time>2024-08-24T15:30:27Z</time>
      </trkpt>
      <trkpt lat="46.6013" lon="0.58267">
        <ele>73.8</ele>
        <time>2024-08-24T15:30:31Z</time>
      </trkpt>
      <trkpt lat="46.60151" lon="0.58271">
        <ele>73.8</ele>
        <time>2024-08-24T15:30:36Z</time>
      </trkpt>
      <trkpt lat="46.60183" lon="0.58275">
        <ele>74.2</ele>
        <time>2024-08-24T15:30:42Z</time>
      </trkpt>
      <trkpt lat="46.60224" lon="0.58282">
        <ele>73.4</ele>
        <time>2024-08-24T15:30:50Z</time>
      </trkpt>
      <trkpt lat="46.60233" lon="0.58288">
        <ele>73.2</ele>
        <time>2024-08-24T15:30:52Z</time>
      </trkpt>
      <trkpt lat="46.60237" lon="0.58293">
        <ele>73.4</ele>
        <time>2024-08-24T15:30:53Z</time>
      </trkpt>
      <trkpt lat="46.60257" lon="0.58334">
        <ele>73</ele>
        <time>2024-08-24T15:31:00Z</time>
      </trkpt>
      <trkpt lat="46.60271" lon="0.58361">
        <ele>72.6</ele>
        <time>2024-08-24T15:31:04Z</time>
      </trkpt>
      <trkpt lat="46.60278" lon="0.58377">
        <ele>72.2</ele>
        <time>2024-08-24T15:31:06Z</time>
      </trkpt>
      <trkpt lat="46.60295" lon="0.5841">
        <ele>71.6</ele>
        <time>2024-08-24T15:31:10Z</time>
      </trkpt>
      <trkpt lat="46.60308" lon="0.58436">
        <ele>70.6</ele>
        <time>2024-08-24T15:31:13Z</time>
      </trkpt>
      <trkpt lat="46.60323" lon="0.58468">
        <ele>69.2</ele>
        <time>2024-08-24T15:31:16Z</time>
      </trkpt>
      <trkpt lat="46.60329" lon="0.5848">
        <ele>67.6</ele>
        <time>2024-08-24T15:31:17Z</time>
      </trkpt>
      <trkpt lat="46.60334" lon="0.58491">
        <ele>66.4</ele>
        <time>2024-08-24T15:31:18Z</time>
      </trkpt>
      <trkpt lat="46.60341" lon="0.58506">
        <ele>65.2</ele>
        <time>2024-08-24T15:31:20Z</time>
      </trkpt>
      <trkpt lat="46.60347" lon="0.58515">
        <ele>65.2</ele>
        <time>2024-08-24T15:31:22Z</time>
      </trkpt>
      <trkpt lat="46.60349" lon="0.58516">
        <ele>65.2</ele>
        <time>2024-08-24T15:31:23Z</time>
      </trkpt>
      <trkpt lat="46.60354" lon="0.58524">
        <ele>65.2</ele>
        <time>2024-08-24T15:31:28Z</time>
      </trkpt>
      <trkpt lat="46.60353" lon="0.58536">
        <ele>65.2</ele>
        <time>2024-08-24T15:31:33Z</time>
      </trkpt>
      <trkpt lat="46.60353" lon="0.58538">
        <ele>65.2</ele>
        <time>2024-08-24T15:31:34Z</time>
      </trkpt>
      <trkpt lat="46.60353" lon="0.58544">
        <ele>65</ele>
        <time>2024-08-24T15:31:36Z</time>
      </trkpt>
      <trkpt lat="46.60356" lon="0.58557">
        <ele>64.4</ele>
        <time>2024-08-24T15:31:40Z</time>
      </trkpt>
      <trkpt lat="46.60356" lon="0.58561">
        <ele>64</ele>
        <time>2024-08-24T15:31:41Z</time>
      </trkpt>
      <trkpt lat="46.60357" lon="0.58568">
        <ele>64</ele>
        <time>2024-08-24T15:31:43Z</time>
      </trkpt>
      <trkpt lat="46.60362" lon="0.58587">
        <ele>63.8</ele>
        <time>2024-08-24T15:31:46Z</time>
      </trkpt>
      <trkpt lat="46.60366" lon="0.58611">
        <ele>63</ele>
        <time>2024-08-24T15:31:49Z</time>
      </trkpt>
      <trkpt lat="46.60368" lon="0.58628">
        <ele>61.8</ele>
        <time>2024-08-24T15:31:51Z</time>
      </trkpt>
      <trkpt lat="46.60377" lon="0.58682">
        <ele>61</ele>
        <time>2024-08-24T15:31:58Z</time>
      </trkpt>
      <trkpt lat="46.6038" lon="0.58698">
        <ele>60.8</ele>
        <time>2024-08-24T15:32:01Z</time>
      </trkpt>
      <trkpt lat="46.60381" lon="0.58702">
        <ele>60.8</ele>
        <time>2024-08-24T15:32:02Z</time>
      </trkpt>
      <trkpt lat="46.6038" lon="0.5873">
        <ele>61.2</ele>
        <time>2024-08-24T15:32:07Z</time>
      </trkpt>
      <trkpt lat="46.60383" lon="0.58749">
        <ele>60.6</ele>
        <time>2024-08-24T15:32:11Z</time>
      </trkpt>
      <trkpt lat="46.60384" lon="0.58755">
        <ele>60.4</ele>
        <time>2024-08-24T15:32:12Z</time>
      </trkpt>
      <trkpt lat="46.60386" lon="0.58762">
        <ele>60</ele>
        <time>2024-08-24T15:32:13Z</time>
      </trkpt>
      <trkpt lat="46.60387" lon="0.58775">
        <ele>59.2</ele>
        <time>2024-08-24T15:32:15Z</time>
      </trkpt>
      <trkpt lat="46.60384" lon="0.58788">
        <ele>58.4</ele>
        <time>2024-08-24T15:32:17Z</time>
      </trkpt>
      <trkpt lat="46.60382" lon="0.58794">
        <ele>58.2</ele>
        <time>2024-08-24T15:32:18Z</time>
      </trkpt>
      <trkpt lat="46.60382" lon="0.58801">
        <ele>58.2</ele>
        <time>2024-08-24T15:32:19Z</time>
      </trkpt>
      <trkpt lat="46.60377" lon="0.58814">
        <ele>58.2</ele>
        <time>2024-08-24T15:32:21Z</time>
      </trkpt>
      <trkpt lat="46.60366" lon="0.58828">
        <ele>58.2</ele>
        <time>2024-08-24T15:32:23Z</time>
      </trkpt>
      <trkpt lat="46.60337" lon="0.58849">
        <ele>58</ele>
        <time>2024-08-24T15:32:27Z</time>
      </trkpt>
      <trkpt lat="46.60331" lon="0.58852">
        <ele>57.4</ele>
        <time>2024-08-24T15:32:28Z</time>
      </trkpt>
      <trkpt lat="46.60324" lon="0.58853">
        <ele>57</ele>
        <time>2024-08-24T15:32:29Z</time>
      </trkpt>
      <trkpt lat="46.60308" lon="0.5885">
        <ele>56.4</ele>
        <time>2024-08-24T15:32:32Z</time>
      </trkpt>
      <trkpt lat="46.60303" lon="0.58847">
        <ele>56.2</ele>
        <time>2024-08-24T15:32:33Z</time>
      </trkpt>
      <trkpt lat="46.60298" lon="0.58844">
        <ele>56</ele>
        <time>2024-08-24T15:32:34Z</time>
      </trkpt>
      <trkpt lat="46.60293" lon="0.5884">
        <ele>55.6</ele>
        <time>2024-08-24T15:32:35Z</time>
      </trkpt>
      <trkpt lat="46.60282" lon="0.58834">
        <ele>54.4</ele>
        <time>2024-08-24T15:32:37Z</time>
      </trkpt>
      <trkpt lat="46.60272" lon="0.58826">
        <ele>53.8</ele>
        <time>2024-08-24T15:32:39Z</time>
      </trkpt>
      <trkpt lat="46.60264" lon="0.58821">
        <ele>53.8</ele>
        <time>2024-08-24T15:32:41Z</time>
      </trkpt>
      <trkpt lat="46.60257" lon="0.58816">
        <ele>53.8</ele>
        <time>2024-08-24T15:32:43Z</time>
      </trkpt>
      <trkpt lat="46.60247" lon="0.58803">
        <ele>53.8</ele>
        <time>2024-08-24T15:32:46Z</time>
      </trkpt>
      <trkpt lat="46.60242" lon="0.588">
        <ele>53.2</ele>
        <time>2024-08-24T15:32:47Z</time>
      </trkpt>
      <trkpt lat="46.60232" lon="0.58793">
        <ele>52</ele>
        <time>2024-08-24T15:32:49Z</time>
      </trkpt>
      <trkpt lat="46.60226" lon="0.58789">
        <ele>51.4</ele>
        <time>2024-08-24T15:32:50Z</time>
      </trkpt>
      <trkpt lat="46.60221" lon="0.58787">
        <ele>51</ele>
        <time>2024-08-24T15:32:51Z</time>
      </trkpt>
      <trkpt lat="46.60204" lon="0.58784">
        <ele>50.6</ele>
        <time>2024-08-24T15:32:54Z</time>
      </trkpt>
      <trkpt lat="46.60198" lon="0.58784">
        <ele>50.6</ele>
        <time>2024-08-24T15:32:55Z</time>
      </trkpt>
      <trkpt lat="46.60188" lon="0.58785">
        <ele>50.4</ele>
        <time>2024-08-24T15:32:57Z</time>
      </trkpt>
      <trkpt lat="46.60173" lon="0.58789">
        <ele>50</ele>
        <time>2024-08-24T15:33:00Z</time>
      </trkpt>
      <trkpt lat="46.60168" lon="0.58791">
        <ele>49.4</ele>
        <time>2024-08-24T15:33:01Z</time>
      </trkpt>
      <trkpt lat="46.60157" lon="0.58796">
        <ele>48.8</ele>
        <time>2024-08-24T15:33:03Z</time>
      </trkpt>
      <trkpt lat="46.60147" lon="0.588">
        <ele>47.8</ele>
        <time>2024-08-24T15:33:05Z</time>
      </trkpt>
      <trkpt lat="46.60141" lon="0.58802">
        <ele>47.6</ele>
        <time>2024-08-24T15:33:06Z</time>
      </trkpt>
      <trkpt lat="46.60124" lon="0.58807">
        <ele>47.2</ele>
        <time>2024-08-24T15:33:09Z</time>
      </trkpt>
      <trkpt lat="46.60115" lon="0.5881">
        <ele>47</ele>
        <time>2024-08-24T15:33:11Z</time>
      </trkpt>
      <trkpt lat="46.6011" lon="0.58812">
        <ele>46.8</ele>
        <time>2024-08-24T15:33:12Z</time>
      </trkpt>
      <trkpt lat="46.60105" lon="0.58815">
        <ele>46.4</ele>
        <time>2024-08-24T15:33:13Z</time>
      </trkpt>
      <trkpt lat="46.60097" lon="0.58821">
        <ele>46</ele>
        <time>2024-08-24T15:33:15Z</time>
      </trkpt>
      <trkpt lat="46.60093" lon="0.58822">
        <ele>45.8</ele>
        <time>2024-08-24T15:33:16Z</time>
      </trkpt>
      <trkpt lat="46.60086" lon="0.58826">
        <ele>45.6</ele>
        <time>2024-08-24T15:33:18Z</time>
      </trkpt>
      <trkpt lat="46.60077" lon="0.58837">
        <ele>45.2</ele>
        <time>2024-08-24T15:33:21Z</time>
      </trkpt>
      <trkpt lat="46.60073" lon="0.58841">
        <ele>45.2</ele>
        <time>2024-08-24T15:33:22Z</time>
      </trkpt>
      <trkpt lat="46.60065" lon="0.58851">
        <ele>44.8</ele>
        <time>2024-08-24T15:33:24Z</time>
      </trkpt>
      <trkpt lat="46.60058" lon="0.58862">
        <ele>44.6</ele>
        <time>2024-08-24T15:33:26Z</time>
      </trkpt>
      <trkpt lat="46.60055" lon="0.58868">
        <ele>44.8</ele>
        <time>2024-08-24T15:33:27Z</time>
      </trkpt>
      <trkpt lat="46.60048" lon="0.58887">
        <ele>45.2</ele>
        <time>2024-08-24T15:33:30Z</time>
      </trkpt>
      <trkpt lat="46.60043" lon="0.58898">
        <ele>45.2</ele>
        <time>2024-08-24T15:33:32Z</time>
      </trkpt>
      <trkpt lat="46.60035" lon="0.58919">
        <ele>45.4</ele>
        <time>2024-08-24T15:33:36Z</time>
      </trkpt>
      <trkpt lat="46.60031" lon="0.58935">
        <ele>45.8</ele>
        <time>2024-08-24T15:33:39Z</time>
      </trkpt>
      <trkpt lat="46.60026" lon="0.58949">
        <ele>46</ele>
        <time>2024-08-24T15:33:42Z</time>
      </trkpt>
      <trkpt lat="46.60021" lon="0.58973">
        <ele>46</ele>
        <time>2024-08-24T15:33:47Z</time>
      </trkpt>
      <trkpt lat="46.60019" lon="0.58978">
        <ele>46</ele>
        <time>2024-08-24T15:33:48Z</time>
      </trkpt>
      <trkpt lat="46.60019" lon="0.58984">
        <ele>45.2</ele>
        <time>2024-08-24T15:33:49Z</time>
      </trkpt>
      <trkpt lat="46.60019" lon="0.58988">
        <ele>44.6</ele>
        <time>2024-08-24T15:33:50Z</time>
      </trkpt>
      <trkpt lat="46.6002" lon="0.58993">
        <ele>44.4</ele>
        <time>2024-08-24T15:33:51Z</time>
      </trkpt>
      <trkpt lat="46.60024" lon="0.5901">
        <ele>44</ele>
        <time>2024-08-24T15:33:55Z</time>
      </trkpt>
      <trkpt lat="46.60026" lon="0.5902">
        <ele>43.6</ele>
        <time>2024-08-24T15:33:57Z</time>
      </trkpt>
      <trkpt lat="46.60028" lon="0.5903">
        <ele>43.4</ele>
        <time>2024-08-24T15:33:59Z</time>
      </trkpt>
      <trkpt lat="46.60031" lon="0.59038">
        <ele>42.8</ele>
        <time>2024-08-24T15:34:01Z</time>
      </trkpt>
      <trkpt lat="46.60033" lon="0.59041">
        <ele>42.6</ele>
        <time>2024-08-24T15:34:02Z</time>
      </trkpt>
      <trkpt lat="46.60045" lon="0.59061">
        <ele>41.6</ele>
        <time>2024-08-24T15:34:06Z</time>
      </trkpt>
      <trkpt lat="46.60058" lon="0.59084">
        <ele>40.2</ele>
        <time>2024-08-24T15:34:10Z</time>
      </trkpt>
      <trkpt lat="46.60062" lon="0.59089">
        <ele>40</ele>
        <time>2024-08-24T15:34:11Z</time>
      </trkpt>
      <trkpt lat="46.60066" lon="0.59094">
        <ele>40</ele>
        <time>2024-08-24T15:34:12Z</time>
      </trkpt>
      <trkpt lat="46.60076" lon="0.59112">
        <ele>39.4</ele>
        <time>2024-08-24T15:34:15Z</time>
      </trkpt>
      <trkpt lat="46.6008" lon="0.59117">
        <ele>39.4</ele>
        <time>2024-08-24T15:34:16Z</time>
      </trkpt>
      <trkpt lat="46.60084" lon="0.59122">
        <ele>39.2</ele>
        <time>2024-08-24T15:34:17Z</time>
      </trkpt>
      <trkpt lat="46.60101" lon="0.59144">
        <ele>39.2</ele>
        <time>2024-08-24T15:34:22Z</time>
      </trkpt>
      <trkpt lat="46.60115" lon="0.59166">
        <ele>39.4</ele>
        <time>2024-08-24T15:34:26Z</time>
      </trkpt>
      <trkpt lat="46.60122" lon="0.59179">
        <ele>39.6</ele>
        <time>2024-08-24T15:34:28Z</time>
      </trkpt>
      <trkpt lat="46.60132" lon="0.59194">
        <ele>39.4</ele>
        <time>2024-08-24T15:34:31Z</time>
      </trkpt>
      <trkpt lat="46.60142" lon="0.59211">
        <ele>39</ele>
        <time>2024-08-24T15:34:34Z</time>
      </trkpt>
      <trkpt lat="46.60153" lon="0.59232">
        <ele>38.2</ele>
        <time>2024-08-24T15:34:37Z</time>
      </trkpt>
      <trkpt lat="46.60164" lon="0.59252">
        <ele>37.4</ele>
        <time>2024-08-24T15:34:40Z</time>
      </trkpt>
      <trkpt lat="46.60185" lon="0.59288">
        <ele>37.4</ele>
        <time>2024-08-24T15:34:46Z</time>
      </trkpt>
      <trkpt lat="46.60195" lon="0.59321">
        <ele>37.6</ele>
        <time>2024-08-24T15:34:52Z</time>
      </trkpt>
      <trkpt lat="46.60199" lon="0.59333">
        <ele>37.6</ele>
        <time>2024-08-24T15:34:56Z</time>
      </trkpt>
      <trkpt lat="46.602" lon="0.59336">
        <ele>37</ele>
        <time>2024-08-24T15:34:57Z</time>
      </trkpt>
      <trkpt lat="46.60208" lon="0.59355">
        <ele>36.6</ele>
        <time>2024-08-24T15:35:01Z</time>
      </trkpt>
      <trkpt lat="46.60214" lon="0.59377">
        <ele>36.6</ele>
        <time>2024-08-24T15:35:05Z</time>
      </trkpt>
      <trkpt lat="46.6022" lon="0.59398">
        <ele>36.8</ele>
        <time>2024-08-24T15:35:08Z</time>
      </trkpt>
      <trkpt lat="46.60228" lon="0.59418">
        <ele>36.6</ele>
        <time>2024-08-24T15:35:11Z</time>
      </trkpt>
      <trkpt lat="46.6024" lon="0.59448">
        <ele>36.6</ele>
        <time>2024-08-24T15:35:15Z</time>
      </trkpt>
      <trkpt lat="46.60245" lon="0.59455">
        <ele>36.6</ele>
        <time>2024-08-24T15:35:16Z</time>
      </trkpt>
      <trkpt lat="46.60251" lon="0.5947">
        <ele>36.6</ele>
        <time>2024-08-24T15:35:18Z</time>
      </trkpt>
      <trkpt lat="46.60256" lon="0.59487">
        <ele>36.4</ele>
        <time>2024-08-24T15:35:20Z</time>
      </trkpt>
      <trkpt lat="46.60261" lon="0.59504">
        <ele>35.8</ele>
        <time>2024-08-24T15:35:22Z</time>
      </trkpt>
      <trkpt lat="46.60267" lon="0.59521">
        <ele>35.6</ele>
        <time>2024-08-24T15:35:24Z</time>
      </trkpt>
      <trkpt lat="46.6027" lon="0.59529">
        <ele>35</ele>
        <time>2024-08-24T15:35:25Z</time>
      </trkpt>
      <trkpt lat="46.60274" lon="0.59538">
        <ele>34.8</ele>
        <time>2024-08-24T15:35:26Z</time>
      </trkpt>
      <trkpt lat="46.60287" lon="0.59575">
        <ele>33.8</ele>
        <time>2024-08-24T15:35:31Z</time>
      </trkpt>
      <trkpt lat="46.6029" lon="0.59581">
        <ele>33.6</ele>
        <time>2024-08-24T15:35:32Z</time>
      </trkpt>
      <trkpt lat="46.60298" lon="0.59591">
        <ele>33.2</ele>
        <time>2024-08-24T15:35:34Z</time>
      </trkpt>
      <trkpt lat="46.60307" lon="0.59594">
        <ele>33</ele>
        <time>2024-08-24T15:35:36Z</time>
      </trkpt>
      <trkpt lat="46.60311" lon="0.59594">
        <ele>32.8</ele>
        <time>2024-08-24T15:35:37Z</time>
      </trkpt>
      <trkpt lat="46.60331" lon="0.59594">
        <ele>32.8</ele>
        <time>2024-08-24T15:35:42Z</time>
      </trkpt>
      <trkpt lat="46.60355" lon="0.59578">
        <ele>33.2</ele>
        <time>2024-08-24T15:35:48Z</time>
      </trkpt>
      <trkpt lat="46.60382" lon="0.5955">
        <ele>33.6</ele>
        <time>2024-08-24T15:35:54Z</time>
      </trkpt>
      <trkpt lat="46.60402" lon="0.59532">
        <ele>33.6</ele>
        <time>2024-08-24T15:36:00Z</time>
      </trkpt>
      <trkpt lat="46.60407" lon="0.5953">
        <ele>33.4</ele>
        <time>2024-08-24T15:36:04Z</time>
      </trkpt>
      <trkpt lat="46.60408" lon="0.59545">
        <ele>33.2</ele>
        <time>2024-08-24T15:36:08Z</time>
      </trkpt>
      <trkpt lat="46.60409" lon="0.59556">
        <ele>33</ele>
        <time>2024-08-24T15:36:10Z</time>
      </trkpt>
      <trkpt lat="46.60413" lon="0.59568">
        <ele>32.8</ele>
        <time>2024-08-24T15:36:12Z</time>
      </trkpt>
      <trkpt lat="46.60417" lon="0.59573">
        <ele>32.6</ele>
        <time>2024-08-24T15:36:13Z</time>
      </trkpt>
      <trkpt lat="46.60423" lon="0.59576">
        <ele>32.4</ele>
        <time>2024-08-24T15:36:15Z</time>
      </trkpt>
      <trkpt lat="46.60427" lon="0.59571">
        <ele>32</ele>
        <time>2024-08-24T15:36:17Z</time>
      </trkpt>
      <trkpt lat="46.60428" lon="0.5957">
        <ele>32</ele>
        <time>2024-08-24T15:36:18Z</time>
      </trkpt>
      <trkpt lat="46.60431" lon="0.5957">
        <ele>32</ele>
        <time>2024-08-24T15:36:19Z</time>
      </trkpt>
      <trkpt lat="46.60437" lon="0.59574">
        <ele>31.8</ele>
        <time>2024-08-24T15:36:22Z</time>
      </trkpt>
      <trkpt lat="46.60447" lon="0.59586">
        <ele>31.6</ele>
        <time>2024-08-24T15:36:25Z</time>
      </trkpt>
      <trkpt lat="46.60449" lon="0.59592">
        <ele>31.4</ele>
        <time>2024-08-24T15:36:26Z</time>
      </trkpt>
      <trkpt lat="46.60452" lon="0.59598">
        <ele>31.2</ele>
        <time>2024-08-24T15:36:27Z</time>
      </trkpt>
      <trkpt lat="46.60455" lon="0.59611">
        <ele>31</ele>
        <time>2024-08-24T15:36:29Z</time>
      </trkpt>
      <trkpt lat="46.60456" lon="0.59617">
        <ele>31</ele>
        <time>2024-08-24T15:36:30Z</time>
      </trkpt>
      <trkpt lat="46.60457" lon="0.59623">
        <ele>30.8</ele>
        <time>2024-08-24T15:36:31Z</time>
      </trkpt>
      <trkpt lat="46.60461" lon="0.59634">
        <ele>30.6</ele>
        <time>2024-08-24T15:36:33Z</time>
      </trkpt>
      <trkpt lat="46.60463" lon="0.5964">
        <ele>30.4</ele>
        <time>2024-08-24T15:36:34Z</time>
      </trkpt>
      <trkpt lat="46.60465" lon="0.59649">
        <ele>29.8</ele>
        <time>2024-08-24T15:36:38Z</time>
      </trkpt>
      <trkpt lat="46.60466" lon="0.59651">
        <ele>29.6</ele>
        <time>2024-08-24T15:36:41Z</time>
      </trkpt>
      <trkpt lat="46.60466" lon="0.59652">
        <ele>29.8</ele>
        <time>2024-08-24T15:36:49Z</time>
      </trkpt>
      <trkpt lat="46.60466" lon="0.59652">
        <ele>29.6</ele>
        <time>2024-08-24T15:37:09Z</time>
      </trkpt>
      <trkpt lat="46.60466" lon="0.59652">
        <ele>28.8</ele>
        <time>2024-08-24T15:37:28Z</time>
      </trkpt>
      <trkpt lat="46.60466" lon="0.59652">
        <ele>29.2</ele>
        <time>2024-08-24T15:37:45Z</time>
      </trkpt>
      <trkpt lat="46.60467" lon="0.59653">
        <ele>29.2</ele>
        <time>2024-08-24T15:38:06Z</time>
      </trkpt>
      <trkpt lat="46.60466" lon="0.59654">
        <ele>29.2</ele>
        <time>2024-08-24T15:38:25Z</time>
      </trkpt>
      <trkpt lat="46.60463" lon="0.59653">
        <ele>29.2</ele>
        <time>2024-08-24T15:38:42Z</time>
      </trkpt>
      <trkpt lat="46.60462" lon="0.59654">
        <ele>29.4</ele>
        <time>2024-08-24T15:39:01Z</time>
      </trkpt>
      <trkpt lat="46.60462" lon="0.59655">
        <ele>29.2</ele>
        <time>2024-08-24T15:39:20Z</time>
      </trkpt>
      <trkpt lat="46.60462" lon="0.59654">
        <ele>29.2</ele>
        <time>2024-08-24T15:39:35Z</time>
      </trkpt>
      <trkpt lat="46.60463" lon="0.59655">
        <ele>29.4</ele>
        <time>2024-08-24T15:39:57Z</time>
      </trkpt>
      <trkpt lat="46.60463" lon="0.59654">
        <ele>29.4</ele>
        <time>2024-08-24T15:40:19Z</time>
      </trkpt>
      <trkpt lat="46.60464" lon="0.59654">
        <ele>29.4</ele>
        <time>2024-08-24T15:40:37Z</time>
      </trkpt>
      <trkpt lat="46.60464" lon="0.59654">
        <ele>29.4</ele>
        <time>2024-08-24T15:40:58Z</time>
      </trkpt>
      <trkpt lat="46.60464" lon="0.59654">
        <ele>29.4</ele>
        <time>2024-08-24T15:41:15Z</time>
      </trkpt>
      <trkpt lat="46.60464" lon="0.59654">
        <ele>29.4</ele>
        <time>2024-08-24T15:41:36Z</time>
      </trkpt>
      <trkpt lat="46.60465" lon="0.59655">
        <ele>29.4</ele>
        <time>2024-08-24T15:41:51Z</time>
      </trkpt>
      <trkpt lat="46.60465" lon="0.59655">
        <ele>29.4</ele>
        <time>2024-08-24T15:42:07Z</time>
      </trkpt>
      <trkpt lat="46.60464" lon="0.59655">
        <ele>29.4</ele>
        <time>2024-08-24T15:42:26Z</time>
      </trkpt>
      <trkpt lat="46.60464" lon="0.59655">
        <ele>29.4</ele>
        <time>2024-08-24T15:42:44Z</time>
      </trkpt>
      <trkpt lat="46.60464" lon="0.59656">
        <ele>29.4</ele>
        <time>2024-08-24T15:43:06Z</time>
      </trkpt>
      <trkpt lat="46.60464" lon="0.59657">
        <ele>29.4</ele>
        <time>2024-08-24T15:43:24Z</time>
      </trkpt>
      <trkpt lat="46.60465" lon="0.59657">
        <ele>29.4</ele>
        <time>2024-08-24T15:43:39Z</time>
      </trkpt>
      <trkpt lat="46.60468" lon="0.59661">
        <ele>29.4</ele>
        <time>2024-08-24T15:43:53Z</time>
      </trkpt>
      <trkpt lat="46.60478" lon="0.59659">
        <ele>29.4</ele>
        <time>2024-08-24T15:43:59Z</time>
      </trkpt>
      <trkpt lat="46.605" lon="0.59647">
        <ele>29.8</ele>
        <time>2024-08-24T15:44:07Z</time>
      </trkpt>
      <trkpt lat="46.60525" lon="0.59641">
        <ele>29.8</ele>
        <time>2024-08-24T15:44:13Z</time>
      </trkpt>
      <trkpt lat="46.60534" lon="0.5964">
        <ele>30</ele>
        <time>2024-08-24T15:44:16Z</time>
      </trkpt>
      <trkpt lat="46.60536" lon="0.59642">
        <ele>30</ele>
        <time>2024-08-24T15:44:17Z</time>
      </trkpt>
      <trkpt lat="46.60544" lon="0.59663">
        <ele>30</ele>
        <time>2024-08-24T15:44:22Z</time>
      </trkpt>
      <trkpt lat="46.60558" lon="0.59717">
        <ele>30.6</ele>
        <time>2024-08-24T15:44:32Z</time>
      </trkpt>
      <trkpt lat="46.60567" lon="0.59751">
        <ele>31.6</ele>
        <time>2024-08-24T15:44:39Z</time>
      </trkpt>
      <trkpt lat="46.60568" lon="0.59756">
        <ele>31.6</ele>
        <time>2024-08-24T15:44:40Z</time>
      </trkpt>
      <trkpt lat="46.60581" lon="0.59808">
        <ele>32.2</ele>
        <time>2024-08-24T15:44:50Z</time>
      </trkpt>
      <trkpt lat="46.60593" lon="0.59855">
        <ele>32.2</ele>
        <time>2024-08-24T15:44:57Z</time>
      </trkpt>
      <trkpt lat="46.60606" lon="0.5991">
        <ele>32</ele>
        <time>2024-08-24T15:45:04Z</time>
      </trkpt>
      <trkpt lat="46.60624" lon="0.59978">
        <ele>31.8</ele>
        <time>2024-08-24T15:45:12Z</time>
      </trkpt>
      <trkpt lat="46.60635" lon="0.60022">
        <ele>31.8</ele>
        <time>2024-08-24T15:45:17Z</time>
      </trkpt>
      <trkpt lat="46.60637" lon="0.60026">
        <ele>31.6</ele>
        <time>2024-08-24T15:45:18Z</time>
      </trkpt>
      <trkpt lat="46.6064" lon="0.60027">
        <ele>31.4</ele>
        <time>2024-08-24T15:45:19Z</time>
      </trkpt>
      <trkpt lat="46.60647" lon="0.60023">
        <ele>31.2</ele>
        <time>2024-08-24T15:45:21Z</time>
      </trkpt>
      <trkpt lat="46.60656" lon="0.60017">
        <ele>30.4</ele>
        <time>2024-08-24T15:45:23Z</time>
      </trkpt>
      <trkpt lat="46.60667" lon="0.60009">
        <ele>29.8</ele>
        <time>2024-08-24T15:45:25Z</time>
      </trkpt>
      <trkpt lat="46.60685" lon="0.60001">
        <ele>29.4</ele>
        <time>2024-08-24T15:45:28Z</time>
      </trkpt>
      <trkpt lat="46.60698" lon="0.60001">
        <ele>28.8</ele>
        <time>2024-08-24T15:45:30Z</time>
      </trkpt>
      <trkpt lat="46.60737" lon="0.60005">
        <ele>28.6</ele>
        <time>2024-08-24T15:45:36Z</time>
      </trkpt>
      <trkpt lat="46.60757" lon="0.60004">
        <ele>28.4</ele>
        <time>2024-08-24T15:45:39Z</time>
      </trkpt>
      <trkpt lat="46.60769" lon="0.60009">
        <ele>28.4</ele>
        <time>2024-08-24T15:45:41Z</time>
      </trkpt>
      <trkpt lat="46.60774" lon="0.60013">
        <ele>28.4</ele>
        <time>2024-08-24T15:45:42Z</time>
      </trkpt>
      <trkpt lat="46.60784" lon="0.60022">
        <ele>28</ele>
        <time>2024-08-24T15:45:44Z</time>
      </trkpt>
      <trkpt lat="46.60788" lon="0.60024">
        <ele>27.8</ele>
        <time>2024-08-24T15:45:45Z</time>
      </trkpt>
      <trkpt lat="46.60793" lon="0.60024">
        <ele>28</ele>
        <time>2024-08-24T15:45:46Z</time>
      </trkpt>
      <trkpt lat="46.60801" lon="0.60018">
        <ele>28</ele>
        <time>2024-08-24T15:45:48Z</time>
      </trkpt>
      <trkpt lat="46.6083" lon="0.59992">
        <ele>29.4</ele>
        <time>2024-08-24T15:45:55Z</time>
      </trkpt>
      <trkpt lat="46.60834" lon="0.59987">
        <ele>29.6</ele>
        <time>2024-08-24T15:45:56Z</time>
      </trkpt>
      <trkpt lat="46.60841" lon="0.59976">
        <ele>29.6</ele>
        <time>2024-08-24T15:45:58Z</time>
      </trkpt>
      <trkpt lat="46.60845" lon="0.5996">
        <ele>29.4</ele>
        <time>2024-08-24T15:46:00Z</time>
      </trkpt>
      <trkpt lat="46.60848" lon="0.59952">
        <ele>29.4</ele>
        <time>2024-08-24T15:46:01Z</time>
      </trkpt>
      <trkpt lat="46.60854" lon="0.59941">
        <ele>28.6</ele>
        <time>2024-08-24T15:46:03Z</time>
      </trkpt>
      <trkpt lat="46.60859" lon="0.59937">
        <ele>28.4</ele>
        <time>2024-08-24T15:46:04Z</time>
      </trkpt>
      <trkpt lat="46.60865" lon="0.59935">
        <ele>28.2</ele>
        <time>2024-08-24T15:46:05Z</time>
      </trkpt>
      <trkpt lat="46.60888" lon="0.59923">
        <ele>28</ele>
        <time>2024-08-24T15:46:09Z</time>
      </trkpt>
      <trkpt lat="46.60936" lon="0.59898">
        <ele>28</ele>
        <time>2024-08-24T15:46:17Z</time>
      </trkpt>
      <trkpt lat="46.6097" lon="0.59886">
        <ele>28.4</ele>
        <time>2024-08-24T15:46:23Z</time>
      </trkpt>
      <trkpt lat="46.61027" lon="0.59861">
        <ele>28.6</ele>
        <time>2024-08-24T15:46:33Z</time>
      </trkpt>
      <trkpt lat="46.61033" lon="0.59858">
        <ele>28.8</ele>
        <time>2024-08-24T15:46:34Z</time>
      </trkpt>
      <trkpt lat="46.61057" lon="0.59849">
        <ele>28.4</ele>
        <time>2024-08-24T15:46:39Z</time>
      </trkpt>
      <trkpt lat="46.61061" lon="0.5985">
        <ele>28.2</ele>
        <time>2024-08-24T15:46:40Z</time>
      </trkpt>
      <trkpt lat="46.61063" lon="0.59852">
        <ele>28</ele>
        <time>2024-08-24T15:46:41Z</time>
      </trkpt>
      <trkpt lat="46.61063" lon="0.59861">
        <ele>27.8</ele>
        <time>2024-08-24T15:46:43Z</time>
      </trkpt>
      <trkpt lat="46.61067" lon="0.59892">
        <ele>27.8</ele>
        <time>2024-08-24T15:46:48Z</time>
      </trkpt>
      <trkpt lat="46.61071" lon="0.59907">
        <ele>27.2</ele>
        <time>2024-08-24T15:46:50Z</time>
      </trkpt>
      <trkpt lat="46.61077" lon="0.59939">
        <ele>26.8</ele>
        <time>2024-08-24T15:46:54Z</time>
      </trkpt>
      <trkpt lat="46.61083" lon="0.59971">
        <ele>26.8</ele>
        <time>2024-08-24T15:46:58Z</time>
      </trkpt>
      <trkpt lat="46.61085" lon="0.59987">
        <ele>26.6</ele>
        <time>2024-08-24T15:47:00Z</time>
      </trkpt>
      <trkpt lat="46.61097" lon="0.6004">
        <ele>26.8</ele>
        <time>2024-08-24T15:47:07Z</time>
      </trkpt>
      <trkpt lat="46.61099" lon="0.60047">
        <ele>26.8</ele>
        <time>2024-08-24T15:47:08Z</time>
      </trkpt>
      <trkpt lat="46.61105" lon="0.60076">
        <ele>26.8</ele>
        <time>2024-08-24T15:47:12Z</time>
      </trkpt>
      <trkpt lat="46.61116" lon="0.60128">
        <ele>27.4</ele>
        <time>2024-08-24T15:47:20Z</time>
      </trkpt>
      <trkpt lat="46.61124" lon="0.6016">
        <ele>28.4</ele>
        <time>2024-08-24T15:47:27Z</time>
      </trkpt>
      <trkpt lat="46.61129" lon="0.60172">
        <ele>29.6</ele>
        <time>2024-08-24T15:47:31Z</time>
      </trkpt>
      <trkpt lat="46.61133" lon="0.60177">
        <ele>30.4</ele>
        <time>2024-08-24T15:47:34Z</time>
      </trkpt>
      <trkpt lat="46.61135" lon="0.6018">
        <ele>30.6</ele>
        <time>2024-08-24T15:47:35Z</time>
      </trkpt>
      <trkpt lat="46.61145" lon="0.60194">
        <ele>31</ele>
        <time>2024-08-24T15:47:40Z</time>
      </trkpt>
      <trkpt lat="46.61151" lon="0.60214">
        <ele>31.6</ele>
        <time>2024-08-24T15:47:46Z</time>
      </trkpt>
      <trkpt lat="46.61152" lon="0.60216">
        <ele>31.8</ele>
        <time>2024-08-24T15:47:47Z</time>
      </trkpt>
      <trkpt lat="46.61158" lon="0.6023">
        <ele>32.8</ele>
        <time>2024-08-24T15:47:52Z</time>
      </trkpt>
      <trkpt lat="46.61162" lon="0.60237">
        <ele>33.4</ele>
        <time>2024-08-24T15:47:55Z</time>
      </trkpt>
      <trkpt lat="46.61165" lon="0.60242">
        <ele>33.8</ele>
        <time>2024-08-24T15:47:57Z</time>
      </trkpt>
      <trkpt lat="46.61176" lon="0.60257">
        <ele>35</ele>
        <time>2024-08-24T15:48:02Z</time>
      </trkpt>
      <trkpt lat="46.61183" lon="0.60269">
        <ele>36.2</ele>
        <time>2024-08-24T15:48:08Z</time>
      </trkpt>
      <trkpt lat="46.6119" lon="0.60285">
        <ele>37.4</ele>
        <time>2024-08-24T15:48:13Z</time>
      </trkpt>
      <trkpt lat="46.61197" lon="0.60304">
        <ele>38.6</ele>
        <time>2024-08-24T15:48:19Z</time>
      </trkpt>
      <trkpt lat="46.61199" lon="0.60311">
        <ele>39</ele>
        <time>2024-08-24T15:48:21Z</time>
      </trkpt>
      <trkpt lat="46.61201" lon="0.60318">
        <ele>39.6</ele>
        <time>2024-08-24T15:48:23Z</time>
      </trkpt>
      <trkpt lat="46.61206" lon="0.60332">
        <ele>40.8</ele>
        <time>2024-08-24T15:48:28Z</time>
      </trkpt>
      <trkpt lat="46.61212" lon="0.60343">
        <ele>42</ele>
        <time>2024-08-24T15:48:33Z</time>
      </trkpt>
      <trkpt lat="46.61214" lon="0.60348">
        <ele>42.4</ele>
        <time>2024-08-24T15:48:35Z</time>
      </trkpt>
      <trkpt lat="46.61219" lon="0.60355">
        <ele>43.2</ele>
        <time>2024-08-24T15:48:38Z</time>
      </trkpt>
      <trkpt lat="46.61225" lon="0.60364">
        <ele>44.4</ele>
        <time>2024-08-24T15:48:42Z</time>
      </trkpt>
      <trkpt lat="46.6123" lon="0.60377">
        <ele>45.6</ele>
        <time>2024-08-24T15:48:47Z</time>
      </trkpt>
      <trkpt lat="46.61231" lon="0.60379">
        <ele>45.8</ele>
        <time>2024-08-24T15:48:48Z</time>
      </trkpt>
      <trkpt lat="46.61235" lon="0.60391">
        <ele>46.6</ele>
        <time>2024-08-24T15:48:52Z</time>
      </trkpt>
      <trkpt lat="46.61241" lon="0.60404">
        <ele>47.4</ele>
        <time>2024-08-24T15:48:57Z</time>
      </trkpt>
      <trkpt lat="46.61242" lon="0.60408">
        <ele>47.6</ele>
        <time>2024-08-24T15:48:58Z</time>
      </trkpt>
      <trkpt lat="46.61245" lon="0.60425">
        <ele>48.4</ele>
        <time>2024-08-24T15:49:03Z</time>
      </trkpt>
      <trkpt lat="46.61248" lon="0.60434">
        <ele>49</ele>
        <time>2024-08-24T15:49:06Z</time>
      </trkpt>
      <trkpt lat="46.61252" lon="0.60444">
        <ele>49.8</ele>
        <time>2024-08-24T15:49:10Z</time>
      </trkpt>
      <trkpt lat="46.61254" lon="0.60454">
        <ele>50.2</ele>
        <time>2024-08-24T15:49:13Z</time>
      </trkpt>
      <trkpt lat="46.61258" lon="0.60471">
        <ele>50.6</ele>
        <time>2024-08-24T15:49:18Z</time>
      </trkpt>
      <trkpt lat="46.61262" lon="0.60484">
        <ele>51.2</ele>
        <time>2024-08-24T15:49:22Z</time>
      </trkpt>
      <trkpt lat="46.61266" lon="0.605">
        <ele>51.6</ele>
        <time>2024-08-24T15:49:27Z</time>
      </trkpt>
      <trkpt lat="46.61274" lon="0.60523">
        <ele>52.2</ele>
        <time>2024-08-24T15:49:34Z</time>
      </trkpt>
      <trkpt lat="46.61285" lon="0.60548">
        <ele>53.2</ele>
        <time>2024-08-24T15:49:41Z</time>
      </trkpt>
      <trkpt lat="46.61287" lon="0.60552">
        <ele>53.4</ele>
        <time>2024-08-24T15:49:42Z</time>
      </trkpt>
      <trkpt lat="46.61301" lon="0.60571">
        <ele>54.4</ele>
        <time>2024-08-24T15:49:48Z</time>
      </trkpt>
      <trkpt lat="46.61303" lon="0.60575">
        <ele>54.4</ele>
        <time>2024-08-24T15:49:49Z</time>
      </trkpt>
      <trkpt lat="46.61321" lon="0.60601">
        <ele>55.4</ele>
        <time>2024-08-24T15:49:57Z</time>
      </trkpt>
      <trkpt lat="46.61324" lon="0.60604">
        <ele>55.6</ele>
        <time>2024-08-24T15:49:58Z</time>
      </trkpt>
      <trkpt lat="46.6134" lon="0.60625">
        <ele>56.6</ele>
        <time>2024-08-24T15:50:05Z</time>
      </trkpt>
      <trkpt lat="46.61342" lon="0.60628">
        <ele>56.6</ele>
        <time>2024-08-24T15:50:06Z</time>
      </trkpt>
      <trkpt lat="46.61358" lon="0.60652">
        <ele>57.6</ele>
        <time>2024-08-24T15:50:13Z</time>
      </trkpt>
      <trkpt lat="46.61363" lon="0.60659">
        <ele>57.8</ele>
        <time>2024-08-24T15:50:15Z</time>
      </trkpt>
      <trkpt lat="46.61378" lon="0.60684">
        <ele>58.8</ele>
        <time>2024-08-24T15:50:22Z</time>
      </trkpt>
      <trkpt lat="46.61383" lon="0.6069">
        <ele>59.2</ele>
        <time>2024-08-24T15:50:24Z</time>
      </trkpt>
      <trkpt lat="46.61392" lon="0.60703">
        <ele>60</ele>
        <time>2024-08-24T15:50:28Z</time>
      </trkpt>
      <trkpt lat="46.61401" lon="0.60718">
        <ele>60.4</ele>
        <time>2024-08-24T15:50:32Z</time>
      </trkpt>
      <trkpt lat="46.6141" lon="0.60731">
        <ele>61</ele>
        <time>2024-08-24T15:50:36Z</time>
      </trkpt>
      <trkpt lat="46.61416" lon="0.60741">
        <ele>61.2</ele>
        <time>2024-08-24T15:50:39Z</time>
      </trkpt>
      <trkpt lat="46.61431" lon="0.60762">
        <ele>61.6</ele>
        <time>2024-08-24T15:50:46Z</time>
      </trkpt>
      <trkpt lat="46.61438" lon="0.60773">
        <ele>62.2</ele>
        <time>2024-08-24T15:50:49Z</time>
      </trkpt>
      <trkpt lat="46.61452" lon="0.60791">
        <ele>62.6</ele>
        <time>2024-08-24T15:50:54Z</time>
      </trkpt>
      <trkpt lat="46.61461" lon="0.60804">
        <ele>63.2</ele>
        <time>2024-08-24T15:50:57Z</time>
      </trkpt>
      <trkpt lat="46.61471" lon="0.60821">
        <ele>64</ele>
        <time>2024-08-24T15:51:01Z</time>
      </trkpt>
      <trkpt lat="46.61484" lon="0.60843">
        <ele>64.2</ele>
        <time>2024-08-24T15:51:06Z</time>
      </trkpt>
      <trkpt lat="46.61494" lon="0.60856">
        <ele>64.4</ele>
        <time>2024-08-24T15:51:09Z</time>
      </trkpt>
      <trkpt lat="46.61512" lon="0.60884">
        <ele>64.8</ele>
        <time>2024-08-24T15:51:15Z</time>
      </trkpt>
      <trkpt lat="46.61531" lon="0.60904">
        <ele>65.2</ele>
        <time>2024-08-24T15:51:20Z</time>
      </trkpt>
      <trkpt lat="46.61534" lon="0.60907">
        <ele>65.4</ele>
        <time>2024-08-24T15:51:21Z</time>
      </trkpt>
      <trkpt lat="46.61562" lon="0.60922">
        <ele>66</ele>
        <time>2024-08-24T15:51:28Z</time>
      </trkpt>
      <trkpt lat="46.61575" lon="0.60927">
        <ele>66.4</ele>
        <time>2024-08-24T15:51:31Z</time>
      </trkpt>
      <trkpt lat="46.61599" lon="0.60936">
        <ele>67</ele>
        <time>2024-08-24T15:51:36Z</time>
      </trkpt>
      <trkpt lat="46.6163" lon="0.6095">
        <ele>67.2</ele>
        <time>2024-08-24T15:51:43Z</time>
      </trkpt>
      <trkpt lat="46.61634" lon="0.60952">
        <ele>67.4</ele>
        <time>2024-08-24T15:51:44Z</time>
      </trkpt>
      <trkpt lat="46.61663" lon="0.60967">
        <ele>67.4</ele>
        <time>2024-08-24T15:51:50Z</time>
      </trkpt>
      <trkpt lat="46.61697" lon="0.60986">
        <ele>67.8</ele>
        <time>2024-08-24T15:51:58Z</time>
      </trkpt>
      <trkpt lat="46.61723" lon="0.61007">
        <ele>68.6</ele>
        <time>2024-08-24T15:52:04Z</time>
      </trkpt>
      <trkpt lat="46.61738" lon="0.61025">
        <ele>69.6</ele>
        <time>2024-08-24T15:52:08Z</time>
      </trkpt>
      <trkpt lat="46.6174" lon="0.6103">
        <ele>69.8</ele>
        <time>2024-08-24T15:52:09Z</time>
      </trkpt>
      <trkpt lat="46.61753" lon="0.61052">
        <ele>70.8</ele>
        <time>2024-08-24T15:52:14Z</time>
      </trkpt>
      <trkpt lat="46.61757" lon="0.61061">
        <ele>71</ele>
        <time>2024-08-24T15:52:16Z</time>
      </trkpt>
      <trkpt lat="46.61766" lon="0.6108">
        <ele>71.8</ele>
        <time>2024-08-24T15:52:20Z</time>
      </trkpt>
      <trkpt lat="46.61778" lon="0.61104">
        <ele>72.6</ele>
        <time>2024-08-24T15:52:25Z</time>
      </trkpt>
      <trkpt lat="46.61784" lon="0.61113">
        <ele>73</ele>
        <time>2024-08-24T15:52:27Z</time>
      </trkpt>
      <trkpt lat="46.618" lon="0.6114">
        <ele>73.8</ele>
        <time>2024-08-24T15:52:33Z</time>
      </trkpt>
      <trkpt lat="46.61806" lon="0.61149">
        <ele>74.2</ele>
        <time>2024-08-24T15:52:35Z</time>
      </trkpt>
      <trkpt lat="46.61816" lon="0.61165">
        <ele>74.6</ele>
        <time>2024-08-24T15:52:39Z</time>
      </trkpt>
      <trkpt lat="46.6183" lon="0.61189">
        <ele>75.2</ele>
        <time>2024-08-24T15:52:45Z</time>
      </trkpt>
      <trkpt lat="46.61832" lon="0.61194">
        <ele>75.4</ele>
        <time>2024-08-24T15:52:46Z</time>
      </trkpt>
      <trkpt lat="46.61848" lon="0.61227">
        <ele>75.8</ele>
        <time>2024-08-24T15:52:53Z</time>
      </trkpt>
      <trkpt lat="46.61859" lon="0.61257">
        <ele>76.2</ele>
        <time>2024-08-24T15:52:59Z</time>
      </trkpt>
      <trkpt lat="46.61861" lon="0.61262">
        <ele>76.2</ele>
        <time>2024-08-24T15:53:00Z</time>
      </trkpt>
      <trkpt lat="46.61872" lon="0.613">
        <ele>76.6</ele>
        <time>2024-08-24T15:53:06Z</time>
      </trkpt>
      <trkpt lat="46.61886" lon="0.61353">
        <ele>77</ele>
        <time>2024-08-24T15:53:14Z</time>
      </trkpt>
      <trkpt lat="46.6189" lon="0.61381">
        <ele>77</ele>
        <time>2024-08-24T15:53:19Z</time>
      </trkpt>
      <trkpt lat="46.61891" lon="0.61387">
        <ele>77.2</ele>
        <time>2024-08-24T15:53:20Z</time>
      </trkpt>
      <trkpt lat="46.61891" lon="0.61392">
        <ele>77.2</ele>
        <time>2024-08-24T15:53:21Z</time>
      </trkpt>
      <trkpt lat="46.61885" lon="0.61401">
        <ele>77.4</ele>
        <time>2024-08-24T15:53:24Z</time>
      </trkpt>
      <trkpt lat="46.61868" lon="0.61425">
        <ele>78</ele>
        <time>2024-08-24T15:53:32Z</time>
      </trkpt>
      <trkpt lat="46.61863" lon="0.61431">
        <ele>78.2</ele>
        <time>2024-08-24T15:53:34Z</time>
      </trkpt>
      <trkpt lat="46.61857" lon="0.61438">
        <ele>78.4</ele>
        <time>2024-08-24T15:53:36Z</time>
      </trkpt>
      <trkpt lat="46.6185" lon="0.61445">
        <ele>78.6</ele>
        <time>2024-08-24T15:53:38Z</time>
      </trkpt>
      <trkpt lat="46.61839" lon="0.61456">
        <ele>79</ele>
        <time>2024-08-24T15:53:42Z</time>
      </trkpt>
      <trkpt lat="46.61833" lon="0.6146">
        <ele>79.2</ele>
        <time>2024-08-24T15:53:44Z</time>
      </trkpt>
      <trkpt lat="46.61815" lon="0.61481">
        <ele>78.8</ele>
        <time>2024-08-24T15:53:48Z</time>
      </trkpt>
      <trkpt lat="46.61787" lon="0.6151">
        <ele>77</ele>
        <time>2024-08-24T15:53:54Z</time>
      </trkpt>
      <trkpt lat="46.6176" lon="0.61536">
        <ele>76</ele>
        <time>2024-08-24T15:53:59Z</time>
      </trkpt>
      <trkpt lat="46.61755" lon="0.61541">
        <ele>75.8</ele>
        <time>2024-08-24T15:54:00Z</time>
      </trkpt>
      <trkpt lat="46.61729" lon="0.61566">
        <ele>74.8</ele>
        <time>2024-08-24T15:54:04Z</time>
      </trkpt>
      <trkpt lat="46.61724" lon="0.61574">
        <ele>74</ele>
        <time>2024-08-24T15:54:05Z</time>
      </trkpt>
      <trkpt lat="46.61722" lon="0.6158">
        <ele>73.6</ele>
        <time>2024-08-24T15:54:06Z</time>
      </trkpt>
      <trkpt lat="46.6172" lon="0.61588">
        <ele>73.2</ele>
        <time>2024-08-24T15:54:07Z</time>
      </trkpt>
      <trkpt lat="46.61719" lon="0.61596">
        <ele>73</ele>
        <time>2024-08-24T15:54:08Z</time>
      </trkpt>
      <trkpt lat="46.61708" lon="0.61643">
        <ele>72.8</ele>
        <time>2024-08-24T15:54:14Z</time>
      </trkpt>
      <trkpt lat="46.61706" lon="0.61647">
        <ele>73</ele>
        <time>2024-08-24T15:54:15Z</time>
      </trkpt>
      <trkpt lat="46.61702" lon="0.61651">
        <ele>73</ele>
        <time>2024-08-24T15:54:16Z</time>
      </trkpt>
      <trkpt lat="46.61695" lon="0.61651">
        <ele>73</ele>
        <time>2024-08-24T15:54:18Z</time>
      </trkpt>
      <trkpt lat="46.6168" lon="0.61648">
        <ele>72.6</ele>
        <time>2024-08-24T15:54:21Z</time>
      </trkpt>
      <trkpt lat="46.61675" lon="0.61646">
        <ele>72.4</ele>
        <time>2024-08-24T15:54:22Z</time>
      </trkpt>
      <trkpt lat="46.61636" lon="0.61637">
        <ele>71.4</ele>
        <time>2024-08-24T15:54:29Z</time>
      </trkpt>
      <trkpt lat="46.61631" lon="0.61634">
        <ele>71.4</ele>
        <time>2024-08-24T15:54:30Z</time>
      </trkpt>
      <trkpt lat="46.61597" lon="0.61624">
        <ele>71</ele>
        <time>2024-08-24T15:54:35Z</time>
      </trkpt>
      <trkpt lat="46.61583" lon="0.61617">
        <ele>70.4</ele>
        <time>2024-08-24T15:54:37Z</time>
      </trkpt>
      <trkpt lat="46.61554" lon="0.61604">
        <ele>69.8</ele>
        <time>2024-08-24T15:54:41Z</time>
      </trkpt>
      <trkpt lat="46.6154" lon="0.61596">
        <ele>69.2</ele>
        <time>2024-08-24T15:54:43Z</time>
      </trkpt>
      <trkpt lat="46.61518" lon="0.61585">
        <ele>68</ele>
        <time>2024-08-24T15:54:46Z</time>
      </trkpt>
      <trkpt lat="46.61503" lon="0.61577">
        <ele>67.2</ele>
        <time>2024-08-24T15:54:48Z</time>
      </trkpt>
      <trkpt lat="46.61496" lon="0.61571">
        <ele>67</ele>
        <time>2024-08-24T15:54:49Z</time>
      </trkpt>
      <trkpt lat="46.61489" lon="0.61564">
        <ele>66.6</ele>
        <time>2024-08-24T15:54:50Z</time>
      </trkpt>
      <trkpt lat="46.61477" lon="0.6155">
        <ele>65.6</ele>
        <time>2024-08-24T15:54:52Z</time>
      </trkpt>
      <trkpt lat="46.6147" lon="0.61546">
        <ele>65.4</ele>
        <time>2024-08-24T15:54:53Z</time>
      </trkpt>
      <trkpt lat="46.61463" lon="0.61545">
        <ele>65</ele>
        <time>2024-08-24T15:54:54Z</time>
      </trkpt>
      <trkpt lat="46.61456" lon="0.61545">
        <ele>64.8</ele>
        <time>2024-08-24T15:54:55Z</time>
      </trkpt>
      <trkpt lat="46.61432" lon="0.61546">
        <ele>64.2</ele>
        <time>2024-08-24T15:54:58Z</time>
      </trkpt>
      <trkpt lat="46.61407" lon="0.61549">
        <ele>62.8</ele>
        <time>2024-08-24T15:55:01Z</time>
      </trkpt>
      <trkpt lat="46.61399" lon="0.61549">
        <ele>62.6</ele>
        <time>2024-08-24T15:55:02Z</time>
      </trkpt>
      <trkpt lat="46.61386" lon="0.6155">
        <ele>61.6</ele>
        <time>2024-08-24T15:55:04Z</time>
      </trkpt>
      <trkpt lat="46.61375" lon="0.61551">
        <ele>61</ele>
        <time>2024-08-24T15:55:06Z</time>
      </trkpt>
      <trkpt lat="46.61373" lon="0.61552">
        <ele>60.4</ele>
        <time>2024-08-24T15:55:07Z</time>
      </trkpt>
      <trkpt lat="46.61371" lon="0.61553">
        <ele>60</ele>
        <time>2024-08-24T15:55:09Z</time>
      </trkpt>
      <trkpt lat="46.61362" lon="0.61559">
        <ele>59.6</ele>
        <time>2024-08-24T15:55:14Z</time>
      </trkpt>
      <trkpt lat="46.6134" lon="0.61571">
        <ele>59.6</ele>
        <time>2024-08-24T15:55:19Z</time>
      </trkpt>
      <trkpt lat="46.61308" lon="0.6158">
        <ele>60</ele>
        <time>2024-08-24T15:55:25Z</time>
      </trkpt>
      <trkpt lat="46.61283" lon="0.61582">
        <ele>61.6</ele>
        <time>2024-08-24T15:55:31Z</time>
      </trkpt>
      <trkpt lat="46.61259" lon="0.61579">
        <ele>62.8</ele>
        <time>2024-08-24T15:55:38Z</time>
      </trkpt>
      <trkpt lat="46.61252" lon="0.61578">
        <ele>63.2</ele>
        <time>2024-08-24T15:55:40Z</time>
      </trkpt>
      <trkpt lat="46.61246" lon="0.61578">
        <ele>64.2</ele>
        <time>2024-08-24T15:55:42Z</time>
      </trkpt>
      <trkpt lat="46.61237" lon="0.61577">
        <ele>65.4</ele>
        <time>2024-08-24T15:55:45Z</time>
      </trkpt>
      <trkpt lat="46.6123" lon="0.61576">
        <ele>66</ele>
        <time>2024-08-24T15:55:48Z</time>
      </trkpt>
      <trkpt lat="46.61223" lon="0.61575">
        <ele>66.4</ele>
        <time>2024-08-24T15:55:51Z</time>
      </trkpt>
      <trkpt lat="46.6121" lon="0.61574">
        <ele>67.2</ele>
        <time>2024-08-24T15:55:56Z</time>
      </trkpt>
      <trkpt lat="46.61205" lon="0.61574">
        <ele>67.4</ele>
        <time>2024-08-24T15:55:58Z</time>
      </trkpt>
      <trkpt lat="46.61198" lon="0.61575">
        <ele>68.4</ele>
        <time>2024-08-24T15:56:01Z</time>
      </trkpt>
      <trkpt lat="46.61188" lon="0.61576">
        <ele>69.2</ele>
        <time>2024-08-24T15:56:05Z</time>
      </trkpt>
      <trkpt lat="46.6118" lon="0.61577">
        <ele>69.6</ele>
        <time>2024-08-24T15:56:08Z</time>
      </trkpt>
      <trkpt lat="46.61173" lon="0.6158">
        <ele>70</ele>
        <time>2024-08-24T15:56:11Z</time>
      </trkpt>
      <trkpt lat="46.61156" lon="0.61587">
        <ele>70.6</ele>
        <time>2024-08-24T15:56:17Z</time>
      </trkpt>
      <trkpt lat="46.61147" lon="0.61591">
        <ele>71</ele>
        <time>2024-08-24T15:56:20Z</time>
      </trkpt>
      <trkpt lat="46.61135" lon="0.61595">
        <ele>71.6</ele>
        <time>2024-08-24T15:56:24Z</time>
      </trkpt>
      <trkpt lat="46.61119" lon="0.61601">
        <ele>72.8</ele>
        <time>2024-08-24T15:56:29Z</time>
      </trkpt>
      <trkpt lat="46.61113" lon="0.61602">
        <ele>72.8</ele>
        <time>2024-08-24T15:56:31Z</time>
      </trkpt>
      <trkpt lat="46.61083" lon="0.61609">
        <ele>73.2</ele>
        <time>2024-08-24T15:56:40Z</time>
      </trkpt>
      <trkpt lat="46.61065" lon="0.61613">
        <ele>73.8</ele>
        <time>2024-08-24T15:56:45Z</time>
      </trkpt>
      <trkpt lat="46.61057" lon="0.61614">
        <ele>74</ele>
        <time>2024-08-24T15:56:47Z</time>
      </trkpt>
      <trkpt lat="46.61038" lon="0.61618">
        <ele>74.8</ele>
        <time>2024-08-24T15:56:52Z</time>
      </trkpt>
      <trkpt lat="46.61035" lon="0.61618">
        <ele>75</ele>
        <time>2024-08-24T15:56:53Z</time>
      </trkpt>
      <trkpt lat="46.61024" lon="0.61618">
        <ele>75.2</ele>
        <time>2024-08-24T15:56:56Z</time>
      </trkpt>
      <trkpt lat="46.6101" lon="0.61623">
        <ele>76</ele>
        <time>2024-08-24T15:57:00Z</time>
      </trkpt>
      <trkpt lat="46.61004" lon="0.61624">
        <ele>76</ele>
        <time>2024-08-24T15:57:02Z</time>
      </trkpt>
      <trkpt lat="46.60976" lon="0.61631">
        <ele>76.4</ele>
        <time>2024-08-24T15:57:10Z</time>
      </trkpt>
      <trkpt lat="46.60957" lon="0.61637">
        <ele>77.2</ele>
        <time>2024-08-24T15:57:15Z</time>
      </trkpt>
      <trkpt lat="46.60941" lon="0.61643">
        <ele>77.6</ele>
        <time>2024-08-24T15:57:19Z</time>
      </trkpt>
      <trkpt lat="46.6092" lon="0.61649">
        <ele>78.2</ele>
        <time>2024-08-24T15:57:25Z</time>
      </trkpt>
      <trkpt lat="46.60917" lon="0.6165">
        <ele>78.2</ele>
        <time>2024-08-24T15:57:26Z</time>
      </trkpt>
      <trkpt lat="46.60889" lon="0.6166">
        <ele>79</ele>
        <time>2024-08-24T15:57:34Z</time>
      </trkpt>
      <trkpt lat="46.60885" lon="0.61662">
        <ele>79.2</ele>
        <time>2024-08-24T15:57:35Z</time>
      </trkpt>
      <trkpt lat="46.60868" lon="0.61671">
        <ele>80.2</ele>
        <time>2024-08-24T15:57:40Z</time>
      </trkpt>
      <trkpt lat="46.60864" lon="0.61675">
        <ele>80.4</ele>
        <time>2024-08-24T15:57:41Z</time>
      </trkpt>
      <trkpt lat="46.60838" lon="0.61693">
        <ele>81.4</ele>
        <time>2024-08-24T15:57:48Z</time>
      </trkpt>
      <trkpt lat="46.60807" lon="0.61715">
        <ele>82</ele>
        <time>2024-08-24T15:57:57Z</time>
      </trkpt>
      <trkpt lat="46.60799" lon="0.61736">
        <ele>82.4</ele>
        <time>2024-08-24T15:58:01Z</time>
      </trkpt>
      <trkpt lat="46.60796" lon="0.61745">
        <ele>82.4</ele>
        <time>2024-08-24T15:58:02Z</time>
      </trkpt>
      <trkpt lat="46.60785" lon="0.61777">
        <ele>83.2</ele>
        <time>2024-08-24T15:58:07Z</time>
      </trkpt>
      <trkpt lat="46.60782" lon="0.61787">
        <ele>83.6</ele>
        <time>2024-08-24T15:58:09Z</time>
      </trkpt>
      <trkpt lat="46.60771" lon="0.61806">
        <ele>84.4</ele>
        <time>2024-08-24T15:58:14Z</time>
      </trkpt>
      <trkpt lat="46.60764" lon="0.61817">
        <ele>84.6</ele>
        <time>2024-08-24T15:58:17Z</time>
      </trkpt>
      <trkpt lat="46.60755" lon="0.61834">
        <ele>85.4</ele>
        <time>2024-08-24T15:58:22Z</time>
      </trkpt>
      <trkpt lat="46.60741" lon="0.6186">
        <ele>84.8</ele>
        <time>2024-08-24T15:58:29Z</time>
      </trkpt>
      <trkpt lat="46.60732" lon="0.61876">
        <ele>85.4</ele>
        <time>2024-08-24T15:58:34Z</time>
      </trkpt>
      <trkpt lat="46.60729" lon="0.61881">
        <ele>85.6</ele>
        <time>2024-08-24T15:58:36Z</time>
      </trkpt>
      <trkpt lat="46.60716" lon="0.6191">
        <ele>85.8</ele>
        <time>2024-08-24T15:58:41Z</time>
      </trkpt>
      <trkpt lat="46.60692" lon="0.61961">
        <ele>86.2</ele>
        <time>2024-08-24T15:58:49Z</time>
      </trkpt>
      <trkpt lat="46.6068" lon="0.61979">
        <ele>86.8</ele>
        <time>2024-08-24T15:58:53Z</time>
      </trkpt>
      <trkpt lat="46.60664" lon="0.62001">
        <ele>87.2</ele>
        <time>2024-08-24T15:58:58Z</time>
      </trkpt>
      <trkpt lat="46.60645" lon="0.62029">
        <ele>87.2</ele>
        <time>2024-08-24T15:59:04Z</time>
      </trkpt>
      <trkpt lat="46.60641" lon="0.62036">
        <ele>87.2</ele>
        <time>2024-08-24T15:59:05Z</time>
      </trkpt>
      <trkpt lat="46.60636" lon="0.62042">
        <ele>87.2</ele>
        <time>2024-08-24T15:59:06Z</time>
      </trkpt>
      <trkpt lat="46.60632" lon="0.62042">
        <ele>86.8</ele>
        <time>2024-08-24T15:59:08Z</time>
      </trkpt>
      <trkpt lat="46.6063" lon="0.62042">
        <ele>86.8</ele>
        <time>2024-08-24T15:59:10Z</time>
      </trkpt>
      <trkpt lat="46.60622" lon="0.6204">
        <ele>86.6</ele>
        <time>2024-08-24T15:59:14Z</time>
      </trkpt>
      <trkpt lat="46.60604" lon="0.62041">
        <ele>87.2</ele>
        <time>2024-08-24T15:59:20Z</time>
      </trkpt>
      <trkpt lat="46.60601" lon="0.62042">
        <ele>87.4</ele>
        <time>2024-08-24T15:59:21Z</time>
      </trkpt>
      <trkpt lat="46.60596" lon="0.62045">
        <ele>87.4</ele>
        <time>2024-08-24T15:59:23Z</time>
      </trkpt>
      <trkpt lat="46.60591" lon="0.62048">
        <ele>87.2</ele>
        <time>2024-08-24T15:59:25Z</time>
      </trkpt>
      <trkpt lat="46.6058" lon="0.62048">
        <ele>86.8</ele>
        <time>2024-08-24T15:59:29Z</time>
      </trkpt>
      <trkpt lat="46.60566" lon="0.62059">
        <ele>86.4</ele>
        <time>2024-08-24T15:59:35Z</time>
      </trkpt>
      <trkpt lat="46.60564" lon="0.62061">
        <ele>86.6</ele>
        <time>2024-08-24T15:59:36Z</time>
      </trkpt>
      <trkpt lat="46.60562" lon="0.62064">
        <ele>86.6</ele>
        <time>2024-08-24T15:59:37Z</time>
      </trkpt>
      <trkpt lat="46.60557" lon="0.62069">
        <ele>86.6</ele>
        <time>2024-08-24T15:59:39Z</time>
      </trkpt>
      <trkpt lat="46.60549" lon="0.62071">
        <ele>86.6</ele>
        <time>2024-08-24T15:59:41Z</time>
      </trkpt>
      <trkpt lat="46.60534" lon="0.62077">
        <ele>85.6</ele>
        <time>2024-08-24T15:59:46Z</time>
      </trkpt>
      <trkpt lat="46.60531" lon="0.62077">
        <ele>85.4</ele>
        <time>2024-08-24T15:59:47Z</time>
      </trkpt>
      <trkpt lat="46.60526" lon="0.62081">
        <ele>85.4</ele>
        <time>2024-08-24T15:59:49Z</time>
      </trkpt>
      <trkpt lat="46.60518" lon="0.62089">
        <ele>85</ele>
        <time>2024-08-24T15:59:52Z</time>
      </trkpt>
      <trkpt lat="46.60513" lon="0.62097">
        <ele>84.6</ele>
        <time>2024-08-24T15:59:54Z</time>
      </trkpt>
      <trkpt lat="46.6051" lon="0.62103">
        <ele>84.6</ele>
        <time>2024-08-24T15:59:55Z</time>
      </trkpt>
      <trkpt lat="46.60505" lon="0.62113">
        <ele>83.8</ele>
        <time>2024-08-24T15:59:57Z</time>
      </trkpt>
      <trkpt lat="46.60501" lon="0.62118">
        <ele>83.4</ele>
        <time>2024-08-24T15:59:58Z</time>
      </trkpt>
      <trkpt lat="46.60497" lon="0.62122">
        <ele>82.8</ele>
        <time>2024-08-24T15:59:59Z</time>
      </trkpt>
      <trkpt lat="46.60493" lon="0.62128">
        <ele>82.2</ele>
        <time>2024-08-24T16:00:00Z</time>
      </trkpt>
      <trkpt lat="46.60491" lon="0.62133">
        <ele>81.8</ele>
        <time>2024-08-24T16:00:01Z</time>
      </trkpt>
      <trkpt lat="46.60487" lon="0.62142">
        <ele>81.2</ele>
        <time>2024-08-24T16:00:03Z</time>
      </trkpt>
      <trkpt lat="46.60483" lon="0.62155">
        <ele>80.6</ele>
        <time>2024-08-24T16:00:06Z</time>
      </trkpt>
      <trkpt lat="46.60475" lon="0.62165">
        <ele>79.4</ele>
        <time>2024-08-24T16:00:08Z</time>
      </trkpt>
      <trkpt lat="46.60466" lon="0.62173">
        <ele>78.4</ele>
        <time>2024-08-24T16:00:10Z</time>
      </trkpt>
      <trkpt lat="46.60456" lon="0.62182">
        <ele>77.2</ele>
        <time>2024-08-24T16:00:12Z</time>
      </trkpt>
      <trkpt lat="46.60452" lon="0.62184">
        <ele>77</ele>
        <time>2024-08-24T16:00:13Z</time>
      </trkpt>
      <trkpt lat="46.60446" lon="0.62188">
        <ele>76.6</ele>
        <time>2024-08-24T16:00:14Z</time>
      </trkpt>
      <trkpt lat="46.60443" lon="0.62189">
        <ele>76.2</ele>
        <time>2024-08-24T16:00:15Z</time>
      </trkpt>
      <trkpt lat="46.60434" lon="0.62193">
        <ele>75.8</ele>
        <time>2024-08-24T16:00:16Z</time>
      </trkpt>
      <trkpt lat="46.60431" lon="0.62195">
        <ele>75.4</ele>
        <time>2024-08-24T16:00:18Z</time>
      </trkpt>
      <trkpt lat="46.60421" lon="0.62198">
        <ele>74.8</ele>
        <time>2024-08-24T16:00:20Z</time>
      </trkpt>
      <trkpt lat="46.60412" lon="0.62196">
        <ele>74.8</ele>
        <time>2024-08-24T16:00:22Z</time>
      </trkpt>
      <trkpt lat="46.60397" lon="0.62198">
        <ele>73.4</ele>
        <time>2024-08-24T16:00:25Z</time>
      </trkpt>
      <trkpt lat="46.60391" lon="0.62199">
        <ele>73.2</ele>
        <time>2024-08-24T16:00:26Z</time>
      </trkpt>
      <trkpt lat="46.60387" lon="0.622">
        <ele>73</ele>
        <time>2024-08-24T16:00:27Z</time>
      </trkpt>
      <trkpt lat="46.60379" lon="0.62198">
        <ele>72.4</ele>
        <time>2024-08-24T16:00:29Z</time>
      </trkpt>
      <trkpt lat="46.60375" lon="0.62197">
        <ele>72.4</ele>
        <time>2024-08-24T16:00:30Z</time>
      </trkpt>
      <trkpt lat="46.60371" lon="0.62196">
        <ele>72</ele>
        <time>2024-08-24T16:00:31Z</time>
      </trkpt>
      <trkpt lat="46.60357" lon="0.62197">
        <ele>71.4</ele>
        <time>2024-08-24T16:00:34Z</time>
      </trkpt>
      <trkpt lat="46.60352" lon="0.62195">
        <ele>71</ele>
        <time>2024-08-24T16:00:35Z</time>
      </trkpt>
      <trkpt lat="46.60348" lon="0.62194">
        <ele>70.4</ele>
        <time>2024-08-24T16:00:36Z</time>
      </trkpt>
      <trkpt lat="46.60337" lon="0.62189">
        <ele>69.6</ele>
        <time>2024-08-24T16:00:38Z</time>
      </trkpt>
      <trkpt lat="46.60329" lon="0.62187">
        <ele>69</ele>
        <time>2024-08-24T16:00:40Z</time>
      </trkpt>
      <trkpt lat="46.60315" lon="0.62181">
        <ele>67.8</ele>
        <time>2024-08-24T16:00:44Z</time>
      </trkpt>
      <trkpt lat="46.60312" lon="0.62178">
        <ele>67.2</ele>
        <time>2024-08-24T16:00:45Z</time>
      </trkpt>
      <trkpt lat="46.60308" lon="0.62176">
        <ele>66.8</ele>
        <time>2024-08-24T16:00:46Z</time>
      </trkpt>
      <trkpt lat="46.60302" lon="0.62172">
        <ele>66.4</ele>
        <time>2024-08-24T16:00:47Z</time>
      </trkpt>
      <trkpt lat="46.60297" lon="0.6217">
        <ele>65.6</ele>
        <time>2024-08-24T16:00:48Z</time>
      </trkpt>
      <trkpt lat="46.60292" lon="0.62169">
        <ele>64.6</ele>
        <time>2024-08-24T16:00:49Z</time>
      </trkpt>
      <trkpt lat="46.60287" lon="0.62167">
        <ele>63.6</ele>
        <time>2024-08-24T16:00:50Z</time>
      </trkpt>
      <trkpt lat="46.60282" lon="0.62166">
        <ele>62</ele>
        <time>2024-08-24T16:00:51Z</time>
      </trkpt>
      <trkpt lat="46.60275" lon="0.62165">
        <ele>60.8</ele>
        <time>2024-08-24T16:00:53Z</time>
      </trkpt>
      <trkpt lat="46.60271" lon="0.62165">
        <ele>59.6</ele>
        <time>2024-08-24T16:00:54Z</time>
      </trkpt>
      <trkpt lat="46.60264" lon="0.62164">
        <ele>57.2</ele>
        <time>2024-08-24T16:00:56Z</time>
      </trkpt>
      <trkpt lat="46.60262" lon="0.62165">
        <ele>56.2</ele>
        <time>2024-08-24T16:00:57Z</time>
      </trkpt>
      <trkpt lat="46.6026" lon="0.62167">
        <ele>54.6</ele>
        <time>2024-08-24T16:00:58Z</time>
      </trkpt>
      <trkpt lat="46.60258" lon="0.62168">
        <ele>53.4</ele>
        <time>2024-08-24T16:00:59Z</time>
      </trkpt>
      <trkpt lat="46.60251" lon="0.62173">
        <ele>52.2</ele>
        <time>2024-08-24T16:01:01Z</time>
      </trkpt>
      <trkpt lat="46.60243" lon="0.62176">
        <ele>50.6</ele>
        <time>2024-08-24T16:01:03Z</time>
      </trkpt>
      <trkpt lat="46.60239" lon="0.62177">
        <ele>50</ele>
        <time>2024-08-24T16:01:04Z</time>
      </trkpt>
      <trkpt lat="46.60237" lon="0.62178">
        <ele>49.4</ele>
        <time>2024-08-24T16:01:05Z</time>
      </trkpt>
      <trkpt lat="46.6023" lon="0.62181">
        <ele>49</ele>
        <time>2024-08-24T16:01:08Z</time>
      </trkpt>
      <trkpt lat="46.60228" lon="0.62181">
        <ele>49</ele>
        <time>2024-08-24T16:01:09Z</time>
      </trkpt>
      <trkpt lat="46.60213" lon="0.62165">
        <ele>49</ele>
        <time>2024-08-24T16:01:16Z</time>
      </trkpt>
      <trkpt lat="46.6019" lon="0.62136">
        <ele>48.6</ele>
        <time>2024-08-24T16:01:22Z</time>
      </trkpt>
      <trkpt lat="46.60182" lon="0.62124">
        <ele>48.4</ele>
        <time>2024-08-24T16:01:24Z</time>
      </trkpt>
      <trkpt lat="46.60161" lon="0.62094">
        <ele>47.4</ele>
        <time>2024-08-24T16:01:29Z</time>
      </trkpt>
      <trkpt lat="46.60157" lon="0.62087">
        <ele>47.2</ele>
        <time>2024-08-24T16:01:30Z</time>
      </trkpt>
      <trkpt lat="46.60154" lon="0.62082">
        <ele>46.6</ele>
        <time>2024-08-24T16:01:31Z</time>
      </trkpt>
      <trkpt lat="46.60148" lon="0.62075">
        <ele>45.8</ele>
        <time>2024-08-24T16:01:33Z</time>
      </trkpt>
      <trkpt lat="46.60139" lon="0.62064">
        <ele>44.6</ele>
        <time>2024-08-24T16:01:37Z</time>
      </trkpt>
      <trkpt lat="46.60135" lon="0.62055">
        <ele>44.2</ele>
        <time>2024-08-24T16:01:39Z</time>
      </trkpt>
      <trkpt lat="46.60119" lon="0.62021">
        <ele>44.6</ele>
        <time>2024-08-24T16:01:47Z</time>
      </trkpt>
      <trkpt lat="46.60103" lon="0.61997">
        <ele>44.8</ele>
        <time>2024-08-24T16:01:53Z</time>
      </trkpt>
      <trkpt lat="46.60098" lon="0.61986">
        <ele>44.8</ele>
        <time>2024-08-24T16:01:55Z</time>
      </trkpt>
      <trkpt lat="46.60094" lon="0.61973">
        <ele>44.8</ele>
        <time>2024-08-24T16:01:58Z</time>
      </trkpt>
      <trkpt lat="46.6009" lon="0.61937">
        <ele>43.8</ele>
        <time>2024-08-24T16:02:04Z</time>
      </trkpt>
      <trkpt lat="46.60088" lon="0.6192">
        <ele>43</ele>
        <time>2024-08-24T16:02:06Z</time>
      </trkpt>
      <trkpt lat="46.60085" lon="0.61896">
        <ele>43.2</ele>
        <time>2024-08-24T16:02:09Z</time>
      </trkpt>
      <trkpt lat="46.60085" lon="0.61889">
        <ele>43.2</ele>
        <time>2024-08-24T16:02:10Z</time>
      </trkpt>
      <trkpt lat="46.60081" lon="0.61844">
        <ele>43.2</ele>
        <time>2024-08-24T16:02:15Z</time>
      </trkpt>
      <trkpt lat="46.60072" lon="0.61791">
        <ele>42.8</ele>
        <time>2024-08-24T16:02:20Z</time>
      </trkpt>
      <trkpt lat="46.60071" lon="0.6175">
        <ele>42.2</ele>
        <time>2024-08-24T16:02:25Z</time>
      </trkpt>
      <trkpt lat="46.60073" lon="0.61737">
        <ele>41.8</ele>
        <time>2024-08-24T16:02:27Z</time>
      </trkpt>
      <trkpt lat="46.60067" lon="0.61699">
        <ele>41.6</ele>
        <time>2024-08-24T16:02:30Z</time>
      </trkpt>
      <trkpt lat="46.60065" lon="0.61688">
        <ele>41.6</ele>
        <time>2024-08-24T16:02:31Z</time>
      </trkpt>
      <trkpt lat="46.60065" lon="0.61661">
        <ele>41.2</ele>
        <time>2024-08-24T16:02:34Z</time>
      </trkpt>
      <trkpt lat="46.60066" lon="0.6165">
        <ele>40.8</ele>
        <time>2024-08-24T16:02:35Z</time>
      </trkpt>
      <trkpt lat="46.60067" lon="0.6164">
        <ele>40.6</ele>
        <time>2024-08-24T16:02:36Z</time>
      </trkpt>
      <trkpt lat="46.60067" lon="0.61616">
        <ele>40.2</ele>
        <time>2024-08-24T16:02:38Z</time>
      </trkpt>
      <trkpt lat="46.60065" lon="0.61595">
        <ele>39.8</ele>
        <time>2024-08-24T16:02:40Z</time>
      </trkpt>
      <trkpt lat="46.60065" lon="0.61587">
        <ele>39.6</ele>
        <time>2024-08-24T16:02:41Z</time>
      </trkpt>
      <trkpt lat="46.60058" lon="0.61545">
        <ele>39</ele>
        <time>2024-08-24T16:02:47Z</time>
      </trkpt>
      <trkpt lat="46.60056" lon="0.61539">
        <ele>38.8</ele>
        <time>2024-08-24T16:02:48Z</time>
      </trkpt>
      <trkpt lat="46.6005" lon="0.61528">
        <ele>38.4</ele>
        <time>2024-08-24T16:02:49Z</time>
      </trkpt>
      <trkpt lat="46.60048" lon="0.61524">
        <ele>38</ele>
        <time>2024-08-24T16:02:50Z</time>
      </trkpt>
      <trkpt lat="46.60044" lon="0.61517">
        <ele>38</ele>
        <time>2024-08-24T16:02:51Z</time>
      </trkpt>
      <trkpt lat="46.60042" lon="0.61515">
        <ele>37.8</ele>
        <time>2024-08-24T16:02:52Z</time>
      </trkpt>
      <trkpt lat="46.60036" lon="0.61511">
        <ele>37.6</ele>
        <time>2024-08-24T16:02:55Z</time>
      </trkpt>
      <trkpt lat="46.60032" lon="0.61505">
        <ele>37.8</ele>
        <time>2024-08-24T16:02:56Z</time>
      </trkpt>
      <trkpt lat="46.60026" lon="0.6149">
        <ele>37.8</ele>
        <time>2024-08-24T16:02:59Z</time>
      </trkpt>
      <trkpt lat="46.60015" lon="0.61465">
        <ele>37.6</ele>
        <time>2024-08-24T16:03:04Z</time>
      </trkpt>
      <trkpt lat="46.60005" lon="0.61439">
        <ele>37.4</ele>
        <time>2024-08-24T16:03:09Z</time>
      </trkpt>
      <trkpt lat="46.60002" lon="0.61427">
        <ele>37.4</ele>
        <time>2024-08-24T16:03:11Z</time>
      </trkpt>
      <trkpt lat="46.6" lon="0.61404">
        <ele>37.4</ele>
        <time>2024-08-24T16:03:15Z</time>
      </trkpt>
      <trkpt lat="46.59999" lon="0.61374">
        <ele>37.4</ele>
        <time>2024-08-24T16:03:20Z</time>
      </trkpt>
      <trkpt lat="46.59998" lon="0.61369">
        <ele>37.2</ele>
        <time>2024-08-24T16:03:21Z</time>
      </trkpt>
      <trkpt lat="46.59995" lon="0.61353">
        <ele>36</ele>
        <time>2024-08-24T16:03:25Z</time>
      </trkpt>
      <trkpt lat="46.59994" lon="0.61351">
        <ele>36</ele>
        <time>2024-08-24T16:03:26Z</time>
      </trkpt>
      <trkpt lat="46.59982" lon="0.61339">
        <ele>35.8</ele>
        <time>2024-08-24T16:03:32Z</time>
      </trkpt>
      <trkpt lat="46.59964" lon="0.61336">
        <ele>37.2</ele>
        <time>2024-08-24T16:03:38Z</time>
      </trkpt>
      <trkpt lat="46.5996" lon="0.61335">
        <ele>37.6</ele>
        <time>2024-08-24T16:03:39Z</time>
      </trkpt>
      <trkpt lat="46.59941" lon="0.61338">
        <ele>38.6</ele>
        <time>2024-08-24T16:03:45Z</time>
      </trkpt>
      <trkpt lat="46.59936" lon="0.61341">
        <ele>38.6</ele>
        <time>2024-08-24T16:03:47Z</time>
      </trkpt>
      <trkpt lat="46.59925" lon="0.61351">
        <ele>39.6</ele>
        <time>2024-08-24T16:03:53Z</time>
      </trkpt>
      <trkpt lat="46.59924" lon="0.61352">
        <ele>39.8</ele>
        <time>2024-08-24T16:03:54Z</time>
      </trkpt>
      <trkpt lat="46.59921" lon="0.61359">
        <ele>40.8</ele>
        <time>2024-08-24T16:03:58Z</time>
      </trkpt>
      <trkpt lat="46.59922" lon="0.61364">
        <ele>41.6</ele>
        <time>2024-08-24T16:04:01Z</time>
      </trkpt>
      <trkpt lat="46.59922" lon="0.61365">
        <ele>42</ele>
        <time>2024-08-24T16:04:02Z</time>
      </trkpt>
      <trkpt lat="46.59924" lon="0.61373">
        <ele>43</ele>
        <time>2024-08-24T16:04:06Z</time>
      </trkpt>
      <trkpt lat="46.59924" lon="0.61377">
        <ele>43.4</ele>
        <time>2024-08-24T16:04:08Z</time>
      </trkpt>
      <trkpt lat="46.59925" lon="0.61383">
        <ele>44.2</ele>
        <time>2024-08-24T16:04:11Z</time>
      </trkpt>
      <trkpt lat="46.59925" lon="0.6139">
        <ele>44.8</ele>
        <time>2024-08-24T16:04:15Z</time>
      </trkpt>
      <trkpt lat="46.59925" lon="0.61394">
        <ele>45.2</ele>
        <time>2024-08-24T16:04:17Z</time>
      </trkpt>
      <trkpt lat="46.59925" lon="0.61401">
        <ele>46.2</ele>
        <time>2024-08-24T16:04:22Z</time>
      </trkpt>
      <trkpt lat="46.59925" lon="0.61403">
        <ele>46.2</ele>
        <time>2024-08-24T16:04:23Z</time>
      </trkpt>
      <trkpt lat="46.59926" lon="0.61413">
        <ele>47.4</ele>
        <time>2024-08-24T16:04:28Z</time>
      </trkpt>
      <trkpt lat="46.59927" lon="0.61425">
        <ele>48.4</ele>
        <time>2024-08-24T16:04:35Z</time>
      </trkpt>
      <trkpt lat="46.59928" lon="0.61429">
        <ele>48.6</ele>
        <time>2024-08-24T16:04:37Z</time>
      </trkpt>
      <trkpt lat="46.59927" lon="0.6144">
        <ele>49.6</ele>
        <time>2024-08-24T16:04:43Z</time>
      </trkpt>
      <trkpt lat="46.59927" lon="0.61441">
        <ele>49.6</ele>
        <time>2024-08-24T16:04:44Z</time>
      </trkpt>
      <trkpt lat="46.59925" lon="0.61448">
        <ele>50.8</ele>
        <time>2024-08-24T16:04:49Z</time>
      </trkpt>
      <trkpt lat="46.59923" lon="0.61454">
        <ele>51.8</ele>
        <time>2024-08-24T16:04:54Z</time>
      </trkpt>
      <trkpt lat="46.59922" lon="0.61456">
        <ele>52</ele>
        <time>2024-08-24T16:04:55Z</time>
      </trkpt>
      <trkpt lat="46.5992" lon="0.61466">
        <ele>53</ele>
        <time>2024-08-24T16:05:01Z</time>
      </trkpt>
      <trkpt lat="46.59919" lon="0.61469">
        <ele>53.2</ele>
        <time>2024-08-24T16:05:03Z</time>
      </trkpt>
      <trkpt lat="46.59916" lon="0.61476">
        <ele>54</ele>
        <time>2024-08-24T16:05:08Z</time>
      </trkpt>
      <trkpt lat="46.59916" lon="0.61477">
        <ele>54.2</ele>
        <time>2024-08-24T16:05:09Z</time>
      </trkpt>
      <trkpt lat="46.59916" lon="0.61479">
        <ele>54.2</ele>
        <time>2024-08-24T16:05:10Z</time>
      </trkpt>
      <trkpt lat="46.59916" lon="0.61485">
        <ele>55.2</ele>
        <time>2024-08-24T16:05:14Z</time>
      </trkpt>
      <trkpt lat="46.59914" lon="0.6149">
        <ele>56</ele>
        <time>2024-08-24T16:05:18Z</time>
      </trkpt>
      <trkpt lat="46.59914" lon="0.61492">
        <ele>56.2</ele>
        <time>2024-08-24T16:05:20Z</time>
      </trkpt>
      <trkpt lat="46.59914" lon="0.61495">
        <ele>57</ele>
        <time>2024-08-24T16:05:22Z</time>
      </trkpt>
      <trkpt lat="46.59914" lon="0.61496">
        <ele>57.2</ele>
        <time>2024-08-24T16:05:23Z</time>
      </trkpt>
      <trkpt lat="46.59913" lon="0.61499">
        <ele>57.4</ele>
        <time>2024-08-24T16:05:25Z</time>
      </trkpt>
      <trkpt lat="46.59912" lon="0.61501">
        <ele>57.6</ele>
        <time>2024-08-24T16:05:27Z</time>
      </trkpt>
      <trkpt lat="46.59912" lon="0.61503">
        <ele>57.8</ele>
        <time>2024-08-24T16:05:29Z</time>
      </trkpt>
      <trkpt lat="46.59911" lon="0.61506">
        <ele>58.4</ele>
        <time>2024-08-24T16:05:31Z</time>
      </trkpt>
      <trkpt lat="46.59911" lon="0.61507">
        <ele>58.6</ele>
        <time>2024-08-24T16:05:32Z</time>
      </trkpt>
      <trkpt lat="46.5991" lon="0.61509">
        <ele>59.2</ele>
        <time>2024-08-24T16:05:34Z</time>
      </trkpt>
      <trkpt lat="46.5991" lon="0.61511">
        <ele>59.4</ele>
        <time>2024-08-24T16:05:35Z</time>
      </trkpt>
      <trkpt lat="46.59909" lon="0.61512">
        <ele>59.6</ele>
        <time>2024-08-24T16:05:36Z</time>
      </trkpt>
      <trkpt lat="46.59907" lon="0.61516">
        <ele>60.2</ele>
        <time>2024-08-24T16:05:39Z</time>
      </trkpt>
      <trkpt lat="46.59906" lon="0.61519">
        <ele>60.6</ele>
        <time>2024-08-24T16:05:41Z</time>
      </trkpt>
      <trkpt lat="46.59906" lon="0.6152">
        <ele>60.8</ele>
        <time>2024-08-24T16:05:42Z</time>
      </trkpt>
      <trkpt lat="46.59905" lon="0.61525">
        <ele>61.4</ele>
        <time>2024-08-24T16:05:45Z</time>
      </trkpt>
      <trkpt lat="46.59905" lon="0.61527">
        <ele>61.6</ele>
        <time>2024-08-24T16:05:46Z</time>
      </trkpt>
      <trkpt lat="46.59905" lon="0.61528">
        <ele>61.8</ele>
        <time>2024-08-24T16:05:47Z</time>
      </trkpt>
      <trkpt lat="46.59905" lon="0.61531">
        <ele>62</ele>
        <time>2024-08-24T16:05:49Z</time>
      </trkpt>
      <trkpt lat="46.59905" lon="0.61536">
        <ele>62.8</ele>
        <time>2024-08-24T16:05:52Z</time>
      </trkpt>
      <trkpt lat="46.59905" lon="0.61538">
        <ele>62.8</ele>
        <time>2024-08-24T16:05:53Z</time>
      </trkpt>
      <trkpt lat="46.59905" lon="0.61542">
        <ele>63.8</ele>
        <time>2024-08-24T16:05:56Z</time>
      </trkpt>
      <trkpt lat="46.59905" lon="0.61546">
        <ele>64.4</ele>
        <time>2024-08-24T16:05:59Z</time>
      </trkpt>
      <trkpt lat="46.59905" lon="0.61548">
        <ele>64.4</ele>
        <time>2024-08-24T16:06:00Z</time>
      </trkpt>
      <trkpt lat="46.59906" lon="0.61549">
        <ele>64.6</ele>
        <time>2024-08-24T16:06:01Z</time>
      </trkpt>
      <trkpt lat="46.59906" lon="0.61551">
        <ele>65</ele>
        <time>2024-08-24T16:06:02Z</time>
      </trkpt>
      <trkpt lat="46.59905" lon="0.61564">
        <ele>66.4</ele>
        <time>2024-08-24T16:06:10Z</time>
      </trkpt>
      <trkpt lat="46.59905" lon="0.61567">
        <ele>66.8</ele>
        <time>2024-08-24T16:06:12Z</time>
      </trkpt>
      <trkpt lat="46.59905" lon="0.61569">
        <ele>66.8</ele>
        <time>2024-08-24T16:06:13Z</time>
      </trkpt>
      <trkpt lat="46.59904" lon="0.61577">
        <ele>67.4</ele>
        <time>2024-08-24T16:06:18Z</time>
      </trkpt>
      <trkpt lat="46.59904" lon="0.61584">
        <ele>68.6</ele>
        <time>2024-08-24T16:06:23Z</time>
      </trkpt>
      <trkpt lat="46.59904" lon="0.61586">
        <ele>68.8</ele>
        <time>2024-08-24T16:06:24Z</time>
      </trkpt>
      <trkpt lat="46.59903" lon="0.61598">
        <ele>69.6</ele>
        <time>2024-08-24T16:06:31Z</time>
      </trkpt>
      <trkpt lat="46.59903" lon="0.616">
        <ele>69.8</ele>
        <time>2024-08-24T16:06:32Z</time>
      </trkpt>
      <trkpt lat="46.59903" lon="0.61615">
        <ele>70.6</ele>
        <time>2024-08-24T16:06:39Z</time>
      </trkpt>
      <trkpt lat="46.59903" lon="0.61629">
        <ele>71.8</ele>
        <time>2024-08-24T16:06:46Z</time>
      </trkpt>
      <trkpt lat="46.59903" lon="0.61638">
        <ele>72.6</ele>
        <time>2024-08-24T16:06:51Z</time>
      </trkpt>
      <trkpt lat="46.59904" lon="0.6164">
        <ele>73</ele>
        <time>2024-08-24T16:06:52Z</time>
      </trkpt>
      <trkpt lat="46.59905" lon="0.61655">
        <ele>74</ele>
        <time>2024-08-24T16:06:59Z</time>
      </trkpt>
      <trkpt lat="46.59906" lon="0.61661">
        <ele>74.2</ele>
        <time>2024-08-24T16:07:01Z</time>
      </trkpt>
      <trkpt lat="46.5991" lon="0.61682">
        <ele>74</ele>
        <time>2024-08-24T16:07:08Z</time>
      </trkpt>
      <trkpt lat="46.59917" lon="0.61712">
        <ele>74.4</ele>
        <time>2024-08-24T16:07:15Z</time>
      </trkpt>
      <trkpt lat="46.59925" lon="0.61751">
        <ele>74</ele>
        <time>2024-08-24T16:07:22Z</time>
      </trkpt>
      <trkpt lat="46.59926" lon="0.61757">
        <ele>74</ele>
        <time>2024-08-24T16:07:23Z</time>
      </trkpt>
      <trkpt lat="46.5993" lon="0.61774">
        <ele>74</ele>
        <time>2024-08-24T16:07:26Z</time>
      </trkpt>
      <trkpt lat="46.59931" lon="0.61786">
        <ele>74</ele>
        <time>2024-08-24T16:07:28Z</time>
      </trkpt>
      <trkpt lat="46.59931" lon="0.61833">
        <ele>73.6</ele>
        <time>2024-08-24T16:07:35Z</time>
      </trkpt>
      <trkpt lat="46.5993" lon="0.6184">
        <ele>73.8</ele>
        <time>2024-08-24T16:07:36Z</time>
      </trkpt>
      <trkpt lat="46.59925" lon="0.61867">
        <ele>74.2</ele>
        <time>2024-08-24T16:07:40Z</time>
      </trkpt>
      <trkpt lat="46.59923" lon="0.6191">
        <ele>74.4</ele>
        <time>2024-08-24T16:07:46Z</time>
      </trkpt>
      <trkpt lat="46.59921" lon="0.61952">
        <ele>74.6</ele>
        <time>2024-08-24T16:07:53Z</time>
      </trkpt>
      <trkpt lat="46.59917" lon="0.61985">
        <ele>75.2</ele>
        <time>2024-08-24T16:07:59Z</time>
      </trkpt>
      <trkpt lat="46.59918" lon="0.62014">
        <ele>76</ele>
        <time>2024-08-24T16:08:05Z</time>
      </trkpt>
      <trkpt lat="46.59918" lon="0.62024">
        <ele>76.4</ele>
        <time>2024-08-24T16:08:07Z</time>
      </trkpt>
      <trkpt lat="46.59918" lon="0.62046">
        <ele>77.2</ele>
        <time>2024-08-24T16:08:12Z</time>
      </trkpt>
      <trkpt lat="46.59918" lon="0.6205">
        <ele>77.6</ele>
        <time>2024-08-24T16:08:13Z</time>
      </trkpt>
      <trkpt lat="46.59917" lon="0.62079">
        <ele>78.2</ele>
        <time>2024-08-24T16:08:19Z</time>
      </trkpt>
      <trkpt lat="46.59917" lon="0.62111">
        <ele>78.4</ele>
        <time>2024-08-24T16:08:26Z</time>
      </trkpt>
      <trkpt lat="46.59917" lon="0.62116">
        <ele>78.6</ele>
        <time>2024-08-24T16:08:27Z</time>
      </trkpt>
      <trkpt lat="46.59915" lon="0.6215">
        <ele>79</ele>
        <time>2024-08-24T16:08:34Z</time>
      </trkpt>
      <trkpt lat="46.59912" lon="0.62154">
        <ele>79.6</ele>
        <time>2024-08-24T16:08:36Z</time>
      </trkpt>
      <trkpt lat="46.59906" lon="0.62158">
        <ele>79.8</ele>
        <time>2024-08-24T16:08:38Z</time>
      </trkpt>
      <trkpt lat="46.59904" lon="0.62163">
        <ele>80</ele>
        <time>2024-08-24T16:08:39Z</time>
      </trkpt>
      <trkpt lat="46.59901" lon="0.62175">
        <ele>80.2</ele>
        <time>2024-08-24T16:08:41Z</time>
      </trkpt>
      <trkpt lat="46.59903" lon="0.62205">
        <ele>80.6</ele>
        <time>2024-08-24T16:08:46Z</time>
      </trkpt>
      <trkpt lat="46.59904" lon="0.62211">
        <ele>80.8</ele>
        <time>2024-08-24T16:08:47Z</time>
      </trkpt>
      <trkpt lat="46.59909" lon="0.62243">
        <ele>81.4</ele>
        <time>2024-08-24T16:08:53Z</time>
      </trkpt>
      <trkpt lat="46.59911" lon="0.62256">
        <ele>81.8</ele>
        <time>2024-08-24T16:08:56Z</time>
      </trkpt>
      <trkpt lat="46.59917" lon="0.62288">
        <ele>82.2</ele>
        <time>2024-08-24T16:09:02Z</time>
      </trkpt>
      <trkpt lat="46.59923" lon="0.62318">
        <ele>82.2</ele>
        <time>2024-08-24T16:09:07Z</time>
      </trkpt>
      <trkpt lat="46.59925" lon="0.62337">
        <ele>82.2</ele>
        <time>2024-08-24T16:09:10Z</time>
      </trkpt>
      <trkpt lat="46.59924" lon="0.62382">
        <ele>82.2</ele>
        <time>2024-08-24T16:09:17Z</time>
      </trkpt>
      <trkpt lat="46.59929" lon="0.62415">
        <ele>82.2</ele>
        <time>2024-08-24T16:09:23Z</time>
      </trkpt>
      <trkpt lat="46.59935" lon="0.6244">
        <ele>82</ele>
        <time>2024-08-24T16:09:27Z</time>
      </trkpt>
      <trkpt lat="46.59939" lon="0.62453">
        <ele>82</ele>
        <time>2024-08-24T16:09:29Z</time>
      </trkpt>
      <trkpt lat="46.5995" lon="0.62478">
        <ele>82</ele>
        <time>2024-08-24T16:09:34Z</time>
      </trkpt>
      <trkpt lat="46.59955" lon="0.62487">
        <ele>82.2</ele>
        <time>2024-08-24T16:09:36Z</time>
      </trkpt>
      <trkpt lat="46.59962" lon="0.62501">
        <ele>82.2</ele>
        <time>2024-08-24T16:09:39Z</time>
      </trkpt>
      <trkpt lat="46.59967" lon="0.62509">
        <ele>81.8</ele>
        <time>2024-08-24T16:09:41Z</time>
      </trkpt>
      <trkpt lat="46.5997" lon="0.62513">
        <ele>81.6</ele>
        <time>2024-08-24T16:09:42Z</time>
      </trkpt>
      <trkpt lat="46.59977" lon="0.6252">
        <ele>81.6</ele>
        <time>2024-08-24T16:09:44Z</time>
      </trkpt>
      <trkpt lat="46.59985" lon="0.62529">
        <ele>81.4</ele>
        <time>2024-08-24T16:09:46Z</time>
      </trkpt>
      <trkpt lat="46.59992" lon="0.62542">
        <ele>81</ele>
        <time>2024-08-24T16:09:48Z</time>
      </trkpt>
      <trkpt lat="46.59997" lon="0.62557">
        <ele>80.6</ele>
        <time>2024-08-24T16:09:50Z</time>
      </trkpt>
      <trkpt lat="46.59999" lon="0.62565">
        <ele>80.4</ele>
        <time>2024-08-24T16:09:51Z</time>
      </trkpt>
      <trkpt lat="46.60004" lon="0.62581">
        <ele>80</ele>
        <time>2024-08-24T16:09:53Z</time>
      </trkpt>
      <trkpt lat="46.60007" lon="0.62589">
        <ele>79.6</ele>
        <time>2024-08-24T16:09:54Z</time>
      </trkpt>
      <trkpt lat="46.60018" lon="0.62612">
        <ele>79</ele>
        <time>2024-08-24T16:09:57Z</time>
      </trkpt>
      <trkpt lat="46.60027" lon="0.62628">
        <ele>78.6</ele>
        <time>2024-08-24T16:09:59Z</time>
      </trkpt>
      <trkpt lat="46.60046" lon="0.6266">
        <ele>77.4</ele>
        <time>2024-08-24T16:10:03Z</time>
      </trkpt>
      <trkpt lat="46.60063" lon="0.62691">
        <ele>76.4</ele>
        <time>2024-08-24T16:10:07Z</time>
      </trkpt>
      <trkpt lat="46.6007" lon="0.62704">
        <ele>76</ele>
        <time>2024-08-24T16:10:09Z</time>
      </trkpt>
      <trkpt lat="46.60083" lon="0.6273">
        <ele>75.8</ele>
        <time>2024-08-24T16:10:13Z</time>
      </trkpt>
      <trkpt lat="46.60088" lon="0.62736">
        <ele>75.8</ele>
        <time>2024-08-24T16:10:14Z</time>
      </trkpt>
      <trkpt lat="46.60098" lon="0.62757">
        <ele>75.4</ele>
        <time>2024-08-24T16:10:17Z</time>
      </trkpt>
      <trkpt lat="46.60099" lon="0.62761">
        <ele>75</ele>
        <time>2024-08-24T16:10:18Z</time>
      </trkpt>
      <trkpt lat="46.60099" lon="0.62768">
        <ele>75</ele>
        <time>2024-08-24T16:10:21Z</time>
      </trkpt>
      <trkpt lat="46.60093" lon="0.62768">
        <ele>74.6</ele>
        <time>2024-08-24T16:10:27Z</time>
      </trkpt>
      <trkpt lat="46.60079" lon="0.62758">
        <ele>75.8</ele>
        <time>2024-08-24T16:10:32Z</time>
      </trkpt>
      <trkpt lat="46.6007" lon="0.62752">
        <ele>76.4</ele>
        <time>2024-08-24T16:10:35Z</time>
      </trkpt>
      <trkpt lat="46.60063" lon="0.62745">
        <ele>76.4</ele>
        <time>2024-08-24T16:10:38Z</time>
      </trkpt>
      <trkpt lat="46.60057" lon="0.62736">
        <ele>76.8</ele>
        <time>2024-08-24T16:10:42Z</time>
      </trkpt>
      <trkpt lat="46.60043" lon="0.62717">
        <ele>77.2</ele>
        <time>2024-08-24T16:10:49Z</time>
      </trkpt>
      <trkpt lat="46.60042" lon="0.62714">
        <ele>77.4</ele>
        <time>2024-08-24T16:10:50Z</time>
      </trkpt>
      <trkpt lat="46.60038" lon="0.62703">
        <ele>77.8</ele>
        <time>2024-08-24T16:10:54Z</time>
      </trkpt>
      <trkpt lat="46.60036" lon="0.62702">
        <ele>77.8</ele>
        <time>2024-08-24T16:10:55Z</time>
      </trkpt>
      <trkpt lat="46.6003" lon="0.62701">
        <ele>78</ele>
        <time>2024-08-24T16:10:58Z</time>
      </trkpt>
      <trkpt lat="46.60021" lon="0.62694">
        <ele>78.4</ele>
        <time>2024-08-24T16:11:02Z</time>
      </trkpt>
      <trkpt lat="46.60019" lon="0.62691">
        <ele>78.4</ele>
        <time>2024-08-24T16:11:03Z</time>
      </trkpt>
      <trkpt lat="46.60006" lon="0.62676">
        <ele>79</ele>
        <time>2024-08-24T16:11:08Z</time>
      </trkpt>
      <trkpt lat="46.59999" lon="0.62665">
        <ele>79.6</ele>
        <time>2024-08-24T16:11:12Z</time>
      </trkpt>
      <trkpt lat="46.59995" lon="0.6266">
        <ele>80.2</ele>
        <time>2024-08-24T16:11:14Z</time>
      </trkpt>
      <trkpt lat="46.5999" lon="0.62651">
        <ele>80.8</ele>
        <time>2024-08-24T16:11:17Z</time>
      </trkpt>
      <trkpt lat="46.59981" lon="0.62637">
        <ele>81.2</ele>
        <time>2024-08-24T16:11:21Z</time>
      </trkpt>
      <trkpt lat="46.59968" lon="0.62624">
        <ele>81.8</ele>
        <time>2024-08-24T16:11:26Z</time>
      </trkpt>
      <trkpt lat="46.59966" lon="0.62621">
        <ele>82</ele>
        <time>2024-08-24T16:11:27Z</time>
      </trkpt>
      <trkpt lat="46.59952" lon="0.62605">
        <ele>82</ele>
        <time>2024-08-24T16:11:33Z</time>
      </trkpt>
      <trkpt lat="46.59933" lon="0.62579">
        <ele>82.4</ele>
        <time>2024-08-24T16:11:41Z</time>
      </trkpt>
      <trkpt lat="46.59922" lon="0.62569">
        <ele>82.8</ele>
        <time>2024-08-24T16:11:45Z</time>
      </trkpt>
      <trkpt lat="46.59912" lon="0.62561">
        <ele>83.4</ele>
        <time>2024-08-24T16:11:48Z</time>
      </trkpt>
      <trkpt lat="46.59888" lon="0.62541">
        <ele>84</ele>
        <time>2024-08-24T16:11:55Z</time>
      </trkpt>
      <trkpt lat="46.59857" lon="0.62517">
        <ele>83.2</ele>
        <time>2024-08-24T16:12:03Z</time>
      </trkpt>
      <trkpt lat="46.59853" lon="0.62515">
        <ele>83.2</ele>
        <time>2024-08-24T16:12:04Z</time>
      </trkpt>
      <trkpt lat="46.59844" lon="0.62512">
        <ele>83.4</ele>
        <time>2024-08-24T16:12:06Z</time>
      </trkpt>
      <trkpt lat="46.59836" lon="0.62513">
        <ele>83.6</ele>
        <time>2024-08-24T16:12:08Z</time>
      </trkpt>
      <trkpt lat="46.5983" lon="0.62515">
        <ele>83.6</ele>
        <time>2024-08-24T16:12:10Z</time>
      </trkpt>
      <trkpt lat="46.59829" lon="0.62517">
        <ele>83.6</ele>
        <time>2024-08-24T16:12:11Z</time>
      </trkpt>
      <trkpt lat="46.5983" lon="0.62522">
        <ele>83.6</ele>
        <time>2024-08-24T16:12:13Z</time>
      </trkpt>
      <trkpt lat="46.59833" lon="0.6253">
        <ele>83.6</ele>
        <time>2024-08-24T16:12:15Z</time>
      </trkpt>
      <trkpt lat="46.59845" lon="0.62552">
        <ele>84</ele>
        <time>2024-08-24T16:12:20Z</time>
      </trkpt>
      <trkpt lat="46.59852" lon="0.62566">
        <ele>84</ele>
        <time>2024-08-24T16:12:23Z</time>
      </trkpt>
      <trkpt lat="46.59854" lon="0.62576">
        <ele>84</ele>
        <time>2024-08-24T16:12:25Z</time>
      </trkpt>
      <trkpt lat="46.59862" lon="0.62615">
        <ele>83.8</ele>
        <time>2024-08-24T16:12:32Z</time>
      </trkpt>
      <trkpt lat="46.59869" lon="0.62639">
        <ele>83.8</ele>
        <time>2024-08-24T16:12:36Z</time>
      </trkpt>
      <trkpt lat="46.59873" lon="0.62653">
        <ele>83.6</ele>
        <time>2024-08-24T16:12:38Z</time>
      </trkpt>
      <trkpt lat="46.59884" lon="0.62683">
        <ele>83.4</ele>
        <time>2024-08-24T16:12:42Z</time>
      </trkpt>
      <trkpt lat="46.59887" lon="0.62691">
        <ele>83.4</ele>
        <time>2024-08-24T16:12:43Z</time>
      </trkpt>
      <trkpt lat="46.59897" lon="0.62726">
        <ele>82.8</ele>
        <time>2024-08-24T16:12:47Z</time>
      </trkpt>
      <trkpt lat="46.59903" lon="0.62744">
        <ele>82.2</ele>
        <time>2024-08-24T16:12:49Z</time>
      </trkpt>
      <trkpt lat="46.59916" lon="0.62792">
        <ele>81.6</ele>
        <time>2024-08-24T16:12:54Z</time>
      </trkpt>
      <trkpt lat="46.5992" lon="0.62813">
        <ele>81.2</ele>
        <time>2024-08-24T16:12:56Z</time>
      </trkpt>
      <trkpt lat="46.59925" lon="0.62836">
        <ele>80.4</ele>
        <time>2024-08-24T16:12:59Z</time>
      </trkpt>
      <trkpt lat="46.59927" lon="0.62847">
        <ele>79.6</ele>
        <time>2024-08-24T16:13:01Z</time>
      </trkpt>
      <trkpt lat="46.59928" lon="0.62851">
        <ele>79.4</ele>
        <time>2024-08-24T16:13:03Z</time>
      </trkpt>
      <trkpt lat="46.59926" lon="0.62851">
        <ele>79.4</ele>
        <time>2024-08-24T16:13:04Z</time>
      </trkpt>
      <trkpt lat="46.5992" lon="0.62849">
        <ele>79.6</ele>
        <time>2024-08-24T16:13:08Z</time>
      </trkpt>
      <trkpt lat="46.59918" lon="0.6285">
        <ele>79.6</ele>
        <time>2024-08-24T16:13:09Z</time>
      </trkpt>
      <trkpt lat="46.59909" lon="0.62858">
        <ele>80.4</ele>
        <time>2024-08-24T16:13:13Z</time>
      </trkpt>
      <trkpt lat="46.59904" lon="0.62863">
        <ele>80.6</ele>
        <time>2024-08-24T16:13:15Z</time>
      </trkpt>
      <trkpt lat="46.599" lon="0.62869">
        <ele>80.8</ele>
        <time>2024-08-24T16:13:17Z</time>
      </trkpt>
      <trkpt lat="46.59897" lon="0.62874">
        <ele>80.6</ele>
        <time>2024-08-24T16:13:19Z</time>
      </trkpt>
      <trkpt lat="46.59893" lon="0.62879">
        <ele>80.2</ele>
        <time>2024-08-24T16:13:21Z</time>
      </trkpt>
      <trkpt lat="46.59884" lon="0.62888">
        <ele>80</ele>
        <time>2024-08-24T16:13:26Z</time>
      </trkpt>
      <trkpt lat="46.59873" lon="0.62913">
        <ele>79.8</ele>
        <time>2024-08-24T16:13:32Z</time>
      </trkpt>
      <trkpt lat="46.59864" lon="0.62927">
        <ele>79.6</ele>
        <time>2024-08-24T16:13:35Z</time>
      </trkpt>
      <trkpt lat="46.59861" lon="0.62931">
        <ele>79.8</ele>
        <time>2024-08-24T16:13:36Z</time>
      </trkpt>
      <trkpt lat="46.59845" lon="0.6295">
        <ele>79.4</ele>
        <time>2024-08-24T16:13:41Z</time>
      </trkpt>
      <trkpt lat="46.59837" lon="0.62964">
        <ele>79.4</ele>
        <time>2024-08-24T16:13:45Z</time>
      </trkpt>
      <trkpt lat="46.59835" lon="0.62969">
        <ele>79.4</ele>
        <time>2024-08-24T16:13:46Z</time>
      </trkpt>
      <trkpt lat="46.59827" lon="0.62986">
        <ele>79</ele>
        <time>2024-08-24T16:13:50Z</time>
      </trkpt>
      <trkpt lat="46.59819" lon="0.63002">
        <ele>78.6</ele>
        <time>2024-08-24T16:13:56Z</time>
      </trkpt>
      <trkpt lat="46.5981" lon="0.63029">
        <ele>78.8</ele>
        <time>2024-08-24T16:14:02Z</time>
      </trkpt>
      <trkpt lat="46.59808" lon="0.63035">
        <ele>79</ele>
        <time>2024-08-24T16:14:03Z</time>
      </trkpt>
      <trkpt lat="46.59801" lon="0.63044">
        <ele>79</ele>
        <time>2024-08-24T16:14:06Z</time>
      </trkpt>
      <trkpt lat="46.59797" lon="0.63061">
        <ele>78.6</ele>
        <time>2024-08-24T16:14:10Z</time>
      </trkpt>
      <trkpt lat="46.59792" lon="0.63075">
        <ele>78.6</ele>
        <time>2024-08-24T16:14:13Z</time>
      </trkpt>
      <trkpt lat="46.59789" lon="0.63084">
        <ele>78.6</ele>
        <time>2024-08-24T16:14:15Z</time>
      </trkpt>
      <trkpt lat="46.59789" lon="0.63089">
        <ele>78.2</ele>
        <time>2024-08-24T16:14:16Z</time>
      </trkpt>
      <trkpt lat="46.5978" lon="0.63109">
        <ele>78</ele>
        <time>2024-08-24T16:14:23Z</time>
      </trkpt>
      <trkpt lat="46.59768" lon="0.63123">
        <ele>77.4</ele>
        <time>2024-08-24T16:14:27Z</time>
      </trkpt>
      <trkpt lat="46.59765" lon="0.63124">
        <ele>77.6</ele>
        <time>2024-08-24T16:14:28Z</time>
      </trkpt>
      <trkpt lat="46.59761" lon="0.63127">
        <ele>77.6</ele>
        <time>2024-08-24T16:14:29Z</time>
      </trkpt>
      <trkpt lat="46.59755" lon="0.63133">
        <ele>77.4</ele>
        <time>2024-08-24T16:14:31Z</time>
      </trkpt>
      <trkpt lat="46.59748" lon="0.63139">
        <ele>77.2</ele>
        <time>2024-08-24T16:14:33Z</time>
      </trkpt>
      <trkpt lat="46.59745" lon="0.63143">
        <ele>77.2</ele>
        <time>2024-08-24T16:14:34Z</time>
      </trkpt>
      <trkpt lat="46.59738" lon="0.63149">
        <ele>76.6</ele>
        <time>2024-08-24T16:14:36Z</time>
      </trkpt>
      <trkpt lat="46.59731" lon="0.63156">
        <ele>76.2</ele>
        <time>2024-08-24T16:14:38Z</time>
      </trkpt>
      <trkpt lat="46.59724" lon="0.63163">
        <ele>75.8</ele>
        <time>2024-08-24T16:14:40Z</time>
      </trkpt>
      <trkpt lat="46.59716" lon="0.6317">
        <ele>74.8</ele>
        <time>2024-08-24T16:14:42Z</time>
      </trkpt>
      <trkpt lat="46.59712" lon="0.63174">
        <ele>74.2</ele>
        <time>2024-08-24T16:14:43Z</time>
      </trkpt>
      <trkpt lat="46.59707" lon="0.63178">
        <ele>73.8</ele>
        <time>2024-08-24T16:14:44Z</time>
      </trkpt>
      <trkpt lat="46.59704" lon="0.63183">
        <ele>73.6</ele>
        <time>2024-08-24T16:14:45Z</time>
      </trkpt>
      <trkpt lat="46.59697" lon="0.6319">
        <ele>73.2</ele>
        <time>2024-08-24T16:14:47Z</time>
      </trkpt>
      <trkpt lat="46.59689" lon="0.63196">
        <ele>72.4</ele>
        <time>2024-08-24T16:14:49Z</time>
      </trkpt>
      <trkpt lat="46.59685" lon="0.63201">
        <ele>72</ele>
        <time>2024-08-24T16:14:50Z</time>
      </trkpt>
      <trkpt lat="46.59681" lon="0.63208">
        <ele>71.4</ele>
        <time>2024-08-24T16:14:51Z</time>
      </trkpt>
      <trkpt lat="46.59674" lon="0.63223">
        <ele>71.2</ele>
        <time>2024-08-24T16:14:53Z</time>
      </trkpt>
      <trkpt lat="46.59671" lon="0.63232">
        <ele>70.8</ele>
        <time>2024-08-24T16:14:54Z</time>
      </trkpt>
      <trkpt lat="46.59668" lon="0.63246">
        <ele>70.2</ele>
        <time>2024-08-24T16:14:56Z</time>
      </trkpt>
      <trkpt lat="46.59666" lon="0.63263">
        <ele>69.8</ele>
        <time>2024-08-24T16:14:58Z</time>
      </trkpt>
      <trkpt lat="46.59665" lon="0.6328">
        <ele>69.2</ele>
        <time>2024-08-24T16:15:00Z</time>
      </trkpt>
      <trkpt lat="46.59665" lon="0.63287">
        <ele>69</ele>
        <time>2024-08-24T16:15:01Z</time>
      </trkpt>
      <trkpt lat="46.59662" lon="0.63325">
        <ele>67.6</ele>
        <time>2024-08-24T16:15:05Z</time>
      </trkpt>
      <trkpt lat="46.59658" lon="0.63348">
        <ele>66</ele>
        <time>2024-08-24T16:15:07Z</time>
      </trkpt>
      <trkpt lat="46.59655" lon="0.6336">
        <ele>64.6</ele>
        <time>2024-08-24T16:15:09Z</time>
      </trkpt>
      <trkpt lat="46.59652" lon="0.63367">
        <ele>63.4</ele>
        <time>2024-08-24T16:15:10Z</time>
      </trkpt>
      <trkpt lat="46.59648" lon="0.63373">
        <ele>62.6</ele>
        <time>2024-08-24T16:15:11Z</time>
      </trkpt>
      <trkpt lat="46.59644" lon="0.63377">
        <ele>62</ele>
        <time>2024-08-24T16:15:12Z</time>
      </trkpt>
      <trkpt lat="46.59641" lon="0.6338">
        <ele>61.6</ele>
        <time>2024-08-24T16:15:13Z</time>
      </trkpt>
      <trkpt lat="46.5964" lon="0.63383">
        <ele>61</ele>
        <time>2024-08-24T16:15:14Z</time>
      </trkpt>
      <trkpt lat="46.59638" lon="0.63385">
        <ele>60.6</ele>
        <time>2024-08-24T16:15:15Z</time>
      </trkpt>
      <trkpt lat="46.59635" lon="0.63388">
        <ele>60</ele>
        <time>2024-08-24T16:15:16Z</time>
      </trkpt>
      <trkpt lat="46.59632" lon="0.6339">
        <ele>59.4</ele>
        <time>2024-08-24T16:15:17Z</time>
      </trkpt>
      <trkpt lat="46.59624" lon="0.63394">
        <ele>58.2</ele>
        <time>2024-08-24T16:15:19Z</time>
      </trkpt>
      <trkpt lat="46.59615" lon="0.63397">
        <ele>57.2</ele>
        <time>2024-08-24T16:15:21Z</time>
      </trkpt>
      <trkpt lat="46.59609" lon="0.63399">
        <ele>56</ele>
        <time>2024-08-24T16:15:23Z</time>
      </trkpt>
      <trkpt lat="46.59604" lon="0.63402">
        <ele>54.8</ele>
        <time>2024-08-24T16:15:25Z</time>
      </trkpt>
      <trkpt lat="46.59592" lon="0.6341">
        <ele>54</ele>
        <time>2024-08-24T16:15:30Z</time>
      </trkpt>
      <trkpt lat="46.59574" lon="0.6342">
        <ele>54.2</ele>
        <time>2024-08-24T16:15:36Z</time>
      </trkpt>
      <trkpt lat="46.59558" lon="0.63426">
        <ele>54.8</ele>
        <time>2024-08-24T16:15:42Z</time>
      </trkpt>
      <trkpt lat="46.59547" lon="0.63425">
        <ele>55.6</ele>
        <time>2024-08-24T16:15:47Z</time>
      </trkpt>
      <trkpt lat="46.59544" lon="0.63421">
        <ele>55.6</ele>
        <time>2024-08-24T16:15:49Z</time>
      </trkpt>
      <trkpt lat="46.59544" lon="0.63414">
        <ele>55.6</ele>
        <time>2024-08-24T16:15:52Z</time>
      </trkpt>
      <trkpt lat="46.59544" lon="0.63412">
        <ele>55.6</ele>
        <time>2024-08-24T16:15:53Z</time>
      </trkpt>
      <trkpt lat="46.59542" lon="0.63407">
        <ele>55.2</ele>
        <time>2024-08-24T16:15:55Z</time>
      </trkpt>
      <trkpt lat="46.59537" lon="0.634">
        <ele>55.2</ele>
        <time>2024-08-24T16:15:57Z</time>
      </trkpt>
      <trkpt lat="46.59524" lon="0.63392">
        <ele>55.6</ele>
        <time>2024-08-24T16:16:03Z</time>
      </trkpt>
      <trkpt lat="46.59519" lon="0.63389">
        <ele>56.2</ele>
        <time>2024-08-24T16:16:05Z</time>
      </trkpt>
      <trkpt lat="46.59514" lon="0.63381">
        <ele>56.8</ele>
        <time>2024-08-24T16:16:08Z</time>
      </trkpt>
      <trkpt lat="46.59502" lon="0.63364">
        <ele>57</ele>
        <time>2024-08-24T16:16:14Z</time>
      </trkpt>
      <trkpt lat="46.59493" lon="0.63356">
        <ele>57.2</ele>
        <time>2024-08-24T16:16:18Z</time>
      </trkpt>
      <trkpt lat="46.59492" lon="0.63355">
        <ele>57.2</ele>
        <time>2024-08-24T16:16:19Z</time>
      </trkpt>
      <trkpt lat="46.5948" lon="0.63341">
        <ele>58.2</ele>
        <time>2024-08-24T16:16:25Z</time>
      </trkpt>
      <trkpt lat="46.59469" lon="0.6333">
        <ele>58.8</ele>
        <time>2024-08-24T16:16:30Z</time>
      </trkpt>
      <trkpt lat="46.59459" lon="0.6332">
        <ele>59.4</ele>
        <time>2024-08-24T16:16:35Z</time>
      </trkpt>
      <trkpt lat="46.59456" lon="0.63319">
        <ele>59.2</ele>
        <time>2024-08-24T16:16:36Z</time>
      </trkpt>
      <trkpt lat="46.59438" lon="0.6332">
        <ele>58.4</ele>
        <time>2024-08-24T16:16:42Z</time>
      </trkpt>
      <trkpt lat="46.59433" lon="0.63319">
        <ele>58.2</ele>
        <time>2024-08-24T16:16:43Z</time>
      </trkpt>
      <trkpt lat="46.59427" lon="0.63313">
        <ele>57.8</ele>
        <time>2024-08-24T16:16:45Z</time>
      </trkpt>
      <trkpt lat="46.59423" lon="0.63298">
        <ele>57</ele>
        <time>2024-08-24T16:16:47Z</time>
      </trkpt>
      <trkpt lat="46.59423" lon="0.63292">
        <ele>56.8</ele>
        <time>2024-08-24T16:16:48Z</time>
      </trkpt>
      <trkpt lat="46.59423" lon="0.63286">
        <ele>56.4</ele>
        <time>2024-08-24T16:16:49Z</time>
      </trkpt>
      <trkpt lat="46.59424" lon="0.63282">
        <ele>56</ele>
        <time>2024-08-24T16:16:50Z</time>
      </trkpt>
      <trkpt lat="46.59423" lon="0.63274">
        <ele>55.4</ele>
        <time>2024-08-24T16:16:52Z</time>
      </trkpt>
      <trkpt lat="46.59425" lon="0.63259">
        <ele>55</ele>
        <time>2024-08-24T16:16:57Z</time>
      </trkpt>
      <trkpt lat="46.59425" lon="0.63255">
        <ele>55</ele>
        <time>2024-08-24T16:16:58Z</time>
      </trkpt>
      <trkpt lat="46.59423" lon="0.6324">
        <ele>54.2</ele>
        <time>2024-08-24T16:17:04Z</time>
      </trkpt>
      <trkpt lat="46.59421" lon="0.63237">
        <ele>54.2</ele>
        <time>2024-08-24T16:17:06Z</time>
      </trkpt>
      <trkpt lat="46.59417" lon="0.63231">
        <ele>54.4</ele>
        <time>2024-08-24T16:17:09Z</time>
      </trkpt>
      <trkpt lat="46.59415" lon="0.6323">
        <ele>54.8</ele>
        <time>2024-08-24T16:17:11Z</time>
      </trkpt>
      <trkpt lat="46.59411" lon="0.63223">
        <ele>55.4</ele>
        <time>2024-08-24T16:17:19Z</time>
      </trkpt>
      <trkpt lat="46.59407" lon="0.63218">
        <ele>56.2</ele>
        <time>2024-08-24T16:17:24Z</time>
      </trkpt>
      <trkpt lat="46.59404" lon="0.63217">
        <ele>57.2</ele>
        <time>2024-08-24T16:17:27Z</time>
      </trkpt>
      <trkpt lat="46.59404" lon="0.63216">
        <ele>57.4</ele>
        <time>2024-08-24T16:17:28Z</time>
      </trkpt>
      <trkpt lat="46.59403" lon="0.63216">
        <ele>57.6</ele>
        <time>2024-08-24T16:17:29Z</time>
      </trkpt>
      <trkpt lat="46.59402" lon="0.63216">
        <ele>57.8</ele>
        <time>2024-08-24T16:17:31Z</time>
      </trkpt>
      <trkpt lat="46.59401" lon="0.63215">
        <ele>58.2</ele>
        <time>2024-08-24T16:17:35Z</time>
      </trkpt>
      <trkpt lat="46.59398" lon="0.63213">
        <ele>58.4</ele>
        <time>2024-08-24T16:17:38Z</time>
      </trkpt>
      <trkpt lat="46.59396" lon="0.63212">
        <ele>58.8</ele>
        <time>2024-08-24T16:17:40Z</time>
      </trkpt>
      <trkpt lat="46.59396" lon="0.63199">
        <ele>58.6</ele>
        <time>2024-08-24T16:17:47Z</time>
      </trkpt>
      <trkpt lat="46.59399" lon="0.63191">
        <ele>57</ele>
        <time>2024-08-24T16:17:51Z</time>
      </trkpt>
      <trkpt lat="46.594" lon="0.63184">
        <ele>56</ele>
        <time>2024-08-24T16:17:53Z</time>
      </trkpt>
      <trkpt lat="46.59401" lon="0.63174">
        <ele>55.2</ele>
        <time>2024-08-24T16:17:55Z</time>
      </trkpt>
      <trkpt lat="46.59401" lon="0.63169">
        <ele>54.8</ele>
        <time>2024-08-24T16:17:56Z</time>
      </trkpt>
      <trkpt lat="46.59402" lon="0.63163">
        <ele>54.4</ele>
        <time>2024-08-24T16:17:57Z</time>
      </trkpt>
      <trkpt lat="46.59402" lon="0.63158">
        <ele>53.8</ele>
        <time>2024-08-24T16:17:58Z</time>
      </trkpt>
      <trkpt lat="46.59404" lon="0.63154">
        <ele>53.2</ele>
        <time>2024-08-24T16:17:59Z</time>
      </trkpt>
      <trkpt lat="46.59407" lon="0.63149">
        <ele>52.8</ele>
        <time>2024-08-24T16:18:00Z</time>
      </trkpt>
      <trkpt lat="46.59409" lon="0.63144">
        <ele>52</ele>
        <time>2024-08-24T16:18:01Z</time>
      </trkpt>
      <trkpt lat="46.59413" lon="0.63134">
        <ele>50.4</ele>
        <time>2024-08-24T16:18:03Z</time>
      </trkpt>
      <trkpt lat="46.59414" lon="0.63126">
        <ele>49.4</ele>
        <time>2024-08-24T16:18:05Z</time>
      </trkpt>
      <trkpt lat="46.59417" lon="0.63122">
        <ele>49.2</ele>
        <time>2024-08-24T16:18:06Z</time>
      </trkpt>
      <trkpt lat="46.59417" lon="0.63113">
        <ele>48.6</ele>
        <time>2024-08-24T16:18:08Z</time>
      </trkpt>
      <trkpt lat="46.59418" lon="0.63104">
        <ele>48</ele>
        <time>2024-08-24T16:18:10Z</time>
      </trkpt>
      <trkpt lat="46.59423" lon="0.63098">
        <ele>47.2</ele>
        <time>2024-08-24T16:18:12Z</time>
      </trkpt>
      <trkpt lat="46.59424" lon="0.63094">
        <ele>46.8</ele>
        <time>2024-08-24T16:18:13Z</time>
      </trkpt>
      <trkpt lat="46.59431" lon="0.63083">
        <ele>46.4</ele>
        <time>2024-08-24T16:18:16Z</time>
      </trkpt>
      <trkpt lat="46.59432" lon="0.63071">
        <ele>46.6</ele>
        <time>2024-08-24T16:18:19Z</time>
      </trkpt>
      <trkpt lat="46.59427" lon="0.63057">
        <ele>46.2</ele>
        <time>2024-08-24T16:18:22Z</time>
      </trkpt>
      <trkpt lat="46.59421" lon="0.63054">
        <ele>45.6</ele>
        <time>2024-08-24T16:18:24Z</time>
      </trkpt>
      <trkpt lat="46.59417" lon="0.63055">
        <ele>45.6</ele>
        <time>2024-08-24T16:18:26Z</time>
      </trkpt>
      <trkpt lat="46.59409" lon="0.63056">
        <ele>46.2</ele>
        <time>2024-08-24T16:18:32Z</time>
      </trkpt>
      <trkpt lat="46.59407" lon="0.63055">
        <ele>47</ele>
        <time>2024-08-24T16:18:34Z</time>
      </trkpt>
      <trkpt lat="46.59403" lon="0.63052">
        <ele>48.2</ele>
        <time>2024-08-24T16:18:38Z</time>
      </trkpt>
      <trkpt lat="46.59401" lon="0.63052">
        <ele>48.4</ele>
        <time>2024-08-24T16:18:40Z</time>
      </trkpt>
      <trkpt lat="46.59398" lon="0.63054">
        <ele>49.4</ele>
        <time>2024-08-24T16:18:43Z</time>
      </trkpt>
      <trkpt lat="46.59396" lon="0.63056">
        <ele>50.4</ele>
        <time>2024-08-24T16:18:47Z</time>
      </trkpt>
      <trkpt lat="46.59394" lon="0.63057">
        <ele>51</ele>
        <time>2024-08-24T16:18:49Z</time>
      </trkpt>
      <trkpt lat="46.59393" lon="0.63058">
        <ele>51.2</ele>
        <time>2024-08-24T16:18:50Z</time>
      </trkpt>
      <trkpt lat="46.59392" lon="0.6306">
        <ele>51.6</ele>
        <time>2024-08-24T16:18:51Z</time>
      </trkpt>
      <trkpt lat="46.5939" lon="0.63062">
        <ele>52.4</ele>
        <time>2024-08-24T16:18:54Z</time>
      </trkpt>
      <trkpt lat="46.59388" lon="0.63063">
        <ele>52.6</ele>
        <time>2024-08-24T16:18:55Z</time>
      </trkpt>
      <trkpt lat="46.59382" lon="0.63069">
        <ele>53.8</ele>
        <time>2024-08-24T16:19:02Z</time>
      </trkpt>
      <trkpt lat="46.59381" lon="0.63071">
        <ele>54.2</ele>
        <time>2024-08-24T16:19:04Z</time>
      </trkpt>
      <trkpt lat="46.59377" lon="0.63077">
        <ele>54.8</ele>
        <time>2024-08-24T16:19:08Z</time>
      </trkpt>
      <trkpt lat="46.59371" lon="0.63085">
        <ele>56</ele>
        <time>2024-08-24T16:19:16Z</time>
      </trkpt>
      <trkpt lat="46.59369" lon="0.63087">
        <ele>56.6</ele>
        <time>2024-08-24T16:19:18Z</time>
      </trkpt>
      <trkpt lat="46.59366" lon="0.63091">
        <ele>57</ele>
        <time>2024-08-24T16:19:21Z</time>
      </trkpt>
      <trkpt lat="46.59358" lon="0.63101">
        <ele>58</ele>
        <time>2024-08-24T16:19:29Z</time>
      </trkpt>
      <trkpt lat="46.59356" lon="0.63103">
        <ele>58.4</ele>
        <time>2024-08-24T16:19:31Z</time>
      </trkpt>
      <trkpt lat="46.59353" lon="0.63106">
        <ele>59</ele>
        <time>2024-08-24T16:19:33Z</time>
      </trkpt>
      <trkpt lat="46.59342" lon="0.63116">
        <ele>60.2</ele>
        <time>2024-08-24T16:19:40Z</time>
      </trkpt>
      <trkpt lat="46.59341" lon="0.63118">
        <ele>60.2</ele>
        <time>2024-08-24T16:19:41Z</time>
      </trkpt>
      <trkpt lat="46.5933" lon="0.63129">
        <ele>61.4</ele>
        <time>2024-08-24T16:19:48Z</time>
      </trkpt>
      <trkpt lat="46.59325" lon="0.63135">
        <ele>61.8</ele>
        <time>2024-08-24T16:19:51Z</time>
      </trkpt>
      <trkpt lat="46.59318" lon="0.6314">
        <ele>62.6</ele>
        <time>2024-08-24T16:19:55Z</time>
      </trkpt>
      <trkpt lat="46.59311" lon="0.63142">
        <ele>63.6</ele>
        <time>2024-08-24T16:19:59Z</time>
      </trkpt>
      <trkpt lat="46.59302" lon="0.63135">
        <ele>64.4</ele>
        <time>2024-08-24T16:20:04Z</time>
      </trkpt>
      <trkpt lat="46.5929" lon="0.63116">
        <ele>64.4</ele>
        <time>2024-08-24T16:20:11Z</time>
      </trkpt>
      <trkpt lat="46.59279" lon="0.631">
        <ele>64.8</ele>
        <time>2024-08-24T16:20:16Z</time>
      </trkpt>
      <trkpt lat="46.59276" lon="0.63094">
        <ele>64.8</ele>
        <time>2024-08-24T16:20:18Z</time>
      </trkpt>
      <trkpt lat="46.59261" lon="0.63071">
        <ele>65.2</ele>
        <time>2024-08-24T16:20:25Z</time>
      </trkpt>
      <trkpt lat="46.59248" lon="0.6305">
        <ele>65.8</ele>
        <time>2024-08-24T16:20:31Z</time>
      </trkpt>
      <trkpt lat="46.59243" lon="0.63042">
        <ele>66</ele>
        <time>2024-08-24T16:20:33Z</time>
      </trkpt>
      <trkpt lat="46.59221" lon="0.63005">
        <ele>66.2</ele>
        <time>2024-08-24T16:20:41Z</time>
      </trkpt>
      <trkpt lat="46.59196" lon="0.62963">
        <ele>65.2</ele>
        <time>2024-08-24T16:20:50Z</time>
      </trkpt>
      <trkpt lat="46.59188" lon="0.6295">
        <ele>64.8</ele>
        <time>2024-08-24T16:20:53Z</time>
      </trkpt>
      <trkpt lat="46.5918" lon="0.62936">
        <ele>64.6</ele>
        <time>2024-08-24T16:20:56Z</time>
      </trkpt>
      <trkpt lat="46.59154" lon="0.62895">
        <ele>64.4</ele>
        <time>2024-08-24T16:21:03Z</time>
      </trkpt>
      <trkpt lat="46.59121" lon="0.62849">
        <ele>64.4</ele>
        <time>2024-08-24T16:21:11Z</time>
      </trkpt>
      <trkpt lat="46.59103" lon="0.6282">
        <ele>64</ele>
        <time>2024-08-24T16:21:17Z</time>
      </trkpt>
      <trkpt lat="46.59084" lon="0.62795">
        <ele>63.4</ele>
        <time>2024-08-24T16:21:22Z</time>
      </trkpt>
      <trkpt lat="46.5907" lon="0.62778">
        <ele>62.2</ele>
        <time>2024-08-24T16:21:25Z</time>
      </trkpt>
      <trkpt lat="46.59062" lon="0.62768">
        <ele>61.6</ele>
        <time>2024-08-24T16:21:27Z</time>
      </trkpt>
      <trkpt lat="46.59059" lon="0.62763">
        <ele>61.2</ele>
        <time>2024-08-24T16:21:29Z</time>
      </trkpt>
      <trkpt lat="46.59058" lon="0.62763">
        <ele>60.8</ele>
        <time>2024-08-24T16:21:30Z</time>
      </trkpt>
      <trkpt lat="46.5906" lon="0.62765">
        <ele>60.2</ele>
        <time>2024-08-24T16:21:42Z</time>
      </trkpt>
      <trkpt lat="46.5906" lon="0.62765">
        <ele>60</ele>
        <time>2024-08-24T16:21:44Z</time>
      </trkpt>
      <trkpt lat="46.59059" lon="0.62766">
        <ele>60</ele>
        <time>2024-08-24T16:21:59Z</time>
      </trkpt>
      <trkpt lat="46.59057" lon="0.62754">
        <ele>60.8</ele>
        <time>2024-08-24T16:22:06Z</time>
      </trkpt>
      <trkpt lat="46.59063" lon="0.62734">
        <ele>60.2</ele>
        <time>2024-08-24T16:22:10Z</time>
      </trkpt>
      <trkpt lat="46.59071" lon="0.62693">
        <ele>59.6</ele>
        <time>2024-08-24T16:22:16Z</time>
      </trkpt>
      <trkpt lat="46.59073" lon="0.62678">
        <ele>58.6</ele>
        <time>2024-08-24T16:22:18Z</time>
      </trkpt>
      <trkpt lat="46.59075" lon="0.62654">
        <ele>57.8</ele>
        <time>2024-08-24T16:22:21Z</time>
      </trkpt>
      <trkpt lat="46.59076" lon="0.62646">
        <ele>57.4</ele>
        <time>2024-08-24T16:22:22Z</time>
      </trkpt>
      <trkpt lat="46.59077" lon="0.62638">
        <ele>57.2</ele>
        <time>2024-08-24T16:22:23Z</time>
      </trkpt>
      <trkpt lat="46.59079" lon="0.62613">
        <ele>56.2</ele>
        <time>2024-08-24T16:22:26Z</time>
      </trkpt>
      <trkpt lat="46.5908" lon="0.62586">
        <ele>56</ele>
        <time>2024-08-24T16:22:29Z</time>
      </trkpt>
      <trkpt lat="46.59077" lon="0.62555">
        <ele>55.2</ele>
        <time>2024-08-24T16:22:32Z</time>
      </trkpt>
      <trkpt lat="46.59074" lon="0.62522">
        <ele>54.2</ele>
        <time>2024-08-24T16:22:35Z</time>
      </trkpt>
      <trkpt lat="46.59073" lon="0.62511">
        <ele>54</ele>
        <time>2024-08-24T16:22:36Z</time>
      </trkpt>
      <trkpt lat="46.59067" lon="0.62454">
        <ele>52.8</ele>
        <time>2024-08-24T16:22:41Z</time>
      </trkpt>
      <trkpt lat="46.59063" lon="0.62421">
        <ele>52</ele>
        <time>2024-08-24T16:22:44Z</time>
      </trkpt>
      <trkpt lat="46.59061" lon="0.624">
        <ele>51.6</ele>
        <time>2024-08-24T16:22:46Z</time>
      </trkpt>
      <trkpt lat="46.59053" lon="0.62332">
        <ele>50.4</ele>
        <time>2024-08-24T16:22:52Z</time>
      </trkpt>
      <trkpt lat="46.59048" lon="0.62299">
        <ele>49.2</ele>
        <time>2024-08-24T16:22:55Z</time>
      </trkpt>
      <trkpt lat="46.59043" lon="0.62268">
        <ele>48</ele>
        <time>2024-08-24T16:22:58Z</time>
      </trkpt>
      <trkpt lat="46.5904" lon="0.62248">
        <ele>47.6</ele>
        <time>2024-08-24T16:23:00Z</time>
      </trkpt>
      <trkpt lat="46.59032" lon="0.62195">
        <ele>46.6</ele>
        <time>2024-08-24T16:23:05Z</time>
      </trkpt>
      <trkpt lat="46.59026" lon="0.62163">
        <ele>45.4</ele>
        <time>2024-08-24T16:23:08Z</time>
      </trkpt>
      <trkpt lat="46.5902" lon="0.62132">
        <ele>44.2</ele>
        <time>2024-08-24T16:23:11Z</time>
      </trkpt>
      <trkpt lat="46.59013" lon="0.62097">
        <ele>42.6</ele>
        <time>2024-08-24T16:23:14Z</time>
      </trkpt>
      <trkpt lat="46.5901" lon="0.62086">
        <ele>42</ele>
        <time>2024-08-24T16:23:15Z</time>
      </trkpt>
      <trkpt lat="46.59007" lon="0.62074">
        <ele>41.4</ele>
        <time>2024-08-24T16:23:16Z</time>
      </trkpt>
      <trkpt lat="46.59" lon="0.62041">
        <ele>40</ele>
        <time>2024-08-24T16:23:19Z</time>
      </trkpt>
      <trkpt lat="46.58995" lon="0.62022">
        <ele>39.6</ele>
        <time>2024-08-24T16:23:21Z</time>
      </trkpt>
      <trkpt lat="46.58993" lon="0.62015">
        <ele>39</ele>
        <time>2024-08-24T16:23:22Z</time>
      </trkpt>
      <trkpt lat="46.58987" lon="0.62009">
        <ele>38</ele>
        <time>2024-08-24T16:23:24Z</time>
      </trkpt>
      <trkpt lat="46.58977" lon="0.62014">
        <ele>37.2</ele>
        <time>2024-08-24T16:23:27Z</time>
      </trkpt>
      <trkpt lat="46.58951" lon="0.62023">
        <ele>37.2</ele>
        <time>2024-08-24T16:23:32Z</time>
      </trkpt>
      <trkpt lat="46.58933" lon="0.62029">
        <ele>37.2</ele>
        <time>2024-08-24T16:23:35Z</time>
      </trkpt>
      <trkpt lat="46.58921" lon="0.62036">
        <ele>36.8</ele>
        <time>2024-08-24T16:23:37Z</time>
      </trkpt>
      <trkpt lat="46.58916" lon="0.62039">
        <ele>36.6</ele>
        <time>2024-08-24T16:23:38Z</time>
      </trkpt>
      <trkpt lat="46.58866" lon="0.62073">
        <ele>36.8</ele>
        <time>2024-08-24T16:23:47Z</time>
      </trkpt>
      <trkpt lat="46.58834" lon="0.62095">
        <ele>37</ele>
        <time>2024-08-24T16:23:53Z</time>
      </trkpt>
      <trkpt lat="46.58787" lon="0.62128">
        <ele>37.4</ele>
        <time>2024-08-24T16:24:02Z</time>
      </trkpt>
      <trkpt lat="46.58768" lon="0.62141">
        <ele>38</ele>
        <time>2024-08-24T16:24:06Z</time>
      </trkpt>
      <trkpt lat="46.58751" lon="0.62153">
        <ele>38.2</ele>
        <time>2024-08-24T16:24:10Z</time>
      </trkpt>
      <trkpt lat="46.58705" lon="0.62184">
        <ele>38.6</ele>
        <time>2024-08-24T16:24:21Z</time>
      </trkpt>
      <trkpt lat="46.58672" lon="0.62206">
        <ele>38.6</ele>
        <time>2024-08-24T16:24:29Z</time>
      </trkpt>
      <trkpt lat="46.58649" lon="0.62222">
        <ele>38.2</ele>
        <time>2024-08-24T16:24:34Z</time>
      </trkpt>
      <trkpt lat="46.5864" lon="0.62232">
        <ele>37.4</ele>
        <time>2024-08-24T16:24:36Z</time>
      </trkpt>
      <trkpt lat="46.58615" lon="0.62251">
        <ele>37.4</ele>
        <time>2024-08-24T16:24:41Z</time>
      </trkpt>
      <trkpt lat="46.58588" lon="0.62268">
        <ele>37</ele>
        <time>2024-08-24T16:24:46Z</time>
      </trkpt>
      <trkpt lat="46.58577" lon="0.62273">
        <ele>36.8</ele>
        <time>2024-08-24T16:24:48Z</time>
      </trkpt>
      <trkpt lat="46.58555" lon="0.62287">
        <ele>36.4</ele>
        <time>2024-08-24T16:24:52Z</time>
      </trkpt>
      <trkpt lat="46.58551" lon="0.62291">
        <ele>36.4</ele>
        <time>2024-08-24T16:24:53Z</time>
      </trkpt>
      <trkpt lat="46.58526" lon="0.62321">
        <ele>36.8</ele>
        <time>2024-08-24T16:25:00Z</time>
      </trkpt>
      <trkpt lat="46.58502" lon="0.6235">
        <ele>37.8</ele>
        <time>2024-08-24T16:25:08Z</time>
      </trkpt>
      <trkpt lat="46.58499" lon="0.62353">
        <ele>38</ele>
        <time>2024-08-24T16:25:09Z</time>
      </trkpt>
      <trkpt lat="46.5848" lon="0.62371">
        <ele>38.8</ele>
        <time>2024-08-24T16:25:15Z</time>
      </trkpt>
      <trkpt lat="46.58475" lon="0.62374">
        <ele>39</ele>
        <time>2024-08-24T16:25:16Z</time>
      </trkpt>
      <trkpt lat="46.58456" lon="0.62393">
        <ele>39.4</ele>
        <time>2024-08-24T16:25:21Z</time>
      </trkpt>
      <trkpt lat="46.58431" lon="0.62427">
        <ele>39.6</ele>
        <time>2024-08-24T16:25:29Z</time>
      </trkpt>
      <trkpt lat="46.58418" lon="0.62449">
        <ele>39.4</ele>
        <time>2024-08-24T16:25:35Z</time>
      </trkpt>
      <trkpt lat="46.58413" lon="0.6246">
        <ele>40.2</ele>
        <time>2024-08-24T16:25:38Z</time>
      </trkpt>
      <trkpt lat="46.58404" lon="0.62479">
        <ele>40.8</ele>
        <time>2024-08-24T16:25:43Z</time>
      </trkpt>
      <trkpt lat="46.58396" lon="0.62495">
        <ele>41.2</ele>
        <time>2024-08-24T16:25:47Z</time>
      </trkpt>
      <trkpt lat="46.58389" lon="0.62509">
        <ele>41.8</ele>
        <time>2024-08-24T16:25:51Z</time>
      </trkpt>
      <trkpt lat="46.58381" lon="0.62525">
        <ele>42.2</ele>
        <time>2024-08-24T16:25:56Z</time>
      </trkpt>
      <trkpt lat="46.58376" lon="0.62532">
        <ele>42.6</ele>
        <time>2024-08-24T16:25:58Z</time>
      </trkpt>
      <trkpt lat="46.58356" lon="0.62563">
        <ele>42.8</ele>
        <time>2024-08-24T16:26:07Z</time>
      </trkpt>
      <trkpt lat="46.58354" lon="0.62566">
        <ele>42.8</ele>
        <time>2024-08-24T16:26:08Z</time>
      </trkpt>
      <trkpt lat="46.58349" lon="0.62575">
        <ele>43.4</ele>
        <time>2024-08-24T16:26:11Z</time>
      </trkpt>
      <trkpt lat="46.58343" lon="0.62586">
        <ele>43.4</ele>
        <time>2024-08-24T16:26:14Z</time>
      </trkpt>
      <trkpt lat="46.58325" lon="0.62612">
        <ele>43.6</ele>
        <time>2024-08-24T16:26:21Z</time>
      </trkpt>
      <trkpt lat="46.58306" lon="0.62635">
        <ele>43.2</ele>
        <time>2024-08-24T16:26:26Z</time>
      </trkpt>
      <trkpt lat="46.58298" lon="0.62643">
        <ele>43</ele>
        <time>2024-08-24T16:26:28Z</time>
      </trkpt>
      <trkpt lat="46.58293" lon="0.62647">
        <ele>42.4</ele>
        <time>2024-08-24T16:26:29Z</time>
      </trkpt>
      <trkpt lat="46.58278" lon="0.62666">
        <ele>41.6</ele>
        <time>2024-08-24T16:26:33Z</time>
      </trkpt>
      <trkpt lat="46.58272" lon="0.62676">
        <ele>41.4</ele>
        <time>2024-08-24T16:26:35Z</time>
      </trkpt>
      <trkpt lat="46.58261" lon="0.62696">
        <ele>41.4</ele>
        <time>2024-08-24T16:26:39Z</time>
      </trkpt>
      <trkpt lat="46.58255" lon="0.62704">
        <ele>41.8</ele>
        <time>2024-08-24T16:26:41Z</time>
      </trkpt>
      <trkpt lat="46.58241" lon="0.62723">
        <ele>42.2</ele>
        <time>2024-08-24T16:26:47Z</time>
      </trkpt>
      <trkpt lat="46.58235" lon="0.62737">
        <ele>43.4</ele>
        <time>2024-08-24T16:26:53Z</time>
      </trkpt>
      <trkpt lat="46.5823" lon="0.62752">
        <ele>44.6</ele>
        <time>2024-08-24T16:26:59Z</time>
      </trkpt>
      <trkpt lat="46.58228" lon="0.62758">
        <ele>45.2</ele>
        <time>2024-08-24T16:27:01Z</time>
      </trkpt>
      <trkpt lat="46.58227" lon="0.62764">
        <ele>45.8</ele>
        <time>2024-08-24T16:27:03Z</time>
      </trkpt>
      <trkpt lat="46.58225" lon="0.62775">
        <ele>47</ele>
        <time>2024-08-24T16:27:07Z</time>
      </trkpt>
      <trkpt lat="46.58224" lon="0.6278">
        <ele>47.4</ele>
        <time>2024-08-24T16:27:09Z</time>
      </trkpt>
      <trkpt lat="46.58222" lon="0.62789">
        <ele>48</ele>
        <time>2024-08-24T16:27:13Z</time>
      </trkpt>
      <trkpt lat="46.58221" lon="0.62793">
        <ele>48.2</ele>
        <time>2024-08-24T16:27:15Z</time>
      </trkpt>
      <trkpt lat="46.58218" lon="0.62802">
        <ele>49.2</ele>
        <time>2024-08-24T16:27:19Z</time>
      </trkpt>
      <trkpt lat="46.58216" lon="0.62811">
        <ele>49.8</ele>
        <time>2024-08-24T16:27:22Z</time>
      </trkpt>
      <trkpt lat="46.58213" lon="0.62819">
        <ele>50.2</ele>
        <time>2024-08-24T16:27:25Z</time>
      </trkpt>
      <trkpt lat="46.58211" lon="0.62827">
        <ele>51</ele>
        <time>2024-08-24T16:27:28Z</time>
      </trkpt>
      <trkpt lat="46.5821" lon="0.62829">
        <ele>51.4</ele>
        <time>2024-08-24T16:27:29Z</time>
      </trkpt>
      <trkpt lat="46.58207" lon="0.6284">
        <ele>52</ele>
        <time>2024-08-24T16:27:35Z</time>
      </trkpt>
      <trkpt lat="46.58206" lon="0.62846">
        <ele>52.6</ele>
        <time>2024-08-24T16:27:38Z</time>
      </trkpt>
      <trkpt lat="46.58203" lon="0.62858">
        <ele>53.4</ele>
        <time>2024-08-24T16:27:44Z</time>
      </trkpt>
      <trkpt lat="46.58203" lon="0.6286">
        <ele>53.6</ele>
        <time>2024-08-24T16:27:45Z</time>
      </trkpt>
      <trkpt lat="46.58197" lon="0.62876">
        <ele>54.4</ele>
        <time>2024-08-24T16:27:52Z</time>
      </trkpt>
      <trkpt lat="46.58194" lon="0.62883">
        <ele>54.8</ele>
        <time>2024-08-24T16:27:55Z</time>
      </trkpt>
      <trkpt lat="46.58191" lon="0.62893">
        <ele>55.4</ele>
        <time>2024-08-24T16:27:59Z</time>
      </trkpt>
      <trkpt lat="46.58186" lon="0.62914">
        <ele>55.6</ele>
        <time>2024-08-24T16:28:06Z</time>
      </trkpt>
      <trkpt lat="46.58184" lon="0.62924">
        <ele>55.8</ele>
        <time>2024-08-24T16:28:09Z</time>
      </trkpt>
      <trkpt lat="46.5818" lon="0.62939">
        <ele>56.6</ele>
        <time>2024-08-24T16:28:13Z</time>
      </trkpt>
      <trkpt lat="46.58179" lon="0.62947">
        <ele>56.8</ele>
        <time>2024-08-24T16:28:15Z</time>
      </trkpt>
      <trkpt lat="46.58173" lon="0.62967">
        <ele>57.4</ele>
        <time>2024-08-24T16:28:21Z</time>
      </trkpt>
      <trkpt lat="46.5817" lon="0.62975">
        <ele>58</ele>
        <time>2024-08-24T16:28:23Z</time>
      </trkpt>
      <trkpt lat="46.58158" lon="0.63">
        <ele>58.8</ele>
        <time>2024-08-24T16:28:31Z</time>
      </trkpt>
      <trkpt lat="46.58155" lon="0.63005">
        <ele>59</ele>
        <time>2024-08-24T16:28:33Z</time>
      </trkpt>
      <trkpt lat="46.58147" lon="0.63021">
        <ele>60.2</ele>
        <time>2024-08-24T16:28:38Z</time>
      </trkpt>
      <trkpt lat="46.58144" lon="0.63027">
        <ele>60.8</ele>
        <time>2024-08-24T16:28:40Z</time>
      </trkpt>
      <trkpt lat="46.58138" lon="0.63039">
        <ele>61.2</ele>
        <time>2024-08-24T16:28:44Z</time>
      </trkpt>
      <trkpt lat="46.58131" lon="0.63055">
        <ele>62.2</ele>
        <time>2024-08-24T16:28:49Z</time>
      </trkpt>
      <trkpt lat="46.58129" lon="0.63058">
        <ele>62.4</ele>
        <time>2024-08-24T16:28:50Z</time>
      </trkpt>
      <trkpt lat="46.58119" lon="0.63081">
        <ele>63.4</ele>
        <time>2024-08-24T16:28:57Z</time>
      </trkpt>
      <trkpt lat="46.58111" lon="0.631">
        <ele>64.6</ele>
        <time>2024-08-24T16:29:03Z</time>
      </trkpt>
      <trkpt lat="46.58107" lon="0.63111">
        <ele>65.2</ele>
        <time>2024-08-24T16:29:06Z</time>
      </trkpt>
      <trkpt lat="46.58101" lon="0.63126">
        <ele>65.8</ele>
        <time>2024-08-24T16:29:10Z</time>
      </trkpt>
      <trkpt lat="46.58093" lon="0.63146">
        <ele>66</ele>
        <time>2024-08-24T16:29:16Z</time>
      </trkpt>
      <trkpt lat="46.58088" lon="0.63156">
        <ele>67</ele>
        <time>2024-08-24T16:29:19Z</time>
      </trkpt>
      <trkpt lat="46.58079" lon="0.63176">
        <ele>68</ele>
        <time>2024-08-24T16:29:25Z</time>
      </trkpt>
      <trkpt lat="46.58068" lon="0.63199">
        <ele>69</ele>
        <time>2024-08-24T16:29:32Z</time>
      </trkpt>
      <trkpt lat="46.58063" lon="0.63209">
        <ele>69.2</ele>
        <time>2024-08-24T16:29:35Z</time>
      </trkpt>
      <trkpt lat="46.58055" lon="0.63229">
        <ele>70</ele>
        <time>2024-08-24T16:29:40Z</time>
      </trkpt>
      <trkpt lat="46.5805" lon="0.63244">
        <ele>71</ele>
        <time>2024-08-24T16:29:44Z</time>
      </trkpt>
      <trkpt lat="46.58048" lon="0.63247">
        <ele>71.2</ele>
        <time>2024-08-24T16:29:45Z</time>
      </trkpt>
      <trkpt lat="46.58038" lon="0.63274">
        <ele>72.2</ele>
        <time>2024-08-24T16:29:52Z</time>
      </trkpt>
      <trkpt lat="46.58036" lon="0.6328">
        <ele>72.4</ele>
        <time>2024-08-24T16:29:54Z</time>
      </trkpt>
      <trkpt lat="46.58026" lon="0.63304">
        <ele>73.6</ele>
        <time>2024-08-24T16:30:01Z</time>
      </trkpt>
      <trkpt lat="46.5802" lon="0.6332">
        <ele>74.8</ele>
        <time>2024-08-24T16:30:06Z</time>
      </trkpt>
      <trkpt lat="46.58018" lon="0.63325">
        <ele>75.2</ele>
        <time>2024-08-24T16:30:08Z</time>
      </trkpt>
      <trkpt lat="46.58014" lon="0.63332">
        <ele>75.8</ele>
        <time>2024-08-24T16:30:11Z</time>
      </trkpt>
      <trkpt lat="46.58009" lon="0.63345">
        <ele>76.8</ele>
        <time>2024-08-24T16:30:16Z</time>
      </trkpt>
      <trkpt lat="46.58006" lon="0.63351">
        <ele>77</ele>
        <time>2024-08-24T16:30:18Z</time>
      </trkpt>
      <trkpt lat="46.58001" lon="0.63372">
        <ele>78</ele>
        <time>2024-08-24T16:30:24Z</time>
      </trkpt>
      <trkpt lat="46.58" lon="0.63375">
        <ele>78.2</ele>
        <time>2024-08-24T16:30:25Z</time>
      </trkpt>
      <trkpt lat="46.57997" lon="0.63385">
        <ele>79</ele>
        <time>2024-08-24T16:30:28Z</time>
      </trkpt>
      <trkpt lat="46.57993" lon="0.634">
        <ele>79.6</ele>
        <time>2024-08-24T16:30:33Z</time>
      </trkpt>
      <trkpt lat="46.57991" lon="0.63406">
        <ele>80.2</ele>
        <time>2024-08-24T16:30:35Z</time>
      </trkpt>
      <trkpt lat="46.57982" lon="0.63424">
        <ele>81</ele>
        <time>2024-08-24T16:30:42Z</time>
      </trkpt>
      <trkpt lat="46.5798" lon="0.63426">
        <ele>81.2</ele>
        <time>2024-08-24T16:30:43Z</time>
      </trkpt>
      <trkpt lat="46.57966" lon="0.63441">
        <ele>82</ele>
        <time>2024-08-24T16:30:49Z</time>
      </trkpt>
      <trkpt lat="46.57961" lon="0.63445">
        <ele>82.2</ele>
        <time>2024-08-24T16:30:51Z</time>
      </trkpt>
      <trkpt lat="46.57942" lon="0.63466">
        <ele>82.4</ele>
        <time>2024-08-24T16:30:57Z</time>
      </trkpt>
      <trkpt lat="46.57919" lon="0.63495">
        <ele>82.6</ele>
        <time>2024-08-24T16:31:04Z</time>
      </trkpt>
      <trkpt lat="46.57916" lon="0.635">
        <ele>82.6</ele>
        <time>2024-08-24T16:31:05Z</time>
      </trkpt>
      <trkpt lat="46.5791" lon="0.63511">
        <ele>82.6</ele>
        <time>2024-08-24T16:31:07Z</time>
      </trkpt>
      <trkpt lat="46.579" lon="0.63536">
        <ele>83.2</ele>
        <time>2024-08-24T16:31:11Z</time>
      </trkpt>
      <trkpt lat="46.57898" lon="0.63543">
        <ele>83.2</ele>
        <time>2024-08-24T16:31:12Z</time>
      </trkpt>
      <trkpt lat="46.57876" lon="0.6361">
        <ele>84</ele>
        <time>2024-08-24T16:31:22Z</time>
      </trkpt>
      <trkpt lat="46.57861" lon="0.63654">
        <ele>84.4</ele>
        <time>2024-08-24T16:31:29Z</time>
      </trkpt>
      <trkpt lat="46.57859" lon="0.63661">
        <ele>84.6</ele>
        <time>2024-08-24T16:31:30Z</time>
      </trkpt>
      <trkpt lat="46.57841" lon="0.63706">
        <ele>85.2</ele>
        <time>2024-08-24T16:31:37Z</time>
      </trkpt>
      <trkpt lat="46.57825" lon="0.63758">
        <ele>84.4</ele>
        <time>2024-08-24T16:31:43Z</time>
      </trkpt>
      <trkpt lat="46.57811" lon="0.63834">
        <ele>83.8</ele>
        <time>2024-08-24T16:31:51Z</time>
      </trkpt>
      <trkpt lat="46.578" lon="0.63869">
        <ele>83.4</ele>
        <time>2024-08-24T16:31:55Z</time>
      </trkpt>
      <trkpt lat="46.57797" lon="0.63876">
        <ele>83.2</ele>
        <time>2024-08-24T16:31:56Z</time>
      </trkpt>
      <trkpt lat="46.57779" lon="0.63916">
        <ele>82.8</ele>
        <time>2024-08-24T16:32:02Z</time>
      </trkpt>
      <trkpt lat="46.57755" lon="0.63949">
        <ele>83.2</ele>
        <time>2024-08-24T16:32:08Z</time>
      </trkpt>
      <trkpt lat="46.57721" lon="0.63992">
        <ele>82.2</ele>
        <time>2024-08-24T16:32:15Z</time>
      </trkpt>
      <trkpt lat="46.57684" lon="0.64036">
        <ele>81.2</ele>
        <time>2024-08-24T16:32:23Z</time>
      </trkpt>
      <trkpt lat="46.57658" lon="0.64069">
        <ele>82.4</ele>
        <time>2024-08-24T16:32:30Z</time>
      </trkpt>
      <trkpt lat="46.57648" lon="0.64084">
        <ele>83.2</ele>
        <time>2024-08-24T16:32:33Z</time>
      </trkpt>
      <trkpt lat="46.57642" lon="0.64096">
        <ele>83.6</ele>
        <time>2024-08-24T16:32:35Z</time>
      </trkpt>
      <trkpt lat="46.57639" lon="0.64101">
        <ele>84</ele>
        <time>2024-08-24T16:32:36Z</time>
      </trkpt>
      <trkpt lat="46.57631" lon="0.64117">
        <ele>84.8</ele>
        <time>2024-08-24T16:32:39Z</time>
      </trkpt>
      <trkpt lat="46.57624" lon="0.64131">
        <ele>85.8</ele>
        <time>2024-08-24T16:32:42Z</time>
      </trkpt>
      <trkpt lat="46.57622" lon="0.64135">
        <ele>86.2</ele>
        <time>2024-08-24T16:32:43Z</time>
      </trkpt>
      <trkpt lat="46.57612" lon="0.6416">
        <ele>87</ele>
        <time>2024-08-24T16:32:49Z</time>
      </trkpt>
      <trkpt lat="46.5761" lon="0.64165">
        <ele>87.2</ele>
        <time>2024-08-24T16:32:50Z</time>
      </trkpt>
      <trkpt lat="46.576" lon="0.64187">
        <ele>88.2</ele>
        <time>2024-08-24T16:32:54Z</time>
      </trkpt>
      <trkpt lat="46.57594" lon="0.64198">
        <ele>88.6</ele>
        <time>2024-08-24T16:32:56Z</time>
      </trkpt>
      <trkpt lat="46.57585" lon="0.64212">
        <ele>89.2</ele>
        <time>2024-08-24T16:32:59Z</time>
      </trkpt>
      <trkpt lat="46.57572" lon="0.6423">
        <ele>89.6</ele>
        <time>2024-08-24T16:33:03Z</time>
      </trkpt>
      <trkpt lat="46.57556" lon="0.64253">
        <ele>90.2</ele>
        <time>2024-08-24T16:33:08Z</time>
      </trkpt>
      <trkpt lat="46.57549" lon="0.64262">
        <ele>90.2</ele>
        <time>2024-08-24T16:33:10Z</time>
      </trkpt>
      <trkpt lat="46.57525" lon="0.6429">
        <ele>89.8</ele>
        <time>2024-08-24T16:33:17Z</time>
      </trkpt>
      <trkpt lat="46.57505" lon="0.64308">
        <ele>89.2</ele>
        <time>2024-08-24T16:33:22Z</time>
      </trkpt>
      <trkpt lat="46.57501" lon="0.64312">
        <ele>89</ele>
        <time>2024-08-24T16:33:23Z</time>
      </trkpt>
      <trkpt lat="46.57497" lon="0.64317">
        <ele>89</ele>
        <time>2024-08-24T16:33:24Z</time>
      </trkpt>
      <trkpt lat="46.57487" lon="0.64334">
        <ele>88.4</ele>
        <time>2024-08-24T16:33:27Z</time>
      </trkpt>
      <trkpt lat="46.57484" lon="0.6434">
        <ele>88</ele>
        <time>2024-08-24T16:33:28Z</time>
      </trkpt>
      <trkpt lat="46.57469" lon="0.64373">
        <ele>87.4</ele>
        <time>2024-08-24T16:33:33Z</time>
      </trkpt>
      <trkpt lat="46.57456" lon="0.64403">
        <ele>87</ele>
        <time>2024-08-24T16:33:37Z</time>
      </trkpt>
      <trkpt lat="46.57438" lon="0.64443">
        <ele>86.6</ele>
        <time>2024-08-24T16:33:42Z</time>
      </trkpt>
      <trkpt lat="46.57424" lon="0.64473">
        <ele>85.8</ele>
        <time>2024-08-24T16:33:46Z</time>
      </trkpt>
      <trkpt lat="46.57406" lon="0.64509">
        <ele>85.4</ele>
        <time>2024-08-24T16:33:51Z</time>
      </trkpt>
      <trkpt lat="46.5738" lon="0.64546">
        <ele>86</ele>
        <time>2024-08-24T16:33:57Z</time>
      </trkpt>
      <trkpt lat="46.57368" lon="0.64562">
        <ele>85.6</ele>
        <time>2024-08-24T16:34:00Z</time>
      </trkpt>
      <trkpt lat="46.57361" lon="0.64575">
        <ele>85.6</ele>
        <time>2024-08-24T16:34:02Z</time>
      </trkpt>
      <trkpt lat="46.57357" lon="0.64583">
        <ele>85.4</ele>
        <time>2024-08-24T16:34:03Z</time>
      </trkpt>
      <trkpt lat="46.5735" lon="0.64598">
        <ele>85.2</ele>
        <time>2024-08-24T16:34:05Z</time>
      </trkpt>
      <trkpt lat="46.57339" lon="0.64611">
        <ele>84.8</ele>
        <time>2024-08-24T16:34:07Z</time>
      </trkpt>
      <trkpt lat="46.57333" lon="0.64616">
        <ele>84.4</ele>
        <time>2024-08-24T16:34:08Z</time>
      </trkpt>
      <trkpt lat="46.57312" lon="0.64629">
        <ele>83.6</ele>
        <time>2024-08-24T16:34:11Z</time>
      </trkpt>
      <trkpt lat="46.57291" lon="0.64639">
        <ele>83.2</ele>
        <time>2024-08-24T16:34:14Z</time>
      </trkpt>
      <trkpt lat="46.57257" lon="0.64654">
        <ele>82.2</ele>
        <time>2024-08-24T16:34:19Z</time>
      </trkpt>
      <trkpt lat="46.5725" lon="0.64657">
        <ele>82.2</ele>
        <time>2024-08-24T16:34:20Z</time>
      </trkpt>
      <trkpt lat="46.57217" lon="0.64676">
        <ele>81.6</ele>
        <time>2024-08-24T16:34:26Z</time>
      </trkpt>
      <trkpt lat="46.57201" lon="0.64688">
        <ele>80.8</ele>
        <time>2024-08-24T16:34:29Z</time>
      </trkpt>
      <trkpt lat="46.57185" lon="0.64702">
        <ele>80.2</ele>
        <time>2024-08-24T16:34:32Z</time>
      </trkpt>
      <trkpt lat="46.5718" lon="0.64706">
        <ele>80.2</ele>
        <time>2024-08-24T16:34:33Z</time>
      </trkpt>
      <trkpt lat="46.57157" lon="0.64717">
        <ele>80</ele>
        <time>2024-08-24T16:34:37Z</time>
      </trkpt>
      <trkpt lat="46.57145" lon="0.64723">
        <ele>79.6</ele>
        <time>2024-08-24T16:34:39Z</time>
      </trkpt>
      <trkpt lat="46.57136" lon="0.64731">
        <ele>78.6</ele>
        <time>2024-08-24T16:34:41Z</time>
      </trkpt>
      <trkpt lat="46.57131" lon="0.64736">
        <ele>78.4</ele>
        <time>2024-08-24T16:34:42Z</time>
      </trkpt>
      <trkpt lat="46.57117" lon="0.64752">
        <ele>77.2</ele>
        <time>2024-08-24T16:34:46Z</time>
      </trkpt>
      <trkpt lat="46.57114" lon="0.64755">
        <ele>77</ele>
        <time>2024-08-24T16:34:47Z</time>
      </trkpt>
      <trkpt lat="46.5711" lon="0.64756">
        <ele>77</ele>
        <time>2024-08-24T16:34:48Z</time>
      </trkpt>
      <trkpt lat="46.57097" lon="0.64758">
        <ele>76.4</ele>
        <time>2024-08-24T16:34:51Z</time>
      </trkpt>
      <trkpt lat="46.57091" lon="0.64758">
        <ele>75.8</ele>
        <time>2024-08-24T16:34:52Z</time>
      </trkpt>
      <trkpt lat="46.57072" lon="0.6476">
        <ele>74.2</ele>
        <time>2024-08-24T16:34:55Z</time>
      </trkpt>
      <trkpt lat="46.57055" lon="0.64768">
        <ele>72.2</ele>
        <time>2024-08-24T16:34:58Z</time>
      </trkpt>
      <trkpt lat="46.57043" lon="0.64776">
        <ele>70.8</ele>
        <time>2024-08-24T16:35:00Z</time>
      </trkpt>
      <trkpt lat="46.57024" lon="0.64792">
        <ele>69.8</ele>
        <time>2024-08-24T16:35:03Z</time>
      </trkpt>
      <trkpt lat="46.57017" lon="0.64798">
        <ele>68.8</ele>
        <time>2024-08-24T16:35:04Z</time>
      </trkpt>
      <trkpt lat="46.57011" lon="0.64804">
        <ele>67.6</ele>
        <time>2024-08-24T16:35:05Z</time>
      </trkpt>
      <trkpt lat="46.56997" lon="0.64818">
        <ele>66.4</ele>
        <time>2024-08-24T16:35:07Z</time>
      </trkpt>
      <trkpt lat="46.56989" lon="0.64824">
        <ele>64.8</ele>
        <time>2024-08-24T16:35:08Z</time>
      </trkpt>
      <trkpt lat="46.56968" lon="0.64843">
        <ele>64</ele>
        <time>2024-08-24T16:35:11Z</time>
      </trkpt>
      <trkpt lat="46.56964" lon="0.64846">
        <ele>63.4</ele>
        <time>2024-08-24T16:35:12Z</time>
      </trkpt>
      <trkpt lat="46.56955" lon="0.64845">
        <ele>61.6</ele>
        <time>2024-08-24T16:35:14Z</time>
      </trkpt>
      <trkpt lat="46.56949" lon="0.64847">
        <ele>60.8</ele>
        <time>2024-08-24T16:35:16Z</time>
      </trkpt>
      <trkpt lat="46.56947" lon="0.6485">
        <ele>60.6</ele>
        <time>2024-08-24T16:35:17Z</time>
      </trkpt>
      <trkpt lat="46.56943" lon="0.64867">
        <ele>60.4</ele>
        <time>2024-08-24T16:35:22Z</time>
      </trkpt>
      <trkpt lat="46.56947" lon="0.6488">
        <ele>61.6</ele>
        <time>2024-08-24T16:35:25Z</time>
      </trkpt>
      <trkpt lat="46.5695" lon="0.64883">
        <ele>62</ele>
        <time>2024-08-24T16:35:26Z</time>
      </trkpt>
      <trkpt lat="46.56952" lon="0.64885">
        <ele>62.4</ele>
        <time>2024-08-24T16:35:27Z</time>
      </trkpt>
      <trkpt lat="46.56958" lon="0.64884">
        <ele>62.8</ele>
        <time>2024-08-24T16:35:29Z</time>
      </trkpt>
      <trkpt lat="46.5696" lon="0.64884">
        <ele>63.2</ele>
        <time>2024-08-24T16:35:30Z</time>
      </trkpt>
      <trkpt lat="46.56965" lon="0.64885">
        <ele>63.6</ele>
        <time>2024-08-24T16:35:34Z</time>
      </trkpt>
      <trkpt lat="46.56966" lon="0.64887">
        <ele>63.4</ele>
        <time>2024-08-24T16:35:41Z</time>
      </trkpt>
      <trkpt lat="46.5697" lon="0.6489">
        <ele>64.2</ele>
        <time>2024-08-24T16:35:45Z</time>
      </trkpt>
      <trkpt lat="46.56972" lon="0.64894">
        <ele>65.2</ele>
        <time>2024-08-24T16:35:50Z</time>
      </trkpt>
      <trkpt lat="46.56972" lon="0.64894">
        <ele>65.8</ele>
        <time>2024-08-24T16:35:51Z</time>
      </trkpt>
      <trkpt lat="46.56973" lon="0.64897">
        <ele>65.8</ele>
        <time>2024-08-24T16:36:02Z</time>
      </trkpt>
    </trkseg>
  </trk>
</gpx>